<?xml version="1.0" encoding="UTF-8" standalone="no" ?>
<gpx xmlns="http://www.topografix.com/GPX/1/1" xmlns:xsi="http://www.w3.org/2001/XMLSchema-instance" xsi:schemaLocation="http://www.topografix.com/GPX/1/1 http://www.topografix.com/GPX/1/1/gpx.xsd" version="1.1" creator="VisuGPX - https://www.visugpx.com">
  <metadata>
    <name>Rando Vtt Gourgé 2017</name>
    <desc><![CDATA[à une température de -6°,rando très roulante.]]></desc>
  </metadata>
  <trk>
    <name><![CDATA[Rando Vtt Gourgé 2017]]></name>
    <trkseg>
      <trkpt lat="46.72855" lon="-0.16481">
        <ele>172.21</ele>
        <time>2017-01-22T07:38:32.999Z</time>
      </trkpt>
      <trkpt lat="46.72844" lon="-0.16492">
        <ele>167.44</ele>
        <time>2017-01-22T07:40:43.999Z</time>
      </trkpt>
      <trkpt lat="46.72841" lon="-0.16506">
        <ele>167.74</ele>
        <time>2017-01-22T07:41:36.999Z</time>
      </trkpt>
      <trkpt lat="46.7285" lon="-0.16513">
        <ele>167.95</ele>
        <time>2017-01-22T07:41:43.999Z</time>
      </trkpt>
      <trkpt lat="46.72858" lon="-0.16517">
        <ele>168.12</ele>
        <time>2017-01-22T07:41:48.999Z</time>
      </trkpt>
      <trkpt lat="46.7285" lon="-0.16521">
        <ele>168.24</ele>
        <time>2017-01-22T07:41:52.999Z</time>
      </trkpt>
      <trkpt lat="46.72839" lon="-0.16523">
        <ele>168.34</ele>
        <time>2017-01-22T07:41:56.999Z</time>
      </trkpt>
      <trkpt lat="46.72829" lon="-0.16527">
        <ele>168.45</ele>
        <time>2017-01-22T07:42:00.999Z</time>
      </trkpt>
      <trkpt lat="46.7282" lon="-0.16528">
        <ele>168.54</ele>
        <time>2017-01-22T07:42:04.999Z</time>
      </trkpt>
      <trkpt lat="46.7281" lon="-0.16528">
        <ele>168.58</ele>
        <time>2017-01-22T07:42:07.999Z</time>
      </trkpt>
      <trkpt lat="46.72804" lon="-0.16517">
        <ele>168.63</ele>
        <time>2017-01-22T07:42:12.999Z</time>
      </trkpt>
      <trkpt lat="46.72808" lon="-0.16505">
        <ele>168.63</ele>
        <time>2017-01-22T07:42:16.999Z</time>
      </trkpt>
      <trkpt lat="46.72812" lon="-0.16493">
        <ele>168.63</ele>
        <time>2017-01-22T07:42:19.999Z</time>
      </trkpt>
      <trkpt lat="46.72817" lon="-0.16479">
        <ele>168.56</ele>
        <time>2017-01-22T07:42:22.999Z</time>
      </trkpt>
      <trkpt lat="46.7282" lon="-0.16467">
        <ele>168.44</ele>
        <time>2017-01-22T07:42:24.999Z</time>
      </trkpt>
      <trkpt lat="46.72825" lon="-0.16452">
        <ele>168.29</ele>
        <time>2017-01-22T07:42:26.999Z</time>
      </trkpt>
      <trkpt lat="46.72827" lon="-0.16437">
        <ele>168.13</ele>
        <time>2017-01-22T07:42:28.999Z</time>
      </trkpt>
      <trkpt lat="46.72828" lon="-0.1642">
        <ele>168.04</ele>
        <time>2017-01-22T07:42:30.999Z</time>
      </trkpt>
      <trkpt lat="46.7283" lon="-0.16402">
        <ele>167.93</ele>
        <time>2017-01-22T07:42:32.999Z</time>
      </trkpt>
      <trkpt lat="46.72831" lon="-0.16383">
        <ele>167.74</ele>
        <time>2017-01-22T07:42:34.999Z</time>
      </trkpt>
      <trkpt lat="46.72833" lon="-0.16362">
        <ele>167.34</ele>
        <time>2017-01-22T07:42:36.999Z</time>
      </trkpt>
      <trkpt lat="46.72836" lon="-0.1634">
        <ele>166.87</ele>
        <time>2017-01-22T07:42:38.999Z</time>
      </trkpt>
      <trkpt lat="46.72837" lon="-0.16319">
        <ele>166.35</ele>
        <time>2017-01-22T07:42:40.999Z</time>
      </trkpt>
      <trkpt lat="46.72839" lon="-0.16297">
        <ele>165.89</ele>
        <time>2017-01-22T07:42:42.999Z</time>
      </trkpt>
      <trkpt lat="46.72841" lon="-0.16277">
        <ele>165.54</ele>
        <time>2017-01-22T07:42:44.999Z</time>
      </trkpt>
      <trkpt lat="46.72842" lon="-0.16258">
        <ele>165.26</ele>
        <time>2017-01-22T07:42:46.999Z</time>
      </trkpt>
      <trkpt lat="46.72844" lon="-0.16239">
        <ele>165.07</ele>
        <time>2017-01-22T07:42:48.999Z</time>
      </trkpt>
      <trkpt lat="46.72847" lon="-0.16222">
        <ele>164.89</ele>
        <time>2017-01-22T07:42:50.999Z</time>
      </trkpt>
      <trkpt lat="46.7285" lon="-0.16204">
        <ele>164.74</ele>
        <time>2017-01-22T07:42:52.999Z</time>
      </trkpt>
      <trkpt lat="46.72853" lon="-0.16187">
        <ele>164.63</ele>
        <time>2017-01-22T07:42:54.999Z</time>
      </trkpt>
      <trkpt lat="46.72856" lon="-0.16171">
        <ele>164.5</ele>
        <time>2017-01-22T07:42:56.999Z</time>
      </trkpt>
      <trkpt lat="46.72859" lon="-0.16154">
        <ele>164.38</ele>
        <time>2017-01-22T07:42:58.999Z</time>
      </trkpt>
      <trkpt lat="46.72862" lon="-0.16135">
        <ele>164.24</ele>
        <time>2017-01-22T07:43:00.999Z</time>
      </trkpt>
      <trkpt lat="46.72865" lon="-0.16117">
        <ele>164.2</ele>
        <time>2017-01-22T07:43:02.999Z</time>
      </trkpt>
      <trkpt lat="46.72867" lon="-0.16099">
        <ele>164.22</ele>
        <time>2017-01-22T07:43:04.999Z</time>
      </trkpt>
      <trkpt lat="46.72868" lon="-0.1608">
        <ele>164.17</ele>
        <time>2017-01-22T07:43:06.999Z</time>
      </trkpt>
      <trkpt lat="46.7287" lon="-0.16061">
        <ele>164.02</ele>
        <time>2017-01-22T07:43:08.999Z</time>
      </trkpt>
      <trkpt lat="46.72872" lon="-0.16042">
        <ele>163.88</ele>
        <time>2017-01-22T07:43:10.999Z</time>
      </trkpt>
      <trkpt lat="46.72874" lon="-0.16023">
        <ele>163.8</ele>
        <time>2017-01-22T07:43:12.999Z</time>
      </trkpt>
      <trkpt lat="46.72875" lon="-0.16004">
        <ele>163.71</ele>
        <time>2017-01-22T07:43:14.999Z</time>
      </trkpt>
      <trkpt lat="46.72876" lon="-0.15985">
        <ele>163.54</ele>
        <time>2017-01-22T07:43:16.999Z</time>
      </trkpt>
      <trkpt lat="46.72878" lon="-0.15967">
        <ele>163.39</ele>
        <time>2017-01-22T07:43:18.999Z</time>
      </trkpt>
      <trkpt lat="46.72879" lon="-0.15949">
        <ele>163.16</ele>
        <time>2017-01-22T07:43:20.999Z</time>
      </trkpt>
      <trkpt lat="46.7288" lon="-0.1593">
        <ele>162.9</ele>
        <time>2017-01-22T07:43:22.999Z</time>
      </trkpt>
      <trkpt lat="46.72881" lon="-0.15912">
        <ele>162.69</ele>
        <time>2017-01-22T07:43:24.999Z</time>
      </trkpt>
      <trkpt lat="46.72883" lon="-0.15895">
        <ele>162.57</ele>
        <time>2017-01-22T07:43:26.999Z</time>
      </trkpt>
      <trkpt lat="46.72886" lon="-0.15878">
        <ele>162.43</ele>
        <time>2017-01-22T07:43:28.999Z</time>
      </trkpt>
      <trkpt lat="46.72887" lon="-0.15862">
        <ele>162.33</ele>
        <time>2017-01-22T07:43:30.999Z</time>
      </trkpt>
      <trkpt lat="46.72888" lon="-0.15847">
        <ele>162.16</ele>
        <time>2017-01-22T07:43:32.999Z</time>
      </trkpt>
      <trkpt lat="46.72888" lon="-0.15832">
        <ele>161.98</ele>
        <time>2017-01-22T07:43:34.999Z</time>
      </trkpt>
      <trkpt lat="46.7289" lon="-0.15818">
        <ele>161.75</ele>
        <time>2017-01-22T07:43:36.999Z</time>
      </trkpt>
      <trkpt lat="46.72894" lon="-0.15803">
        <ele>161.45</ele>
        <time>2017-01-22T07:43:38.999Z</time>
      </trkpt>
      <trkpt lat="46.72897" lon="-0.15785">
        <ele>161.11</ele>
        <time>2017-01-22T07:43:40.999Z</time>
      </trkpt>
      <trkpt lat="46.729" lon="-0.15766">
        <ele>160.68</ele>
        <time>2017-01-22T07:43:42.999Z</time>
      </trkpt>
      <trkpt lat="46.72905" lon="-0.15747">
        <ele>160.07</ele>
        <time>2017-01-22T07:43:44.999Z</time>
      </trkpt>
      <trkpt lat="46.7291" lon="-0.15727">
        <ele>159.36</ele>
        <time>2017-01-22T07:43:46.999Z</time>
      </trkpt>
      <trkpt lat="46.72916" lon="-0.15707">
        <ele>158.67</ele>
        <time>2017-01-22T07:43:48.999Z</time>
      </trkpt>
      <trkpt lat="46.72922" lon="-0.15689">
        <ele>158</ele>
        <time>2017-01-22T07:43:50.999Z</time>
      </trkpt>
      <trkpt lat="46.72929" lon="-0.15671">
        <ele>157.43</ele>
        <time>2017-01-22T07:43:52.999Z</time>
      </trkpt>
      <trkpt lat="46.72937" lon="-0.15653">
        <ele>156.91</ele>
        <time>2017-01-22T07:43:54.999Z</time>
      </trkpt>
      <trkpt lat="46.72944" lon="-0.15635">
        <ele>156.48</ele>
        <time>2017-01-22T07:43:56.999Z</time>
      </trkpt>
      <trkpt lat="46.72949" lon="-0.15619">
        <ele>156.05</ele>
        <time>2017-01-22T07:43:58.999Z</time>
      </trkpt>
      <trkpt lat="46.72955" lon="-0.15604">
        <ele>155.64</ele>
        <time>2017-01-22T07:44:00.999Z</time>
      </trkpt>
      <trkpt lat="46.72961" lon="-0.1559">
        <ele>155.43</ele>
        <time>2017-01-22T07:44:02.999Z</time>
      </trkpt>
      <trkpt lat="46.72968" lon="-0.15576">
        <ele>155.26</ele>
        <time>2017-01-22T07:44:04.999Z</time>
      </trkpt>
      <trkpt lat="46.72974" lon="-0.15562">
        <ele>155.08</ele>
        <time>2017-01-22T07:44:06.999Z</time>
      </trkpt>
      <trkpt lat="46.7298" lon="-0.15548">
        <ele>154.77</ele>
        <time>2017-01-22T07:44:08.999Z</time>
      </trkpt>
      <trkpt lat="46.72986" lon="-0.15535">
        <ele>154.4</ele>
        <time>2017-01-22T07:44:10.999Z</time>
      </trkpt>
      <trkpt lat="46.72991" lon="-0.15523">
        <ele>154.12</ele>
        <time>2017-01-22T07:44:12.999Z</time>
      </trkpt>
      <trkpt lat="46.72997" lon="-0.15507">
        <ele>153.72</ele>
        <time>2017-01-22T07:44:15.999Z</time>
      </trkpt>
      <trkpt lat="46.72996" lon="-0.15491">
        <ele>153.48</ele>
        <time>2017-01-22T07:44:18.999Z</time>
      </trkpt>
      <trkpt lat="46.72988" lon="-0.15483">
        <ele>153.08</ele>
        <time>2017-01-22T07:44:20.999Z</time>
      </trkpt>
      <trkpt lat="46.72978" lon="-0.1548">
        <ele>152.66</ele>
        <time>2017-01-22T07:44:22.999Z</time>
      </trkpt>
      <trkpt lat="46.72967" lon="-0.15478">
        <ele>152.26</ele>
        <time>2017-01-22T07:44:24.999Z</time>
      </trkpt>
      <trkpt lat="46.72957" lon="-0.15476">
        <ele>151.85</ele>
        <time>2017-01-22T07:44:26.999Z</time>
      </trkpt>
      <trkpt lat="46.72945" lon="-0.15472">
        <ele>151.48</ele>
        <time>2017-01-22T07:44:28.999Z</time>
      </trkpt>
      <trkpt lat="46.72936" lon="-0.15466">
        <ele>151.22</ele>
        <time>2017-01-22T07:44:30.999Z</time>
      </trkpt>
      <trkpt lat="46.72928" lon="-0.15458">
        <ele>151.02</ele>
        <time>2017-01-22T07:44:32.999Z</time>
      </trkpt>
      <trkpt lat="46.72919" lon="-0.15449">
        <ele>150.79</ele>
        <time>2017-01-22T07:44:34.999Z</time>
      </trkpt>
      <trkpt lat="46.72911" lon="-0.15439">
        <ele>150.57</ele>
        <time>2017-01-22T07:44:36.999Z</time>
      </trkpt>
      <trkpt lat="46.72902" lon="-0.1543">
        <ele>150.31</ele>
        <time>2017-01-22T07:44:38.999Z</time>
      </trkpt>
      <trkpt lat="46.72894" lon="-0.15421">
        <ele>149.94</ele>
        <time>2017-01-22T07:44:40.999Z</time>
      </trkpt>
      <trkpt lat="46.72886" lon="-0.15412">
        <ele>149.58</ele>
        <time>2017-01-22T07:44:42.999Z</time>
      </trkpt>
      <trkpt lat="46.72876" lon="-0.15403">
        <ele>149.3</ele>
        <time>2017-01-22T07:44:44.999Z</time>
      </trkpt>
      <trkpt lat="46.72867" lon="-0.15394">
        <ele>149.1</ele>
        <time>2017-01-22T07:44:46.999Z</time>
      </trkpt>
      <trkpt lat="46.7286" lon="-0.15384">
        <ele>148.91</ele>
        <time>2017-01-22T07:44:48.999Z</time>
      </trkpt>
      <trkpt lat="46.72852" lon="-0.15374">
        <ele>148.73</ele>
        <time>2017-01-22T07:44:50.999Z</time>
      </trkpt>
      <trkpt lat="46.72844" lon="-0.15367">
        <ele>148.54</ele>
        <time>2017-01-22T07:44:52.999Z</time>
      </trkpt>
      <trkpt lat="46.72835" lon="-0.15359">
        <ele>148.34</ele>
        <time>2017-01-22T07:44:54.999Z</time>
      </trkpt>
      <trkpt lat="46.72825" lon="-0.15354">
        <ele>148.17</ele>
        <time>2017-01-22T07:44:56.999Z</time>
      </trkpt>
      <trkpt lat="46.72813" lon="-0.15352">
        <ele>147.98</ele>
        <time>2017-01-22T07:44:58.999Z</time>
      </trkpt>
      <trkpt lat="46.72801" lon="-0.15352">
        <ele>147.91</ele>
        <time>2017-01-22T07:45:00.999Z</time>
      </trkpt>
      <trkpt lat="46.7279" lon="-0.15353">
        <ele>147.79</ele>
        <time>2017-01-22T07:45:02.999Z</time>
      </trkpt>
      <trkpt lat="46.7278" lon="-0.15355">
        <ele>147.65</ele>
        <time>2017-01-22T07:45:04.999Z</time>
      </trkpt>
      <trkpt lat="46.72768" lon="-0.15355">
        <ele>147.58</ele>
        <time>2017-01-22T07:45:06.999Z</time>
      </trkpt>
      <trkpt lat="46.72757" lon="-0.15354">
        <ele>147.5</ele>
        <time>2017-01-22T07:45:08.999Z</time>
      </trkpt>
      <trkpt lat="46.72744" lon="-0.15352">
        <ele>147.28</ele>
        <time>2017-01-22T07:45:10.999Z</time>
      </trkpt>
      <trkpt lat="46.72733" lon="-0.1535">
        <ele>147.02</ele>
        <time>2017-01-22T07:45:12.999Z</time>
      </trkpt>
      <trkpt lat="46.72722" lon="-0.15347">
        <ele>146.77</ele>
        <time>2017-01-22T07:45:14.999Z</time>
      </trkpt>
      <trkpt lat="46.7271" lon="-0.15345">
        <ele>146.54</ele>
        <time>2017-01-22T07:45:16.999Z</time>
      </trkpt>
      <trkpt lat="46.72699" lon="-0.15343">
        <ele>146.36</ele>
        <time>2017-01-22T07:45:18.999Z</time>
      </trkpt>
      <trkpt lat="46.72687" lon="-0.15341">
        <ele>146.2</ele>
        <time>2017-01-22T07:45:20.999Z</time>
      </trkpt>
      <trkpt lat="46.72676" lon="-0.15339">
        <ele>146.08</ele>
        <time>2017-01-22T07:45:22.999Z</time>
      </trkpt>
      <trkpt lat="46.72664" lon="-0.15337">
        <ele>145.95</ele>
        <time>2017-01-22T07:45:24.999Z</time>
      </trkpt>
      <trkpt lat="46.72653" lon="-0.15336">
        <ele>145.8</ele>
        <time>2017-01-22T07:45:26.999Z</time>
      </trkpt>
      <trkpt lat="46.72642" lon="-0.15334">
        <ele>145.64</ele>
        <time>2017-01-22T07:45:28.999Z</time>
      </trkpt>
      <trkpt lat="46.7263" lon="-0.15333">
        <ele>145.54</ele>
        <time>2017-01-22T07:45:30.999Z</time>
      </trkpt>
      <trkpt lat="46.72619" lon="-0.15332">
        <ele>145.43</ele>
        <time>2017-01-22T07:45:32.999Z</time>
      </trkpt>
      <trkpt lat="46.72607" lon="-0.15329">
        <ele>145.34</ele>
        <time>2017-01-22T07:45:34.999Z</time>
      </trkpt>
      <trkpt lat="46.72597" lon="-0.15326">
        <ele>145.28</ele>
        <time>2017-01-22T07:45:36.999Z</time>
      </trkpt>
      <trkpt lat="46.72586" lon="-0.15323">
        <ele>145.26</ele>
        <time>2017-01-22T07:45:38.999Z</time>
      </trkpt>
      <trkpt lat="46.72575" lon="-0.15319">
        <ele>145.19</ele>
        <time>2017-01-22T07:45:40.999Z</time>
      </trkpt>
      <trkpt lat="46.72564" lon="-0.15313">
        <ele>145.09</ele>
        <time>2017-01-22T07:45:42.999Z</time>
      </trkpt>
      <trkpt lat="46.72553" lon="-0.15307">
        <ele>145</ele>
        <time>2017-01-22T07:45:44.999Z</time>
      </trkpt>
      <trkpt lat="46.72543" lon="-0.15299">
        <ele>144.96</ele>
        <time>2017-01-22T07:45:46.999Z</time>
      </trkpt>
      <trkpt lat="46.72533" lon="-0.1529">
        <ele>144.9</ele>
        <time>2017-01-22T07:45:48.999Z</time>
      </trkpt>
      <trkpt lat="46.72523" lon="-0.15282">
        <ele>144.81</ele>
        <time>2017-01-22T07:45:50.999Z</time>
      </trkpt>
      <trkpt lat="46.72513" lon="-0.15272">
        <ele>144.68</ele>
        <time>2017-01-22T07:45:52.999Z</time>
      </trkpt>
      <trkpt lat="46.72504" lon="-0.15263">
        <ele>144.54</ele>
        <time>2017-01-22T07:45:54.999Z</time>
      </trkpt>
      <trkpt lat="46.72495" lon="-0.15255">
        <ele>144.42</ele>
        <time>2017-01-22T07:45:56.999Z</time>
      </trkpt>
      <trkpt lat="46.72486" lon="-0.15246">
        <ele>144.33</ele>
        <time>2017-01-22T07:45:58.999Z</time>
      </trkpt>
      <trkpt lat="46.72477" lon="-0.15238">
        <ele>144.27</ele>
        <time>2017-01-22T07:46:00.999Z</time>
      </trkpt>
      <trkpt lat="46.72468" lon="-0.15229">
        <ele>144.26</ele>
        <time>2017-01-22T07:46:02.999Z</time>
      </trkpt>
      <trkpt lat="46.72459" lon="-0.15219">
        <ele>144.23</ele>
        <time>2017-01-22T07:46:04.999Z</time>
      </trkpt>
      <trkpt lat="46.72451" lon="-0.1521">
        <ele>144.22</ele>
        <time>2017-01-22T07:46:06.999Z</time>
      </trkpt>
      <trkpt lat="46.72443" lon="-0.152">
        <ele>144.21</ele>
        <time>2017-01-22T07:46:08.999Z</time>
      </trkpt>
      <trkpt lat="46.72435" lon="-0.1519">
        <ele>144.21</ele>
        <time>2017-01-22T07:46:10.999Z</time>
      </trkpt>
      <trkpt lat="46.72426" lon="-0.1518">
        <ele>144.19</ele>
        <time>2017-01-22T07:46:12.999Z</time>
      </trkpt>
      <trkpt lat="46.72418" lon="-0.15169">
        <ele>144.16</ele>
        <time>2017-01-22T07:46:14.999Z</time>
      </trkpt>
      <trkpt lat="46.7241" lon="-0.15159">
        <ele>144.13</ele>
        <time>2017-01-22T07:46:16.999Z</time>
      </trkpt>
      <trkpt lat="46.72403" lon="-0.15149">
        <ele>144.09</ele>
        <time>2017-01-22T07:46:18.999Z</time>
      </trkpt>
      <trkpt lat="46.72395" lon="-0.15138">
        <ele>144.06</ele>
        <time>2017-01-22T07:46:20.999Z</time>
      </trkpt>
      <trkpt lat="46.72387" lon="-0.15127">
        <ele>144.01</ele>
        <time>2017-01-22T07:46:22.999Z</time>
      </trkpt>
      <trkpt lat="46.72379" lon="-0.15117">
        <ele>143.98</ele>
        <time>2017-01-22T07:46:24.999Z</time>
      </trkpt>
      <trkpt lat="46.72371" lon="-0.15106">
        <ele>143.95</ele>
        <time>2017-01-22T07:46:26.999Z</time>
      </trkpt>
      <trkpt lat="46.72364" lon="-0.15096">
        <ele>143.85</ele>
        <time>2017-01-22T07:46:28.999Z</time>
      </trkpt>
      <trkpt lat="46.72356" lon="-0.15086">
        <ele>143.77</ele>
        <time>2017-01-22T07:46:30.999Z</time>
      </trkpt>
      <trkpt lat="46.72348" lon="-0.15076">
        <ele>143.68</ele>
        <time>2017-01-22T07:46:32.999Z</time>
      </trkpt>
      <trkpt lat="46.7234" lon="-0.15066">
        <ele>143.59</ele>
        <time>2017-01-22T07:46:34.999Z</time>
      </trkpt>
      <trkpt lat="46.72332" lon="-0.15055">
        <ele>143.48</ele>
        <time>2017-01-22T07:46:36.999Z</time>
      </trkpt>
      <trkpt lat="46.72325" lon="-0.15044">
        <ele>143.41</ele>
        <time>2017-01-22T07:46:38.999Z</time>
      </trkpt>
      <trkpt lat="46.72317" lon="-0.15033">
        <ele>143.39</ele>
        <time>2017-01-22T07:46:40.999Z</time>
      </trkpt>
      <trkpt lat="46.7231" lon="-0.15021">
        <ele>143.43</ele>
        <time>2017-01-22T07:46:42.999Z</time>
      </trkpt>
      <trkpt lat="46.72305" lon="-0.15007">
        <ele>143.45</ele>
        <time>2017-01-22T07:46:44.999Z</time>
      </trkpt>
      <trkpt lat="46.723" lon="-0.14993">
        <ele>143.5</ele>
        <time>2017-01-22T07:46:46.999Z</time>
      </trkpt>
      <trkpt lat="46.72297" lon="-0.14979">
        <ele>143.53</ele>
        <time>2017-01-22T07:46:48.999Z</time>
      </trkpt>
      <trkpt lat="46.72293" lon="-0.14966">
        <ele>143.53</ele>
        <time>2017-01-22T07:46:50.999Z</time>
      </trkpt>
      <trkpt lat="46.7229" lon="-0.14951">
        <ele>143.53</ele>
        <time>2017-01-22T07:46:52.999Z</time>
      </trkpt>
      <trkpt lat="46.72287" lon="-0.14937">
        <ele>143.53</ele>
        <time>2017-01-22T07:46:54.999Z</time>
      </trkpt>
      <trkpt lat="46.72284" lon="-0.14923">
        <ele>143.53</ele>
        <time>2017-01-22T07:46:56.999Z</time>
      </trkpt>
      <trkpt lat="46.7228" lon="-0.1491">
        <ele>143.54</ele>
        <time>2017-01-22T07:46:58.999Z</time>
      </trkpt>
      <trkpt lat="46.72275" lon="-0.14895">
        <ele>143.55</ele>
        <time>2017-01-22T07:47:01.999Z</time>
      </trkpt>
      <trkpt lat="46.72281" lon="-0.14884">
        <ele>143.55</ele>
        <time>2017-01-22T07:47:05.999Z</time>
      </trkpt>
      <trkpt lat="46.7229" lon="-0.14877">
        <ele>143.51</ele>
        <time>2017-01-22T07:47:08.999Z</time>
      </trkpt>
      <trkpt lat="46.72301" lon="-0.1487">
        <ele>143.39</ele>
        <time>2017-01-22T07:47:11.999Z</time>
      </trkpt>
      <trkpt lat="46.72314" lon="-0.14863">
        <ele>143.25</ele>
        <time>2017-01-22T07:47:14.999Z</time>
      </trkpt>
      <trkpt lat="46.72323" lon="-0.14857">
        <ele>143.17</ele>
        <time>2017-01-22T07:47:16.999Z</time>
      </trkpt>
      <trkpt lat="46.72333" lon="-0.14851">
        <ele>143.13</ele>
        <time>2017-01-22T07:47:18.999Z</time>
      </trkpt>
      <trkpt lat="46.72342" lon="-0.14846">
        <ele>143.1</ele>
        <time>2017-01-22T07:47:20.999Z</time>
      </trkpt>
      <trkpt lat="46.72351" lon="-0.14841">
        <ele>143.1</ele>
        <time>2017-01-22T07:47:22.999Z</time>
      </trkpt>
      <trkpt lat="46.7236" lon="-0.14835">
        <ele>142.91</ele>
        <time>2017-01-22T07:47:51.999Z</time>
      </trkpt>
      <trkpt lat="46.7237" lon="-0.14829">
        <ele>142.78</ele>
        <time>2017-01-22T07:47:56.999Z</time>
      </trkpt>
      <trkpt lat="46.72382" lon="-0.14824">
        <ele>142.69</ele>
        <time>2017-01-22T07:48:00.999Z</time>
      </trkpt>
      <trkpt lat="46.72394" lon="-0.14817">
        <ele>142.62</ele>
        <time>2017-01-22T07:48:03.999Z</time>
      </trkpt>
      <trkpt lat="46.72406" lon="-0.14811">
        <ele>141.78</ele>
        <time>2017-01-22T07:48:06.999Z</time>
      </trkpt>
      <trkpt lat="46.72415" lon="-0.14808">
        <ele>141.31</ele>
        <time>2017-01-22T07:48:08.999Z</time>
      </trkpt>
      <trkpt lat="46.72428" lon="-0.14804">
        <ele>140.75</ele>
        <time>2017-01-22T07:48:11.999Z</time>
      </trkpt>
      <trkpt lat="46.72437" lon="-0.14801">
        <ele>140.48</ele>
        <time>2017-01-22T07:48:13.999Z</time>
      </trkpt>
      <trkpt lat="46.72449" lon="-0.14796">
        <ele>140.13</ele>
        <time>2017-01-22T07:48:16.999Z</time>
      </trkpt>
      <trkpt lat="46.72458" lon="-0.14791">
        <ele>139.88</ele>
        <time>2017-01-22T07:48:18.999Z</time>
      </trkpt>
      <trkpt lat="46.72465" lon="-0.14784">
        <ele>139.65</ele>
        <time>2017-01-22T07:48:20.999Z</time>
      </trkpt>
      <trkpt lat="46.72472" lon="-0.14774">
        <ele>139.48</ele>
        <time>2017-01-22T07:48:22.999Z</time>
      </trkpt>
      <trkpt lat="46.72479" lon="-0.14764">
        <ele>139.28</ele>
        <time>2017-01-22T07:48:24.999Z</time>
      </trkpt>
      <trkpt lat="46.72486" lon="-0.14754">
        <ele>139.1</ele>
        <time>2017-01-22T07:48:26.999Z</time>
      </trkpt>
      <trkpt lat="46.72495" lon="-0.14741">
        <ele>138.91</ele>
        <time>2017-01-22T07:48:29.999Z</time>
      </trkpt>
      <trkpt lat="46.72504" lon="-0.14727">
        <ele>138.7</ele>
        <time>2017-01-22T07:48:32.999Z</time>
      </trkpt>
      <trkpt lat="46.72512" lon="-0.14717">
        <ele>138.63</ele>
        <time>2017-01-22T07:48:34.999Z</time>
      </trkpt>
      <trkpt lat="46.7252" lon="-0.14706">
        <ele>138.65</ele>
        <time>2017-01-22T07:48:36.999Z</time>
      </trkpt>
      <trkpt lat="46.72528" lon="-0.14696">
        <ele>138.71</ele>
        <time>2017-01-22T07:48:38.999Z</time>
      </trkpt>
      <trkpt lat="46.72535" lon="-0.14685">
        <ele>138.79</ele>
        <time>2017-01-22T07:48:40.999Z</time>
      </trkpt>
      <trkpt lat="46.72543" lon="-0.14676">
        <ele>138.84</ele>
        <time>2017-01-22T07:48:42.999Z</time>
      </trkpt>
      <trkpt lat="46.7255" lon="-0.14666">
        <ele>138.88</ele>
        <time>2017-01-22T07:48:44.999Z</time>
      </trkpt>
      <trkpt lat="46.72557" lon="-0.14657">
        <ele>138.9</ele>
        <time>2017-01-22T07:48:46.999Z</time>
      </trkpt>
      <trkpt lat="46.72565" lon="-0.14648">
        <ele>138.92</ele>
        <time>2017-01-22T07:48:48.999Z</time>
      </trkpt>
      <trkpt lat="46.72572" lon="-0.14639">
        <ele>138.95</ele>
        <time>2017-01-22T07:48:50.999Z</time>
      </trkpt>
      <trkpt lat="46.7258" lon="-0.14631">
        <ele>138.98</ele>
        <time>2017-01-22T07:48:52.999Z</time>
      </trkpt>
      <trkpt lat="46.72588" lon="-0.14621">
        <ele>139.02</ele>
        <time>2017-01-22T07:48:54.999Z</time>
      </trkpt>
      <trkpt lat="46.72595" lon="-0.14612">
        <ele>139.07</ele>
        <time>2017-01-22T07:48:56.999Z</time>
      </trkpt>
      <trkpt lat="46.72603" lon="-0.14599">
        <ele>139.12</ele>
        <time>2017-01-22T07:48:59.999Z</time>
      </trkpt>
      <trkpt lat="46.72611" lon="-0.14586">
        <ele>139.24</ele>
        <time>2017-01-22T07:49:02.999Z</time>
      </trkpt>
      <trkpt lat="46.72618" lon="-0.14575">
        <ele>139.27</ele>
        <time>2017-01-22T07:49:05.999Z</time>
      </trkpt>
      <trkpt lat="46.72625" lon="-0.14563">
        <ele>139.3</ele>
        <time>2017-01-22T07:49:08.999Z</time>
      </trkpt>
      <trkpt lat="46.72631" lon="-0.14554">
        <ele>139.33</ele>
        <time>2017-01-22T07:49:11.999Z</time>
      </trkpt>
      <trkpt lat="46.72639" lon="-0.14541">
        <ele>139.34</ele>
        <time>2017-01-22T07:49:15.999Z</time>
      </trkpt>
      <trkpt lat="46.72645" lon="-0.1453">
        <ele>139.34</ele>
        <time>2017-01-22T07:49:18.999Z</time>
      </trkpt>
      <trkpt lat="46.72653" lon="-0.14518">
        <ele>139.3</ele>
        <time>2017-01-22T07:49:22.999Z</time>
      </trkpt>
      <trkpt lat="46.7266" lon="-0.14505">
        <ele>139.19</ele>
        <time>2017-01-22T07:49:26.999Z</time>
      </trkpt>
      <trkpt lat="46.72667" lon="-0.14494">
        <ele>139.08</ele>
        <time>2017-01-22T07:49:30.999Z</time>
      </trkpt>
      <trkpt lat="46.72673" lon="-0.14485">
        <ele>139</ele>
        <time>2017-01-22T07:49:33.999Z</time>
      </trkpt>
      <trkpt lat="46.72681" lon="-0.14473">
        <ele>138.92</ele>
        <time>2017-01-22T07:49:37.999Z</time>
      </trkpt>
      <trkpt lat="46.72689" lon="-0.14461">
        <ele>138.88</ele>
        <time>2017-01-22T07:49:41.999Z</time>
      </trkpt>
      <trkpt lat="46.72696" lon="-0.1445">
        <ele>138.88</ele>
        <time>2017-01-22T07:49:45.999Z</time>
      </trkpt>
      <trkpt lat="46.72704" lon="-0.1444">
        <ele>138.93</ele>
        <time>2017-01-22T07:49:49.999Z</time>
      </trkpt>
      <trkpt lat="46.72712" lon="-0.14429">
        <ele>139.04</ele>
        <time>2017-01-22T07:49:54.999Z</time>
      </trkpt>
      <trkpt lat="46.72719" lon="-0.14417">
        <ele>139.21</ele>
        <time>2017-01-22T07:49:59.999Z</time>
      </trkpt>
      <trkpt lat="46.72726" lon="-0.14406">
        <ele>139.5</ele>
        <time>2017-01-22T07:50:05.999Z</time>
      </trkpt>
      <trkpt lat="46.72731" lon="-0.14395">
        <ele>139.81</ele>
        <time>2017-01-22T07:50:10.999Z</time>
      </trkpt>
      <trkpt lat="46.72734" lon="-0.14381">
        <ele>140.08</ele>
        <time>2017-01-22T07:50:14.999Z</time>
      </trkpt>
      <trkpt lat="46.72736" lon="-0.14369">
        <ele>140.35</ele>
        <time>2017-01-22T07:50:18.999Z</time>
      </trkpt>
      <trkpt lat="46.7274" lon="-0.14356">
        <ele>140.62</ele>
        <time>2017-01-22T07:50:22.999Z</time>
      </trkpt>
      <trkpt lat="46.72744" lon="-0.14344">
        <ele>140.96</ele>
        <time>2017-01-22T07:50:27.999Z</time>
      </trkpt>
      <trkpt lat="46.72749" lon="-0.14332">
        <ele>142.2</ele>
        <time>2017-01-22T07:51:10.999Z</time>
      </trkpt>
      <trkpt lat="46.72753" lon="-0.14319">
        <ele>144.39</ele>
        <time>2017-01-22T07:51:35.999Z</time>
      </trkpt>
      <trkpt lat="46.72755" lon="-0.14305">
        <ele>145.08</ele>
        <time>2017-01-22T07:51:38.999Z</time>
      </trkpt>
      <trkpt lat="46.72759" lon="-0.1429">
        <ele>145.72</ele>
        <time>2017-01-22T07:51:41.999Z</time>
      </trkpt>
      <trkpt lat="46.72762" lon="-0.14277">
        <ele>146.31</ele>
        <time>2017-01-22T07:51:44.999Z</time>
      </trkpt>
      <trkpt lat="46.72764" lon="-0.14262">
        <ele>146.87</ele>
        <time>2017-01-22T07:51:47.999Z</time>
      </trkpt>
      <trkpt lat="46.72767" lon="-0.14249">
        <ele>147.39</ele>
        <time>2017-01-22T07:51:50.999Z</time>
      </trkpt>
      <trkpt lat="46.7277" lon="-0.14233">
        <ele>148.2</ele>
        <time>2017-01-22T07:51:55.999Z</time>
      </trkpt>
      <trkpt lat="46.72773" lon="-0.1422">
        <ele>148.83</ele>
        <time>2017-01-22T07:51:59.999Z</time>
      </trkpt>
      <trkpt lat="46.72775" lon="-0.14207">
        <ele>149.44</ele>
        <time>2017-01-22T07:52:03.999Z</time>
      </trkpt>
      <trkpt lat="46.7278" lon="-0.14194">
        <ele>149.88</ele>
        <time>2017-01-22T07:52:06.999Z</time>
      </trkpt>
      <trkpt lat="46.72784" lon="-0.14179">
        <ele>150.43</ele>
        <time>2017-01-22T07:52:10.999Z</time>
      </trkpt>
      <trkpt lat="46.72788" lon="-0.14164">
        <ele>150.82</ele>
        <time>2017-01-22T07:52:13.999Z</time>
      </trkpt>
      <trkpt lat="46.72793" lon="-0.14151">
        <ele>151.2</ele>
        <time>2017-01-22T07:52:16.999Z</time>
      </trkpt>
      <trkpt lat="46.72797" lon="-0.14138">
        <ele>151.57</ele>
        <time>2017-01-22T07:52:19.999Z</time>
      </trkpt>
      <trkpt lat="46.72802" lon="-0.14123">
        <ele>152.06</ele>
        <time>2017-01-22T07:52:23.999Z</time>
      </trkpt>
      <trkpt lat="46.72808" lon="-0.14109">
        <ele>152.55</ele>
        <time>2017-01-22T07:52:27.999Z</time>
      </trkpt>
      <trkpt lat="46.72814" lon="-0.14096">
        <ele>153.03</ele>
        <time>2017-01-22T07:52:31.999Z</time>
      </trkpt>
      <trkpt lat="46.72817" lon="-0.14079">
        <ele>153.54</ele>
        <time>2017-01-22T07:52:35.999Z</time>
      </trkpt>
      <trkpt lat="46.72813" lon="-0.14067">
        <ele>153.94</ele>
        <time>2017-01-22T07:52:38.999Z</time>
      </trkpt>
      <trkpt lat="46.72808" lon="-0.14053">
        <ele>154.49</ele>
        <time>2017-01-22T07:52:42.999Z</time>
      </trkpt>
      <trkpt lat="46.72802" lon="-0.14039">
        <ele>155.04</ele>
        <time>2017-01-22T07:52:46.999Z</time>
      </trkpt>
      <trkpt lat="46.72796" lon="-0.14029">
        <ele>155.46</ele>
        <time>2017-01-22T07:52:49.999Z</time>
      </trkpt>
      <trkpt lat="46.72789" lon="-0.14016">
        <ele>156.03</ele>
        <time>2017-01-22T07:52:53.999Z</time>
      </trkpt>
      <trkpt lat="46.72784" lon="-0.14005">
        <ele>156.47</ele>
        <time>2017-01-22T07:52:56.999Z</time>
      </trkpt>
      <trkpt lat="46.72777" lon="-0.13993">
        <ele>156.91</ele>
        <time>2017-01-22T07:52:59.999Z</time>
      </trkpt>
      <trkpt lat="46.72771" lon="-0.13981">
        <ele>157.36</ele>
        <time>2017-01-22T07:53:02.999Z</time>
      </trkpt>
      <trkpt lat="46.72765" lon="-0.1397">
        <ele>157.82</ele>
        <time>2017-01-22T07:53:05.999Z</time>
      </trkpt>
      <trkpt lat="46.72759" lon="-0.1396">
        <ele>158.3</ele>
        <time>2017-01-22T07:53:08.999Z</time>
      </trkpt>
      <trkpt lat="46.72752" lon="-0.13948">
        <ele>158.95</ele>
        <time>2017-01-22T07:53:12.999Z</time>
      </trkpt>
      <trkpt lat="46.72744" lon="-0.13936">
        <ele>159.63</ele>
        <time>2017-01-22T07:53:16.999Z</time>
      </trkpt>
      <trkpt lat="46.72737" lon="-0.13926">
        <ele>160.14</ele>
        <time>2017-01-22T07:53:19.999Z</time>
      </trkpt>
      <trkpt lat="46.7273" lon="-0.13913">
        <ele>160.83</ele>
        <time>2017-01-22T07:53:23.999Z</time>
      </trkpt>
      <trkpt lat="46.72725" lon="-0.13902">
        <ele>161.36</ele>
        <time>2017-01-22T07:53:26.999Z</time>
      </trkpt>
      <trkpt lat="46.7272" lon="-0.13888">
        <ele>162.08</ele>
        <time>2017-01-22T07:53:30.999Z</time>
      </trkpt>
      <trkpt lat="46.72716" lon="-0.13872">
        <ele>162.63</ele>
        <time>2017-01-22T07:53:33.999Z</time>
      </trkpt>
      <trkpt lat="46.72714" lon="-0.13858">
        <ele>163.2</ele>
        <time>2017-01-22T07:53:36.999Z</time>
      </trkpt>
      <trkpt lat="46.7271" lon="-0.13843">
        <ele>163.77</ele>
        <time>2017-01-22T07:53:39.999Z</time>
      </trkpt>
      <trkpt lat="46.72707" lon="-0.13826">
        <ele>167.37</ele>
        <time>2017-01-22T07:53:42.999Z</time>
      </trkpt>
      <trkpt lat="46.72702" lon="-0.13808">
        <ele>170.57</ele>
        <time>2017-01-22T07:53:45.999Z</time>
      </trkpt>
      <trkpt lat="46.727" lon="-0.13795">
        <ele>171.9</ele>
        <time>2017-01-22T07:53:47.999Z</time>
      </trkpt>
      <trkpt lat="46.72696" lon="-0.13777">
        <ele>173.18</ele>
        <time>2017-01-22T07:53:50.999Z</time>
      </trkpt>
      <trkpt lat="46.72692" lon="-0.13764">
        <ele>173.74</ele>
        <time>2017-01-22T07:53:52.999Z</time>
      </trkpt>
      <trkpt lat="46.72689" lon="-0.1375">
        <ele>174.15</ele>
        <time>2017-01-22T07:53:54.999Z</time>
      </trkpt>
      <trkpt lat="46.72685" lon="-0.13735">
        <ele>174.47</ele>
        <time>2017-01-22T07:53:56.999Z</time>
      </trkpt>
      <trkpt lat="46.72681" lon="-0.13718">
        <ele>174.68</ele>
        <time>2017-01-22T07:53:58.999Z</time>
      </trkpt>
      <trkpt lat="46.72678" lon="-0.13702">
        <ele>174.87</ele>
        <time>2017-01-22T07:54:00.999Z</time>
      </trkpt>
      <trkpt lat="46.72674" lon="-0.13686">
        <ele>175.05</ele>
        <time>2017-01-22T07:54:02.999Z</time>
      </trkpt>
      <trkpt lat="46.7267" lon="-0.13671">
        <ele>175.22</ele>
        <time>2017-01-22T07:54:04.999Z</time>
      </trkpt>
      <trkpt lat="46.72666" lon="-0.13657">
        <ele>175.37</ele>
        <time>2017-01-22T07:54:06.999Z</time>
      </trkpt>
      <trkpt lat="46.72663" lon="-0.13641">
        <ele>175.56</ele>
        <time>2017-01-22T07:54:08.999Z</time>
      </trkpt>
      <trkpt lat="46.72669" lon="-0.13628">
        <ele>175.75</ele>
        <time>2017-01-22T07:54:10.999Z</time>
      </trkpt>
      <trkpt lat="46.72679" lon="-0.13619">
        <ele>175.87</ele>
        <time>2017-01-22T07:54:13.999Z</time>
      </trkpt>
      <trkpt lat="46.72685" lon="-0.13608">
        <ele>175.91</ele>
        <time>2017-01-22T07:54:17.999Z</time>
      </trkpt>
      <trkpt lat="46.72688" lon="-0.13595">
        <ele>175.98</ele>
        <time>2017-01-22T07:54:23.999Z</time>
      </trkpt>
      <trkpt lat="46.72688" lon="-0.13579">
        <ele>176.04</ele>
        <time>2017-01-22T07:54:29.999Z</time>
      </trkpt>
      <trkpt lat="46.72689" lon="-0.13562">
        <ele>176.09</ele>
        <time>2017-01-22T07:54:33.999Z</time>
      </trkpt>
      <trkpt lat="46.7269" lon="-0.13547">
        <ele>176.2</ele>
        <time>2017-01-22T07:54:37.999Z</time>
      </trkpt>
      <trkpt lat="46.72683" lon="-0.13537">
        <ele>176.41</ele>
        <time>2017-01-22T07:54:42.999Z</time>
      </trkpt>
      <trkpt lat="46.72672" lon="-0.13537">
        <ele>176.77</ele>
        <time>2017-01-22T07:54:48.999Z</time>
      </trkpt>
      <trkpt lat="46.72663" lon="-0.13539">
        <ele>177.26</ele>
        <time>2017-01-22T07:54:55.999Z</time>
      </trkpt>
      <trkpt lat="46.72651" lon="-0.13539">
        <ele>181.72</ele>
        <time>2017-01-22T07:57:18.999Z</time>
      </trkpt>
      <trkpt lat="46.72638" lon="-0.13538">
        <ele>186.41</ele>
        <time>2017-01-22T07:57:21.999Z</time>
      </trkpt>
      <trkpt lat="46.72628" lon="-0.13535">
        <ele>188.14</ele>
        <time>2017-01-22T07:57:23.999Z</time>
      </trkpt>
      <trkpt lat="46.7262" lon="-0.13531">
        <ele>188.9</ele>
        <time>2017-01-22T07:57:25.999Z</time>
      </trkpt>
      <trkpt lat="46.72611" lon="-0.13527">
        <ele>188.99</ele>
        <time>2017-01-22T07:57:27.999Z</time>
      </trkpt>
      <trkpt lat="46.72601" lon="-0.13522">
        <ele>188.76</ele>
        <time>2017-01-22T07:57:29.999Z</time>
      </trkpt>
      <trkpt lat="46.72591" lon="-0.13517">
        <ele>188.39</ele>
        <time>2017-01-22T07:57:31.999Z</time>
      </trkpt>
      <trkpt lat="46.72581" lon="-0.13512">
        <ele>188.04</ele>
        <time>2017-01-22T07:57:33.999Z</time>
      </trkpt>
      <trkpt lat="46.72571" lon="-0.13507">
        <ele>187.75</ele>
        <time>2017-01-22T07:57:35.999Z</time>
      </trkpt>
      <trkpt lat="46.72561" lon="-0.13502">
        <ele>187.44</ele>
        <time>2017-01-22T07:57:37.999Z</time>
      </trkpt>
      <trkpt lat="46.72551" lon="-0.13499">
        <ele>187.15</ele>
        <time>2017-01-22T07:57:39.999Z</time>
      </trkpt>
      <trkpt lat="46.7254" lon="-0.13498">
        <ele>186.85</ele>
        <time>2017-01-22T07:57:41.999Z</time>
      </trkpt>
      <trkpt lat="46.72529" lon="-0.13499">
        <ele>186.55</ele>
        <time>2017-01-22T07:57:43.999Z</time>
      </trkpt>
      <trkpt lat="46.72518" lon="-0.13501">
        <ele>186.28</ele>
        <time>2017-01-22T07:57:45.999Z</time>
      </trkpt>
      <trkpt lat="46.72506" lon="-0.13503">
        <ele>186.06</ele>
        <time>2017-01-22T07:57:47.999Z</time>
      </trkpt>
      <trkpt lat="46.72494" lon="-0.13505">
        <ele>185.86</ele>
        <time>2017-01-22T07:57:49.999Z</time>
      </trkpt>
      <trkpt lat="46.72483" lon="-0.13507">
        <ele>185.62</ele>
        <time>2017-01-22T07:57:51.999Z</time>
      </trkpt>
      <trkpt lat="46.72472" lon="-0.1351">
        <ele>185.35</ele>
        <time>2017-01-22T07:57:53.999Z</time>
      </trkpt>
      <trkpt lat="46.72461" lon="-0.13512">
        <ele>185.1</ele>
        <time>2017-01-22T07:57:55.999Z</time>
      </trkpt>
      <trkpt lat="46.72451" lon="-0.13513">
        <ele>184.86</ele>
        <time>2017-01-22T07:57:57.999Z</time>
      </trkpt>
      <trkpt lat="46.7244" lon="-0.13515">
        <ele>184.58</ele>
        <time>2017-01-22T07:57:59.999Z</time>
      </trkpt>
      <trkpt lat="46.72429" lon="-0.13516">
        <ele>184.34</ele>
        <time>2017-01-22T07:58:01.999Z</time>
      </trkpt>
      <trkpt lat="46.72417" lon="-0.13519">
        <ele>184.07</ele>
        <time>2017-01-22T07:58:03.999Z</time>
      </trkpt>
      <trkpt lat="46.72405" lon="-0.13525">
        <ele>183.79</ele>
        <time>2017-01-22T07:58:05.999Z</time>
      </trkpt>
      <trkpt lat="46.72393" lon="-0.13533">
        <ele>183.49</ele>
        <time>2017-01-22T07:58:07.999Z</time>
      </trkpt>
      <trkpt lat="46.72382" lon="-0.13542">
        <ele>183.27</ele>
        <time>2017-01-22T07:58:09.999Z</time>
      </trkpt>
      <trkpt lat="46.7237" lon="-0.13549">
        <ele>183.05</ele>
        <time>2017-01-22T07:58:11.999Z</time>
      </trkpt>
      <trkpt lat="46.72359" lon="-0.13556">
        <ele>182.72</ele>
        <time>2017-01-22T07:58:13.999Z</time>
      </trkpt>
      <trkpt lat="46.72348" lon="-0.13561">
        <ele>182.51</ele>
        <time>2017-01-22T07:58:15.999Z</time>
      </trkpt>
      <trkpt lat="46.72338" lon="-0.13565">
        <ele>182.46</ele>
        <time>2017-01-22T07:58:17.999Z</time>
      </trkpt>
      <trkpt lat="46.72327" lon="-0.13569">
        <ele>182.53</ele>
        <time>2017-01-22T07:58:19.999Z</time>
      </trkpt>
      <trkpt lat="46.72317" lon="-0.13574">
        <ele>182.75</ele>
        <time>2017-01-22T07:58:21.999Z</time>
      </trkpt>
      <trkpt lat="46.72308" lon="-0.13579">
        <ele>183.02</ele>
        <time>2017-01-22T07:58:23.999Z</time>
      </trkpt>
      <trkpt lat="46.72299" lon="-0.13584">
        <ele>183.28</ele>
        <time>2017-01-22T07:58:25.999Z</time>
      </trkpt>
      <trkpt lat="46.7229" lon="-0.13591">
        <ele>183.45</ele>
        <time>2017-01-22T07:58:28.999Z</time>
      </trkpt>
      <trkpt lat="46.72282" lon="-0.13598">
        <ele>183.5</ele>
        <time>2017-01-22T07:58:31.999Z</time>
      </trkpt>
      <trkpt lat="46.72271" lon="-0.13605">
        <ele>183.63</ele>
        <time>2017-01-22T07:58:35.999Z</time>
      </trkpt>
      <trkpt lat="46.72259" lon="-0.13605">
        <ele>183.74</ele>
        <time>2017-01-22T07:58:38.999Z</time>
      </trkpt>
      <trkpt lat="46.72248" lon="-0.13601">
        <ele>183.86</ele>
        <time>2017-01-22T07:58:41.999Z</time>
      </trkpt>
      <trkpt lat="46.72238" lon="-0.13597">
        <ele>183.98</ele>
        <time>2017-01-22T07:58:44.999Z</time>
      </trkpt>
      <trkpt lat="46.72227" lon="-0.13593">
        <ele>184.52</ele>
        <time>2017-01-22T07:58:47.999Z</time>
      </trkpt>
      <trkpt lat="46.72215" lon="-0.13589">
        <ele>185.46</ele>
        <time>2017-01-22T07:58:50.999Z</time>
      </trkpt>
      <trkpt lat="46.72202" lon="-0.13584">
        <ele>186.01</ele>
        <time>2017-01-22T07:58:53.999Z</time>
      </trkpt>
      <trkpt lat="46.72191" lon="-0.13578">
        <ele>186.05</ele>
        <time>2017-01-22T07:58:56.999Z</time>
      </trkpt>
      <trkpt lat="46.72182" lon="-0.13573">
        <ele>186.08</ele>
        <time>2017-01-22T07:58:58.999Z</time>
      </trkpt>
      <trkpt lat="46.7217" lon="-0.1357">
        <ele>186.43</ele>
        <time>2017-01-22T07:59:01.999Z</time>
      </trkpt>
      <trkpt lat="46.7216" lon="-0.13574">
        <ele>186.65</ele>
        <time>2017-01-22T07:59:03.999Z</time>
      </trkpt>
      <trkpt lat="46.7215" lon="-0.13582">
        <ele>186.81</ele>
        <time>2017-01-22T07:59:05.999Z</time>
      </trkpt>
      <trkpt lat="46.72141" lon="-0.13592">
        <ele>186.98</ele>
        <time>2017-01-22T07:59:07.999Z</time>
      </trkpt>
      <trkpt lat="46.72129" lon="-0.13601">
        <ele>187.02</ele>
        <time>2017-01-22T07:59:09.999Z</time>
      </trkpt>
      <trkpt lat="46.72117" lon="-0.13609">
        <ele>186.88</ele>
        <time>2017-01-22T07:59:11.999Z</time>
      </trkpt>
      <trkpt lat="46.72104" lon="-0.13614">
        <ele>186.16</ele>
        <time>2017-01-22T07:59:13.999Z</time>
      </trkpt>
      <trkpt lat="46.72091" lon="-0.1362">
        <ele>185.53</ele>
        <time>2017-01-22T07:59:15.999Z</time>
      </trkpt>
      <trkpt lat="46.7208" lon="-0.13629">
        <ele>184.92</ele>
        <time>2017-01-22T07:59:17.999Z</time>
      </trkpt>
      <trkpt lat="46.7207" lon="-0.13638">
        <ele>184.48</ele>
        <time>2017-01-22T07:59:19.999Z</time>
      </trkpt>
      <trkpt lat="46.72062" lon="-0.13651">
        <ele>184.3</ele>
        <time>2017-01-22T07:59:21.999Z</time>
      </trkpt>
      <trkpt lat="46.72055" lon="-0.13664">
        <ele>184.33</ele>
        <time>2017-01-22T07:59:23.999Z</time>
      </trkpt>
      <trkpt lat="46.72048" lon="-0.13675">
        <ele>184.3</ele>
        <time>2017-01-22T07:59:25.999Z</time>
      </trkpt>
      <trkpt lat="46.7204" lon="-0.13685">
        <ele>183.85</ele>
        <time>2017-01-22T07:59:27.999Z</time>
      </trkpt>
      <trkpt lat="46.72031" lon="-0.13697">
        <ele>183.31</ele>
        <time>2017-01-22T07:59:29.999Z</time>
      </trkpt>
      <trkpt lat="46.72022" lon="-0.13708">
        <ele>182.5</ele>
        <time>2017-01-22T07:59:31.999Z</time>
      </trkpt>
      <trkpt lat="46.7201" lon="-0.13723">
        <ele>181.22</ele>
        <time>2017-01-22T07:59:33.999Z</time>
      </trkpt>
      <trkpt lat="46.71998" lon="-0.1374">
        <ele>179.68</ele>
        <time>2017-01-22T07:59:35.999Z</time>
      </trkpt>
      <trkpt lat="46.71992" lon="-0.13751">
        <ele>178.97</ele>
        <time>2017-01-22T07:59:36.999Z</time>
      </trkpt>
      <trkpt lat="46.71982" lon="-0.13769">
        <ele>177.4</ele>
        <time>2017-01-22T07:59:38.999Z</time>
      </trkpt>
      <trkpt lat="46.71973" lon="-0.13789">
        <ele>176.06</ele>
        <time>2017-01-22T07:59:40.999Z</time>
      </trkpt>
      <trkpt lat="46.71967" lon="-0.13803">
        <ele>174.69</ele>
        <time>2017-01-22T07:59:42.999Z</time>
      </trkpt>
      <trkpt lat="46.7196" lon="-0.13819">
        <ele>172.93</ele>
        <time>2017-01-22T07:59:44.999Z</time>
      </trkpt>
      <trkpt lat="46.71951" lon="-0.13834">
        <ele>171.47</ele>
        <time>2017-01-22T07:59:46.999Z</time>
      </trkpt>
      <trkpt lat="46.71937" lon="-0.13846">
        <ele>170.09</ele>
        <time>2017-01-22T07:59:48.999Z</time>
      </trkpt>
      <trkpt lat="46.71922" lon="-0.13859">
        <ele>168.73</ele>
        <time>2017-01-22T07:59:50.999Z</time>
      </trkpt>
      <trkpt lat="46.71909" lon="-0.13875">
        <ele>167.52</ele>
        <time>2017-01-22T07:59:52.999Z</time>
      </trkpt>
      <trkpt lat="46.71898" lon="-0.13891">
        <ele>166.41</ele>
        <time>2017-01-22T07:59:54.999Z</time>
      </trkpt>
      <trkpt lat="46.71888" lon="-0.13907">
        <ele>165.33</ele>
        <time>2017-01-22T07:59:56.999Z</time>
      </trkpt>
      <trkpt lat="46.71881" lon="-0.1392">
        <ele>164.65</ele>
        <time>2017-01-22T07:59:58.999Z</time>
      </trkpt>
      <trkpt lat="46.71875" lon="-0.13933">
        <ele>163.92</ele>
        <time>2017-01-22T08:00:00.999Z</time>
      </trkpt>
      <trkpt lat="46.71869" lon="-0.13944">
        <ele>163.63</ele>
        <time>2017-01-22T08:00:02.999Z</time>
      </trkpt>
      <trkpt lat="46.71863" lon="-0.13955">
        <ele>163.59</ele>
        <time>2017-01-22T08:00:04.999Z</time>
      </trkpt>
      <trkpt lat="46.71858" lon="-0.13968">
        <ele>163.6</ele>
        <time>2017-01-22T08:00:06.999Z</time>
      </trkpt>
      <trkpt lat="46.71852" lon="-0.1398">
        <ele>163.5</ele>
        <time>2017-01-22T08:00:08.999Z</time>
      </trkpt>
      <trkpt lat="46.71846" lon="-0.13992">
        <ele>163.59</ele>
        <time>2017-01-22T08:00:10.999Z</time>
      </trkpt>
      <trkpt lat="46.7184" lon="-0.14004">
        <ele>164.07</ele>
        <time>2017-01-22T08:00:12.999Z</time>
      </trkpt>
      <trkpt lat="46.71833" lon="-0.14016">
        <ele>164.45</ele>
        <time>2017-01-22T08:00:14.999Z</time>
      </trkpt>
      <trkpt lat="46.71826" lon="-0.14032">
        <ele>164.77</ele>
        <time>2017-01-22T08:00:17.999Z</time>
      </trkpt>
      <trkpt lat="46.7182" lon="-0.14044">
        <ele>164.68</ele>
        <time>2017-01-22T08:00:19.999Z</time>
      </trkpt>
      <trkpt lat="46.71814" lon="-0.14055">
        <ele>164.58</ele>
        <time>2017-01-22T08:00:21.999Z</time>
      </trkpt>
      <trkpt lat="46.71807" lon="-0.14069">
        <ele>164.63</ele>
        <time>2017-01-22T08:00:24.999Z</time>
      </trkpt>
      <trkpt lat="46.718" lon="-0.14081">
        <ele>164.66</ele>
        <time>2017-01-22T08:00:27.999Z</time>
      </trkpt>
      <trkpt lat="46.71792" lon="-0.14093">
        <ele>164.69</ele>
        <time>2017-01-22T08:00:30.999Z</time>
      </trkpt>
      <trkpt lat="46.71785" lon="-0.14105">
        <ele>164.72</ele>
        <time>2017-01-22T08:00:33.999Z</time>
      </trkpt>
      <trkpt lat="46.71776" lon="-0.14116">
        <ele>164.99</ele>
        <time>2017-01-22T08:00:36.999Z</time>
      </trkpt>
      <trkpt lat="46.71767" lon="-0.14127">
        <ele>165.07</ele>
        <time>2017-01-22T08:00:39.999Z</time>
      </trkpt>
      <trkpt lat="46.71759" lon="-0.14139">
        <ele>164.99</ele>
        <time>2017-01-22T08:00:42.999Z</time>
      </trkpt>
      <trkpt lat="46.71751" lon="-0.14151">
        <ele>164.96</ele>
        <time>2017-01-22T08:00:45.999Z</time>
      </trkpt>
      <trkpt lat="46.7174" lon="-0.14163">
        <ele>164.63</ele>
        <time>2017-01-22T08:00:48.999Z</time>
      </trkpt>
      <trkpt lat="46.71732" lon="-0.14173">
        <ele>164.61</ele>
        <time>2017-01-22T08:00:50.999Z</time>
      </trkpt>
      <trkpt lat="46.71723" lon="-0.14182">
        <ele>164.69</ele>
        <time>2017-01-22T08:00:52.999Z</time>
      </trkpt>
      <trkpt lat="46.71714" lon="-0.14192">
        <ele>164.8</ele>
        <time>2017-01-22T08:00:54.999Z</time>
      </trkpt>
      <trkpt lat="46.71706" lon="-0.14202">
        <ele>164.92</ele>
        <time>2017-01-22T08:00:56.999Z</time>
      </trkpt>
      <trkpt lat="46.71697" lon="-0.14211">
        <ele>165.02</ele>
        <time>2017-01-22T08:00:58.999Z</time>
      </trkpt>
      <trkpt lat="46.71689" lon="-0.14221">
        <ele>165.11</ele>
        <time>2017-01-22T08:01:00.999Z</time>
      </trkpt>
      <trkpt lat="46.71677" lon="-0.14233">
        <ele>165.32</ele>
        <time>2017-01-22T08:01:03.999Z</time>
      </trkpt>
      <trkpt lat="46.71668" lon="-0.14241">
        <ele>165.62</ele>
        <time>2017-01-22T08:01:05.999Z</time>
      </trkpt>
      <trkpt lat="46.7166" lon="-0.14249">
        <ele>165.93</ele>
        <time>2017-01-22T08:01:07.999Z</time>
      </trkpt>
      <trkpt lat="46.71651" lon="-0.14257">
        <ele>166.18</ele>
        <time>2017-01-22T08:01:09.999Z</time>
      </trkpt>
      <trkpt lat="46.71642" lon="-0.14264">
        <ele>166.37</ele>
        <time>2017-01-22T08:01:11.999Z</time>
      </trkpt>
      <trkpt lat="46.71632" lon="-0.14269">
        <ele>166.57</ele>
        <time>2017-01-22T08:01:13.999Z</time>
      </trkpt>
      <trkpt lat="46.71619" lon="-0.14272">
        <ele>166.8</ele>
        <time>2017-01-22T08:01:16.999Z</time>
      </trkpt>
      <trkpt lat="46.71609" lon="-0.14272">
        <ele>166.87</ele>
        <time>2017-01-22T08:01:18.999Z</time>
      </trkpt>
      <trkpt lat="46.71599" lon="-0.14271">
        <ele>166.92</ele>
        <time>2017-01-22T08:01:20.999Z</time>
      </trkpt>
      <trkpt lat="46.7159" lon="-0.14271">
        <ele>166.94</ele>
        <time>2017-01-22T08:01:22.999Z</time>
      </trkpt>
      <trkpt lat="46.71581" lon="-0.14271">
        <ele>167.04</ele>
        <time>2017-01-22T08:01:24.999Z</time>
      </trkpt>
      <trkpt lat="46.71571" lon="-0.14273">
        <ele>167.12</ele>
        <time>2017-01-22T08:01:26.999Z</time>
      </trkpt>
      <trkpt lat="46.71562" lon="-0.14277">
        <ele>167.14</ele>
        <time>2017-01-22T08:01:28.999Z</time>
      </trkpt>
      <trkpt lat="46.71554" lon="-0.14283">
        <ele>167.31</ele>
        <time>2017-01-22T08:01:30.999Z</time>
      </trkpt>
      <trkpt lat="46.71544" lon="-0.14295">
        <ele>167.83</ele>
        <time>2017-01-22T08:01:33.999Z</time>
      </trkpt>
      <trkpt lat="46.71535" lon="-0.14308">
        <ele>168.09</ele>
        <time>2017-01-22T08:01:36.999Z</time>
      </trkpt>
      <trkpt lat="46.71526" lon="-0.1432">
        <ele>168.34</ele>
        <time>2017-01-22T08:01:39.999Z</time>
      </trkpt>
      <trkpt lat="46.71516" lon="-0.14332">
        <ele>168.42</ele>
        <time>2017-01-22T08:01:42.999Z</time>
      </trkpt>
      <trkpt lat="46.71507" lon="-0.14343">
        <ele>168.47</ele>
        <time>2017-01-22T08:01:45.999Z</time>
      </trkpt>
      <trkpt lat="46.71497" lon="-0.14356">
        <ele>168.31</ele>
        <time>2017-01-22T08:01:48.999Z</time>
      </trkpt>
      <trkpt lat="46.71491" lon="-0.14367">
        <ele>168.15</ele>
        <time>2017-01-22T08:01:50.999Z</time>
      </trkpt>
      <trkpt lat="46.71484" lon="-0.14377">
        <ele>168.06</ele>
        <time>2017-01-22T08:01:52.999Z</time>
      </trkpt>
      <trkpt lat="46.71476" lon="-0.14388">
        <ele>168.02</ele>
        <time>2017-01-22T08:01:55.999Z</time>
      </trkpt>
      <trkpt lat="46.71469" lon="-0.14397">
        <ele>167.88</ele>
        <time>2017-01-22T08:02:05.999Z</time>
      </trkpt>
      <trkpt lat="46.71462" lon="-0.14406">
        <ele>167.77</ele>
        <time>2017-01-22T08:02:08.999Z</time>
      </trkpt>
      <trkpt lat="46.7145" lon="-0.14416">
        <ele>166.63</ele>
        <time>2017-01-22T08:02:11.999Z</time>
      </trkpt>
      <trkpt lat="46.71442" lon="-0.14425">
        <ele>166.09</ele>
        <time>2017-01-22T08:02:13.999Z</time>
      </trkpt>
      <trkpt lat="46.71435" lon="-0.14435">
        <ele>165.68</ele>
        <time>2017-01-22T08:02:15.999Z</time>
      </trkpt>
      <trkpt lat="46.71428" lon="-0.14444">
        <ele>165.34</ele>
        <time>2017-01-22T08:02:17.999Z</time>
      </trkpt>
      <trkpt lat="46.71422" lon="-0.14454">
        <ele>165.05</ele>
        <time>2017-01-22T08:02:19.999Z</time>
      </trkpt>
      <trkpt lat="46.71411" lon="-0.14467">
        <ele>164.6</ele>
        <time>2017-01-22T08:02:22.999Z</time>
      </trkpt>
      <trkpt lat="46.71401" lon="-0.14472">
        <ele>164.26</ele>
        <time>2017-01-22T08:02:24.999Z</time>
      </trkpt>
      <trkpt lat="46.7139" lon="-0.14475">
        <ele>164</ele>
        <time>2017-01-22T08:02:26.999Z</time>
      </trkpt>
      <trkpt lat="46.71381" lon="-0.14475">
        <ele>163.77</ele>
        <time>2017-01-22T08:02:28.999Z</time>
      </trkpt>
      <trkpt lat="46.71371" lon="-0.14474">
        <ele>163.59</ele>
        <time>2017-01-22T08:02:30.999Z</time>
      </trkpt>
      <trkpt lat="46.71357" lon="-0.1447">
        <ele>163.34</ele>
        <time>2017-01-22T08:02:33.999Z</time>
      </trkpt>
      <trkpt lat="46.71348" lon="-0.14464">
        <ele>163.14</ele>
        <time>2017-01-22T08:02:35.999Z</time>
      </trkpt>
      <trkpt lat="46.7134" lon="-0.14457">
        <ele>162.97</ele>
        <time>2017-01-22T08:02:37.999Z</time>
      </trkpt>
      <trkpt lat="46.7133" lon="-0.14443">
        <ele>162.79</ele>
        <time>2017-01-22T08:02:40.999Z</time>
      </trkpt>
      <trkpt lat="46.71322" lon="-0.1443">
        <ele>162.63</ele>
        <time>2017-01-22T08:02:43.999Z</time>
      </trkpt>
      <trkpt lat="46.71315" lon="-0.14416">
        <ele>162.38</ele>
        <time>2017-01-22T08:02:46.999Z</time>
      </trkpt>
      <trkpt lat="46.71308" lon="-0.14402">
        <ele>162.18</ele>
        <time>2017-01-22T08:02:49.999Z</time>
      </trkpt>
      <trkpt lat="46.71297" lon="-0.14392">
        <ele>162.17</ele>
        <time>2017-01-22T08:02:52.999Z</time>
      </trkpt>
      <trkpt lat="46.71283" lon="-0.1439">
        <ele>162.1</ele>
        <time>2017-01-22T08:02:55.999Z</time>
      </trkpt>
      <trkpt lat="46.71273" lon="-0.1439">
        <ele>162.1</ele>
        <time>2017-01-22T08:02:57.999Z</time>
      </trkpt>
      <trkpt lat="46.71261" lon="-0.1439">
        <ele>162.09</ele>
        <time>2017-01-22T08:03:00.999Z</time>
      </trkpt>
      <trkpt lat="46.71252" lon="-0.14381">
        <ele>162.06</ele>
        <time>2017-01-22T08:03:03.999Z</time>
      </trkpt>
      <trkpt lat="46.71243" lon="-0.14371">
        <ele>162.03</ele>
        <time>2017-01-22T08:03:06.999Z</time>
      </trkpt>
      <trkpt lat="46.71236" lon="-0.14362">
        <ele>162.01</ele>
        <time>2017-01-22T08:03:09.999Z</time>
      </trkpt>
      <trkpt lat="46.71227" lon="-0.14352">
        <ele>161.97</ele>
        <time>2017-01-22T08:03:14.999Z</time>
      </trkpt>
      <trkpt lat="46.71222" lon="-0.14341">
        <ele>161.96</ele>
        <time>2017-01-22T08:03:18.999Z</time>
      </trkpt>
      <trkpt lat="46.71218" lon="-0.14327">
        <ele>161.95</ele>
        <time>2017-01-22T08:03:22.999Z</time>
      </trkpt>
      <trkpt lat="46.71212" lon="-0.14313">
        <ele>161.96</ele>
        <time>2017-01-22T08:03:26.999Z</time>
      </trkpt>
      <trkpt lat="46.71207" lon="-0.14301">
        <ele>161.97</ele>
        <time>2017-01-22T08:03:30.999Z</time>
      </trkpt>
      <trkpt lat="46.71201" lon="-0.14291">
        <ele>161.99</ele>
        <time>2017-01-22T08:03:34.999Z</time>
      </trkpt>
      <trkpt lat="46.71193" lon="-0.14279">
        <ele>162.03</ele>
        <time>2017-01-22T08:03:38.999Z</time>
      </trkpt>
      <trkpt lat="46.71186" lon="-0.14268">
        <ele>162.1</ele>
        <time>2017-01-22T08:03:42.999Z</time>
      </trkpt>
      <trkpt lat="46.71178" lon="-0.14257">
        <ele>162.18</ele>
        <time>2017-01-22T08:03:46.999Z</time>
      </trkpt>
      <trkpt lat="46.7117" lon="-0.14249">
        <ele>162.27</ele>
        <time>2017-01-22T08:03:50.999Z</time>
      </trkpt>
      <trkpt lat="46.7116" lon="-0.1424">
        <ele>162.4</ele>
        <time>2017-01-22T08:03:54.999Z</time>
      </trkpt>
      <trkpt lat="46.7115" lon="-0.14232">
        <ele>162.57</ele>
        <time>2017-01-22T08:03:58.999Z</time>
      </trkpt>
      <trkpt lat="46.7114" lon="-0.14222">
        <ele>162.75</ele>
        <time>2017-01-22T08:04:02.999Z</time>
      </trkpt>
      <trkpt lat="46.71134" lon="-0.14211">
        <ele>162.92</ele>
        <time>2017-01-22T08:04:06.999Z</time>
      </trkpt>
      <trkpt lat="46.71131" lon="-0.14198">
        <ele>163.09</ele>
        <time>2017-01-22T08:04:10.999Z</time>
      </trkpt>
      <trkpt lat="46.71127" lon="-0.14183">
        <ele>163.26</ele>
        <time>2017-01-22T08:04:14.999Z</time>
      </trkpt>
      <trkpt lat="46.71124" lon="-0.14169">
        <ele>163.44</ele>
        <time>2017-01-22T08:04:18.999Z</time>
      </trkpt>
      <trkpt lat="46.71121" lon="-0.14154">
        <ele>163.67</ele>
        <time>2017-01-22T08:04:22.999Z</time>
      </trkpt>
      <trkpt lat="46.71118" lon="-0.14138">
        <ele>163.94</ele>
        <time>2017-01-22T08:04:26.999Z</time>
      </trkpt>
      <trkpt lat="46.71115" lon="-0.14122">
        <ele>164.31</ele>
        <time>2017-01-22T08:04:30.999Z</time>
      </trkpt>
      <trkpt lat="46.71112" lon="-0.14107">
        <ele>164.68</ele>
        <time>2017-01-22T08:04:34.999Z</time>
      </trkpt>
      <trkpt lat="46.71108" lon="-0.14093">
        <ele>165.02</ele>
        <time>2017-01-22T08:04:38.999Z</time>
      </trkpt>
      <trkpt lat="46.71104" lon="-0.1408">
        <ele>165.33</ele>
        <time>2017-01-22T08:04:42.999Z</time>
      </trkpt>
      <trkpt lat="46.711" lon="-0.14065">
        <ele>165.63</ele>
        <time>2017-01-22T08:04:46.999Z</time>
      </trkpt>
      <trkpt lat="46.71095" lon="-0.14052">
        <ele>165.84</ele>
        <time>2017-01-22T08:04:49.999Z</time>
      </trkpt>
      <trkpt lat="46.71088" lon="-0.14037">
        <ele>166.08</ele>
        <time>2017-01-22T08:04:53.999Z</time>
      </trkpt>
      <trkpt lat="46.71083" lon="-0.14025">
        <ele>166.23</ele>
        <time>2017-01-22T08:04:56.999Z</time>
      </trkpt>
      <trkpt lat="46.71077" lon="-0.14013">
        <ele>166.37</ele>
        <time>2017-01-22T08:04:59.999Z</time>
      </trkpt>
      <trkpt lat="46.71072" lon="-0.14">
        <ele>166.49</ele>
        <time>2017-01-22T08:05:02.999Z</time>
      </trkpt>
      <trkpt lat="46.71067" lon="-0.13987">
        <ele>166.59</ele>
        <time>2017-01-22T08:05:05.999Z</time>
      </trkpt>
      <trkpt lat="46.71061" lon="-0.13974">
        <ele>166.68</ele>
        <time>2017-01-22T08:05:08.999Z</time>
      </trkpt>
      <trkpt lat="46.71056" lon="-0.13962">
        <ele>166.79</ele>
        <time>2017-01-22T08:05:11.999Z</time>
      </trkpt>
      <trkpt lat="46.71049" lon="-0.1395">
        <ele>166.89</ele>
        <time>2017-01-22T08:05:14.999Z</time>
      </trkpt>
      <trkpt lat="46.71043" lon="-0.13937">
        <ele>166.98</ele>
        <time>2017-01-22T08:05:17.999Z</time>
      </trkpt>
      <trkpt lat="46.71038" lon="-0.13923">
        <ele>167.08</ele>
        <time>2017-01-22T08:05:20.999Z</time>
      </trkpt>
      <trkpt lat="46.71032" lon="-0.1391">
        <ele>167.46</ele>
        <time>2017-01-22T08:05:23.999Z</time>
      </trkpt>
      <trkpt lat="46.71024" lon="-0.13899">
        <ele>167.53</ele>
        <time>2017-01-22T08:05:26.999Z</time>
      </trkpt>
      <trkpt lat="46.71017" lon="-0.13887">
        <ele>167.6</ele>
        <time>2017-01-22T08:05:29.999Z</time>
      </trkpt>
      <trkpt lat="46.7101" lon="-0.13877">
        <ele>167.69</ele>
        <time>2017-01-22T08:05:32.999Z</time>
      </trkpt>
      <trkpt lat="46.71002" lon="-0.13864">
        <ele>168.62</ele>
        <time>2017-01-22T08:05:35.999Z</time>
      </trkpt>
      <trkpt lat="46.70994" lon="-0.13852">
        <ele>168.71</ele>
        <time>2017-01-22T08:05:38.999Z</time>
      </trkpt>
      <trkpt lat="46.70987" lon="-0.1384">
        <ele>168.79</ele>
        <time>2017-01-22T08:05:41.999Z</time>
      </trkpt>
      <trkpt lat="46.70979" lon="-0.13828">
        <ele>169.12</ele>
        <time>2017-01-22T08:05:44.999Z</time>
      </trkpt>
      <trkpt lat="46.70972" lon="-0.13815">
        <ele>169.72</ele>
        <time>2017-01-22T08:05:47.999Z</time>
      </trkpt>
      <trkpt lat="46.70964" lon="-0.13805">
        <ele>169.89</ele>
        <time>2017-01-22T08:05:50.999Z</time>
      </trkpt>
      <trkpt lat="46.70956" lon="-0.13811">
        <ele>169.92</ele>
        <time>2017-01-22T08:05:53.999Z</time>
      </trkpt>
      <trkpt lat="46.70951" lon="-0.13827">
        <ele>169.95</ele>
        <time>2017-01-22T08:05:56.999Z</time>
      </trkpt>
      <trkpt lat="46.70946" lon="-0.13843">
        <ele>170.51</ele>
        <time>2017-01-22T08:05:59.999Z</time>
      </trkpt>
      <trkpt lat="46.7094" lon="-0.13859">
        <ele>171.09</ele>
        <time>2017-01-22T08:06:02.999Z</time>
      </trkpt>
      <trkpt lat="46.70932" lon="-0.13872">
        <ele>171.6</ele>
        <time>2017-01-22T08:06:05.999Z</time>
      </trkpt>
      <trkpt lat="46.70923" lon="-0.13883">
        <ele>172.19</ele>
        <time>2017-01-22T08:06:08.999Z</time>
      </trkpt>
      <trkpt lat="46.70913" lon="-0.13893">
        <ele>172.91</ele>
        <time>2017-01-22T08:06:11.999Z</time>
      </trkpt>
      <trkpt lat="46.70903" lon="-0.13904">
        <ele>173.64</ele>
        <time>2017-01-22T08:06:14.999Z</time>
      </trkpt>
      <trkpt lat="46.70892" lon="-0.13913">
        <ele>174.14</ele>
        <time>2017-01-22T08:06:17.999Z</time>
      </trkpt>
      <trkpt lat="46.70881" lon="-0.13921">
        <ele>174.74</ele>
        <time>2017-01-22T08:06:20.999Z</time>
      </trkpt>
      <trkpt lat="46.70869" lon="-0.13927">
        <ele>175.44</ele>
        <time>2017-01-22T08:06:23.999Z</time>
      </trkpt>
      <trkpt lat="46.70857" lon="-0.13932">
        <ele>175.98</ele>
        <time>2017-01-22T08:06:26.999Z</time>
      </trkpt>
      <trkpt lat="46.70844" lon="-0.13936">
        <ele>176.33</ele>
        <time>2017-01-22T08:06:29.999Z</time>
      </trkpt>
      <trkpt lat="46.70831" lon="-0.13938">
        <ele>176.54</ele>
        <time>2017-01-22T08:06:32.999Z</time>
      </trkpt>
      <trkpt lat="46.70821" lon="-0.13939">
        <ele>176.82</ele>
        <time>2017-01-22T08:06:34.999Z</time>
      </trkpt>
      <trkpt lat="46.70812" lon="-0.1394">
        <ele>177.1</ele>
        <time>2017-01-22T08:06:36.999Z</time>
      </trkpt>
      <trkpt lat="46.70799" lon="-0.13942">
        <ele>177.53</ele>
        <time>2017-01-22T08:06:39.999Z</time>
      </trkpt>
      <trkpt lat="46.70789" lon="-0.13944">
        <ele>177.85</ele>
        <time>2017-01-22T08:06:41.999Z</time>
      </trkpt>
      <trkpt lat="46.7078" lon="-0.13943">
        <ele>178.14</ele>
        <time>2017-01-22T08:06:43.999Z</time>
      </trkpt>
      <trkpt lat="46.70771" lon="-0.13943">
        <ele>178.38</ele>
        <time>2017-01-22T08:06:45.999Z</time>
      </trkpt>
      <trkpt lat="46.70762" lon="-0.13941">
        <ele>178.63</ele>
        <time>2017-01-22T08:06:47.999Z</time>
      </trkpt>
      <trkpt lat="46.70752" lon="-0.13939">
        <ele>178.81</ele>
        <time>2017-01-22T08:06:49.999Z</time>
      </trkpt>
      <trkpt lat="46.70742" lon="-0.13935">
        <ele>178.92</ele>
        <time>2017-01-22T08:06:51.999Z</time>
      </trkpt>
      <trkpt lat="46.70733" lon="-0.13931">
        <ele>179.03</ele>
        <time>2017-01-22T08:06:53.999Z</time>
      </trkpt>
      <trkpt lat="46.70724" lon="-0.13927">
        <ele>179.13</ele>
        <time>2017-01-22T08:06:55.999Z</time>
      </trkpt>
      <trkpt lat="46.70715" lon="-0.13923">
        <ele>179.28</ele>
        <time>2017-01-22T08:06:57.999Z</time>
      </trkpt>
      <trkpt lat="46.70705" lon="-0.13918">
        <ele>179.45</ele>
        <time>2017-01-22T08:06:59.999Z</time>
      </trkpt>
      <trkpt lat="46.70696" lon="-0.13914">
        <ele>179.61</ele>
        <time>2017-01-22T08:07:01.999Z</time>
      </trkpt>
      <trkpt lat="46.70686" lon="-0.1391">
        <ele>179.72</ele>
        <time>2017-01-22T08:07:03.999Z</time>
      </trkpt>
      <trkpt lat="46.70676" lon="-0.13904">
        <ele>179.78</ele>
        <time>2017-01-22T08:07:05.999Z</time>
      </trkpt>
      <trkpt lat="46.70665" lon="-0.13899">
        <ele>179.8</ele>
        <time>2017-01-22T08:07:07.999Z</time>
      </trkpt>
      <trkpt lat="46.70654" lon="-0.13893">
        <ele>179.86</ele>
        <time>2017-01-22T08:07:09.999Z</time>
      </trkpt>
      <trkpt lat="46.70644" lon="-0.13885">
        <ele>179.94</ele>
        <time>2017-01-22T08:07:11.999Z</time>
      </trkpt>
      <trkpt lat="46.70634" lon="-0.13878">
        <ele>180.03</ele>
        <time>2017-01-22T08:07:13.999Z</time>
      </trkpt>
      <trkpt lat="46.70624" lon="-0.1387">
        <ele>180.02</ele>
        <time>2017-01-22T08:07:15.999Z</time>
      </trkpt>
      <trkpt lat="46.70612" lon="-0.13866">
        <ele>179.72</ele>
        <time>2017-01-22T08:07:17.999Z</time>
      </trkpt>
      <trkpt lat="46.70598" lon="-0.13863">
        <ele>179.13</ele>
        <time>2017-01-22T08:07:19.999Z</time>
      </trkpt>
      <trkpt lat="46.70582" lon="-0.13865">
        <ele>178.65</ele>
        <time>2017-01-22T08:07:21.999Z</time>
      </trkpt>
      <trkpt lat="46.70567" lon="-0.1387">
        <ele>178.1</ele>
        <time>2017-01-22T08:07:23.999Z</time>
      </trkpt>
      <trkpt lat="46.7055" lon="-0.13875">
        <ele>177.6</ele>
        <time>2017-01-22T08:07:25.999Z</time>
      </trkpt>
      <trkpt lat="46.70535" lon="-0.1388">
        <ele>177.37</ele>
        <time>2017-01-22T08:07:27.999Z</time>
      </trkpt>
      <trkpt lat="46.7052" lon="-0.13882">
        <ele>177.27</ele>
        <time>2017-01-22T08:07:29.999Z</time>
      </trkpt>
      <trkpt lat="46.70506" lon="-0.13887">
        <ele>177.22</ele>
        <time>2017-01-22T08:07:31.999Z</time>
      </trkpt>
      <trkpt lat="46.70495" lon="-0.13894">
        <ele>177.08</ele>
        <time>2017-01-22T08:07:33.999Z</time>
      </trkpt>
      <trkpt lat="46.70487" lon="-0.13905">
        <ele>176.74</ele>
        <time>2017-01-22T08:07:35.999Z</time>
      </trkpt>
      <trkpt lat="46.70482" lon="-0.13918">
        <ele>176.31</ele>
        <time>2017-01-22T08:07:37.999Z</time>
      </trkpt>
      <trkpt lat="46.70477" lon="-0.13931">
        <ele>175.92</ele>
        <time>2017-01-22T08:07:39.999Z</time>
      </trkpt>
      <trkpt lat="46.70469" lon="-0.13948">
        <ele>175.75</ele>
        <time>2017-01-22T08:07:42.999Z</time>
      </trkpt>
      <trkpt lat="46.7046" lon="-0.13963">
        <ele>175.95</ele>
        <time>2017-01-22T08:07:44.999Z</time>
      </trkpt>
      <trkpt lat="46.70453" lon="-0.13976">
        <ele>175.79</ele>
        <time>2017-01-22T08:07:46.999Z</time>
      </trkpt>
      <trkpt lat="46.70445" lon="-0.13989">
        <ele>175.62</ele>
        <time>2017-01-22T08:07:48.999Z</time>
      </trkpt>
      <trkpt lat="46.70435" lon="-0.13997">
        <ele>175.41</ele>
        <time>2017-01-22T08:07:50.999Z</time>
      </trkpt>
      <trkpt lat="46.70425" lon="-0.14005">
        <ele>175.54</ele>
        <time>2017-01-22T08:07:52.999Z</time>
      </trkpt>
      <trkpt lat="46.70416" lon="-0.14012">
        <ele>175.89</ele>
        <time>2017-01-22T08:07:55.999Z</time>
      </trkpt>
      <trkpt lat="46.70407" lon="-0.14019">
        <ele>176.03</ele>
        <time>2017-01-22T08:07:59.999Z</time>
      </trkpt>
      <trkpt lat="46.70398" lon="-0.14022">
        <ele>176.23</ele>
        <time>2017-01-22T08:08:03.999Z</time>
      </trkpt>
      <trkpt lat="46.70386" lon="-0.14017">
        <ele>176.35</ele>
        <time>2017-01-22T08:08:07.999Z</time>
      </trkpt>
      <trkpt lat="46.70377" lon="-0.1401">
        <ele>176.41</ele>
        <time>2017-01-22T08:08:10.999Z</time>
      </trkpt>
      <trkpt lat="46.70367" lon="-0.14006">
        <ele>176.47</ele>
        <time>2017-01-22T08:08:14.999Z</time>
      </trkpt>
      <trkpt lat="46.70355" lon="-0.14005">
        <ele>176.55</ele>
        <time>2017-01-22T08:08:18.999Z</time>
      </trkpt>
      <trkpt lat="46.70345" lon="-0.1401">
        <ele>176.67</ele>
        <time>2017-01-22T08:08:22.999Z</time>
      </trkpt>
      <trkpt lat="46.70336" lon="-0.14016">
        <ele>176.79</ele>
        <time>2017-01-22T08:08:25.999Z</time>
      </trkpt>
      <trkpt lat="46.70332" lon="-0.14028">
        <ele>179.32</ele>
        <time>2017-01-22T08:12:00.999Z</time>
      </trkpt>
      <trkpt lat="46.70329" lon="-0.14041">
        <ele>178.8</ele>
        <time>2017-01-22T08:13:22.999Z</time>
      </trkpt>
      <trkpt lat="46.70322" lon="-0.1405">
        <ele>178.63</ele>
        <time>2017-01-22T08:13:25.999Z</time>
      </trkpt>
      <trkpt lat="46.70315" lon="-0.14059">
        <ele>178.48</ele>
        <time>2017-01-22T08:13:28.999Z</time>
      </trkpt>
      <trkpt lat="46.70306" lon="-0.14071">
        <ele>177.58</ele>
        <time>2017-01-22T08:13:31.999Z</time>
      </trkpt>
      <trkpt lat="46.70298" lon="-0.14085">
        <ele>176.97</ele>
        <time>2017-01-22T08:13:34.999Z</time>
      </trkpt>
      <trkpt lat="46.7029" lon="-0.14097">
        <ele>176.95</ele>
        <time>2017-01-22T08:13:37.999Z</time>
      </trkpt>
      <trkpt lat="46.70283" lon="-0.14106">
        <ele>176.94</ele>
        <time>2017-01-22T08:13:40.999Z</time>
      </trkpt>
      <trkpt lat="46.70274" lon="-0.14111">
        <ele>176.95</ele>
        <time>2017-01-22T08:13:43.999Z</time>
      </trkpt>
      <trkpt lat="46.70268" lon="-0.14098">
        <ele>176.99</ele>
        <time>2017-01-22T08:13:48.999Z</time>
      </trkpt>
      <trkpt lat="46.70265" lon="-0.14083">
        <ele>177.03</ele>
        <time>2017-01-22T08:13:51.999Z</time>
      </trkpt>
      <trkpt lat="46.70261" lon="-0.14069">
        <ele>177.08</ele>
        <time>2017-01-22T08:13:54.999Z</time>
      </trkpt>
      <trkpt lat="46.70258" lon="-0.14056">
        <ele>177.12</ele>
        <time>2017-01-22T08:13:57.999Z</time>
      </trkpt>
      <trkpt lat="46.70256" lon="-0.14043">
        <ele>177.17</ele>
        <time>2017-01-22T08:14:00.999Z</time>
      </trkpt>
      <trkpt lat="46.70253" lon="-0.14026">
        <ele>177.22</ele>
        <time>2017-01-22T08:14:03.999Z</time>
      </trkpt>
      <trkpt lat="46.7025" lon="-0.14012">
        <ele>177.27</ele>
        <time>2017-01-22T08:14:06.999Z</time>
      </trkpt>
      <trkpt lat="46.70246" lon="-0.13996">
        <ele>177.31</ele>
        <time>2017-01-22T08:14:09.999Z</time>
      </trkpt>
      <trkpt lat="46.70243" lon="-0.13979">
        <ele>177.34</ele>
        <time>2017-01-22T08:14:12.999Z</time>
      </trkpt>
      <trkpt lat="46.7024" lon="-0.13963">
        <ele>177.37</ele>
        <time>2017-01-22T08:14:15.999Z</time>
      </trkpt>
      <trkpt lat="46.70236" lon="-0.13948">
        <ele>177.39</ele>
        <time>2017-01-22T08:14:18.999Z</time>
      </trkpt>
      <trkpt lat="46.70232" lon="-0.13931">
        <ele>177.4</ele>
        <time>2017-01-22T08:14:21.999Z</time>
      </trkpt>
      <trkpt lat="46.70228" lon="-0.13914">
        <ele>177.33</ele>
        <time>2017-01-22T08:14:24.999Z</time>
      </trkpt>
      <trkpt lat="46.70223" lon="-0.13903">
        <ele>177.3</ele>
        <time>2017-01-22T08:14:27.999Z</time>
      </trkpt>
      <trkpt lat="46.70217" lon="-0.1389">
        <ele>177.22</ele>
        <time>2017-01-22T08:14:30.999Z</time>
      </trkpt>
      <trkpt lat="46.70213" lon="-0.13875">
        <ele>177.2</ele>
        <time>2017-01-22T08:14:33.999Z</time>
      </trkpt>
      <trkpt lat="46.70209" lon="-0.13863">
        <ele>177.17</ele>
        <time>2017-01-22T08:14:36.999Z</time>
      </trkpt>
      <trkpt lat="46.70205" lon="-0.1385">
        <ele>177.15</ele>
        <time>2017-01-22T08:14:39.999Z</time>
      </trkpt>
      <trkpt lat="46.702" lon="-0.13832">
        <ele>176.98</ele>
        <time>2017-01-22T08:14:42.999Z</time>
      </trkpt>
      <trkpt lat="46.70196" lon="-0.13819">
        <ele>176.91</ele>
        <time>2017-01-22T08:14:44.999Z</time>
      </trkpt>
      <trkpt lat="46.70193" lon="-0.13805">
        <ele>176.81</ele>
        <time>2017-01-22T08:14:46.999Z</time>
      </trkpt>
      <trkpt lat="46.7019" lon="-0.13792">
        <ele>176.73</ele>
        <time>2017-01-22T08:14:48.999Z</time>
      </trkpt>
      <trkpt lat="46.70187" lon="-0.13779">
        <ele>176.74</ele>
        <time>2017-01-22T08:14:50.999Z</time>
      </trkpt>
      <trkpt lat="46.70184" lon="-0.13767">
        <ele>176.77</ele>
        <time>2017-01-22T08:14:52.999Z</time>
      </trkpt>
      <trkpt lat="46.70179" lon="-0.1375">
        <ele>176.79</ele>
        <time>2017-01-22T08:14:55.999Z</time>
      </trkpt>
      <trkpt lat="46.70175" lon="-0.13734">
        <ele>176.8</ele>
        <time>2017-01-22T08:14:58.999Z</time>
      </trkpt>
      <trkpt lat="46.70171" lon="-0.13719">
        <ele>176.82</ele>
        <time>2017-01-22T08:15:01.999Z</time>
      </trkpt>
      <trkpt lat="46.70168" lon="-0.13706">
        <ele>176.85</ele>
        <time>2017-01-22T08:15:04.999Z</time>
      </trkpt>
      <trkpt lat="46.70163" lon="-0.13695">
        <ele>176.9</ele>
        <time>2017-01-22T08:15:07.999Z</time>
      </trkpt>
      <trkpt lat="46.70159" lon="-0.13683">
        <ele>176.95</ele>
        <time>2017-01-22T08:15:10.999Z</time>
      </trkpt>
      <trkpt lat="46.70155" lon="-0.13667">
        <ele>177.03</ele>
        <time>2017-01-22T08:15:14.999Z</time>
      </trkpt>
      <trkpt lat="46.70152" lon="-0.13651">
        <ele>177.11</ele>
        <time>2017-01-22T08:15:18.999Z</time>
      </trkpt>
      <trkpt lat="46.70149" lon="-0.13638">
        <ele>177.17</ele>
        <time>2017-01-22T08:15:21.999Z</time>
      </trkpt>
      <trkpt lat="46.70147" lon="-0.13622">
        <ele>177.44</ele>
        <time>2017-01-22T08:15:24.999Z</time>
      </trkpt>
      <trkpt lat="46.70145" lon="-0.13605">
        <ele>178.03</ele>
        <time>2017-01-22T08:15:27.999Z</time>
      </trkpt>
      <trkpt lat="46.70144" lon="-0.13586">
        <ele>178.48</ele>
        <time>2017-01-22T08:15:30.999Z</time>
      </trkpt>
      <trkpt lat="46.70143" lon="-0.13567">
        <ele>178.82</ele>
        <time>2017-01-22T08:15:33.999Z</time>
      </trkpt>
      <trkpt lat="46.70142" lon="-0.13549">
        <ele>179.05</ele>
        <time>2017-01-22T08:15:36.999Z</time>
      </trkpt>
      <trkpt lat="46.7014" lon="-0.1353">
        <ele>179.31</ele>
        <time>2017-01-22T08:15:39.999Z</time>
      </trkpt>
      <trkpt lat="46.70139" lon="-0.13517">
        <ele>179.4</ele>
        <time>2017-01-22T08:15:41.999Z</time>
      </trkpt>
      <trkpt lat="46.70137" lon="-0.135">
        <ele>179.46</ele>
        <time>2017-01-22T08:15:44.999Z</time>
      </trkpt>
      <trkpt lat="46.70136" lon="-0.13482">
        <ele>179.74</ele>
        <time>2017-01-22T08:15:47.999Z</time>
      </trkpt>
      <trkpt lat="46.70134" lon="-0.13463">
        <ele>180.2</ele>
        <time>2017-01-22T08:15:50.999Z</time>
      </trkpt>
      <trkpt lat="46.70133" lon="-0.13446">
        <ele>180.84</ele>
        <time>2017-01-22T08:15:53.999Z</time>
      </trkpt>
      <trkpt lat="46.70133" lon="-0.13427">
        <ele>181.53</ele>
        <time>2017-01-22T08:15:56.999Z</time>
      </trkpt>
      <trkpt lat="46.70132" lon="-0.13408">
        <ele>182.26</ele>
        <time>2017-01-22T08:15:59.999Z</time>
      </trkpt>
      <trkpt lat="46.70132" lon="-0.1339">
        <ele>183</ele>
        <time>2017-01-22T08:16:02.999Z</time>
      </trkpt>
      <trkpt lat="46.70132" lon="-0.13372">
        <ele>183.73</ele>
        <time>2017-01-22T08:16:05.999Z</time>
      </trkpt>
      <trkpt lat="46.70132" lon="-0.13355">
        <ele>184.25</ele>
        <time>2017-01-22T08:16:08.999Z</time>
      </trkpt>
      <trkpt lat="46.70134" lon="-0.13338">
        <ele>184.72</ele>
        <time>2017-01-22T08:16:11.999Z</time>
      </trkpt>
      <trkpt lat="46.70136" lon="-0.13321">
        <ele>185.11</ele>
        <time>2017-01-22T08:16:14.999Z</time>
      </trkpt>
      <trkpt lat="46.70135" lon="-0.13306">
        <ele>185.18</ele>
        <time>2017-01-22T08:16:17.999Z</time>
      </trkpt>
      <trkpt lat="46.70133" lon="-0.1329">
        <ele>185.56</ele>
        <time>2017-01-22T08:16:20.999Z</time>
      </trkpt>
      <trkpt lat="46.7013" lon="-0.13273">
        <ele>185.65</ele>
        <time>2017-01-22T08:16:23.999Z</time>
      </trkpt>
      <trkpt lat="46.70128" lon="-0.13257">
        <ele>185.76</ele>
        <time>2017-01-22T08:16:26.999Z</time>
      </trkpt>
      <trkpt lat="46.70126" lon="-0.13242">
        <ele>185.87</ele>
        <time>2017-01-22T08:16:29.999Z</time>
      </trkpt>
      <trkpt lat="46.70123" lon="-0.13227">
        <ele>185.99</ele>
        <time>2017-01-22T08:16:32.999Z</time>
      </trkpt>
      <trkpt lat="46.70121" lon="-0.13211">
        <ele>186.52</ele>
        <time>2017-01-22T08:16:35.999Z</time>
      </trkpt>
      <trkpt lat="46.70119" lon="-0.13194">
        <ele>186.63</ele>
        <time>2017-01-22T08:16:38.999Z</time>
      </trkpt>
      <trkpt lat="46.70116" lon="-0.13179">
        <ele>186.73</ele>
        <time>2017-01-22T08:16:41.999Z</time>
      </trkpt>
      <trkpt lat="46.70115" lon="-0.13164">
        <ele>186.84</ele>
        <time>2017-01-22T08:16:44.999Z</time>
      </trkpt>
      <trkpt lat="46.70113" lon="-0.13149">
        <ele>186.98</ele>
        <time>2017-01-22T08:16:47.999Z</time>
      </trkpt>
      <trkpt lat="46.7011" lon="-0.13132">
        <ele>187.13</ele>
        <time>2017-01-22T08:16:50.999Z</time>
      </trkpt>
      <trkpt lat="46.70108" lon="-0.13117">
        <ele>187.27</ele>
        <time>2017-01-22T08:16:53.999Z</time>
      </trkpt>
      <trkpt lat="46.70106" lon="-0.13103">
        <ele>187.42</ele>
        <time>2017-01-22T08:16:56.999Z</time>
      </trkpt>
      <trkpt lat="46.70104" lon="-0.13088">
        <ele>187.56</ele>
        <time>2017-01-22T08:16:59.999Z</time>
      </trkpt>
      <trkpt lat="46.70102" lon="-0.13071">
        <ele>187.7</ele>
        <time>2017-01-22T08:17:02.999Z</time>
      </trkpt>
      <trkpt lat="46.701" lon="-0.13055">
        <ele>187.84</ele>
        <time>2017-01-22T08:17:05.999Z</time>
      </trkpt>
      <trkpt lat="46.70097" lon="-0.13042">
        <ele>187.96</ele>
        <time>2017-01-22T08:17:08.999Z</time>
      </trkpt>
      <trkpt lat="46.7009" lon="-0.13034">
        <ele>188.15</ele>
        <time>2017-01-22T08:17:12.999Z</time>
      </trkpt>
      <trkpt lat="46.7008" lon="-0.13038">
        <ele>188.32</ele>
        <time>2017-01-22T08:17:15.999Z</time>
      </trkpt>
      <trkpt lat="46.7007" lon="-0.13044">
        <ele>189.19</ele>
        <time>2017-01-22T08:17:18.999Z</time>
      </trkpt>
      <trkpt lat="46.70059" lon="-0.1305">
        <ele>191.07</ele>
        <time>2017-01-22T08:17:21.999Z</time>
      </trkpt>
      <trkpt lat="46.70048" lon="-0.13056">
        <ele>192.55</ele>
        <time>2017-01-22T08:17:24.999Z</time>
      </trkpt>
      <trkpt lat="46.70038" lon="-0.13066">
        <ele>193.76</ele>
        <time>2017-01-22T08:17:27.999Z</time>
      </trkpt>
      <trkpt lat="46.70028" lon="-0.13078">
        <ele>194.7</ele>
        <time>2017-01-22T08:17:30.999Z</time>
      </trkpt>
      <trkpt lat="46.7002" lon="-0.1309">
        <ele>195.13</ele>
        <time>2017-01-22T08:17:33.999Z</time>
      </trkpt>
      <trkpt lat="46.7001" lon="-0.13098">
        <ele>195.73</ele>
        <time>2017-01-22T08:17:36.999Z</time>
      </trkpt>
      <trkpt lat="46.7" lon="-0.13101">
        <ele>195.79</ele>
        <time>2017-01-22T08:17:39.999Z</time>
      </trkpt>
      <trkpt lat="46.6999" lon="-0.13097">
        <ele>195.86</ele>
        <time>2017-01-22T08:17:42.999Z</time>
      </trkpt>
      <trkpt lat="46.69978" lon="-0.13091">
        <ele>196.2</ele>
        <time>2017-01-22T08:17:45.999Z</time>
      </trkpt>
      <trkpt lat="46.69966" lon="-0.13085">
        <ele>196.55</ele>
        <time>2017-01-22T08:17:48.999Z</time>
      </trkpt>
      <trkpt lat="46.69954" lon="-0.13081">
        <ele>196.89</ele>
        <time>2017-01-22T08:17:51.999Z</time>
      </trkpt>
      <trkpt lat="46.69942" lon="-0.13076">
        <ele>197</ele>
        <time>2017-01-22T08:17:54.999Z</time>
      </trkpt>
      <trkpt lat="46.69931" lon="-0.13069">
        <ele>197.15</ele>
        <time>2017-01-22T08:17:57.999Z</time>
      </trkpt>
      <trkpt lat="46.69922" lon="-0.13058">
        <ele>197.83</ele>
        <time>2017-01-22T08:18:00.999Z</time>
      </trkpt>
      <trkpt lat="46.69914" lon="-0.13046">
        <ele>198.41</ele>
        <time>2017-01-22T08:18:03.999Z</time>
      </trkpt>
      <trkpt lat="46.69907" lon="-0.13032">
        <ele>198.54</ele>
        <time>2017-01-22T08:18:06.999Z</time>
      </trkpt>
      <trkpt lat="46.699" lon="-0.13019">
        <ele>198.67</ele>
        <time>2017-01-22T08:18:09.999Z</time>
      </trkpt>
      <trkpt lat="46.69892" lon="-0.13012">
        <ele>198.79</ele>
        <time>2017-01-22T08:18:12.999Z</time>
      </trkpt>
      <trkpt lat="46.69882" lon="-0.1301">
        <ele>198.91</ele>
        <time>2017-01-22T08:18:15.999Z</time>
      </trkpt>
      <trkpt lat="46.69872" lon="-0.13013">
        <ele>199.04</ele>
        <time>2017-01-22T08:18:18.999Z</time>
      </trkpt>
      <trkpt lat="46.69862" lon="-0.1302">
        <ele>199.16</ele>
        <time>2017-01-22T08:18:21.999Z</time>
      </trkpt>
      <trkpt lat="46.6986" lon="-0.13035">
        <ele>199.67</ele>
        <time>2017-01-22T08:18:24.999Z</time>
      </trkpt>
      <trkpt lat="46.69864" lon="-0.13048">
        <ele>200.46</ele>
        <time>2017-01-22T08:18:26.999Z</time>
      </trkpt>
      <trkpt lat="46.69869" lon="-0.13061">
        <ele>201.05</ele>
        <time>2017-01-22T08:18:28.999Z</time>
      </trkpt>
      <trkpt lat="46.69873" lon="-0.13073">
        <ele>201.49</ele>
        <time>2017-01-22T08:18:30.999Z</time>
      </trkpt>
      <trkpt lat="46.69879" lon="-0.13086">
        <ele>201.82</ele>
        <time>2017-01-22T08:18:32.999Z</time>
      </trkpt>
      <trkpt lat="46.69884" lon="-0.13101">
        <ele>202.12</ele>
        <time>2017-01-22T08:18:34.999Z</time>
      </trkpt>
      <trkpt lat="46.69887" lon="-0.13116">
        <ele>202.33</ele>
        <time>2017-01-22T08:18:36.999Z</time>
      </trkpt>
      <trkpt lat="46.69889" lon="-0.13133">
        <ele>202.53</ele>
        <time>2017-01-22T08:18:38.999Z</time>
      </trkpt>
      <trkpt lat="46.69889" lon="-0.13151">
        <ele>202.67</ele>
        <time>2017-01-22T08:18:40.999Z</time>
      </trkpt>
      <trkpt lat="46.69885" lon="-0.13167">
        <ele>202.74</ele>
        <time>2017-01-22T08:18:42.999Z</time>
      </trkpt>
      <trkpt lat="46.69876" lon="-0.13179">
        <ele>202.76</ele>
        <time>2017-01-22T08:18:44.999Z</time>
      </trkpt>
      <trkpt lat="46.69867" lon="-0.13189">
        <ele>202.82</ele>
        <time>2017-01-22T08:18:46.999Z</time>
      </trkpt>
      <trkpt lat="46.69856" lon="-0.13198">
        <ele>202.91</ele>
        <time>2017-01-22T08:18:48.999Z</time>
      </trkpt>
      <trkpt lat="46.69846" lon="-0.13207">
        <ele>202.97</ele>
        <time>2017-01-22T08:18:50.999Z</time>
      </trkpt>
      <trkpt lat="46.69839" lon="-0.13218">
        <ele>203.03</ele>
        <time>2017-01-22T08:18:52.999Z</time>
      </trkpt>
      <trkpt lat="46.69835" lon="-0.13233">
        <ele>203.05</ele>
        <time>2017-01-22T08:18:54.999Z</time>
      </trkpt>
      <trkpt lat="46.69832" lon="-0.13248">
        <ele>203.05</ele>
        <time>2017-01-22T08:18:56.999Z</time>
      </trkpt>
      <trkpt lat="46.6983" lon="-0.13264">
        <ele>203.06</ele>
        <time>2017-01-22T08:18:58.999Z</time>
      </trkpt>
      <trkpt lat="46.69829" lon="-0.13279">
        <ele>203.06</ele>
        <time>2017-01-22T08:19:00.999Z</time>
      </trkpt>
      <trkpt lat="46.69828" lon="-0.13294">
        <ele>203</ele>
        <time>2017-01-22T08:19:02.999Z</time>
      </trkpt>
      <trkpt lat="46.69827" lon="-0.13307">
        <ele>202.95</ele>
        <time>2017-01-22T08:19:04.999Z</time>
      </trkpt>
      <trkpt lat="46.69824" lon="-0.13327">
        <ele>202.72</ele>
        <time>2017-01-22T08:19:07.999Z</time>
      </trkpt>
      <trkpt lat="46.69822" lon="-0.13342">
        <ele>202.51</ele>
        <time>2017-01-22T08:19:09.999Z</time>
      </trkpt>
      <trkpt lat="46.6982" lon="-0.1336">
        <ele>202.21</ele>
        <time>2017-01-22T08:19:12.999Z</time>
      </trkpt>
      <trkpt lat="46.69818" lon="-0.13381">
        <ele>201.89</ele>
        <time>2017-01-22T08:19:15.999Z</time>
      </trkpt>
      <trkpt lat="46.69817" lon="-0.13398">
        <ele>201.67</ele>
        <time>2017-01-22T08:19:17.999Z</time>
      </trkpt>
      <trkpt lat="46.69816" lon="-0.13415">
        <ele>201.28</ele>
        <time>2017-01-22T08:19:19.999Z</time>
      </trkpt>
      <trkpt lat="46.69819" lon="-0.13433">
        <ele>200.68</ele>
        <time>2017-01-22T08:19:21.999Z</time>
      </trkpt>
      <trkpt lat="46.69824" lon="-0.1345">
        <ele>200.17</ele>
        <time>2017-01-22T08:19:23.999Z</time>
      </trkpt>
      <trkpt lat="46.69827" lon="-0.13468">
        <ele>199.7</ele>
        <time>2017-01-22T08:19:25.999Z</time>
      </trkpt>
      <trkpt lat="46.6983" lon="-0.13484">
        <ele>199.33</ele>
        <time>2017-01-22T08:19:27.999Z</time>
      </trkpt>
      <trkpt lat="46.69833" lon="-0.13498">
        <ele>199.15</ele>
        <time>2017-01-22T08:19:29.999Z</time>
      </trkpt>
      <trkpt lat="46.69823" lon="-0.13505">
        <ele>199.03</ele>
        <time>2017-01-22T08:19:34.999Z</time>
      </trkpt>
      <trkpt lat="46.69814" lon="-0.13502">
        <ele>198.95</ele>
        <time>2017-01-22T08:19:37.999Z</time>
      </trkpt>
      <trkpt lat="46.69801" lon="-0.135">
        <ele>198.28</ele>
        <time>2017-01-22T08:19:40.999Z</time>
      </trkpt>
      <trkpt lat="46.69791" lon="-0.13499">
        <ele>198.05</ele>
        <time>2017-01-22T08:19:42.999Z</time>
      </trkpt>
      <trkpt lat="46.69781" lon="-0.13498">
        <ele>197.87</ele>
        <time>2017-01-22T08:19:44.999Z</time>
      </trkpt>
      <trkpt lat="46.69771" lon="-0.13496">
        <ele>197.75</ele>
        <time>2017-01-22T08:19:46.999Z</time>
      </trkpt>
      <trkpt lat="46.69761" lon="-0.13494">
        <ele>197.69</ele>
        <time>2017-01-22T08:19:48.999Z</time>
      </trkpt>
      <trkpt lat="46.69751" lon="-0.13493">
        <ele>197.67</ele>
        <time>2017-01-22T08:19:50.999Z</time>
      </trkpt>
      <trkpt lat="46.69741" lon="-0.13492">
        <ele>197.72</ele>
        <time>2017-01-22T08:19:52.999Z</time>
      </trkpt>
      <trkpt lat="46.69732" lon="-0.13491">
        <ele>197.8</ele>
        <time>2017-01-22T08:19:54.999Z</time>
      </trkpt>
      <trkpt lat="46.69723" lon="-0.1349">
        <ele>197.88</ele>
        <time>2017-01-22T08:19:56.999Z</time>
      </trkpt>
      <trkpt lat="46.69713" lon="-0.13489">
        <ele>198</ele>
        <time>2017-01-22T08:19:58.999Z</time>
      </trkpt>
      <trkpt lat="46.69704" lon="-0.13487">
        <ele>198.11</ele>
        <time>2017-01-22T08:20:00.999Z</time>
      </trkpt>
      <trkpt lat="46.69695" lon="-0.13485">
        <ele>198.24</ele>
        <time>2017-01-22T08:20:02.999Z</time>
      </trkpt>
      <trkpt lat="46.69685" lon="-0.13484">
        <ele>198.38</ele>
        <time>2017-01-22T08:20:04.999Z</time>
      </trkpt>
      <trkpt lat="46.69676" lon="-0.13483">
        <ele>198.51</ele>
        <time>2017-01-22T08:20:06.999Z</time>
      </trkpt>
      <trkpt lat="46.69667" lon="-0.13481">
        <ele>198.58</ele>
        <time>2017-01-22T08:20:08.999Z</time>
      </trkpt>
      <trkpt lat="46.69657" lon="-0.1348">
        <ele>198.65</ele>
        <time>2017-01-22T08:20:10.999Z</time>
      </trkpt>
      <trkpt lat="46.69644" lon="-0.13478">
        <ele>198.72</ele>
        <time>2017-01-22T08:20:13.999Z</time>
      </trkpt>
      <trkpt lat="46.6963" lon="-0.13473">
        <ele>198.72</ele>
        <time>2017-01-22T08:20:16.999Z</time>
      </trkpt>
      <trkpt lat="46.69621" lon="-0.1347">
        <ele>198.74</ele>
        <time>2017-01-22T08:20:18.999Z</time>
      </trkpt>
      <trkpt lat="46.69611" lon="-0.1347">
        <ele>198.78</ele>
        <time>2017-01-22T08:20:20.999Z</time>
      </trkpt>
      <trkpt lat="46.69598" lon="-0.13473">
        <ele>198.99</ele>
        <time>2017-01-22T08:20:23.999Z</time>
      </trkpt>
      <trkpt lat="46.69586" lon="-0.13478">
        <ele>199.24</ele>
        <time>2017-01-22T08:20:26.999Z</time>
      </trkpt>
      <trkpt lat="46.69577" lon="-0.13481">
        <ele>199.39</ele>
        <time>2017-01-22T08:20:28.999Z</time>
      </trkpt>
      <trkpt lat="46.69564" lon="-0.13486">
        <ele>199.63</ele>
        <time>2017-01-22T08:20:31.999Z</time>
      </trkpt>
      <trkpt lat="46.69551" lon="-0.1349">
        <ele>199.87</ele>
        <time>2017-01-22T08:20:34.999Z</time>
      </trkpt>
      <trkpt lat="46.69542" lon="-0.13496">
        <ele>200</ele>
        <time>2017-01-22T08:20:36.999Z</time>
      </trkpt>
      <trkpt lat="46.69532" lon="-0.13504">
        <ele>200.18</ele>
        <time>2017-01-22T08:20:38.999Z</time>
      </trkpt>
      <trkpt lat="46.69523" lon="-0.13511">
        <ele>200.36</ele>
        <time>2017-01-22T08:20:40.999Z</time>
      </trkpt>
      <trkpt lat="46.69513" lon="-0.13521">
        <ele>200.49</ele>
        <time>2017-01-22T08:20:42.999Z</time>
      </trkpt>
      <trkpt lat="46.69504" lon="-0.13532">
        <ele>200.61</ele>
        <time>2017-01-22T08:20:44.999Z</time>
      </trkpt>
      <trkpt lat="46.69497" lon="-0.13547">
        <ele>200.72</ele>
        <time>2017-01-22T08:20:46.999Z</time>
      </trkpt>
      <trkpt lat="46.69491" lon="-0.13562">
        <ele>200.84</ele>
        <time>2017-01-22T08:20:48.999Z</time>
      </trkpt>
      <trkpt lat="46.69485" lon="-0.13577">
        <ele>200.89</ele>
        <time>2017-01-22T08:20:50.999Z</time>
      </trkpt>
      <trkpt lat="46.69479" lon="-0.13593">
        <ele>200.81</ele>
        <time>2017-01-22T08:20:52.999Z</time>
      </trkpt>
      <trkpt lat="46.69473" lon="-0.13608">
        <ele>200.35</ele>
        <time>2017-01-22T08:20:54.999Z</time>
      </trkpt>
      <trkpt lat="46.69467" lon="-0.13623">
        <ele>199.63</ele>
        <time>2017-01-22T08:20:56.999Z</time>
      </trkpt>
      <trkpt lat="46.69461" lon="-0.13638">
        <ele>198.64</ele>
        <time>2017-01-22T08:20:58.999Z</time>
      </trkpt>
      <trkpt lat="46.69455" lon="-0.13654">
        <ele>197.82</ele>
        <time>2017-01-22T08:21:00.999Z</time>
      </trkpt>
      <trkpt lat="46.69448" lon="-0.13669">
        <ele>197.14</ele>
        <time>2017-01-22T08:21:02.999Z</time>
      </trkpt>
      <trkpt lat="46.69441" lon="-0.13684">
        <ele>196.62</ele>
        <time>2017-01-22T08:21:04.999Z</time>
      </trkpt>
      <trkpt lat="46.69434" lon="-0.13699">
        <ele>196.16</ele>
        <time>2017-01-22T08:21:06.999Z</time>
      </trkpt>
      <trkpt lat="46.69427" lon="-0.13713">
        <ele>195.65</ele>
        <time>2017-01-22T08:21:08.999Z</time>
      </trkpt>
      <trkpt lat="46.6942" lon="-0.13728">
        <ele>195.16</ele>
        <time>2017-01-22T08:21:10.999Z</time>
      </trkpt>
      <trkpt lat="46.69412" lon="-0.13742">
        <ele>194.61</ele>
        <time>2017-01-22T08:21:12.999Z</time>
      </trkpt>
      <trkpt lat="46.69402" lon="-0.13755">
        <ele>194.16</ele>
        <time>2017-01-22T08:21:14.999Z</time>
      </trkpt>
      <trkpt lat="46.69393" lon="-0.13769">
        <ele>193.82</ele>
        <time>2017-01-22T08:21:16.999Z</time>
      </trkpt>
      <trkpt lat="46.69384" lon="-0.13781">
        <ele>193.44</ele>
        <time>2017-01-22T08:21:18.999Z</time>
      </trkpt>
      <trkpt lat="46.69375" lon="-0.13791">
        <ele>192.95</ele>
        <time>2017-01-22T08:21:20.999Z</time>
      </trkpt>
      <trkpt lat="46.69365" lon="-0.13798">
        <ele>192.55</ele>
        <time>2017-01-22T08:21:22.999Z</time>
      </trkpt>
      <trkpt lat="46.69354" lon="-0.13806">
        <ele>192.32</ele>
        <time>2017-01-22T08:21:24.999Z</time>
      </trkpt>
      <trkpt lat="46.69343" lon="-0.13812">
        <ele>192.08</ele>
        <time>2017-01-22T08:21:26.999Z</time>
      </trkpt>
      <trkpt lat="46.69332" lon="-0.1382">
        <ele>192.01</ele>
        <time>2017-01-22T08:21:28.999Z</time>
      </trkpt>
      <trkpt lat="46.69321" lon="-0.13829">
        <ele>192.07</ele>
        <time>2017-01-22T08:21:30.999Z</time>
      </trkpt>
      <trkpt lat="46.69313" lon="-0.13841">
        <ele>192.16</ele>
        <time>2017-01-22T08:21:32.999Z</time>
      </trkpt>
      <trkpt lat="46.69306" lon="-0.13853">
        <ele>192.26</ele>
        <time>2017-01-22T08:21:34.999Z</time>
      </trkpt>
      <trkpt lat="46.69299" lon="-0.13866">
        <ele>192.55</ele>
        <time>2017-01-22T08:21:36.999Z</time>
      </trkpt>
      <trkpt lat="46.69292" lon="-0.13879">
        <ele>193.04</ele>
        <time>2017-01-22T08:21:38.999Z</time>
      </trkpt>
      <trkpt lat="46.69287" lon="-0.13893">
        <ele>193.15</ele>
        <time>2017-01-22T08:21:40.999Z</time>
      </trkpt>
      <trkpt lat="46.69285" lon="-0.13909">
        <ele>192.91</ele>
        <time>2017-01-22T08:21:42.999Z</time>
      </trkpt>
      <trkpt lat="46.69278" lon="-0.13922">
        <ele>192.55</ele>
        <time>2017-01-22T08:21:44.999Z</time>
      </trkpt>
      <trkpt lat="46.69268" lon="-0.13932">
        <ele>192.25</ele>
        <time>2017-01-22T08:21:46.999Z</time>
      </trkpt>
      <trkpt lat="46.69256" lon="-0.1394">
        <ele>192.06</ele>
        <time>2017-01-22T08:21:48.999Z</time>
      </trkpt>
      <trkpt lat="46.69244" lon="-0.13949">
        <ele>191.88</ele>
        <time>2017-01-22T08:21:50.999Z</time>
      </trkpt>
      <trkpt lat="46.69233" lon="-0.1396">
        <ele>191.7</ele>
        <time>2017-01-22T08:21:52.999Z</time>
      </trkpt>
      <trkpt lat="46.69223" lon="-0.13973">
        <ele>191.38</ele>
        <time>2017-01-22T08:21:54.999Z</time>
      </trkpt>
      <trkpt lat="46.69212" lon="-0.13985">
        <ele>191.02</ele>
        <time>2017-01-22T08:21:56.999Z</time>
      </trkpt>
      <trkpt lat="46.69202" lon="-0.13995">
        <ele>190.35</ele>
        <time>2017-01-22T08:21:58.999Z</time>
      </trkpt>
      <trkpt lat="46.69193" lon="-0.14005">
        <ele>189.81</ele>
        <time>2017-01-22T08:22:00.999Z</time>
      </trkpt>
      <trkpt lat="46.69185" lon="-0.14015">
        <ele>189.34</ele>
        <time>2017-01-22T08:22:02.999Z</time>
      </trkpt>
      <trkpt lat="46.69176" lon="-0.14024">
        <ele>189.02</ele>
        <time>2017-01-22T08:22:04.999Z</time>
      </trkpt>
      <trkpt lat="46.69167" lon="-0.14032">
        <ele>188.71</ele>
        <time>2017-01-22T08:22:06.999Z</time>
      </trkpt>
      <trkpt lat="46.69157" lon="-0.14041">
        <ele>188.36</ele>
        <time>2017-01-22T08:22:08.999Z</time>
      </trkpt>
      <trkpt lat="46.69148" lon="-0.14049">
        <ele>188.11</ele>
        <time>2017-01-22T08:22:10.999Z</time>
      </trkpt>
      <trkpt lat="46.6914" lon="-0.14055">
        <ele>187.75</ele>
        <time>2017-01-22T08:22:12.999Z</time>
      </trkpt>
      <trkpt lat="46.69132" lon="-0.1407">
        <ele>187.24</ele>
        <time>2017-01-22T08:22:15.999Z</time>
      </trkpt>
      <trkpt lat="46.69129" lon="-0.14083">
        <ele>186.95</ele>
        <time>2017-01-22T08:22:17.999Z</time>
      </trkpt>
      <trkpt lat="46.69127" lon="-0.141">
        <ele>186.55</ele>
        <time>2017-01-22T08:22:20.999Z</time>
      </trkpt>
      <trkpt lat="46.69127" lon="-0.14118">
        <ele>186.21</ele>
        <time>2017-01-22T08:22:22.999Z</time>
      </trkpt>
      <trkpt lat="46.69126" lon="-0.14134">
        <ele>185.87</ele>
        <time>2017-01-22T08:22:24.999Z</time>
      </trkpt>
      <trkpt lat="46.69126" lon="-0.14151">
        <ele>185.65</ele>
        <time>2017-01-22T08:22:27.999Z</time>
      </trkpt>
      <trkpt lat="46.69125" lon="-0.14167">
        <ele>185.51</ele>
        <time>2017-01-22T08:22:32.999Z</time>
      </trkpt>
      <trkpt lat="46.6912" lon="-0.1418">
        <ele>185.27</ele>
        <time>2017-01-22T08:22:37.999Z</time>
      </trkpt>
      <trkpt lat="46.69114" lon="-0.14189">
        <ele>185.16</ele>
        <time>2017-01-22T08:22:39.999Z</time>
      </trkpt>
      <trkpt lat="46.69108" lon="-0.142">
        <ele>184.97</ele>
        <time>2017-01-22T08:22:42.999Z</time>
      </trkpt>
      <trkpt lat="46.69103" lon="-0.14218">
        <ele>184.77</ele>
        <time>2017-01-22T08:22:45.999Z</time>
      </trkpt>
      <trkpt lat="46.69102" lon="-0.14234">
        <ele>184.54</ele>
        <time>2017-01-22T08:22:48.999Z</time>
      </trkpt>
      <trkpt lat="46.691" lon="-0.1425">
        <ele>184.31</ele>
        <time>2017-01-22T08:22:51.999Z</time>
      </trkpt>
      <trkpt lat="46.691" lon="-0.14266">
        <ele>184.07</ele>
        <time>2017-01-22T08:22:54.999Z</time>
      </trkpt>
      <trkpt lat="46.69098" lon="-0.14284">
        <ele>183.82</ele>
        <time>2017-01-22T08:22:57.999Z</time>
      </trkpt>
      <trkpt lat="46.69096" lon="-0.14299">
        <ele>183.56</ele>
        <time>2017-01-22T08:23:00.999Z</time>
      </trkpt>
      <trkpt lat="46.69095" lon="-0.14313">
        <ele>183.31</ele>
        <time>2017-01-22T08:23:03.999Z</time>
      </trkpt>
      <trkpt lat="46.69093" lon="-0.14328">
        <ele>183.05</ele>
        <time>2017-01-22T08:23:06.999Z</time>
      </trkpt>
      <trkpt lat="46.69092" lon="-0.14341">
        <ele>182.79</ele>
        <time>2017-01-22T08:23:09.999Z</time>
      </trkpt>
      <trkpt lat="46.69089" lon="-0.14357">
        <ele>182.45</ele>
        <time>2017-01-22T08:23:13.999Z</time>
      </trkpt>
      <trkpt lat="46.69084" lon="-0.14372">
        <ele>182.12</ele>
        <time>2017-01-22T08:23:17.999Z</time>
      </trkpt>
      <trkpt lat="46.69079" lon="-0.14384">
        <ele>181.89</ele>
        <time>2017-01-22T08:23:20.999Z</time>
      </trkpt>
      <trkpt lat="46.69071" lon="-0.14394">
        <ele>181.63</ele>
        <time>2017-01-22T08:23:24.999Z</time>
      </trkpt>
      <trkpt lat="46.69063" lon="-0.14404">
        <ele>181.37</ele>
        <time>2017-01-22T08:23:28.999Z</time>
      </trkpt>
      <trkpt lat="46.69054" lon="-0.1441">
        <ele>181.14</ele>
        <time>2017-01-22T08:23:32.999Z</time>
      </trkpt>
      <trkpt lat="46.69046" lon="-0.14415">
        <ele>180.94</ele>
        <time>2017-01-22T08:23:36.999Z</time>
      </trkpt>
      <trkpt lat="46.69038" lon="-0.14422">
        <ele>180.77</ele>
        <time>2017-01-22T08:23:40.999Z</time>
      </trkpt>
      <trkpt lat="46.69034" lon="-0.14434">
        <ele>180.63</ele>
        <time>2017-01-22T08:23:46.999Z</time>
      </trkpt>
      <trkpt lat="46.69025" lon="-0.1444">
        <ele>180.58</ele>
        <time>2017-01-22T08:23:51.999Z</time>
      </trkpt>
      <trkpt lat="46.69016" lon="-0.14443">
        <ele>180.58</ele>
        <time>2017-01-22T08:23:55.999Z</time>
      </trkpt>
      <trkpt lat="46.69006" lon="-0.14447">
        <ele>180.61</ele>
        <time>2017-01-22T08:23:59.999Z</time>
      </trkpt>
      <trkpt lat="46.68995" lon="-0.1445">
        <ele>180.67</ele>
        <time>2017-01-22T08:24:03.999Z</time>
      </trkpt>
      <trkpt lat="46.68984" lon="-0.14452">
        <ele>180.74</ele>
        <time>2017-01-22T08:24:07.999Z</time>
      </trkpt>
      <trkpt lat="46.68973" lon="-0.14455">
        <ele>180.84</ele>
        <time>2017-01-22T08:24:11.999Z</time>
      </trkpt>
      <trkpt lat="46.68963" lon="-0.14458">
        <ele>180.98</ele>
        <time>2017-01-22T08:24:15.999Z</time>
      </trkpt>
      <trkpt lat="46.68954" lon="-0.14462">
        <ele>181.09</ele>
        <time>2017-01-22T08:24:18.999Z</time>
      </trkpt>
      <trkpt lat="46.68945" lon="-0.14465">
        <ele>181.24</ele>
        <time>2017-01-22T08:24:21.999Z</time>
      </trkpt>
      <trkpt lat="46.68935" lon="-0.1447">
        <ele>181.38</ele>
        <time>2017-01-22T08:24:24.999Z</time>
      </trkpt>
      <trkpt lat="46.68926" lon="-0.14474">
        <ele>181.53</ele>
        <time>2017-01-22T08:24:27.999Z</time>
      </trkpt>
      <trkpt lat="46.68914" lon="-0.14479">
        <ele>181.65</ele>
        <time>2017-01-22T08:24:30.999Z</time>
      </trkpt>
      <trkpt lat="46.68903" lon="-0.14483">
        <ele>182.13</ele>
        <time>2017-01-22T08:24:33.999Z</time>
      </trkpt>
      <trkpt lat="46.68893" lon="-0.14487">
        <ele>182.23</ele>
        <time>2017-01-22T08:24:36.999Z</time>
      </trkpt>
      <trkpt lat="46.68883" lon="-0.14491">
        <ele>182.33</ele>
        <time>2017-01-22T08:24:39.999Z</time>
      </trkpt>
      <trkpt lat="46.68872" lon="-0.14495">
        <ele>182.46</ele>
        <time>2017-01-22T08:24:42.999Z</time>
      </trkpt>
      <trkpt lat="46.68862" lon="-0.14498">
        <ele>182.61</ele>
        <time>2017-01-22T08:24:45.999Z</time>
      </trkpt>
      <trkpt lat="46.68851" lon="-0.14502">
        <ele>184.01</ele>
        <time>2017-01-22T08:24:48.999Z</time>
      </trkpt>
      <trkpt lat="46.6884" lon="-0.14505">
        <ele>184.92</ele>
        <time>2017-01-22T08:24:51.999Z</time>
      </trkpt>
      <trkpt lat="46.6883" lon="-0.14509">
        <ele>185.51</ele>
        <time>2017-01-22T08:24:54.999Z</time>
      </trkpt>
      <trkpt lat="46.6882" lon="-0.14513">
        <ele>185.89</ele>
        <time>2017-01-22T08:24:57.999Z</time>
      </trkpt>
      <trkpt lat="46.6881" lon="-0.14518">
        <ele>186.39</ele>
        <time>2017-01-22T08:25:00.999Z</time>
      </trkpt>
      <trkpt lat="46.68798" lon="-0.14522">
        <ele>186.76</ele>
        <time>2017-01-22T08:25:03.999Z</time>
      </trkpt>
      <trkpt lat="46.68786" lon="-0.14526">
        <ele>187.1</ele>
        <time>2017-01-22T08:25:06.999Z</time>
      </trkpt>
      <trkpt lat="46.68775" lon="-0.1453">
        <ele>187.32</ele>
        <time>2017-01-22T08:25:09.999Z</time>
      </trkpt>
      <trkpt lat="46.68765" lon="-0.14534">
        <ele>187.55</ele>
        <time>2017-01-22T08:25:12.999Z</time>
      </trkpt>
      <trkpt lat="46.68754" lon="-0.14539">
        <ele>187.78</ele>
        <time>2017-01-22T08:25:15.999Z</time>
      </trkpt>
      <trkpt lat="46.68744" lon="-0.14542">
        <ele>188.09</ele>
        <time>2017-01-22T08:25:18.999Z</time>
      </trkpt>
      <trkpt lat="46.68733" lon="-0.14546">
        <ele>188.34</ele>
        <time>2017-01-22T08:25:21.999Z</time>
      </trkpt>
      <trkpt lat="46.68723" lon="-0.14549">
        <ele>188.42</ele>
        <time>2017-01-22T08:25:24.999Z</time>
      </trkpt>
      <trkpt lat="46.68712" lon="-0.14552">
        <ele>188.57</ele>
        <time>2017-01-22T08:25:27.999Z</time>
      </trkpt>
      <trkpt lat="46.68702" lon="-0.14556">
        <ele>188.73</ele>
        <time>2017-01-22T08:25:30.999Z</time>
      </trkpt>
      <trkpt lat="46.68692" lon="-0.1456">
        <ele>188.91</ele>
        <time>2017-01-22T08:25:33.999Z</time>
      </trkpt>
      <trkpt lat="46.68683" lon="-0.14564">
        <ele>189.1</ele>
        <time>2017-01-22T08:25:36.999Z</time>
      </trkpt>
      <trkpt lat="46.68673" lon="-0.14568">
        <ele>189.28</ele>
        <time>2017-01-22T08:25:39.999Z</time>
      </trkpt>
      <trkpt lat="46.68662" lon="-0.1457">
        <ele>189.51</ele>
        <time>2017-01-22T08:25:43.999Z</time>
      </trkpt>
      <trkpt lat="46.68653" lon="-0.14573">
        <ele>189.68</ele>
        <time>2017-01-22T08:25:46.999Z</time>
      </trkpt>
      <trkpt lat="46.68644" lon="-0.14576">
        <ele>189.86</ele>
        <time>2017-01-22T08:25:49.999Z</time>
      </trkpt>
      <trkpt lat="46.68634" lon="-0.14576">
        <ele>190.15</ele>
        <time>2017-01-22T08:25:53.999Z</time>
      </trkpt>
      <trkpt lat="46.68623" lon="-0.1458">
        <ele>190.56</ele>
        <time>2017-01-22T08:25:58.999Z</time>
      </trkpt>
      <trkpt lat="46.68613" lon="-0.14578">
        <ele>190.8</ele>
        <time>2017-01-22T08:26:01.999Z</time>
      </trkpt>
      <trkpt lat="46.68603" lon="-0.14578">
        <ele>191.02</ele>
        <time>2017-01-22T08:26:04.999Z</time>
      </trkpt>
      <trkpt lat="46.68594" lon="-0.14576">
        <ele>191.24</ele>
        <time>2017-01-22T08:26:07.999Z</time>
      </trkpt>
      <trkpt lat="46.68583" lon="-0.14574">
        <ele>191.44</ele>
        <time>2017-01-22T08:26:10.999Z</time>
      </trkpt>
      <trkpt lat="46.68572" lon="-0.14571">
        <ele>191.63</ele>
        <time>2017-01-22T08:26:13.999Z</time>
      </trkpt>
      <trkpt lat="46.68563" lon="-0.14568">
        <ele>191.81</ele>
        <time>2017-01-22T08:26:16.999Z</time>
      </trkpt>
      <trkpt lat="46.68551" lon="-0.14563">
        <ele>192.04</ele>
        <time>2017-01-22T08:26:20.999Z</time>
      </trkpt>
      <trkpt lat="46.6854" lon="-0.14559">
        <ele>192.21</ele>
        <time>2017-01-22T08:26:23.999Z</time>
      </trkpt>
      <trkpt lat="46.68529" lon="-0.14556">
        <ele>192.89</ele>
        <time>2017-01-22T08:26:26.999Z</time>
      </trkpt>
      <trkpt lat="46.68517" lon="-0.14553">
        <ele>193.48</ele>
        <time>2017-01-22T08:26:29.999Z</time>
      </trkpt>
      <trkpt lat="46.68507" lon="-0.14551">
        <ele>193.99</ele>
        <time>2017-01-22T08:26:32.999Z</time>
      </trkpt>
      <trkpt lat="46.68495" lon="-0.14549">
        <ele>194.48</ele>
        <time>2017-01-22T08:26:35.999Z</time>
      </trkpt>
      <trkpt lat="46.68486" lon="-0.14548">
        <ele>195.17</ele>
        <time>2017-01-22T08:26:37.999Z</time>
      </trkpt>
      <trkpt lat="46.68473" lon="-0.14547">
        <ele>195.53</ele>
        <time>2017-01-22T08:26:40.999Z</time>
      </trkpt>
      <trkpt lat="46.68463" lon="-0.14545">
        <ele>195.62</ele>
        <time>2017-01-22T08:26:43.999Z</time>
      </trkpt>
      <trkpt lat="46.68453" lon="-0.14544">
        <ele>195.73</ele>
        <time>2017-01-22T08:26:46.999Z</time>
      </trkpt>
      <trkpt lat="46.68443" lon="-0.14549">
        <ele>196.34</ele>
        <time>2017-01-22T08:27:22.999Z</time>
      </trkpt>
      <trkpt lat="46.68432" lon="-0.1455">
        <ele>196.39</ele>
        <time>2017-01-22T08:27:26.999Z</time>
      </trkpt>
      <trkpt lat="46.68423" lon="-0.14555">
        <ele>196.4</ele>
        <time>2017-01-22T08:27:29.999Z</time>
      </trkpt>
      <trkpt lat="46.68414" lon="-0.1456">
        <ele>196.4</ele>
        <time>2017-01-22T08:27:32.999Z</time>
      </trkpt>
      <trkpt lat="46.68404" lon="-0.14565">
        <ele>196.32</ele>
        <time>2017-01-22T08:27:35.999Z</time>
      </trkpt>
      <trkpt lat="46.68394" lon="-0.14572">
        <ele>196.32</ele>
        <time>2017-01-22T08:27:38.999Z</time>
      </trkpt>
      <trkpt lat="46.68383" lon="-0.14576">
        <ele>196.22</ele>
        <time>2017-01-22T08:27:41.999Z</time>
      </trkpt>
      <trkpt lat="46.68375" lon="-0.1457">
        <ele>196.22</ele>
        <time>2017-01-22T08:27:43.999Z</time>
      </trkpt>
      <trkpt lat="46.68367" lon="-0.14555">
        <ele>196.17</ele>
        <time>2017-01-22T08:27:46.999Z</time>
      </trkpt>
      <trkpt lat="46.68359" lon="-0.14538">
        <ele>195.92</ele>
        <time>2017-01-22T08:27:49.999Z</time>
      </trkpt>
      <trkpt lat="46.68352" lon="-0.14524">
        <ele>195.79</ele>
        <time>2017-01-22T08:27:52.999Z</time>
      </trkpt>
      <trkpt lat="46.68343" lon="-0.14509">
        <ele>195.72</ele>
        <time>2017-01-22T08:27:55.999Z</time>
      </trkpt>
      <trkpt lat="46.68335" lon="-0.14497">
        <ele>195.69</ele>
        <time>2017-01-22T08:27:58.999Z</time>
      </trkpt>
      <trkpt lat="46.68324" lon="-0.14485">
        <ele>195.68</ele>
        <time>2017-01-22T08:28:01.999Z</time>
      </trkpt>
      <trkpt lat="46.68315" lon="-0.14479">
        <ele>195.66</ele>
        <time>2017-01-22T08:28:03.999Z</time>
      </trkpt>
      <trkpt lat="46.68306" lon="-0.14472">
        <ele>195.64</ele>
        <time>2017-01-22T08:28:05.999Z</time>
      </trkpt>
      <trkpt lat="46.68298" lon="-0.14466">
        <ele>195.61</ele>
        <time>2017-01-22T08:28:07.999Z</time>
      </trkpt>
      <trkpt lat="46.68283" lon="-0.14452">
        <ele>195.68</ele>
        <time>2017-01-22T08:28:11.999Z</time>
      </trkpt>
      <trkpt lat="46.68274" lon="-0.14439">
        <ele>195.74</ele>
        <time>2017-01-22T08:28:14.999Z</time>
      </trkpt>
      <trkpt lat="46.68266" lon="-0.14425">
        <ele>195.76</ele>
        <time>2017-01-22T08:28:17.999Z</time>
      </trkpt>
      <trkpt lat="46.68259" lon="-0.14416">
        <ele>195.77</ele>
        <time>2017-01-22T08:28:19.999Z</time>
      </trkpt>
      <trkpt lat="46.68253" lon="-0.14406">
        <ele>195.81</ele>
        <time>2017-01-22T08:28:21.999Z</time>
      </trkpt>
      <trkpt lat="46.68247" lon="-0.14396">
        <ele>195.85</ele>
        <time>2017-01-22T08:28:23.999Z</time>
      </trkpt>
      <trkpt lat="46.68238" lon="-0.14381">
        <ele>195.87</ele>
        <time>2017-01-22T08:28:26.999Z</time>
      </trkpt>
      <trkpt lat="46.68229" lon="-0.14365">
        <ele>195.88</ele>
        <time>2017-01-22T08:28:29.999Z</time>
      </trkpt>
      <trkpt lat="46.68222" lon="-0.14355">
        <ele>195.89</ele>
        <time>2017-01-22T08:28:31.999Z</time>
      </trkpt>
      <trkpt lat="46.68216" lon="-0.14343">
        <ele>195.92</ele>
        <time>2017-01-22T08:28:33.999Z</time>
      </trkpt>
      <trkpt lat="46.68209" lon="-0.14332">
        <ele>195.96</ele>
        <time>2017-01-22T08:28:35.999Z</time>
      </trkpt>
      <trkpt lat="46.68203" lon="-0.1432">
        <ele>195.97</ele>
        <time>2017-01-22T08:28:37.999Z</time>
      </trkpt>
      <trkpt lat="46.68197" lon="-0.14307">
        <ele>195.96</ele>
        <time>2017-01-22T08:28:39.999Z</time>
      </trkpt>
      <trkpt lat="46.68192" lon="-0.14295">
        <ele>195.95</ele>
        <time>2017-01-22T08:28:41.999Z</time>
      </trkpt>
      <trkpt lat="46.68187" lon="-0.14282">
        <ele>195.93</ele>
        <time>2017-01-22T08:28:43.999Z</time>
      </trkpt>
      <trkpt lat="46.68181" lon="-0.1427">
        <ele>195.86</ele>
        <time>2017-01-22T08:28:45.999Z</time>
      </trkpt>
      <trkpt lat="46.68174" lon="-0.1426">
        <ele>195.84</ele>
        <time>2017-01-22T08:28:47.999Z</time>
      </trkpt>
      <trkpt lat="46.68166" lon="-0.14251">
        <ele>195.82</ele>
        <time>2017-01-22T08:28:49.999Z</time>
      </trkpt>
      <trkpt lat="46.68158" lon="-0.14242">
        <ele>195.85</ele>
        <time>2017-01-22T08:28:51.999Z</time>
      </trkpt>
      <trkpt lat="46.68148" lon="-0.14234">
        <ele>195.86</ele>
        <time>2017-01-22T08:28:53.999Z</time>
      </trkpt>
      <trkpt lat="46.6814" lon="-0.14227">
        <ele>195.88</ele>
        <time>2017-01-22T08:28:55.999Z</time>
      </trkpt>
      <trkpt lat="46.68131" lon="-0.1422">
        <ele>195.77</ele>
        <time>2017-01-22T08:28:57.999Z</time>
      </trkpt>
      <trkpt lat="46.68122" lon="-0.14214">
        <ele>195.73</ele>
        <time>2017-01-22T08:28:59.999Z</time>
      </trkpt>
      <trkpt lat="46.68113" lon="-0.14208">
        <ele>195.71</ele>
        <time>2017-01-22T08:29:01.999Z</time>
      </trkpt>
      <trkpt lat="46.68104" lon="-0.14203">
        <ele>195.7</ele>
        <time>2017-01-22T08:29:03.999Z</time>
      </trkpt>
      <trkpt lat="46.68095" lon="-0.14198">
        <ele>195.51</ele>
        <time>2017-01-22T08:29:05.999Z</time>
      </trkpt>
      <trkpt lat="46.68081" lon="-0.14191">
        <ele>195.06</ele>
        <time>2017-01-22T08:29:08.999Z</time>
      </trkpt>
      <trkpt lat="46.68071" lon="-0.14186">
        <ele>194.85</ele>
        <time>2017-01-22T08:29:10.999Z</time>
      </trkpt>
      <trkpt lat="46.68062" lon="-0.14183">
        <ele>194.68</ele>
        <time>2017-01-22T08:29:12.999Z</time>
      </trkpt>
      <trkpt lat="46.68051" lon="-0.14179">
        <ele>194.58</ele>
        <time>2017-01-22T08:29:14.999Z</time>
      </trkpt>
      <trkpt lat="46.68041" lon="-0.14176">
        <ele>194.52</ele>
        <time>2017-01-22T08:29:16.999Z</time>
      </trkpt>
      <trkpt lat="46.68031" lon="-0.14173">
        <ele>194.55</ele>
        <time>2017-01-22T08:29:18.999Z</time>
      </trkpt>
      <trkpt lat="46.68018" lon="-0.1417">
        <ele>194.47</ele>
        <time>2017-01-22T08:29:21.999Z</time>
      </trkpt>
      <trkpt lat="46.68008" lon="-0.14167">
        <ele>194.48</ele>
        <time>2017-01-22T08:29:23.999Z</time>
      </trkpt>
      <trkpt lat="46.67999" lon="-0.14166">
        <ele>194.58</ele>
        <time>2017-01-22T08:29:25.999Z</time>
      </trkpt>
      <trkpt lat="46.67988" lon="-0.14163">
        <ele>194.72</ele>
        <time>2017-01-22T08:29:27.999Z</time>
      </trkpt>
      <trkpt lat="46.67979" lon="-0.14161">
        <ele>194.83</ele>
        <time>2017-01-22T08:29:29.999Z</time>
      </trkpt>
      <trkpt lat="46.67969" lon="-0.14159">
        <ele>194.91</ele>
        <time>2017-01-22T08:29:31.999Z</time>
      </trkpt>
      <trkpt lat="46.6796" lon="-0.14155">
        <ele>195</ele>
        <time>2017-01-22T08:29:33.999Z</time>
      </trkpt>
      <trkpt lat="46.6795" lon="-0.1415">
        <ele>195.15</ele>
        <time>2017-01-22T08:29:35.999Z</time>
      </trkpt>
      <trkpt lat="46.6794" lon="-0.14145">
        <ele>195.3</ele>
        <time>2017-01-22T08:29:37.999Z</time>
      </trkpt>
      <trkpt lat="46.6793" lon="-0.14141">
        <ele>195.4</ele>
        <time>2017-01-22T08:29:39.999Z</time>
      </trkpt>
      <trkpt lat="46.67921" lon="-0.14136">
        <ele>195.51</ele>
        <time>2017-01-22T08:29:41.999Z</time>
      </trkpt>
      <trkpt lat="46.67911" lon="-0.14131">
        <ele>195.64</ele>
        <time>2017-01-22T08:29:43.999Z</time>
      </trkpt>
      <trkpt lat="46.67901" lon="-0.14126">
        <ele>195.57</ele>
        <time>2017-01-22T08:29:45.999Z</time>
      </trkpt>
      <trkpt lat="46.6789" lon="-0.14122">
        <ele>195.39</ele>
        <time>2017-01-22T08:29:47.999Z</time>
      </trkpt>
      <trkpt lat="46.67879" lon="-0.14118">
        <ele>195.28</ele>
        <time>2017-01-22T08:29:49.999Z</time>
      </trkpt>
      <trkpt lat="46.67869" lon="-0.14116">
        <ele>195.28</ele>
        <time>2017-01-22T08:29:51.999Z</time>
      </trkpt>
      <trkpt lat="46.67859" lon="-0.14113">
        <ele>195.32</ele>
        <time>2017-01-22T08:29:53.999Z</time>
      </trkpt>
      <trkpt lat="46.67848" lon="-0.14111">
        <ele>195.38</ele>
        <time>2017-01-22T08:29:55.999Z</time>
      </trkpt>
      <trkpt lat="46.67838" lon="-0.1411">
        <ele>195.42</ele>
        <time>2017-01-22T08:29:57.999Z</time>
      </trkpt>
      <trkpt lat="46.67824" lon="-0.14107">
        <ele>195.7</ele>
        <time>2017-01-22T08:30:00.999Z</time>
      </trkpt>
      <trkpt lat="46.67815" lon="-0.14105">
        <ele>195.72</ele>
        <time>2017-01-22T08:30:02.999Z</time>
      </trkpt>
      <trkpt lat="46.67806" lon="-0.14104">
        <ele>195.6</ele>
        <time>2017-01-22T08:30:04.999Z</time>
      </trkpt>
      <trkpt lat="46.67794" lon="-0.14102">
        <ele>195.08</ele>
        <time>2017-01-22T08:30:07.999Z</time>
      </trkpt>
      <trkpt lat="46.67784" lon="-0.14101">
        <ele>195.03</ele>
        <time>2017-01-22T08:30:10.999Z</time>
      </trkpt>
      <trkpt lat="46.67773" lon="-0.14096">
        <ele>195</ele>
        <time>2017-01-22T08:30:13.999Z</time>
      </trkpt>
      <trkpt lat="46.67764" lon="-0.14095">
        <ele>194.97</ele>
        <time>2017-01-22T08:30:16.999Z</time>
      </trkpt>
      <trkpt lat="46.67755" lon="-0.14095">
        <ele>194.97</ele>
        <time>2017-01-22T08:30:19.999Z</time>
      </trkpt>
      <trkpt lat="46.67745" lon="-0.14095">
        <ele>195.01</ele>
        <time>2017-01-22T08:30:22.999Z</time>
      </trkpt>
      <trkpt lat="46.67736" lon="-0.14095">
        <ele>195.07</ele>
        <time>2017-01-22T08:30:25.999Z</time>
      </trkpt>
      <trkpt lat="46.67727" lon="-0.14097">
        <ele>195.17</ele>
        <time>2017-01-22T08:30:28.999Z</time>
      </trkpt>
      <trkpt lat="46.67716" lon="-0.141">
        <ele>195.29</ele>
        <time>2017-01-22T08:30:31.999Z</time>
      </trkpt>
      <trkpt lat="46.67705" lon="-0.14101">
        <ele>195.44</ele>
        <time>2017-01-22T08:30:35.999Z</time>
      </trkpt>
      <trkpt lat="46.67695" lon="-0.14101">
        <ele>195.62</ele>
        <time>2017-01-22T08:30:39.999Z</time>
      </trkpt>
      <trkpt lat="46.67683" lon="-0.14101">
        <ele>195.79</ele>
        <time>2017-01-22T08:30:43.999Z</time>
      </trkpt>
      <trkpt lat="46.67674" lon="-0.14103">
        <ele>195.94</ele>
        <time>2017-01-22T08:30:47.999Z</time>
      </trkpt>
      <trkpt lat="46.67685" lon="-0.14098">
        <ele>196.21</ele>
        <time>2017-01-22T08:31:09.999Z</time>
      </trkpt>
      <trkpt lat="46.67696" lon="-0.14098">
        <ele>196.14</ele>
        <time>2017-01-22T08:31:13.999Z</time>
      </trkpt>
      <trkpt lat="46.67707" lon="-0.14099">
        <ele>196.09</ele>
        <time>2017-01-22T08:31:16.999Z</time>
      </trkpt>
      <trkpt lat="46.67719" lon="-0.14098">
        <ele>196.02</ele>
        <time>2017-01-22T08:31:19.999Z</time>
      </trkpt>
      <trkpt lat="46.67729" lon="-0.14097">
        <ele>195.92</ele>
        <time>2017-01-22T08:31:22.999Z</time>
      </trkpt>
      <trkpt lat="46.6774" lon="-0.14096">
        <ele>195.59</ele>
        <time>2017-01-22T08:31:25.999Z</time>
      </trkpt>
      <trkpt lat="46.67749" lon="-0.14095">
        <ele>195.53</ele>
        <time>2017-01-22T08:31:28.999Z</time>
      </trkpt>
      <trkpt lat="46.67757" lon="-0.14094">
        <ele>195.49</ele>
        <time>2017-01-22T08:31:31.999Z</time>
      </trkpt>
      <trkpt lat="46.67767" lon="-0.14094">
        <ele>195.48</ele>
        <time>2017-01-22T08:31:34.999Z</time>
      </trkpt>
      <trkpt lat="46.67777" lon="-0.14095">
        <ele>195.49</ele>
        <time>2017-01-22T08:31:37.999Z</time>
      </trkpt>
      <trkpt lat="46.67787" lon="-0.14089">
        <ele>195.45</ele>
        <time>2017-01-22T08:31:41.999Z</time>
      </trkpt>
      <trkpt lat="46.67788" lon="-0.14074">
        <ele>195.43</ele>
        <time>2017-01-22T08:31:44.999Z</time>
      </trkpt>
      <trkpt lat="46.67787" lon="-0.14055">
        <ele>195.57</ele>
        <time>2017-01-22T08:31:47.999Z</time>
      </trkpt>
      <trkpt lat="46.67786" lon="-0.14042">
        <ele>195.67</ele>
        <time>2017-01-22T08:31:49.999Z</time>
      </trkpt>
      <trkpt lat="46.67784" lon="-0.14027">
        <ele>195.77</ele>
        <time>2017-01-22T08:31:51.999Z</time>
      </trkpt>
      <trkpt lat="46.67782" lon="-0.14011">
        <ele>195.8</ele>
        <time>2017-01-22T08:31:53.999Z</time>
      </trkpt>
      <trkpt lat="46.67779" lon="-0.13995">
        <ele>195.9</ele>
        <time>2017-01-22T08:31:55.999Z</time>
      </trkpt>
      <trkpt lat="46.67777" lon="-0.13977">
        <ele>195.98</ele>
        <time>2017-01-22T08:31:57.999Z</time>
      </trkpt>
      <trkpt lat="46.67774" lon="-0.13959">
        <ele>196.05</ele>
        <time>2017-01-22T08:31:59.999Z</time>
      </trkpt>
      <trkpt lat="46.67772" lon="-0.1394">
        <ele>195.94</ele>
        <time>2017-01-22T08:32:01.999Z</time>
      </trkpt>
      <trkpt lat="46.67769" lon="-0.13922">
        <ele>195.75</ele>
        <time>2017-01-22T08:32:03.999Z</time>
      </trkpt>
      <trkpt lat="46.67766" lon="-0.13903">
        <ele>195.52</ele>
        <time>2017-01-22T08:32:05.999Z</time>
      </trkpt>
      <trkpt lat="46.67763" lon="-0.13885">
        <ele>195.34</ele>
        <time>2017-01-22T08:32:07.999Z</time>
      </trkpt>
      <trkpt lat="46.6776" lon="-0.13868">
        <ele>195.15</ele>
        <time>2017-01-22T08:32:09.999Z</time>
      </trkpt>
      <trkpt lat="46.67759" lon="-0.1385">
        <ele>194.95</ele>
        <time>2017-01-22T08:32:11.999Z</time>
      </trkpt>
      <trkpt lat="46.67757" lon="-0.13833">
        <ele>194.76</ele>
        <time>2017-01-22T08:32:13.999Z</time>
      </trkpt>
      <trkpt lat="46.67755" lon="-0.13815">
        <ele>194.53</ele>
        <time>2017-01-22T08:32:15.999Z</time>
      </trkpt>
      <trkpt lat="46.67753" lon="-0.13797">
        <ele>194.29</ele>
        <time>2017-01-22T08:32:17.999Z</time>
      </trkpt>
      <trkpt lat="46.67751" lon="-0.1378">
        <ele>194.02</ele>
        <time>2017-01-22T08:32:19.999Z</time>
      </trkpt>
      <trkpt lat="46.67749" lon="-0.13764">
        <ele>193.74</ele>
        <time>2017-01-22T08:32:21.999Z</time>
      </trkpt>
      <trkpt lat="46.67748" lon="-0.13747">
        <ele>193.37</ele>
        <time>2017-01-22T08:32:23.999Z</time>
      </trkpt>
      <trkpt lat="46.67746" lon="-0.13729">
        <ele>193.07</ele>
        <time>2017-01-22T08:32:25.999Z</time>
      </trkpt>
      <trkpt lat="46.67745" lon="-0.1371">
        <ele>192.83</ele>
        <time>2017-01-22T08:32:27.999Z</time>
      </trkpt>
      <trkpt lat="46.67744" lon="-0.13691">
        <ele>192.56</ele>
        <time>2017-01-22T08:32:29.999Z</time>
      </trkpt>
      <trkpt lat="46.67744" lon="-0.13672">
        <ele>192.31</ele>
        <time>2017-01-22T08:32:31.999Z</time>
      </trkpt>
      <trkpt lat="46.67743" lon="-0.13653">
        <ele>192.06</ele>
        <time>2017-01-22T08:32:33.999Z</time>
      </trkpt>
      <trkpt lat="46.67743" lon="-0.13634">
        <ele>191.86</ele>
        <time>2017-01-22T08:32:35.999Z</time>
      </trkpt>
      <trkpt lat="46.67742" lon="-0.13617">
        <ele>191.69</ele>
        <time>2017-01-22T08:32:37.999Z</time>
      </trkpt>
      <trkpt lat="46.67742" lon="-0.136">
        <ele>191.61</ele>
        <time>2017-01-22T08:32:39.999Z</time>
      </trkpt>
      <trkpt lat="46.67744" lon="-0.13583">
        <ele>191.49</ele>
        <time>2017-01-22T08:32:42.999Z</time>
      </trkpt>
      <trkpt lat="46.67747" lon="-0.1357">
        <ele>191.47</ele>
        <time>2017-01-22T08:32:45.999Z</time>
      </trkpt>
      <trkpt lat="46.67749" lon="-0.13558">
        <ele>191.43</ele>
        <time>2017-01-22T08:32:48.999Z</time>
      </trkpt>
      <trkpt lat="46.67753" lon="-0.13545">
        <ele>191.4</ele>
        <time>2017-01-22T08:32:51.999Z</time>
      </trkpt>
      <trkpt lat="46.67757" lon="-0.13533">
        <ele>191.44</ele>
        <time>2017-01-22T08:32:54.999Z</time>
      </trkpt>
      <trkpt lat="46.6776" lon="-0.1352">
        <ele>191.61</ele>
        <time>2017-01-22T08:32:57.999Z</time>
      </trkpt>
      <trkpt lat="46.67765" lon="-0.13505">
        <ele>191.79</ele>
        <time>2017-01-22T08:33:00.999Z</time>
      </trkpt>
      <trkpt lat="46.67769" lon="-0.13492">
        <ele>191.99</ele>
        <time>2017-01-22T08:33:03.999Z</time>
      </trkpt>
      <trkpt lat="46.67774" lon="-0.13479">
        <ele>192.16</ele>
        <time>2017-01-22T08:33:06.999Z</time>
      </trkpt>
      <trkpt lat="46.6778" lon="-0.13464">
        <ele>192.85</ele>
        <time>2017-01-22T08:33:09.999Z</time>
      </trkpt>
      <trkpt lat="46.67786" lon="-0.13454">
        <ele>192.95</ele>
        <time>2017-01-22T08:33:11.999Z</time>
      </trkpt>
      <trkpt lat="46.67792" lon="-0.13443">
        <ele>193.07</ele>
        <time>2017-01-22T08:33:14.999Z</time>
      </trkpt>
      <trkpt lat="46.67799" lon="-0.13433">
        <ele>193.16</ele>
        <time>2017-01-22T08:33:17.999Z</time>
      </trkpt>
      <trkpt lat="46.67807" lon="-0.13421">
        <ele>193.22</ele>
        <time>2017-01-22T08:33:20.999Z</time>
      </trkpt>
      <trkpt lat="46.67814" lon="-0.13411">
        <ele>193.28</ele>
        <time>2017-01-22T08:33:24.999Z</time>
      </trkpt>
      <trkpt lat="46.6782" lon="-0.13401">
        <ele>193.28</ele>
        <time>2017-01-22T08:33:28.999Z</time>
      </trkpt>
      <trkpt lat="46.67821" lon="-0.13388">
        <ele>193.2</ele>
        <time>2017-01-22T08:33:33.999Z</time>
      </trkpt>
      <trkpt lat="46.67812" lon="-0.13379">
        <ele>193.06</ele>
        <time>2017-01-22T08:33:38.999Z</time>
      </trkpt>
      <trkpt lat="46.67803" lon="-0.13384">
        <ele>192.79</ele>
        <time>2017-01-22T08:33:44.999Z</time>
      </trkpt>
      <trkpt lat="46.67793" lon="-0.13386">
        <ele>192.57</ele>
        <time>2017-01-22T08:33:48.999Z</time>
      </trkpt>
      <trkpt lat="46.67781" lon="-0.13392">
        <ele>192.33</ele>
        <time>2017-01-22T08:33:52.999Z</time>
      </trkpt>
      <trkpt lat="46.67772" lon="-0.13397">
        <ele>192.17</ele>
        <time>2017-01-22T08:33:55.999Z</time>
      </trkpt>
      <trkpt lat="46.67763" lon="-0.13404">
        <ele>192.03</ele>
        <time>2017-01-22T08:33:58.999Z</time>
      </trkpt>
      <trkpt lat="46.67757" lon="-0.13414">
        <ele>191.93</ele>
        <time>2017-01-22T08:34:01.999Z</time>
      </trkpt>
      <trkpt lat="46.67754" lon="-0.13429">
        <ele>191.82</ele>
        <time>2017-01-22T08:34:05.999Z</time>
      </trkpt>
      <trkpt lat="46.67752" lon="-0.13443">
        <ele>191.71</ele>
        <time>2017-01-22T08:34:09.999Z</time>
      </trkpt>
      <trkpt lat="46.6775" lon="-0.13456">
        <ele>191.25</ele>
        <time>2017-01-22T08:35:40.999Z</time>
      </trkpt>
      <trkpt lat="46.6775" lon="-0.13473">
        <ele>191.25</ele>
        <time>2017-01-22T08:35:47.999Z</time>
      </trkpt>
      <trkpt lat="46.67749" lon="-0.13488">
        <ele>191.3</ele>
        <time>2017-01-22T08:35:50.999Z</time>
      </trkpt>
      <trkpt lat="46.67748" lon="-0.13502">
        <ele>191.36</ele>
        <time>2017-01-22T08:35:53.999Z</time>
      </trkpt>
      <trkpt lat="46.67747" lon="-0.13518">
        <ele>191.44</ele>
        <time>2017-01-22T08:35:57.999Z</time>
      </trkpt>
      <trkpt lat="46.67746" lon="-0.13534">
        <ele>191.57</ele>
        <time>2017-01-22T08:36:02.999Z</time>
      </trkpt>
      <trkpt lat="46.67746" lon="-0.13547">
        <ele>191.66</ele>
        <time>2017-01-22T08:36:06.999Z</time>
      </trkpt>
      <trkpt lat="46.67744" lon="-0.13561">
        <ele>191.7</ele>
        <time>2017-01-22T08:36:10.999Z</time>
      </trkpt>
      <trkpt lat="46.67744" lon="-0.13575">
        <ele>191.66</ele>
        <time>2017-01-22T08:36:16.999Z</time>
      </trkpt>
      <trkpt lat="46.67749" lon="-0.13564">
        <ele>191.58</ele>
        <time>2017-01-22T08:36:21.999Z</time>
      </trkpt>
      <trkpt lat="46.67752" lon="-0.13549">
        <ele>191.43</ele>
        <time>2017-01-22T08:36:24.999Z</time>
      </trkpt>
      <trkpt lat="46.67754" lon="-0.13536">
        <ele>191.29</ele>
        <time>2017-01-22T08:36:26.999Z</time>
      </trkpt>
      <trkpt lat="46.67757" lon="-0.13524">
        <ele>191.22</ele>
        <time>2017-01-22T08:36:28.999Z</time>
      </trkpt>
      <trkpt lat="46.67762" lon="-0.13511">
        <ele>191.12</ele>
        <time>2017-01-22T08:36:30.999Z</time>
      </trkpt>
      <trkpt lat="46.67767" lon="-0.13498">
        <ele>190.98</ele>
        <time>2017-01-22T08:36:32.999Z</time>
      </trkpt>
      <trkpt lat="46.67772" lon="-0.13486">
        <ele>190.75</ele>
        <time>2017-01-22T08:36:34.999Z</time>
      </trkpt>
      <trkpt lat="46.67776" lon="-0.13474">
        <ele>190.52</ele>
        <time>2017-01-22T08:36:36.999Z</time>
      </trkpt>
      <trkpt lat="46.67784" lon="-0.13457">
        <ele>190.22</ele>
        <time>2017-01-22T08:36:39.999Z</time>
      </trkpt>
      <trkpt lat="46.6779" lon="-0.13447">
        <ele>189.99</ele>
        <time>2017-01-22T08:36:41.999Z</time>
      </trkpt>
      <trkpt lat="46.67798" lon="-0.13433">
        <ele>189.81</ele>
        <time>2017-01-22T08:36:44.999Z</time>
      </trkpt>
      <trkpt lat="46.67806" lon="-0.13421">
        <ele>189.77</ele>
        <time>2017-01-22T08:36:47.999Z</time>
      </trkpt>
      <trkpt lat="46.67814" lon="-0.1341">
        <ele>189.78</ele>
        <time>2017-01-22T08:36:50.999Z</time>
      </trkpt>
      <trkpt lat="46.67822" lon="-0.134">
        <ele>189.8</ele>
        <time>2017-01-22T08:36:53.999Z</time>
      </trkpt>
      <trkpt lat="46.67831" lon="-0.1339">
        <ele>189.81</ele>
        <time>2017-01-22T08:36:56.999Z</time>
      </trkpt>
      <trkpt lat="46.6784" lon="-0.13381">
        <ele>189.83</ele>
        <time>2017-01-22T08:36:59.999Z</time>
      </trkpt>
      <trkpt lat="46.6785" lon="-0.13372">
        <ele>189.85</ele>
        <time>2017-01-22T08:37:02.999Z</time>
      </trkpt>
      <trkpt lat="46.6786" lon="-0.13363">
        <ele>189.89</ele>
        <time>2017-01-22T08:37:05.999Z</time>
      </trkpt>
      <trkpt lat="46.67872" lon="-0.13355">
        <ele>189.93</ele>
        <time>2017-01-22T08:37:08.999Z</time>
      </trkpt>
      <trkpt lat="46.67883" lon="-0.13347">
        <ele>190.44</ele>
        <time>2017-01-22T08:37:11.999Z</time>
      </trkpt>
      <trkpt lat="46.67894" lon="-0.13339">
        <ele>190.88</ele>
        <time>2017-01-22T08:37:14.999Z</time>
      </trkpt>
      <trkpt lat="46.67904" lon="-0.13331">
        <ele>191.36</ele>
        <time>2017-01-22T08:37:17.999Z</time>
      </trkpt>
      <trkpt lat="46.67915" lon="-0.13323">
        <ele>191.83</ele>
        <time>2017-01-22T08:37:20.999Z</time>
      </trkpt>
      <trkpt lat="46.67925" lon="-0.13314">
        <ele>192.34</ele>
        <time>2017-01-22T08:37:23.999Z</time>
      </trkpt>
      <trkpt lat="46.67936" lon="-0.13305">
        <ele>192.74</ele>
        <time>2017-01-22T08:37:26.999Z</time>
      </trkpt>
      <trkpt lat="46.67947" lon="-0.13295">
        <ele>193.13</ele>
        <time>2017-01-22T08:37:29.999Z</time>
      </trkpt>
      <trkpt lat="46.67957" lon="-0.13284">
        <ele>193.51</ele>
        <time>2017-01-22T08:37:32.999Z</time>
      </trkpt>
      <trkpt lat="46.67965" lon="-0.13273">
        <ele>193.84</ele>
        <time>2017-01-22T08:37:35.999Z</time>
      </trkpt>
      <trkpt lat="46.67975" lon="-0.13261">
        <ele>194.13</ele>
        <time>2017-01-22T08:37:38.999Z</time>
      </trkpt>
      <trkpt lat="46.67981" lon="-0.1325">
        <ele>194.32</ele>
        <time>2017-01-22T08:37:41.999Z</time>
      </trkpt>
      <trkpt lat="46.6799" lon="-0.13238">
        <ele>194.56</ele>
        <time>2017-01-22T08:37:44.999Z</time>
      </trkpt>
      <trkpt lat="46.67997" lon="-0.13227">
        <ele>194.78</ele>
        <time>2017-01-22T08:37:47.999Z</time>
      </trkpt>
      <trkpt lat="46.68005" lon="-0.13214">
        <ele>195.21</ele>
        <time>2017-01-22T08:37:50.999Z</time>
      </trkpt>
      <trkpt lat="46.68013" lon="-0.13202">
        <ele>195.72</ele>
        <time>2017-01-22T08:37:53.999Z</time>
      </trkpt>
      <trkpt lat="46.68021" lon="-0.13187">
        <ele>196.15</ele>
        <time>2017-01-22T08:37:56.999Z</time>
      </trkpt>
      <trkpt lat="46.68029" lon="-0.13173">
        <ele>196.63</ele>
        <time>2017-01-22T08:37:59.999Z</time>
      </trkpt>
      <trkpt lat="46.68037" lon="-0.13157">
        <ele>197.03</ele>
        <time>2017-01-22T08:38:02.999Z</time>
      </trkpt>
      <trkpt lat="46.68042" lon="-0.13146">
        <ele>197.23</ele>
        <time>2017-01-22T08:38:04.999Z</time>
      </trkpt>
      <trkpt lat="46.68049" lon="-0.13129">
        <ele>197.48</ele>
        <time>2017-01-22T08:38:07.999Z</time>
      </trkpt>
      <trkpt lat="46.68053" lon="-0.13118">
        <ele>197.65</ele>
        <time>2017-01-22T08:38:09.999Z</time>
      </trkpt>
      <trkpt lat="46.68059" lon="-0.13101">
        <ele>197.87</ele>
        <time>2017-01-22T08:38:12.999Z</time>
      </trkpt>
      <trkpt lat="46.68065" lon="-0.13087">
        <ele>197.97</ele>
        <time>2017-01-22T08:38:15.999Z</time>
      </trkpt>
      <trkpt lat="46.6807" lon="-0.13072">
        <ele>197.98</ele>
        <time>2017-01-22T08:38:18.999Z</time>
      </trkpt>
      <trkpt lat="46.68074" lon="-0.13059">
        <ele>197.99</ele>
        <time>2017-01-22T08:38:21.999Z</time>
      </trkpt>
      <trkpt lat="46.68079" lon="-0.13044">
        <ele>198.02</ele>
        <time>2017-01-22T08:38:25.999Z</time>
      </trkpt>
      <trkpt lat="46.68073" lon="-0.13057">
        <ele>198.24</ele>
        <time>2017-01-22T08:38:43.999Z</time>
      </trkpt>
      <trkpt lat="46.68068" lon="-0.1307">
        <ele>198.29</ele>
        <time>2017-01-22T08:38:46.999Z</time>
      </trkpt>
      <trkpt lat="46.68063" lon="-0.13084">
        <ele>198.44</ele>
        <time>2017-01-22T08:38:49.999Z</time>
      </trkpt>
      <trkpt lat="46.68057" lon="-0.13099">
        <ele>198.7</ele>
        <time>2017-01-22T08:38:52.999Z</time>
      </trkpt>
      <trkpt lat="46.68052" lon="-0.13114">
        <ele>198.72</ele>
        <time>2017-01-22T08:38:55.999Z</time>
      </trkpt>
      <trkpt lat="46.68045" lon="-0.1313">
        <ele>198.63</ele>
        <time>2017-01-22T08:38:58.999Z</time>
      </trkpt>
      <trkpt lat="46.68039" lon="-0.13146">
        <ele>198.53</ele>
        <time>2017-01-22T08:39:01.999Z</time>
      </trkpt>
      <trkpt lat="46.68031" lon="-0.13161">
        <ele>198.37</ele>
        <time>2017-01-22T08:39:04.999Z</time>
      </trkpt>
      <trkpt lat="46.68024" lon="-0.13176">
        <ele>198.24</ele>
        <time>2017-01-22T08:39:07.999Z</time>
      </trkpt>
      <trkpt lat="46.68016" lon="-0.1319">
        <ele>198.22</ele>
        <time>2017-01-22T08:39:10.999Z</time>
      </trkpt>
      <trkpt lat="46.68008" lon="-0.13203">
        <ele>198.28</ele>
        <time>2017-01-22T08:39:13.999Z</time>
      </trkpt>
      <trkpt lat="46.68" lon="-0.13216">
        <ele>198.41</ele>
        <time>2017-01-22T08:39:16.999Z</time>
      </trkpt>
      <trkpt lat="46.67991" lon="-0.1323">
        <ele>198.6</ele>
        <time>2017-01-22T08:39:19.999Z</time>
      </trkpt>
      <trkpt lat="46.67982" lon="-0.13244">
        <ele>198.81</ele>
        <time>2017-01-22T08:39:22.999Z</time>
      </trkpt>
      <trkpt lat="46.67973" lon="-0.13256">
        <ele>199.04</ele>
        <time>2017-01-22T08:39:25.999Z</time>
      </trkpt>
      <trkpt lat="46.67963" lon="-0.1327">
        <ele>199.18</ele>
        <time>2017-01-22T08:39:28.999Z</time>
      </trkpt>
      <trkpt lat="46.67957" lon="-0.13279">
        <ele>199.24</ele>
        <time>2017-01-22T08:39:30.999Z</time>
      </trkpt>
      <trkpt lat="46.6795" lon="-0.13288">
        <ele>199.28</ele>
        <time>2017-01-22T08:39:32.999Z</time>
      </trkpt>
      <trkpt lat="46.67942" lon="-0.13297">
        <ele>199.3</ele>
        <time>2017-01-22T08:39:34.999Z</time>
      </trkpt>
      <trkpt lat="46.67934" lon="-0.13305">
        <ele>199.29</ele>
        <time>2017-01-22T08:39:36.999Z</time>
      </trkpt>
      <trkpt lat="46.67926" lon="-0.13312">
        <ele>199.27</ele>
        <time>2017-01-22T08:39:38.999Z</time>
      </trkpt>
      <trkpt lat="46.67918" lon="-0.13319">
        <ele>199.27</ele>
        <time>2017-01-22T08:39:40.999Z</time>
      </trkpt>
      <trkpt lat="46.6791" lon="-0.13325">
        <ele>199.29</ele>
        <time>2017-01-22T08:39:42.999Z</time>
      </trkpt>
      <trkpt lat="46.67901" lon="-0.13332">
        <ele>199.32</ele>
        <time>2017-01-22T08:39:44.999Z</time>
      </trkpt>
      <trkpt lat="46.67892" lon="-0.13339">
        <ele>199.37</ele>
        <time>2017-01-22T08:39:46.999Z</time>
      </trkpt>
      <trkpt lat="46.67883" lon="-0.13346">
        <ele>199.42</ele>
        <time>2017-01-22T08:39:48.999Z</time>
      </trkpt>
      <trkpt lat="46.67873" lon="-0.13352">
        <ele>199.49</ele>
        <time>2017-01-22T08:39:50.999Z</time>
      </trkpt>
      <trkpt lat="46.67865" lon="-0.13359">
        <ele>199.58</ele>
        <time>2017-01-22T08:39:52.999Z</time>
      </trkpt>
      <trkpt lat="46.67856" lon="-0.13365">
        <ele>199.69</ele>
        <time>2017-01-22T08:39:54.999Z</time>
      </trkpt>
      <trkpt lat="46.67848" lon="-0.13371">
        <ele>199.81</ele>
        <time>2017-01-22T08:39:56.999Z</time>
      </trkpt>
      <trkpt lat="46.67836" lon="-0.13374">
        <ele>199.89</ele>
        <time>2017-01-22T08:39:59.999Z</time>
      </trkpt>
      <trkpt lat="46.67826" lon="-0.13377">
        <ele>199.92</ele>
        <time>2017-01-22T08:40:07.999Z</time>
      </trkpt>
      <trkpt lat="46.67817" lon="-0.13379">
        <ele>199.91</ele>
        <time>2017-01-22T08:40:11.999Z</time>
      </trkpt>
      <trkpt lat="46.67817" lon="-0.13365">
        <ele>199.87</ele>
        <time>2017-01-22T08:40:18.999Z</time>
      </trkpt>
      <trkpt lat="46.67822" lon="-0.1335">
        <ele>199.82</ele>
        <time>2017-01-22T08:40:22.999Z</time>
      </trkpt>
      <trkpt lat="46.67828" lon="-0.13333">
        <ele>199.76</ele>
        <time>2017-01-22T08:40:25.999Z</time>
      </trkpt>
      <trkpt lat="46.67832" lon="-0.13318">
        <ele>199.71</ele>
        <time>2017-01-22T08:40:28.999Z</time>
      </trkpt>
      <trkpt lat="46.67836" lon="-0.13303">
        <ele>199.67</ele>
        <time>2017-01-22T08:40:31.999Z</time>
      </trkpt>
      <trkpt lat="46.67839" lon="-0.13288">
        <ele>199.61</ele>
        <time>2017-01-22T08:40:34.999Z</time>
      </trkpt>
      <trkpt lat="46.67842" lon="-0.13272">
        <ele>199.55</ele>
        <time>2017-01-22T08:40:37.999Z</time>
      </trkpt>
      <trkpt lat="46.67844" lon="-0.13257">
        <ele>199.06</ele>
        <time>2017-01-22T08:40:39.999Z</time>
      </trkpt>
      <trkpt lat="46.67846" lon="-0.13242">
        <ele>198.63</ele>
        <time>2017-01-22T08:40:41.999Z</time>
      </trkpt>
      <trkpt lat="46.67847" lon="-0.13227">
        <ele>198.33</ele>
        <time>2017-01-22T08:40:43.999Z</time>
      </trkpt>
      <trkpt lat="46.67847" lon="-0.13211">
        <ele>198.07</ele>
        <time>2017-01-22T08:40:45.999Z</time>
      </trkpt>
      <trkpt lat="46.67846" lon="-0.13194">
        <ele>197.72</ele>
        <time>2017-01-22T08:40:47.999Z</time>
      </trkpt>
      <trkpt lat="46.67842" lon="-0.13173">
        <ele>197.18</ele>
        <time>2017-01-22T08:40:49.999Z</time>
      </trkpt>
      <trkpt lat="46.67839" lon="-0.13155">
        <ele>196.7</ele>
        <time>2017-01-22T08:40:51.999Z</time>
      </trkpt>
      <trkpt lat="46.67836" lon="-0.13137">
        <ele>196.21</ele>
        <time>2017-01-22T08:40:53.999Z</time>
      </trkpt>
      <trkpt lat="46.67833" lon="-0.13119">
        <ele>195.54</ele>
        <time>2017-01-22T08:40:55.999Z</time>
      </trkpt>
      <trkpt lat="46.6783" lon="-0.13099">
        <ele>194.72</ele>
        <time>2017-01-22T08:40:57.999Z</time>
      </trkpt>
      <trkpt lat="46.67826" lon="-0.13081">
        <ele>194.07</ele>
        <time>2017-01-22T08:40:59.999Z</time>
      </trkpt>
      <trkpt lat="46.67822" lon="-0.13063">
        <ele>193.56</ele>
        <time>2017-01-22T08:41:01.999Z</time>
      </trkpt>
      <trkpt lat="46.67817" lon="-0.13048">
        <ele>193.13</ele>
        <time>2017-01-22T08:41:03.999Z</time>
      </trkpt>
      <trkpt lat="46.67811" lon="-0.13033">
        <ele>192.75</ele>
        <time>2017-01-22T08:41:05.999Z</time>
      </trkpt>
      <trkpt lat="46.67806" lon="-0.13015">
        <ele>192.43</ele>
        <time>2017-01-22T08:41:07.999Z</time>
      </trkpt>
      <trkpt lat="46.67802" lon="-0.12996">
        <ele>191.84</ele>
        <time>2017-01-22T08:41:09.999Z</time>
      </trkpt>
      <trkpt lat="46.67802" lon="-0.12975">
        <ele>191.27</ele>
        <time>2017-01-22T08:41:11.999Z</time>
      </trkpt>
      <trkpt lat="46.67806" lon="-0.12956">
        <ele>190.88</ele>
        <time>2017-01-22T08:41:13.999Z</time>
      </trkpt>
      <trkpt lat="46.67809" lon="-0.12937">
        <ele>190.63</ele>
        <time>2017-01-22T08:41:15.999Z</time>
      </trkpt>
      <trkpt lat="46.67813" lon="-0.1292">
        <ele>190.47</ele>
        <time>2017-01-22T08:41:17.999Z</time>
      </trkpt>
      <trkpt lat="46.67817" lon="-0.12903">
        <ele>190.42</ele>
        <time>2017-01-22T08:41:19.999Z</time>
      </trkpt>
      <trkpt lat="46.67822" lon="-0.12886">
        <ele>190.33</ele>
        <time>2017-01-22T08:41:21.999Z</time>
      </trkpt>
      <trkpt lat="46.67826" lon="-0.12871">
        <ele>190.25</ele>
        <time>2017-01-22T08:41:23.999Z</time>
      </trkpt>
      <trkpt lat="46.67829" lon="-0.12855">
        <ele>190.12</ele>
        <time>2017-01-22T08:41:25.999Z</time>
      </trkpt>
      <trkpt lat="46.67829" lon="-0.12835">
        <ele>190.06</ele>
        <time>2017-01-22T08:41:27.999Z</time>
      </trkpt>
      <trkpt lat="46.67829" lon="-0.12815">
        <ele>189.72</ele>
        <time>2017-01-22T08:41:29.999Z</time>
      </trkpt>
      <trkpt lat="46.67829" lon="-0.12797">
        <ele>189.39</ele>
        <time>2017-01-22T08:41:31.999Z</time>
      </trkpt>
      <trkpt lat="46.67828" lon="-0.12779">
        <ele>188.87</ele>
        <time>2017-01-22T08:41:33.999Z</time>
      </trkpt>
      <trkpt lat="46.67827" lon="-0.12762">
        <ele>188.34</ele>
        <time>2017-01-22T08:41:35.999Z</time>
      </trkpt>
      <trkpt lat="46.67826" lon="-0.12744">
        <ele>187.98</ele>
        <time>2017-01-22T08:41:37.999Z</time>
      </trkpt>
      <trkpt lat="46.67825" lon="-0.12726">
        <ele>187.59</ele>
        <time>2017-01-22T08:41:39.999Z</time>
      </trkpt>
      <trkpt lat="46.67825" lon="-0.12708">
        <ele>187.57</ele>
        <time>2017-01-22T08:41:41.999Z</time>
      </trkpt>
      <trkpt lat="46.67824" lon="-0.12691">
        <ele>187.63</ele>
        <time>2017-01-22T08:41:43.999Z</time>
      </trkpt>
      <trkpt lat="46.67824" lon="-0.12677">
        <ele>187.56</ele>
        <time>2017-01-22T08:41:45.999Z</time>
      </trkpt>
      <trkpt lat="46.67824" lon="-0.12662">
        <ele>187.6</ele>
        <time>2017-01-22T08:41:47.999Z</time>
      </trkpt>
      <trkpt lat="46.67822" lon="-0.12645">
        <ele>187.61</ele>
        <time>2017-01-22T08:41:50.999Z</time>
      </trkpt>
      <trkpt lat="46.67822" lon="-0.12632">
        <ele>187.63</ele>
        <time>2017-01-22T08:41:55.999Z</time>
      </trkpt>
      <trkpt lat="46.67823" lon="-0.12618">
        <ele>187.74</ele>
        <time>2017-01-22T08:43:07.999Z</time>
      </trkpt>
      <trkpt lat="46.67814" lon="-0.12619">
        <ele>188.56</ele>
        <time>2017-01-22T08:44:51.999Z</time>
      </trkpt>
      <trkpt lat="46.67801" lon="-0.12617">
        <ele>189.31</ele>
        <time>2017-01-22T08:48:53.999Z</time>
      </trkpt>
      <trkpt lat="46.67788" lon="-0.12617">
        <ele>189.61</ele>
        <time>2017-01-22T08:48:56.999Z</time>
      </trkpt>
      <trkpt lat="46.67777" lon="-0.1261">
        <ele>189.65</ele>
        <time>2017-01-22T08:48:59.999Z</time>
      </trkpt>
      <trkpt lat="46.67778" lon="-0.12592">
        <ele>189.97</ele>
        <time>2017-01-22T08:49:02.999Z</time>
      </trkpt>
      <trkpt lat="46.67779" lon="-0.12579">
        <ele>190.19</ele>
        <time>2017-01-22T08:49:04.999Z</time>
      </trkpt>
      <trkpt lat="46.67781" lon="-0.12566">
        <ele>190.33</ele>
        <time>2017-01-22T08:49:06.999Z</time>
      </trkpt>
      <trkpt lat="46.6778" lon="-0.12551">
        <ele>190.44</ele>
        <time>2017-01-22T08:49:08.999Z</time>
      </trkpt>
      <trkpt lat="46.67781" lon="-0.12537">
        <ele>190.53</ele>
        <time>2017-01-22T08:49:10.999Z</time>
      </trkpt>
      <trkpt lat="46.67781" lon="-0.1252">
        <ele>190.58</ele>
        <time>2017-01-22T08:49:12.999Z</time>
      </trkpt>
      <trkpt lat="46.67781" lon="-0.12505">
        <ele>190.62</ele>
        <time>2017-01-22T08:49:14.999Z</time>
      </trkpt>
      <trkpt lat="46.6778" lon="-0.12487">
        <ele>190.7</ele>
        <time>2017-01-22T08:49:17.999Z</time>
      </trkpt>
      <trkpt lat="46.67784" lon="-0.1247">
        <ele>190.87</ele>
        <time>2017-01-22T08:49:19.999Z</time>
      </trkpt>
      <trkpt lat="46.67787" lon="-0.12455">
        <ele>190.95</ele>
        <time>2017-01-22T08:49:21.999Z</time>
      </trkpt>
      <trkpt lat="46.67786" lon="-0.12438">
        <ele>191.01</ele>
        <time>2017-01-22T08:49:23.999Z</time>
      </trkpt>
      <trkpt lat="46.67784" lon="-0.12425">
        <ele>191.03</ele>
        <time>2017-01-22T08:49:25.999Z</time>
      </trkpt>
      <trkpt lat="46.67787" lon="-0.12408">
        <ele>191.06</ele>
        <time>2017-01-22T08:49:28.999Z</time>
      </trkpt>
      <trkpt lat="46.67791" lon="-0.12394">
        <ele>191.1</ele>
        <time>2017-01-22T08:49:31.999Z</time>
      </trkpt>
      <trkpt lat="46.67795" lon="-0.12381">
        <ele>191.19</ele>
        <time>2017-01-22T08:49:51.999Z</time>
      </trkpt>
      <trkpt lat="46.67798" lon="-0.12368">
        <ele>191.25</ele>
        <time>2017-01-22T08:49:55.999Z</time>
      </trkpt>
      <trkpt lat="46.67801" lon="-0.12349">
        <ele>191.68</ele>
        <time>2017-01-22T08:49:58.999Z</time>
      </trkpt>
      <trkpt lat="46.67805" lon="-0.12335">
        <ele>191.94</ele>
        <time>2017-01-22T08:50:00.999Z</time>
      </trkpt>
      <trkpt lat="46.67807" lon="-0.12321">
        <ele>192.2</ele>
        <time>2017-01-22T08:50:02.999Z</time>
      </trkpt>
      <trkpt lat="46.6781" lon="-0.12306">
        <ele>192.4</ele>
        <time>2017-01-22T08:50:04.999Z</time>
      </trkpt>
      <trkpt lat="46.67814" lon="-0.12288">
        <ele>192.48</ele>
        <time>2017-01-22T08:50:06.999Z</time>
      </trkpt>
      <trkpt lat="46.67817" lon="-0.12272">
        <ele>192.47</ele>
        <time>2017-01-22T08:50:08.999Z</time>
      </trkpt>
      <trkpt lat="46.67818" lon="-0.12255">
        <ele>192.45</ele>
        <time>2017-01-22T08:50:10.999Z</time>
      </trkpt>
      <trkpt lat="46.67818" lon="-0.1224">
        <ele>192.38</ele>
        <time>2017-01-22T08:50:12.999Z</time>
      </trkpt>
      <trkpt lat="46.67818" lon="-0.12224">
        <ele>192.31</ele>
        <time>2017-01-22T08:50:14.999Z</time>
      </trkpt>
      <trkpt lat="46.67817" lon="-0.12206">
        <ele>192.2</ele>
        <time>2017-01-22T08:50:17.999Z</time>
      </trkpt>
      <trkpt lat="46.67817" lon="-0.12191">
        <ele>192.18</ele>
        <time>2017-01-22T08:50:19.999Z</time>
      </trkpt>
      <trkpt lat="46.67818" lon="-0.12175">
        <ele>192.14</ele>
        <time>2017-01-22T08:50:21.999Z</time>
      </trkpt>
      <trkpt lat="46.67819" lon="-0.12158">
        <ele>192.15</ele>
        <time>2017-01-22T08:50:23.999Z</time>
      </trkpt>
      <trkpt lat="46.6782" lon="-0.12143">
        <ele>192.22</ele>
        <time>2017-01-22T08:50:25.999Z</time>
      </trkpt>
      <trkpt lat="46.67821" lon="-0.12128">
        <ele>192.35</ele>
        <time>2017-01-22T08:50:27.999Z</time>
      </trkpt>
      <trkpt lat="46.67822" lon="-0.12114">
        <ele>192.46</ele>
        <time>2017-01-22T08:50:29.999Z</time>
      </trkpt>
      <trkpt lat="46.67819" lon="-0.12097">
        <ele>192.81</ele>
        <time>2017-01-22T08:50:32.999Z</time>
      </trkpt>
      <trkpt lat="46.67814" lon="-0.12086">
        <ele>192.94</ele>
        <time>2017-01-22T08:50:34.999Z</time>
      </trkpt>
      <trkpt lat="46.67811" lon="-0.12073">
        <ele>192.92</ele>
        <time>2017-01-22T08:50:36.999Z</time>
      </trkpt>
      <trkpt lat="46.67808" lon="-0.12059">
        <ele>192.92</ele>
        <time>2017-01-22T08:50:38.999Z</time>
      </trkpt>
      <trkpt lat="46.67806" lon="-0.12045">
        <ele>192.92</ele>
        <time>2017-01-22T08:50:40.999Z</time>
      </trkpt>
      <trkpt lat="46.67803" lon="-0.12032">
        <ele>192.89</ele>
        <time>2017-01-22T08:50:42.999Z</time>
      </trkpt>
      <trkpt lat="46.67799" lon="-0.12017">
        <ele>192.87</ele>
        <time>2017-01-22T08:50:44.999Z</time>
      </trkpt>
      <trkpt lat="46.67797" lon="-0.12001">
        <ele>192.74</ele>
        <time>2017-01-22T08:50:46.999Z</time>
      </trkpt>
      <trkpt lat="46.67793" lon="-0.11983">
        <ele>192.55</ele>
        <time>2017-01-22T08:50:48.999Z</time>
      </trkpt>
      <trkpt lat="46.67789" lon="-0.11964">
        <ele>192.27</ele>
        <time>2017-01-22T08:50:50.999Z</time>
      </trkpt>
      <trkpt lat="46.67786" lon="-0.1195">
        <ele>192.06</ele>
        <time>2017-01-22T08:50:52.999Z</time>
      </trkpt>
      <trkpt lat="46.67785" lon="-0.1193">
        <ele>191.99</ele>
        <time>2017-01-22T08:50:54.999Z</time>
      </trkpt>
      <trkpt lat="46.67785" lon="-0.11911">
        <ele>192.04</ele>
        <time>2017-01-22T08:50:56.999Z</time>
      </trkpt>
      <trkpt lat="46.67789" lon="-0.11892">
        <ele>192.41</ele>
        <time>2017-01-22T08:50:59.999Z</time>
      </trkpt>
      <trkpt lat="46.67783" lon="-0.11879">
        <ele>192.9</ele>
        <time>2017-01-22T08:51:01.999Z</time>
      </trkpt>
      <trkpt lat="46.6778" lon="-0.11863">
        <ele>193.5</ele>
        <time>2017-01-22T08:51:03.999Z</time>
      </trkpt>
      <trkpt lat="46.67775" lon="-0.11851">
        <ele>194.19</ele>
        <time>2017-01-22T08:51:05.999Z</time>
      </trkpt>
      <trkpt lat="46.6777" lon="-0.11836">
        <ele>195.08</ele>
        <time>2017-01-22T08:51:08.999Z</time>
      </trkpt>
      <trkpt lat="46.67768" lon="-0.11817">
        <ele>195.65</ele>
        <time>2017-01-22T08:51:11.999Z</time>
      </trkpt>
      <trkpt lat="46.67767" lon="-0.11804">
        <ele>195.93</ele>
        <time>2017-01-22T08:51:13.999Z</time>
      </trkpt>
      <trkpt lat="46.67765" lon="-0.1179">
        <ele>196.19</ele>
        <time>2017-01-22T08:51:15.999Z</time>
      </trkpt>
      <trkpt lat="46.67763" lon="-0.11776">
        <ele>196.38</ele>
        <time>2017-01-22T08:51:17.999Z</time>
      </trkpt>
      <trkpt lat="46.67762" lon="-0.11763">
        <ele>196.54</ele>
        <time>2017-01-22T08:51:19.999Z</time>
      </trkpt>
      <trkpt lat="46.6776" lon="-0.11749">
        <ele>196.6</ele>
        <time>2017-01-22T08:51:21.999Z</time>
      </trkpt>
      <trkpt lat="46.67761" lon="-0.11736">
        <ele>196.83</ele>
        <time>2017-01-22T08:51:23.999Z</time>
      </trkpt>
      <trkpt lat="46.67762" lon="-0.11723">
        <ele>197.06</ele>
        <time>2017-01-22T08:51:25.999Z</time>
      </trkpt>
      <trkpt lat="46.67764" lon="-0.11705">
        <ele>197.29</ele>
        <time>2017-01-22T08:51:28.999Z</time>
      </trkpt>
      <trkpt lat="46.67766" lon="-0.11686">
        <ele>197.75</ele>
        <time>2017-01-22T08:51:31.999Z</time>
      </trkpt>
      <trkpt lat="46.67767" lon="-0.11672">
        <ele>197.97</ele>
        <time>2017-01-22T08:51:33.999Z</time>
      </trkpt>
      <trkpt lat="46.67768" lon="-0.11658">
        <ele>198.24</ele>
        <time>2017-01-22T08:51:35.999Z</time>
      </trkpt>
      <trkpt lat="46.67769" lon="-0.11644">
        <ele>198.68</ele>
        <time>2017-01-22T08:51:37.999Z</time>
      </trkpt>
      <trkpt lat="46.67769" lon="-0.11625">
        <ele>199.07</ele>
        <time>2017-01-22T08:51:40.999Z</time>
      </trkpt>
      <trkpt lat="46.6777" lon="-0.11611">
        <ele>199.38</ele>
        <time>2017-01-22T08:51:42.999Z</time>
      </trkpt>
      <trkpt lat="46.6777" lon="-0.11595">
        <ele>199.58</ele>
        <time>2017-01-22T08:51:44.999Z</time>
      </trkpt>
      <trkpt lat="46.6777" lon="-0.11581">
        <ele>199.75</ele>
        <time>2017-01-22T08:51:46.999Z</time>
      </trkpt>
      <trkpt lat="46.67771" lon="-0.11567">
        <ele>199.88</ele>
        <time>2017-01-22T08:51:48.999Z</time>
      </trkpt>
      <trkpt lat="46.67772" lon="-0.11547">
        <ele>200.07</ele>
        <time>2017-01-22T08:51:51.999Z</time>
      </trkpt>
      <trkpt lat="46.67772" lon="-0.11534">
        <ele>200.27</ele>
        <time>2017-01-22T08:51:53.999Z</time>
      </trkpt>
      <trkpt lat="46.67773" lon="-0.1152">
        <ele>200.28</ele>
        <time>2017-01-22T08:51:55.999Z</time>
      </trkpt>
      <trkpt lat="46.67773" lon="-0.11502">
        <ele>200.33</ele>
        <time>2017-01-22T08:51:58.999Z</time>
      </trkpt>
      <trkpt lat="46.67774" lon="-0.11486">
        <ele>200.41</ele>
        <time>2017-01-22T08:52:01.999Z</time>
      </trkpt>
      <trkpt lat="46.67772" lon="-0.11467">
        <ele>201.09</ele>
        <time>2017-01-22T08:52:04.999Z</time>
      </trkpt>
      <trkpt lat="46.67769" lon="-0.11449">
        <ele>201.16</ele>
        <time>2017-01-22T08:52:07.999Z</time>
      </trkpt>
      <trkpt lat="46.67767" lon="-0.11435">
        <ele>201.25</ele>
        <time>2017-01-22T08:52:10.999Z</time>
      </trkpt>
      <trkpt lat="46.67766" lon="-0.11419">
        <ele>201.38</ele>
        <time>2017-01-22T08:52:13.999Z</time>
      </trkpt>
      <trkpt lat="46.67767" lon="-0.11402">
        <ele>201.5</ele>
        <time>2017-01-22T08:52:16.999Z</time>
      </trkpt>
      <trkpt lat="46.67766" lon="-0.11385">
        <ele>201.64</ele>
        <time>2017-01-22T08:52:19.999Z</time>
      </trkpt>
      <trkpt lat="46.67765" lon="-0.11368">
        <ele>201.79</ele>
        <time>2017-01-22T08:52:22.999Z</time>
      </trkpt>
      <trkpt lat="46.67764" lon="-0.11354">
        <ele>201.92</ele>
        <time>2017-01-22T08:52:25.999Z</time>
      </trkpt>
      <trkpt lat="46.67762" lon="-0.11337">
        <ele>202.04</ele>
        <time>2017-01-22T08:52:28.999Z</time>
      </trkpt>
      <trkpt lat="46.67759" lon="-0.11322">
        <ele>202.12</ele>
        <time>2017-01-22T08:52:31.999Z</time>
      </trkpt>
      <trkpt lat="46.67757" lon="-0.11307">
        <ele>202.19</ele>
        <time>2017-01-22T08:52:34.999Z</time>
      </trkpt>
      <trkpt lat="46.67756" lon="-0.1129">
        <ele>202.28</ele>
        <time>2017-01-22T08:52:37.999Z</time>
      </trkpt>
      <trkpt lat="46.67755" lon="-0.11273">
        <ele>202.39</ele>
        <time>2017-01-22T08:52:40.999Z</time>
      </trkpt>
      <trkpt lat="46.67753" lon="-0.11257">
        <ele>202.5</ele>
        <time>2017-01-22T08:52:43.999Z</time>
      </trkpt>
      <trkpt lat="46.67753" lon="-0.11242">
        <ele>202.63</ele>
        <time>2017-01-22T08:52:46.999Z</time>
      </trkpt>
      <trkpt lat="46.67754" lon="-0.11226">
        <ele>202.77</ele>
        <time>2017-01-22T08:52:49.999Z</time>
      </trkpt>
      <trkpt lat="46.67753" lon="-0.11208">
        <ele>202.93</ele>
        <time>2017-01-22T08:52:52.999Z</time>
      </trkpt>
      <trkpt lat="46.67751" lon="-0.11191">
        <ele>203.11</ele>
        <time>2017-01-22T08:52:55.999Z</time>
      </trkpt>
      <trkpt lat="46.6775" lon="-0.11176">
        <ele>203.29</ele>
        <time>2017-01-22T08:52:58.999Z</time>
      </trkpt>
      <trkpt lat="46.67747" lon="-0.11164">
        <ele>203.47</ele>
        <time>2017-01-22T08:53:01.999Z</time>
      </trkpt>
      <trkpt lat="46.67744" lon="-0.1115">
        <ele>203.64</ele>
        <time>2017-01-22T08:53:04.999Z</time>
      </trkpt>
      <trkpt lat="46.67741" lon="-0.11135">
        <ele>203.86</ele>
        <time>2017-01-22T08:53:07.999Z</time>
      </trkpt>
      <trkpt lat="46.67737" lon="-0.11119">
        <ele>204.16</ele>
        <time>2017-01-22T08:53:11.999Z</time>
      </trkpt>
      <trkpt lat="46.67733" lon="-0.11104">
        <ele>204.53</ele>
        <time>2017-01-22T08:53:15.999Z</time>
      </trkpt>
      <trkpt lat="46.67735" lon="-0.1109">
        <ele>204.87</ele>
        <time>2017-01-22T08:53:18.999Z</time>
      </trkpt>
      <trkpt lat="46.67738" lon="-0.11074">
        <ele>205.21</ele>
        <time>2017-01-22T08:53:21.999Z</time>
      </trkpt>
      <trkpt lat="46.67741" lon="-0.11061">
        <ele>205.55</ele>
        <time>2017-01-22T08:53:24.999Z</time>
      </trkpt>
      <trkpt lat="46.6774" lon="-0.11047">
        <ele>206</ele>
        <time>2017-01-22T08:53:28.999Z</time>
      </trkpt>
      <trkpt lat="46.6774" lon="-0.1103">
        <ele>206.41</ele>
        <time>2017-01-22T08:53:32.999Z</time>
      </trkpt>
      <trkpt lat="46.6774" lon="-0.11017">
        <ele>206.79</ele>
        <time>2017-01-22T08:53:36.999Z</time>
      </trkpt>
      <trkpt lat="46.67739" lon="-0.11003">
        <ele>207.16</ele>
        <time>2017-01-22T08:53:40.999Z</time>
      </trkpt>
      <trkpt lat="46.67739" lon="-0.10988">
        <ele>207.56</ele>
        <time>2017-01-22T08:53:44.999Z</time>
      </trkpt>
      <trkpt lat="46.67739" lon="-0.10973">
        <ele>208</ele>
        <time>2017-01-22T08:53:48.999Z</time>
      </trkpt>
      <trkpt lat="46.6774" lon="-0.10959">
        <ele>208.44</ele>
        <time>2017-01-22T08:53:52.999Z</time>
      </trkpt>
      <trkpt lat="46.6774" lon="-0.10946">
        <ele>208.87</ele>
        <time>2017-01-22T08:53:56.999Z</time>
      </trkpt>
      <trkpt lat="46.6774" lon="-0.1093">
        <ele>209.32</ele>
        <time>2017-01-22T08:54:00.999Z</time>
      </trkpt>
      <trkpt lat="46.6774" lon="-0.10915">
        <ele>209.55</ele>
        <time>2017-01-22T08:54:02.999Z</time>
      </trkpt>
      <trkpt lat="46.67743" lon="-0.10901">
        <ele>210.03</ele>
        <time>2017-01-22T08:54:06.999Z</time>
      </trkpt>
      <trkpt lat="46.67743" lon="-0.10886">
        <ele>210.38</ele>
        <time>2017-01-22T08:54:09.999Z</time>
      </trkpt>
      <trkpt lat="46.67745" lon="-0.1087">
        <ele>210.86</ele>
        <time>2017-01-22T08:54:13.999Z</time>
      </trkpt>
      <trkpt lat="46.67746" lon="-0.10853">
        <ele>211.3</ele>
        <time>2017-01-22T08:54:17.999Z</time>
      </trkpt>
      <trkpt lat="46.67746" lon="-0.10838">
        <ele>211.6</ele>
        <time>2017-01-22T08:54:20.999Z</time>
      </trkpt>
      <trkpt lat="46.67746" lon="-0.10824">
        <ele>211.87</ele>
        <time>2017-01-22T08:54:23.999Z</time>
      </trkpt>
      <trkpt lat="46.67747" lon="-0.10811">
        <ele>212.14</ele>
        <time>2017-01-22T08:54:26.999Z</time>
      </trkpt>
      <trkpt lat="46.67746" lon="-0.10797">
        <ele>212.45</ele>
        <time>2017-01-22T08:54:29.999Z</time>
      </trkpt>
      <trkpt lat="46.67744" lon="-0.1078">
        <ele>212.92</ele>
        <time>2017-01-22T08:54:33.999Z</time>
      </trkpt>
      <trkpt lat="46.67743" lon="-0.10763">
        <ele>213.4</ele>
        <time>2017-01-22T08:54:37.999Z</time>
      </trkpt>
      <trkpt lat="46.67738" lon="-0.10751">
        <ele>214.42</ele>
        <time>2017-01-22T08:54:48.999Z</time>
      </trkpt>
      <trkpt lat="46.67735" lon="-0.10738">
        <ele>218.26</ele>
        <time>2017-01-22T08:58:35.999Z</time>
      </trkpt>
      <trkpt lat="46.67744" lon="-0.10741">
        <ele>219.8</ele>
        <time>2017-01-22T08:59:00.999Z</time>
      </trkpt>
      <trkpt lat="46.67755" lon="-0.10737">
        <ele>220.08</ele>
        <time>2017-01-22T08:59:04.999Z</time>
      </trkpt>
      <trkpt lat="46.67764" lon="-0.10735">
        <ele>220.25</ele>
        <time>2017-01-22T08:59:07.999Z</time>
      </trkpt>
      <trkpt lat="46.67823" lon="-0.10694">
        <ele>212.54</ele>
        <time>2017-01-22T08:59:21.890Z</time>
      </trkpt>
      <trkpt lat="46.67835" lon="-0.10687">
        <ele>213.92</ele>
        <time>2017-01-22T08:59:24.890Z</time>
      </trkpt>
      <trkpt lat="46.67846" lon="-0.10676">
        <ele>212.49</ele>
        <time>2017-01-22T08:59:27.999Z</time>
      </trkpt>
      <trkpt lat="46.67851" lon="-0.1066">
        <ele>212</ele>
        <time>2017-01-22T08:59:30.999Z</time>
      </trkpt>
      <trkpt lat="46.6785" lon="-0.10644">
        <ele>213.19</ele>
        <time>2017-01-22T08:59:33.999Z</time>
      </trkpt>
      <trkpt lat="46.67847" lon="-0.10627">
        <ele>214.01</ele>
        <time>2017-01-22T08:59:36.999Z</time>
      </trkpt>
      <trkpt lat="46.67842" lon="-0.10616">
        <ele>214.33</ele>
        <time>2017-01-22T08:59:38.999Z</time>
      </trkpt>
      <trkpt lat="46.67838" lon="-0.10603">
        <ele>214.55</ele>
        <time>2017-01-22T08:59:40.999Z</time>
      </trkpt>
      <trkpt lat="46.67827" lon="-0.10595">
        <ele>211.99</ele>
        <time>2017-01-22T08:59:47.999Z</time>
      </trkpt>
      <trkpt lat="46.6782" lon="-0.10584">
        <ele>211.98</ele>
        <time>2017-01-22T08:59:49.999Z</time>
      </trkpt>
      <trkpt lat="46.67813" lon="-0.10571">
        <ele>212.4</ele>
        <time>2017-01-22T08:59:51.999Z</time>
      </trkpt>
      <trkpt lat="46.67808" lon="-0.10558">
        <ele>212.59</ele>
        <time>2017-01-22T08:59:53.999Z</time>
      </trkpt>
      <trkpt lat="46.67807" lon="-0.10544">
        <ele>213.09</ele>
        <time>2017-01-22T08:59:55.999Z</time>
      </trkpt>
      <trkpt lat="46.67809" lon="-0.10529">
        <ele>213.77</ele>
        <time>2017-01-22T08:59:57.999Z</time>
      </trkpt>
      <trkpt lat="46.6781" lon="-0.10515">
        <ele>214.59</ele>
        <time>2017-01-22T08:59:59.999Z</time>
      </trkpt>
      <trkpt lat="46.67811" lon="-0.10497">
        <ele>215.1</ele>
        <time>2017-01-22T09:00:01.999Z</time>
      </trkpt>
      <trkpt lat="46.67807" lon="-0.10481">
        <ele>215.21</ele>
        <time>2017-01-22T09:00:03.999Z</time>
      </trkpt>
      <trkpt lat="46.67804" lon="-0.10467">
        <ele>215.13</ele>
        <time>2017-01-22T09:00:05.999Z</time>
      </trkpt>
      <trkpt lat="46.678" lon="-0.10454">
        <ele>215.09</ele>
        <time>2017-01-22T09:00:07.999Z</time>
      </trkpt>
      <trkpt lat="46.67799" lon="-0.10436">
        <ele>215.46</ele>
        <time>2017-01-22T09:00:10.999Z</time>
      </trkpt>
      <trkpt lat="46.67801" lon="-0.10421">
        <ele>215.78</ele>
        <time>2017-01-22T09:00:12.999Z</time>
      </trkpt>
      <trkpt lat="46.67805" lon="-0.10403">
        <ele>216.53</ele>
        <time>2017-01-22T09:00:15.999Z</time>
      </trkpt>
      <trkpt lat="46.6781" lon="-0.10387">
        <ele>216.85</ele>
        <time>2017-01-22T09:00:17.999Z</time>
      </trkpt>
      <trkpt lat="46.67817" lon="-0.10372">
        <ele>216.95</ele>
        <time>2017-01-22T09:00:19.999Z</time>
      </trkpt>
      <trkpt lat="46.67823" lon="-0.10358">
        <ele>216.95</ele>
        <time>2017-01-22T09:00:21.999Z</time>
      </trkpt>
      <trkpt lat="46.6783" lon="-0.10346">
        <ele>217.06</ele>
        <time>2017-01-22T09:00:23.999Z</time>
      </trkpt>
      <trkpt lat="46.67835" lon="-0.10335">
        <ele>217.28</ele>
        <time>2017-01-22T09:00:25.999Z</time>
      </trkpt>
      <trkpt lat="46.67841" lon="-0.10323">
        <ele>217.71</ele>
        <time>2017-01-22T09:00:27.999Z</time>
      </trkpt>
      <trkpt lat="46.67847" lon="-0.10311">
        <ele>217.93</ele>
        <time>2017-01-22T09:00:30.999Z</time>
      </trkpt>
      <trkpt lat="46.67852" lon="-0.103">
        <ele>218.19</ele>
        <time>2017-01-22T09:00:33.999Z</time>
      </trkpt>
      <trkpt lat="46.67857" lon="-0.10288">
        <ele>218.47</ele>
        <time>2017-01-22T09:00:36.999Z</time>
      </trkpt>
      <trkpt lat="46.67861" lon="-0.10274">
        <ele>218.8</ele>
        <time>2017-01-22T09:00:39.999Z</time>
      </trkpt>
      <trkpt lat="46.67865" lon="-0.10262">
        <ele>219.16</ele>
        <time>2017-01-22T09:00:42.999Z</time>
      </trkpt>
      <trkpt lat="46.6787" lon="-0.10247">
        <ele>219.75</ele>
        <time>2017-01-22T09:00:46.999Z</time>
      </trkpt>
      <trkpt lat="46.67873" lon="-0.10231">
        <ele>223.71</ele>
        <time>2017-01-22T09:00:49.999Z</time>
      </trkpt>
      <trkpt lat="46.67876" lon="-0.10216">
        <ele>224.77</ele>
        <time>2017-01-22T09:00:52.999Z</time>
      </trkpt>
      <trkpt lat="46.67876" lon="-0.102">
        <ele>225.13</ele>
        <time>2017-01-22T09:00:56.999Z</time>
      </trkpt>
      <trkpt lat="46.67877" lon="-0.10183">
        <ele>225.46</ele>
        <time>2017-01-22T09:01:00.999Z</time>
      </trkpt>
      <trkpt lat="46.67877" lon="-0.10166">
        <ele>225.66</ele>
        <time>2017-01-22T09:01:03.999Z</time>
      </trkpt>
      <trkpt lat="46.67875" lon="-0.10148">
        <ele>225.82</ele>
        <time>2017-01-22T09:01:06.999Z</time>
      </trkpt>
      <trkpt lat="46.67876" lon="-0.10131">
        <ele>226.35</ele>
        <time>2017-01-22T09:01:09.999Z</time>
      </trkpt>
      <trkpt lat="46.67876" lon="-0.10117">
        <ele>226.89</ele>
        <time>2017-01-22T09:01:11.999Z</time>
      </trkpt>
      <trkpt lat="46.67878" lon="-0.10103">
        <ele>226.97</ele>
        <time>2017-01-22T09:01:13.999Z</time>
      </trkpt>
      <trkpt lat="46.67885" lon="-0.10093">
        <ele>226.77</ele>
        <time>2017-01-22T09:01:15.999Z</time>
      </trkpt>
      <trkpt lat="46.67896" lon="-0.10083">
        <ele>226.17</ele>
        <time>2017-01-22T09:01:18.999Z</time>
      </trkpt>
      <trkpt lat="46.67907" lon="-0.10075">
        <ele>225.51</ele>
        <time>2017-01-22T09:01:20.999Z</time>
      </trkpt>
      <trkpt lat="46.67917" lon="-0.10068">
        <ele>224.95</ele>
        <time>2017-01-22T09:01:22.999Z</time>
      </trkpt>
      <trkpt lat="46.67926" lon="-0.10061">
        <ele>224.31</ele>
        <time>2017-01-22T09:01:24.999Z</time>
      </trkpt>
      <trkpt lat="46.67935" lon="-0.10053">
        <ele>223.94</ele>
        <time>2017-01-22T09:01:26.999Z</time>
      </trkpt>
      <trkpt lat="46.67945" lon="-0.10044">
        <ele>223.73</ele>
        <time>2017-01-22T09:01:28.999Z</time>
      </trkpt>
      <trkpt lat="46.67956" lon="-0.10036">
        <ele>223.58</ele>
        <time>2017-01-22T09:01:30.999Z</time>
      </trkpt>
      <trkpt lat="46.67967" lon="-0.10028">
        <ele>223.48</ele>
        <time>2017-01-22T09:01:32.999Z</time>
      </trkpt>
      <trkpt lat="46.67977" lon="-0.10022">
        <ele>223.37</ele>
        <time>2017-01-22T09:01:34.999Z</time>
      </trkpt>
      <trkpt lat="46.67987" lon="-0.10016">
        <ele>223.36</ele>
        <time>2017-01-22T09:01:36.999Z</time>
      </trkpt>
      <trkpt lat="46.67998" lon="-0.1001">
        <ele>223.52</ele>
        <time>2017-01-22T09:01:38.999Z</time>
      </trkpt>
      <trkpt lat="46.68009" lon="-0.10003">
        <ele>223.67</ele>
        <time>2017-01-22T09:01:40.999Z</time>
      </trkpt>
      <trkpt lat="46.6802" lon="-0.09998">
        <ele>223.76</ele>
        <time>2017-01-22T09:01:42.999Z</time>
      </trkpt>
      <trkpt lat="46.68031" lon="-0.09995">
        <ele>223.85</ele>
        <time>2017-01-22T09:01:44.999Z</time>
      </trkpt>
      <trkpt lat="46.68042" lon="-0.09994">
        <ele>223.88</ele>
        <time>2017-01-22T09:01:46.999Z</time>
      </trkpt>
      <trkpt lat="46.68051" lon="-0.09992">
        <ele>223.95</ele>
        <time>2017-01-22T09:01:48.999Z</time>
      </trkpt>
      <trkpt lat="46.68061" lon="-0.09991">
        <ele>223.99</ele>
        <time>2017-01-22T09:01:50.999Z</time>
      </trkpt>
      <trkpt lat="46.68072" lon="-0.0999">
        <ele>223.91</ele>
        <time>2017-01-22T09:01:52.999Z</time>
      </trkpt>
      <trkpt lat="46.68083" lon="-0.09989">
        <ele>223.8</ele>
        <time>2017-01-22T09:01:54.999Z</time>
      </trkpt>
      <trkpt lat="46.68094" lon="-0.09988">
        <ele>223.65</ele>
        <time>2017-01-22T09:01:56.999Z</time>
      </trkpt>
      <trkpt lat="46.68106" lon="-0.09986">
        <ele>223.5</ele>
        <time>2017-01-22T09:01:58.999Z</time>
      </trkpt>
      <trkpt lat="46.68118" lon="-0.09985">
        <ele>223.38</ele>
        <time>2017-01-22T09:02:00.999Z</time>
      </trkpt>
      <trkpt lat="46.68129" lon="-0.09985">
        <ele>223.24</ele>
        <time>2017-01-22T09:02:02.999Z</time>
      </trkpt>
      <trkpt lat="46.6814" lon="-0.09985">
        <ele>223.25</ele>
        <time>2017-01-22T09:02:04.999Z</time>
      </trkpt>
      <trkpt lat="46.68152" lon="-0.09986">
        <ele>223.27</ele>
        <time>2017-01-22T09:02:06.999Z</time>
      </trkpt>
      <trkpt lat="46.68163" lon="-0.09988">
        <ele>223.28</ele>
        <time>2017-01-22T09:02:08.999Z</time>
      </trkpt>
      <trkpt lat="46.68173" lon="-0.09989">
        <ele>223.25</ele>
        <time>2017-01-22T09:02:10.999Z</time>
      </trkpt>
      <trkpt lat="46.68182" lon="-0.09984">
        <ele>223.21</ele>
        <time>2017-01-22T09:02:12.999Z</time>
      </trkpt>
      <trkpt lat="46.68184" lon="-0.09971">
        <ele>223.2</ele>
        <time>2017-01-22T09:02:14.999Z</time>
      </trkpt>
      <trkpt lat="46.68181" lon="-0.09956">
        <ele>223.24</ele>
        <time>2017-01-22T09:02:16.999Z</time>
      </trkpt>
      <trkpt lat="46.68177" lon="-0.0994">
        <ele>223.35</ele>
        <time>2017-01-22T09:02:18.999Z</time>
      </trkpt>
      <trkpt lat="46.68173" lon="-0.09922">
        <ele>223.49</ele>
        <time>2017-01-22T09:02:20.999Z</time>
      </trkpt>
      <trkpt lat="46.68169" lon="-0.09904">
        <ele>223.64</ele>
        <time>2017-01-22T09:02:22.999Z</time>
      </trkpt>
      <trkpt lat="46.68164" lon="-0.09886">
        <ele>223.76</ele>
        <time>2017-01-22T09:02:24.999Z</time>
      </trkpt>
      <trkpt lat="46.68161" lon="-0.09869">
        <ele>223.95</ele>
        <time>2017-01-22T09:02:26.999Z</time>
      </trkpt>
      <trkpt lat="46.68156" lon="-0.09853">
        <ele>224.09</ele>
        <time>2017-01-22T09:02:28.999Z</time>
      </trkpt>
      <trkpt lat="46.68152" lon="-0.09837">
        <ele>224.14</ele>
        <time>2017-01-22T09:02:30.999Z</time>
      </trkpt>
      <trkpt lat="46.68146" lon="-0.09822">
        <ele>224.22</ele>
        <time>2017-01-22T09:02:32.999Z</time>
      </trkpt>
      <trkpt lat="46.68141" lon="-0.09807">
        <ele>224.28</ele>
        <time>2017-01-22T09:02:34.999Z</time>
      </trkpt>
      <trkpt lat="46.68135" lon="-0.09792">
        <ele>224.35</ele>
        <time>2017-01-22T09:02:36.999Z</time>
      </trkpt>
      <trkpt lat="46.68129" lon="-0.09777">
        <ele>224.45</ele>
        <time>2017-01-22T09:02:38.999Z</time>
      </trkpt>
      <trkpt lat="46.68124" lon="-0.09761">
        <ele>224.63</ele>
        <time>2017-01-22T09:02:40.999Z</time>
      </trkpt>
      <trkpt lat="46.68118" lon="-0.09746">
        <ele>224.84</ele>
        <time>2017-01-22T09:02:42.999Z</time>
      </trkpt>
      <trkpt lat="46.68112" lon="-0.0973">
        <ele>225.03</ele>
        <time>2017-01-22T09:02:44.999Z</time>
      </trkpt>
      <trkpt lat="46.68107" lon="-0.09713">
        <ele>225.24</ele>
        <time>2017-01-22T09:02:46.999Z</time>
      </trkpt>
      <trkpt lat="46.68101" lon="-0.09696">
        <ele>225.44</ele>
        <time>2017-01-22T09:02:48.999Z</time>
      </trkpt>
      <trkpt lat="46.68097" lon="-0.09682">
        <ele>225.75</ele>
        <time>2017-01-22T09:02:50.999Z</time>
      </trkpt>
      <trkpt lat="46.68093" lon="-0.09668">
        <ele>226.11</ele>
        <time>2017-01-22T09:02:52.999Z</time>
      </trkpt>
      <trkpt lat="46.68089" lon="-0.09656">
        <ele>226.47</ele>
        <time>2017-01-22T09:02:54.999Z</time>
      </trkpt>
      <trkpt lat="46.68086" lon="-0.09641">
        <ele>226.82</ele>
        <time>2017-01-22T09:02:56.999Z</time>
      </trkpt>
      <trkpt lat="46.68084" lon="-0.09627">
        <ele>227.16</ele>
        <time>2017-01-22T09:02:58.999Z</time>
      </trkpt>
      <trkpt lat="46.68081" lon="-0.0961">
        <ele>227.41</ele>
        <time>2017-01-22T09:03:00.999Z</time>
      </trkpt>
      <trkpt lat="46.68079" lon="-0.09594">
        <ele>227.52</ele>
        <time>2017-01-22T09:03:02.999Z</time>
      </trkpt>
      <trkpt lat="46.68076" lon="-0.09571">
        <ele>227.28</ele>
        <time>2017-01-22T09:03:04.999Z</time>
      </trkpt>
      <trkpt lat="46.68073" lon="-0.09559">
        <ele>226.74</ele>
        <time>2017-01-22T09:03:05.999Z</time>
      </trkpt>
      <trkpt lat="46.68069" lon="-0.09546">
        <ele>226.09</ele>
        <time>2017-01-22T09:03:06.999Z</time>
      </trkpt>
      <trkpt lat="46.68064" lon="-0.09524">
        <ele>224.95</ele>
        <time>2017-01-22T09:03:08.999Z</time>
      </trkpt>
      <trkpt lat="46.68061" lon="-0.09502">
        <ele>223.85</ele>
        <time>2017-01-22T09:03:10.999Z</time>
      </trkpt>
      <trkpt lat="46.68058" lon="-0.09481">
        <ele>222.88</ele>
        <time>2017-01-22T09:03:12.999Z</time>
      </trkpt>
      <trkpt lat="46.68057" lon="-0.0946">
        <ele>222.01</ele>
        <time>2017-01-22T09:03:14.999Z</time>
      </trkpt>
      <trkpt lat="46.68056" lon="-0.09437">
        <ele>220.77</ele>
        <time>2017-01-22T09:03:16.999Z</time>
      </trkpt>
      <trkpt lat="46.68054" lon="-0.09414">
        <ele>219.05</ele>
        <time>2017-01-22T09:03:18.999Z</time>
      </trkpt>
      <trkpt lat="46.68051" lon="-0.09391">
        <ele>216.9</ele>
        <time>2017-01-22T09:03:20.999Z</time>
      </trkpt>
      <trkpt lat="46.68047" lon="-0.09373">
        <ele>215.55</ele>
        <time>2017-01-22T09:03:22.999Z</time>
      </trkpt>
      <trkpt lat="46.68044" lon="-0.09353">
        <ele>214.54</ele>
        <time>2017-01-22T09:03:24.999Z</time>
      </trkpt>
      <trkpt lat="46.68041" lon="-0.09332">
        <ele>213.89</ele>
        <time>2017-01-22T09:03:26.999Z</time>
      </trkpt>
      <trkpt lat="46.68035" lon="-0.09311">
        <ele>213.78</ele>
        <time>2017-01-22T09:03:28.999Z</time>
      </trkpt>
      <trkpt lat="46.68032" lon="-0.09287">
        <ele>213.78</ele>
        <time>2017-01-22T09:03:30.999Z</time>
      </trkpt>
      <trkpt lat="46.68029" lon="-0.09264">
        <ele>213.64</ele>
        <time>2017-01-22T09:03:32.999Z</time>
      </trkpt>
      <trkpt lat="46.68024" lon="-0.09241">
        <ele>213.33</ele>
        <time>2017-01-22T09:03:34.999Z</time>
      </trkpt>
      <trkpt lat="46.68021" lon="-0.09222">
        <ele>212.78</ele>
        <time>2017-01-22T09:03:36.999Z</time>
      </trkpt>
      <trkpt lat="46.68018" lon="-0.09207">
        <ele>212.47</ele>
        <time>2017-01-22T09:03:38.999Z</time>
      </trkpt>
      <trkpt lat="46.68017" lon="-0.09193">
        <ele>212.35</ele>
        <time>2017-01-22T09:03:40.999Z</time>
      </trkpt>
      <trkpt lat="46.68016" lon="-0.0918">
        <ele>212.32</ele>
        <time>2017-01-22T09:03:42.999Z</time>
      </trkpt>
      <trkpt lat="46.68016" lon="-0.09164">
        <ele>212.23</ele>
        <time>2017-01-22T09:03:44.999Z</time>
      </trkpt>
      <trkpt lat="46.68013" lon="-0.09147">
        <ele>212.22</ele>
        <time>2017-01-22T09:03:46.999Z</time>
      </trkpt>
      <trkpt lat="46.68013" lon="-0.09129">
        <ele>212.32</ele>
        <time>2017-01-22T09:03:48.999Z</time>
      </trkpt>
      <trkpt lat="46.68016" lon="-0.09111">
        <ele>212.45</ele>
        <time>2017-01-22T09:03:50.999Z</time>
      </trkpt>
      <trkpt lat="46.68023" lon="-0.09092">
        <ele>212.5</ele>
        <time>2017-01-22T09:03:52.999Z</time>
      </trkpt>
      <trkpt lat="46.6803" lon="-0.09073">
        <ele>212.45</ele>
        <time>2017-01-22T09:03:54.999Z</time>
      </trkpt>
      <trkpt lat="46.68037" lon="-0.09055">
        <ele>212.24</ele>
        <time>2017-01-22T09:03:56.999Z</time>
      </trkpt>
      <trkpt lat="46.68044" lon="-0.09037">
        <ele>212.03</ele>
        <time>2017-01-22T09:03:58.999Z</time>
      </trkpt>
      <trkpt lat="46.68051" lon="-0.09019">
        <ele>211.86</ele>
        <time>2017-01-22T09:04:00.999Z</time>
      </trkpt>
      <trkpt lat="46.68057" lon="-0.09">
        <ele>211.69</ele>
        <time>2017-01-22T09:04:02.999Z</time>
      </trkpt>
      <trkpt lat="46.68061" lon="-0.0898">
        <ele>211.45</ele>
        <time>2017-01-22T09:04:04.999Z</time>
      </trkpt>
      <trkpt lat="46.68066" lon="-0.0896">
        <ele>211.08</ele>
        <time>2017-01-22T09:04:06.999Z</time>
      </trkpt>
      <trkpt lat="46.68069" lon="-0.08939">
        <ele>210.93</ele>
        <time>2017-01-22T09:04:08.999Z</time>
      </trkpt>
      <trkpt lat="46.68073" lon="-0.08918">
        <ele>210.74</ele>
        <time>2017-01-22T09:04:10.999Z</time>
      </trkpt>
      <trkpt lat="46.68076" lon="-0.08897">
        <ele>210.45</ele>
        <time>2017-01-22T09:04:12.999Z</time>
      </trkpt>
      <trkpt lat="46.68079" lon="-0.08877">
        <ele>210.16</ele>
        <time>2017-01-22T09:04:14.999Z</time>
      </trkpt>
      <trkpt lat="46.68083" lon="-0.08856">
        <ele>209.82</ele>
        <time>2017-01-22T09:04:16.999Z</time>
      </trkpt>
      <trkpt lat="46.68087" lon="-0.08836">
        <ele>209.52</ele>
        <time>2017-01-22T09:04:18.999Z</time>
      </trkpt>
      <trkpt lat="46.68091" lon="-0.08816">
        <ele>209.18</ele>
        <time>2017-01-22T09:04:20.999Z</time>
      </trkpt>
      <trkpt lat="46.68097" lon="-0.08797">
        <ele>208.84</ele>
        <time>2017-01-22T09:04:22.999Z</time>
      </trkpt>
      <trkpt lat="46.681" lon="-0.0878">
        <ele>208.55</ele>
        <time>2017-01-22T09:04:24.999Z</time>
      </trkpt>
      <trkpt lat="46.68104" lon="-0.08764">
        <ele>208.34</ele>
        <time>2017-01-22T09:04:26.999Z</time>
      </trkpt>
      <trkpt lat="46.68107" lon="-0.0875">
        <ele>208.12</ele>
        <time>2017-01-22T09:04:28.999Z</time>
      </trkpt>
      <trkpt lat="46.68109" lon="-0.08736">
        <ele>208</ele>
        <time>2017-01-22T09:04:30.999Z</time>
      </trkpt>
      <trkpt lat="46.68113" lon="-0.08723">
        <ele>208.04</ele>
        <time>2017-01-22T09:04:32.999Z</time>
      </trkpt>
      <trkpt lat="46.68118" lon="-0.08708">
        <ele>208.1</ele>
        <time>2017-01-22T09:04:34.999Z</time>
      </trkpt>
      <trkpt lat="46.68121" lon="-0.08695">
        <ele>208.16</ele>
        <time>2017-01-22T09:04:36.999Z</time>
      </trkpt>
      <trkpt lat="46.68123" lon="-0.08681">
        <ele>208.2</ele>
        <time>2017-01-22T09:04:38.999Z</time>
      </trkpt>
      <trkpt lat="46.68126" lon="-0.08665">
        <ele>208.25</ele>
        <time>2017-01-22T09:04:40.999Z</time>
      </trkpt>
      <trkpt lat="46.68129" lon="-0.08649">
        <ele>208.04</ele>
        <time>2017-01-22T09:04:42.999Z</time>
      </trkpt>
      <trkpt lat="46.68131" lon="-0.08632">
        <ele>207.75</ele>
        <time>2017-01-22T09:04:44.999Z</time>
      </trkpt>
      <trkpt lat="46.68131" lon="-0.08616">
        <ele>207.65</ele>
        <time>2017-01-22T09:04:46.999Z</time>
      </trkpt>
      <trkpt lat="46.68131" lon="-0.086">
        <ele>207.62</ele>
        <time>2017-01-22T09:04:48.999Z</time>
      </trkpt>
      <trkpt lat="46.68129" lon="-0.08585">
        <ele>207.72</ele>
        <time>2017-01-22T09:04:50.999Z</time>
      </trkpt>
      <trkpt lat="46.68127" lon="-0.0857">
        <ele>207.86</ele>
        <time>2017-01-22T09:04:52.999Z</time>
      </trkpt>
      <trkpt lat="46.68126" lon="-0.08555">
        <ele>208</ele>
        <time>2017-01-22T09:04:54.999Z</time>
      </trkpt>
      <trkpt lat="46.68125" lon="-0.08537">
        <ele>208.09</ele>
        <time>2017-01-22T09:04:56.999Z</time>
      </trkpt>
      <trkpt lat="46.68126" lon="-0.08519">
        <ele>208.15</ele>
        <time>2017-01-22T09:04:58.999Z</time>
      </trkpt>
      <trkpt lat="46.68128" lon="-0.08498">
        <ele>208.26</ele>
        <time>2017-01-22T09:05:00.999Z</time>
      </trkpt>
      <trkpt lat="46.6813" lon="-0.08477">
        <ele>208.19</ele>
        <time>2017-01-22T09:05:02.999Z</time>
      </trkpt>
      <trkpt lat="46.68132" lon="-0.08457">
        <ele>208.1</ele>
        <time>2017-01-22T09:05:04.999Z</time>
      </trkpt>
      <trkpt lat="46.68136" lon="-0.08439">
        <ele>207.84</ele>
        <time>2017-01-22T09:05:06.999Z</time>
      </trkpt>
      <trkpt lat="46.68142" lon="-0.08421">
        <ele>207.55</ele>
        <time>2017-01-22T09:05:08.999Z</time>
      </trkpt>
      <trkpt lat="46.68148" lon="-0.08403">
        <ele>207.23</ele>
        <time>2017-01-22T09:05:10.999Z</time>
      </trkpt>
      <trkpt lat="46.68152" lon="-0.08387">
        <ele>207.03</ele>
        <time>2017-01-22T09:05:12.999Z</time>
      </trkpt>
      <trkpt lat="46.68156" lon="-0.0837">
        <ele>206.89</ele>
        <time>2017-01-22T09:05:14.999Z</time>
      </trkpt>
      <trkpt lat="46.68161" lon="-0.08353">
        <ele>206.6</ele>
        <time>2017-01-22T09:05:16.999Z</time>
      </trkpt>
      <trkpt lat="46.68167" lon="-0.08338">
        <ele>206.27</ele>
        <time>2017-01-22T09:05:18.999Z</time>
      </trkpt>
      <trkpt lat="46.68174" lon="-0.08323">
        <ele>206.22</ele>
        <time>2017-01-22T09:05:20.999Z</time>
      </trkpt>
      <trkpt lat="46.68181" lon="-0.08308">
        <ele>206.15</ele>
        <time>2017-01-22T09:05:22.999Z</time>
      </trkpt>
      <trkpt lat="46.68189" lon="-0.08293">
        <ele>206.05</ele>
        <time>2017-01-22T09:05:24.999Z</time>
      </trkpt>
      <trkpt lat="46.68195" lon="-0.0828">
        <ele>205.83</ele>
        <time>2017-01-22T09:05:26.999Z</time>
      </trkpt>
      <trkpt lat="46.68201" lon="-0.08267">
        <ele>205.72</ele>
        <time>2017-01-22T09:05:28.999Z</time>
      </trkpt>
      <trkpt lat="46.68207" lon="-0.08254">
        <ele>205.72</ele>
        <time>2017-01-22T09:05:30.999Z</time>
      </trkpt>
      <trkpt lat="46.68211" lon="-0.08239">
        <ele>205.73</ele>
        <time>2017-01-22T09:05:32.999Z</time>
      </trkpt>
      <trkpt lat="46.68216" lon="-0.08224">
        <ele>205.73</ele>
        <time>2017-01-22T09:05:34.999Z</time>
      </trkpt>
      <trkpt lat="46.68221" lon="-0.08206">
        <ele>205.84</ele>
        <time>2017-01-22T09:05:36.999Z</time>
      </trkpt>
      <trkpt lat="46.68226" lon="-0.08187">
        <ele>205.78</ele>
        <time>2017-01-22T09:05:38.999Z</time>
      </trkpt>
      <trkpt lat="46.68231" lon="-0.0817">
        <ele>205.96</ele>
        <time>2017-01-22T09:05:40.999Z</time>
      </trkpt>
      <trkpt lat="46.68236" lon="-0.08152">
        <ele>206.16</ele>
        <time>2017-01-22T09:05:42.999Z</time>
      </trkpt>
      <trkpt lat="46.68241" lon="-0.08136">
        <ele>206.39</ele>
        <time>2017-01-22T09:05:44.999Z</time>
      </trkpt>
      <trkpt lat="46.68245" lon="-0.0812">
        <ele>206.42</ele>
        <time>2017-01-22T09:05:46.999Z</time>
      </trkpt>
      <trkpt lat="46.6825" lon="-0.08105">
        <ele>206.36</ele>
        <time>2017-01-22T09:05:48.999Z</time>
      </trkpt>
      <trkpt lat="46.68255" lon="-0.08088">
        <ele>206.34</ele>
        <time>2017-01-22T09:05:50.999Z</time>
      </trkpt>
      <trkpt lat="46.6826" lon="-0.08071">
        <ele>206.39</ele>
        <time>2017-01-22T09:05:52.999Z</time>
      </trkpt>
      <trkpt lat="46.68266" lon="-0.08055">
        <ele>206.38</ele>
        <time>2017-01-22T09:05:54.999Z</time>
      </trkpt>
      <trkpt lat="46.68273" lon="-0.08039">
        <ele>206.38</ele>
        <time>2017-01-22T09:05:56.999Z</time>
      </trkpt>
      <trkpt lat="46.68279" lon="-0.08023">
        <ele>206.45</ele>
        <time>2017-01-22T09:05:58.999Z</time>
      </trkpt>
      <trkpt lat="46.68286" lon="-0.08008">
        <ele>206.52</ele>
        <time>2017-01-22T09:06:00.999Z</time>
      </trkpt>
      <trkpt lat="46.68292" lon="-0.07994">
        <ele>206.5</ele>
        <time>2017-01-22T09:06:02.999Z</time>
      </trkpt>
      <trkpt lat="46.683" lon="-0.07982">
        <ele>206.37</ele>
        <time>2017-01-22T09:06:04.999Z</time>
      </trkpt>
      <trkpt lat="46.68308" lon="-0.07968">
        <ele>206.22</ele>
        <time>2017-01-22T09:06:06.999Z</time>
      </trkpt>
      <trkpt lat="46.68313" lon="-0.07953">
        <ele>206.13</ele>
        <time>2017-01-22T09:06:08.999Z</time>
      </trkpt>
      <trkpt lat="46.68314" lon="-0.07935">
        <ele>206.09</ele>
        <time>2017-01-22T09:06:10.999Z</time>
      </trkpt>
      <trkpt lat="46.68316" lon="-0.07918">
        <ele>206.14</ele>
        <time>2017-01-22T09:06:12.999Z</time>
      </trkpt>
      <trkpt lat="46.68316" lon="-0.07901">
        <ele>206.25</ele>
        <time>2017-01-22T09:06:14.999Z</time>
      </trkpt>
      <trkpt lat="46.68316" lon="-0.07886">
        <ele>206.41</ele>
        <time>2017-01-22T09:06:16.999Z</time>
      </trkpt>
      <trkpt lat="46.68314" lon="-0.07869">
        <ele>206.57</ele>
        <time>2017-01-22T09:06:18.999Z</time>
      </trkpt>
      <trkpt lat="46.68313" lon="-0.07855">
        <ele>206.77</ele>
        <time>2017-01-22T09:06:20.999Z</time>
      </trkpt>
      <trkpt lat="46.68311" lon="-0.0784">
        <ele>206.88</ele>
        <time>2017-01-22T09:06:22.999Z</time>
      </trkpt>
      <trkpt lat="46.68309" lon="-0.07825">
        <ele>206.89</ele>
        <time>2017-01-22T09:06:24.999Z</time>
      </trkpt>
      <trkpt lat="46.68308" lon="-0.0781">
        <ele>206.92</ele>
        <time>2017-01-22T09:06:26.999Z</time>
      </trkpt>
      <trkpt lat="46.68311" lon="-0.07796">
        <ele>206.86</ele>
        <time>2017-01-22T09:06:28.999Z</time>
      </trkpt>
      <trkpt lat="46.68321" lon="-0.07786">
        <ele>206.76</ele>
        <time>2017-01-22T09:06:30.999Z</time>
      </trkpt>
      <trkpt lat="46.68333" lon="-0.07783">
        <ele>206.57</ele>
        <time>2017-01-22T09:06:32.999Z</time>
      </trkpt>
      <trkpt lat="46.68346" lon="-0.07781">
        <ele>206.3</ele>
        <time>2017-01-22T09:06:34.999Z</time>
      </trkpt>
      <trkpt lat="46.68359" lon="-0.0778">
        <ele>206</ele>
        <time>2017-01-22T09:06:36.999Z</time>
      </trkpt>
      <trkpt lat="46.6837" lon="-0.07779">
        <ele>205.67</ele>
        <time>2017-01-22T09:06:38.999Z</time>
      </trkpt>
      <trkpt lat="46.68383" lon="-0.07778">
        <ele>205.46</ele>
        <time>2017-01-22T09:06:40.999Z</time>
      </trkpt>
      <trkpt lat="46.68396" lon="-0.07776">
        <ele>205.31</ele>
        <time>2017-01-22T09:06:42.999Z</time>
      </trkpt>
      <trkpt lat="46.68408" lon="-0.07773">
        <ele>205.2</ele>
        <time>2017-01-22T09:06:44.999Z</time>
      </trkpt>
      <trkpt lat="46.68419" lon="-0.07766">
        <ele>205.17</ele>
        <time>2017-01-22T09:06:46.999Z</time>
      </trkpt>
      <trkpt lat="46.6843" lon="-0.07757">
        <ele>205.21</ele>
        <time>2017-01-22T09:06:48.999Z</time>
      </trkpt>
      <trkpt lat="46.6844" lon="-0.07746">
        <ele>205.24</ele>
        <time>2017-01-22T09:06:50.999Z</time>
      </trkpt>
      <trkpt lat="46.68449" lon="-0.07735">
        <ele>205.28</ele>
        <time>2017-01-22T09:06:52.999Z</time>
      </trkpt>
      <trkpt lat="46.68457" lon="-0.07723">
        <ele>205.33</ele>
        <time>2017-01-22T09:06:54.999Z</time>
      </trkpt>
      <trkpt lat="46.68465" lon="-0.07713">
        <ele>205.37</ele>
        <time>2017-01-22T09:06:56.999Z</time>
      </trkpt>
      <trkpt lat="46.68473" lon="-0.07703">
        <ele>205.39</ele>
        <time>2017-01-22T09:06:58.999Z</time>
      </trkpt>
      <trkpt lat="46.6848" lon="-0.07693">
        <ele>205.4</ele>
        <time>2017-01-22T09:07:00.999Z</time>
      </trkpt>
      <trkpt lat="46.68488" lon="-0.07683">
        <ele>205.4</ele>
        <time>2017-01-22T09:07:02.999Z</time>
      </trkpt>
      <trkpt lat="46.68494" lon="-0.07672">
        <ele>205.4</ele>
        <time>2017-01-22T09:07:04.999Z</time>
      </trkpt>
      <trkpt lat="46.68501" lon="-0.07663">
        <ele>205.39</ele>
        <time>2017-01-22T09:07:06.999Z</time>
      </trkpt>
      <trkpt lat="46.68507" lon="-0.07652">
        <ele>205.37</ele>
        <time>2017-01-22T09:07:08.999Z</time>
      </trkpt>
      <trkpt lat="46.68514" lon="-0.07637">
        <ele>205.41</ele>
        <time>2017-01-22T09:07:11.999Z</time>
      </trkpt>
      <trkpt lat="46.68524" lon="-0.07617">
        <ele>205.58</ele>
        <time>2017-01-22T09:07:15.999Z</time>
      </trkpt>
      <trkpt lat="46.68531" lon="-0.07602">
        <ele>205.65</ele>
        <time>2017-01-22T09:07:18.999Z</time>
      </trkpt>
      <trkpt lat="46.68539" lon="-0.07589">
        <ele>205.68</ele>
        <time>2017-01-22T09:07:21.999Z</time>
      </trkpt>
      <trkpt lat="46.68547" lon="-0.07576">
        <ele>206.06</ele>
        <time>2017-01-22T09:07:24.999Z</time>
      </trkpt>
      <trkpt lat="46.68554" lon="-0.07565">
        <ele>206.39</ele>
        <time>2017-01-22T09:07:26.999Z</time>
      </trkpt>
      <trkpt lat="46.6856" lon="-0.07554">
        <ele>206.7</ele>
        <time>2017-01-22T09:07:28.999Z</time>
      </trkpt>
      <trkpt lat="46.68566" lon="-0.07542">
        <ele>207</ele>
        <time>2017-01-22T09:07:30.999Z</time>
      </trkpt>
      <trkpt lat="46.68572" lon="-0.07532">
        <ele>207.21</ele>
        <time>2017-01-22T09:07:32.999Z</time>
      </trkpt>
      <trkpt lat="46.6858" lon="-0.07515">
        <ele>207.41</ele>
        <time>2017-01-22T09:07:35.999Z</time>
      </trkpt>
      <trkpt lat="46.68586" lon="-0.07499">
        <ele>207.47</ele>
        <time>2017-01-22T09:07:38.999Z</time>
      </trkpt>
      <trkpt lat="46.68594" lon="-0.07484">
        <ele>207.59</ele>
        <time>2017-01-22T09:07:41.999Z</time>
      </trkpt>
      <trkpt lat="46.68602" lon="-0.07467">
        <ele>207.73</ele>
        <time>2017-01-22T09:07:44.999Z</time>
      </trkpt>
      <trkpt lat="46.68607" lon="-0.07455">
        <ele>207.79</ele>
        <time>2017-01-22T09:07:46.999Z</time>
      </trkpt>
      <trkpt lat="46.68612" lon="-0.07444">
        <ele>207.85</ele>
        <time>2017-01-22T09:07:48.999Z</time>
      </trkpt>
      <trkpt lat="46.68617" lon="-0.07431">
        <ele>207.92</ele>
        <time>2017-01-22T09:07:50.999Z</time>
      </trkpt>
      <trkpt lat="46.68622" lon="-0.07417">
        <ele>207.99</ele>
        <time>2017-01-22T09:07:52.999Z</time>
      </trkpt>
      <trkpt lat="46.68627" lon="-0.07405">
        <ele>208.08</ele>
        <time>2017-01-22T09:07:54.999Z</time>
      </trkpt>
      <trkpt lat="46.68633" lon="-0.07393">
        <ele>208.19</ele>
        <time>2017-01-22T09:07:56.999Z</time>
      </trkpt>
      <trkpt lat="46.68641" lon="-0.07377">
        <ele>208.3</ele>
        <time>2017-01-22T09:07:59.999Z</time>
      </trkpt>
      <trkpt lat="46.68647" lon="-0.07366">
        <ele>208.35</ele>
        <time>2017-01-22T09:08:01.999Z</time>
      </trkpt>
      <trkpt lat="46.68654" lon="-0.07357">
        <ele>208.32</ele>
        <time>2017-01-22T09:08:03.999Z</time>
      </trkpt>
      <trkpt lat="46.68661" lon="-0.07348">
        <ele>208.31</ele>
        <time>2017-01-22T09:08:05.999Z</time>
      </trkpt>
      <trkpt lat="46.68668" lon="-0.07338">
        <ele>208.26</ele>
        <time>2017-01-22T09:08:07.999Z</time>
      </trkpt>
      <trkpt lat="46.68675" lon="-0.07328">
        <ele>208.17</ele>
        <time>2017-01-22T09:08:09.999Z</time>
      </trkpt>
      <trkpt lat="46.68683" lon="-0.07318">
        <ele>208.29</ele>
        <time>2017-01-22T09:08:11.999Z</time>
      </trkpt>
      <trkpt lat="46.6869" lon="-0.07309">
        <ele>208.48</ele>
        <time>2017-01-22T09:08:13.999Z</time>
      </trkpt>
      <trkpt lat="46.68699" lon="-0.07301">
        <ele>208.54</ele>
        <time>2017-01-22T09:08:15.999Z</time>
      </trkpt>
      <trkpt lat="46.68708" lon="-0.07294">
        <ele>208.49</ele>
        <time>2017-01-22T09:08:17.999Z</time>
      </trkpt>
      <trkpt lat="46.68718" lon="-0.07289">
        <ele>208.42</ele>
        <time>2017-01-22T09:08:19.999Z</time>
      </trkpt>
      <trkpt lat="46.68728" lon="-0.07281">
        <ele>208.47</ele>
        <time>2017-01-22T09:08:21.999Z</time>
      </trkpt>
      <trkpt lat="46.68737" lon="-0.07271">
        <ele>208.54</ele>
        <time>2017-01-22T09:08:23.999Z</time>
      </trkpt>
      <trkpt lat="46.68744" lon="-0.07257">
        <ele>208.64</ele>
        <time>2017-01-22T09:08:25.999Z</time>
      </trkpt>
      <trkpt lat="46.68751" lon="-0.07243">
        <ele>208.69</ele>
        <time>2017-01-22T09:08:27.999Z</time>
      </trkpt>
      <trkpt lat="46.68758" lon="-0.07227">
        <ele>208.81</ele>
        <time>2017-01-22T09:08:29.999Z</time>
      </trkpt>
      <trkpt lat="46.68763" lon="-0.07212">
        <ele>209.01</ele>
        <time>2017-01-22T09:08:31.999Z</time>
      </trkpt>
      <trkpt lat="46.68769" lon="-0.07196">
        <ele>208.99</ele>
        <time>2017-01-22T09:08:33.999Z</time>
      </trkpt>
      <trkpt lat="46.68777" lon="-0.07182">
        <ele>208.94</ele>
        <time>2017-01-22T09:08:35.999Z</time>
      </trkpt>
      <trkpt lat="46.68787" lon="-0.07169">
        <ele>209.07</ele>
        <time>2017-01-22T09:08:37.999Z</time>
      </trkpt>
      <trkpt lat="46.68796" lon="-0.07156">
        <ele>209.23</ele>
        <time>2017-01-22T09:08:39.999Z</time>
      </trkpt>
      <trkpt lat="46.68806" lon="-0.07142">
        <ele>209.46</ele>
        <time>2017-01-22T09:08:41.999Z</time>
      </trkpt>
      <trkpt lat="46.68816" lon="-0.0713">
        <ele>209.87</ele>
        <time>2017-01-22T09:08:43.999Z</time>
      </trkpt>
      <trkpt lat="46.68827" lon="-0.07116">
        <ele>210.27</ele>
        <time>2017-01-22T09:08:45.999Z</time>
      </trkpt>
      <trkpt lat="46.68838" lon="-0.07102">
        <ele>210.68</ele>
        <time>2017-01-22T09:08:47.999Z</time>
      </trkpt>
      <trkpt lat="46.68849" lon="-0.07088">
        <ele>211.03</ele>
        <time>2017-01-22T09:08:49.999Z</time>
      </trkpt>
      <trkpt lat="46.6886" lon="-0.07074">
        <ele>211.35</ele>
        <time>2017-01-22T09:08:51.999Z</time>
      </trkpt>
      <trkpt lat="46.68871" lon="-0.0706">
        <ele>211.3</ele>
        <time>2017-01-22T09:08:53.999Z</time>
      </trkpt>
      <trkpt lat="46.68881" lon="-0.07046">
        <ele>211.47</ele>
        <time>2017-01-22T09:08:55.999Z</time>
      </trkpt>
      <trkpt lat="46.68891" lon="-0.07032">
        <ele>211.72</ele>
        <time>2017-01-22T09:08:57.999Z</time>
      </trkpt>
      <trkpt lat="46.68902" lon="-0.07019">
        <ele>211.77</ele>
        <time>2017-01-22T09:08:59.999Z</time>
      </trkpt>
      <trkpt lat="46.68913" lon="-0.07005">
        <ele>211.75</ele>
        <time>2017-01-22T09:09:01.999Z</time>
      </trkpt>
      <trkpt lat="46.68924" lon="-0.06991">
        <ele>211.48</ele>
        <time>2017-01-22T09:09:03.999Z</time>
      </trkpt>
      <trkpt lat="46.68935" lon="-0.06977">
        <ele>211.04</ele>
        <time>2017-01-22T09:09:05.999Z</time>
      </trkpt>
      <trkpt lat="46.68946" lon="-0.06962">
        <ele>210.63</ele>
        <time>2017-01-22T09:09:07.999Z</time>
      </trkpt>
      <trkpt lat="46.68957" lon="-0.06945">
        <ele>210.2</ele>
        <time>2017-01-22T09:09:09.999Z</time>
      </trkpt>
      <trkpt lat="46.68968" lon="-0.0693">
        <ele>210.04</ele>
        <time>2017-01-22T09:09:11.999Z</time>
      </trkpt>
      <trkpt lat="46.68978" lon="-0.06914">
        <ele>210.08</ele>
        <time>2017-01-22T09:09:13.999Z</time>
      </trkpt>
      <trkpt lat="46.68986" lon="-0.06896">
        <ele>210.38</ele>
        <time>2017-01-22T09:09:15.999Z</time>
      </trkpt>
      <trkpt lat="46.68993" lon="-0.06877">
        <ele>210.76</ele>
        <time>2017-01-22T09:09:17.999Z</time>
      </trkpt>
      <trkpt lat="46.68998" lon="-0.06858">
        <ele>211.21</ele>
        <time>2017-01-22T09:09:19.999Z</time>
      </trkpt>
      <trkpt lat="46.69002" lon="-0.06838">
        <ele>211.58</ele>
        <time>2017-01-22T09:09:21.999Z</time>
      </trkpt>
      <trkpt lat="46.69006" lon="-0.06819">
        <ele>211.85</ele>
        <time>2017-01-22T09:09:23.999Z</time>
      </trkpt>
      <trkpt lat="46.69011" lon="-0.06799">
        <ele>212.19</ele>
        <time>2017-01-22T09:09:25.999Z</time>
      </trkpt>
      <trkpt lat="46.69016" lon="-0.06779">
        <ele>212.52</ele>
        <time>2017-01-22T09:09:27.999Z</time>
      </trkpt>
      <trkpt lat="46.69021" lon="-0.0676">
        <ele>212.8</ele>
        <time>2017-01-22T09:09:29.999Z</time>
      </trkpt>
      <trkpt lat="46.69026" lon="-0.06742">
        <ele>212.93</ele>
        <time>2017-01-22T09:09:31.999Z</time>
      </trkpt>
      <trkpt lat="46.69032" lon="-0.06723">
        <ele>212.98</ele>
        <time>2017-01-22T09:09:33.999Z</time>
      </trkpt>
      <trkpt lat="46.69037" lon="-0.06704">
        <ele>213</ele>
        <time>2017-01-22T09:09:35.999Z</time>
      </trkpt>
      <trkpt lat="46.69043" lon="-0.06685">
        <ele>212.95</ele>
        <time>2017-01-22T09:09:37.999Z</time>
      </trkpt>
      <trkpt lat="46.69048" lon="-0.06665">
        <ele>212.86</ele>
        <time>2017-01-22T09:09:39.999Z</time>
      </trkpt>
      <trkpt lat="46.69054" lon="-0.06646">
        <ele>212.79</ele>
        <time>2017-01-22T09:09:41.999Z</time>
      </trkpt>
      <trkpt lat="46.69061" lon="-0.06626">
        <ele>212.69</ele>
        <time>2017-01-22T09:09:43.999Z</time>
      </trkpt>
      <trkpt lat="46.69068" lon="-0.06607">
        <ele>212.68</ele>
        <time>2017-01-22T09:09:45.999Z</time>
      </trkpt>
      <trkpt lat="46.69075" lon="-0.06589">
        <ele>212.67</ele>
        <time>2017-01-22T09:09:47.999Z</time>
      </trkpt>
      <trkpt lat="46.69083" lon="-0.0657">
        <ele>212.61</ele>
        <time>2017-01-22T09:09:49.999Z</time>
      </trkpt>
      <trkpt lat="46.69091" lon="-0.06552">
        <ele>212.56</ele>
        <time>2017-01-22T09:09:51.999Z</time>
      </trkpt>
      <trkpt lat="46.69098" lon="-0.06533">
        <ele>212.55</ele>
        <time>2017-01-22T09:09:53.999Z</time>
      </trkpt>
      <trkpt lat="46.69105" lon="-0.06514">
        <ele>212.54</ele>
        <time>2017-01-22T09:09:55.999Z</time>
      </trkpt>
      <trkpt lat="46.69112" lon="-0.06495">
        <ele>212.48</ele>
        <time>2017-01-22T09:09:57.999Z</time>
      </trkpt>
      <trkpt lat="46.6912" lon="-0.06475">
        <ele>212.46</ele>
        <time>2017-01-22T09:09:59.999Z</time>
      </trkpt>
      <trkpt lat="46.69127" lon="-0.06456">
        <ele>212.54</ele>
        <time>2017-01-22T09:10:01.999Z</time>
      </trkpt>
      <trkpt lat="46.69135" lon="-0.06438">
        <ele>212.59</ele>
        <time>2017-01-22T09:10:03.999Z</time>
      </trkpt>
      <trkpt lat="46.69144" lon="-0.06422">
        <ele>212.56</ele>
        <time>2017-01-22T09:10:05.999Z</time>
      </trkpt>
      <trkpt lat="46.69153" lon="-0.06406">
        <ele>212.5</ele>
        <time>2017-01-22T09:10:07.999Z</time>
      </trkpt>
      <trkpt lat="46.69162" lon="-0.06391">
        <ele>212.47</ele>
        <time>2017-01-22T09:10:09.999Z</time>
      </trkpt>
      <trkpt lat="46.6917" lon="-0.06376">
        <ele>212.4</ele>
        <time>2017-01-22T09:10:11.999Z</time>
      </trkpt>
      <trkpt lat="46.69178" lon="-0.06361">
        <ele>212.32</ele>
        <time>2017-01-22T09:10:13.999Z</time>
      </trkpt>
      <trkpt lat="46.69188" lon="-0.06348">
        <ele>212.22</ele>
        <time>2017-01-22T09:10:15.999Z</time>
      </trkpt>
      <trkpt lat="46.69199" lon="-0.06338">
        <ele>212.16</ele>
        <time>2017-01-22T09:10:17.999Z</time>
      </trkpt>
      <trkpt lat="46.69211" lon="-0.06328">
        <ele>212.12</ele>
        <time>2017-01-22T09:10:19.999Z</time>
      </trkpt>
      <trkpt lat="46.69223" lon="-0.06318">
        <ele>212.14</ele>
        <time>2017-01-22T09:10:21.999Z</time>
      </trkpt>
      <trkpt lat="46.69236" lon="-0.06308">
        <ele>212</ele>
        <time>2017-01-22T09:10:23.999Z</time>
      </trkpt>
      <trkpt lat="46.69248" lon="-0.06297">
        <ele>211.88</ele>
        <time>2017-01-22T09:10:25.999Z</time>
      </trkpt>
      <trkpt lat="46.6926" lon="-0.06287">
        <ele>211.86</ele>
        <time>2017-01-22T09:10:27.999Z</time>
      </trkpt>
      <trkpt lat="46.69272" lon="-0.06276">
        <ele>211.72</ele>
        <time>2017-01-22T09:10:29.999Z</time>
      </trkpt>
      <trkpt lat="46.69284" lon="-0.06265">
        <ele>211.54</ele>
        <time>2017-01-22T09:10:31.999Z</time>
      </trkpt>
      <trkpt lat="46.69297" lon="-0.06255">
        <ele>211.31</ele>
        <time>2017-01-22T09:10:33.999Z</time>
      </trkpt>
      <trkpt lat="46.69309" lon="-0.06244">
        <ele>211.14</ele>
        <time>2017-01-22T09:10:35.999Z</time>
      </trkpt>
      <trkpt lat="46.6932" lon="-0.06233">
        <ele>210.99</ele>
        <time>2017-01-22T09:10:37.999Z</time>
      </trkpt>
      <trkpt lat="46.69331" lon="-0.0622">
        <ele>210.83</ele>
        <time>2017-01-22T09:10:39.999Z</time>
      </trkpt>
      <trkpt lat="46.69342" lon="-0.06208">
        <ele>210.69</ele>
        <time>2017-01-22T09:10:41.999Z</time>
      </trkpt>
      <trkpt lat="46.69353" lon="-0.06195">
        <ele>210.53</ele>
        <time>2017-01-22T09:10:43.999Z</time>
      </trkpt>
      <trkpt lat="46.69363" lon="-0.06181">
        <ele>210.52</ele>
        <time>2017-01-22T09:10:45.999Z</time>
      </trkpt>
      <trkpt lat="46.69373" lon="-0.06168">
        <ele>210.49</ele>
        <time>2017-01-22T09:10:47.999Z</time>
      </trkpt>
      <trkpt lat="46.69384" lon="-0.06155">
        <ele>210.48</ele>
        <time>2017-01-22T09:10:49.999Z</time>
      </trkpt>
      <trkpt lat="46.69394" lon="-0.06142">
        <ele>210.5</ele>
        <time>2017-01-22T09:10:51.999Z</time>
      </trkpt>
      <trkpt lat="46.69405" lon="-0.06129">
        <ele>210.44</ele>
        <time>2017-01-22T09:10:53.999Z</time>
      </trkpt>
      <trkpt lat="46.69416" lon="-0.06117">
        <ele>210.44</ele>
        <time>2017-01-22T09:10:55.999Z</time>
      </trkpt>
      <trkpt lat="46.69429" lon="-0.06106">
        <ele>210.38</ele>
        <time>2017-01-22T09:10:57.999Z</time>
      </trkpt>
      <trkpt lat="46.69441" lon="-0.06096">
        <ele>210.23</ele>
        <time>2017-01-22T09:10:59.999Z</time>
      </trkpt>
      <trkpt lat="46.69454" lon="-0.06086">
        <ele>210.14</ele>
        <time>2017-01-22T09:11:01.999Z</time>
      </trkpt>
      <trkpt lat="46.69467" lon="-0.06078">
        <ele>210.09</ele>
        <time>2017-01-22T09:11:03.999Z</time>
      </trkpt>
      <trkpt lat="46.6948" lon="-0.0607">
        <ele>210.03</ele>
        <time>2017-01-22T09:11:05.999Z</time>
      </trkpt>
      <trkpt lat="46.69493" lon="-0.06063">
        <ele>209.93</ele>
        <time>2017-01-22T09:11:07.999Z</time>
      </trkpt>
      <trkpt lat="46.69505" lon="-0.06056">
        <ele>209.83</ele>
        <time>2017-01-22T09:11:09.999Z</time>
      </trkpt>
      <trkpt lat="46.69517" lon="-0.06049">
        <ele>209.69</ele>
        <time>2017-01-22T09:11:11.999Z</time>
      </trkpt>
      <trkpt lat="46.69528" lon="-0.06042">
        <ele>209.59</ele>
        <time>2017-01-22T09:11:13.999Z</time>
      </trkpt>
      <trkpt lat="46.69539" lon="-0.06035">
        <ele>209.56</ele>
        <time>2017-01-22T09:11:15.999Z</time>
      </trkpt>
      <trkpt lat="46.6955" lon="-0.06029">
        <ele>209.52</ele>
        <time>2017-01-22T09:11:17.999Z</time>
      </trkpt>
      <trkpt lat="46.69562" lon="-0.06023">
        <ele>209.41</ele>
        <time>2017-01-22T09:11:19.999Z</time>
      </trkpt>
      <trkpt lat="46.69573" lon="-0.06017">
        <ele>209.34</ele>
        <time>2017-01-22T09:11:21.999Z</time>
      </trkpt>
      <trkpt lat="46.69583" lon="-0.06011">
        <ele>209.28</ele>
        <time>2017-01-22T09:11:23.999Z</time>
      </trkpt>
      <trkpt lat="46.69592" lon="-0.06004">
        <ele>209.29</ele>
        <time>2017-01-22T09:11:25.999Z</time>
      </trkpt>
      <trkpt lat="46.69601" lon="-0.05998">
        <ele>209.24</ele>
        <time>2017-01-22T09:11:27.999Z</time>
      </trkpt>
      <trkpt lat="46.6961" lon="-0.05992">
        <ele>209.14</ele>
        <time>2017-01-22T09:11:29.999Z</time>
      </trkpt>
      <trkpt lat="46.69619" lon="-0.05985">
        <ele>209.14</ele>
        <time>2017-01-22T09:11:31.999Z</time>
      </trkpt>
      <trkpt lat="46.69627" lon="-0.05977">
        <ele>209.07</ele>
        <time>2017-01-22T09:11:33.999Z</time>
      </trkpt>
      <trkpt lat="46.69636" lon="-0.05969">
        <ele>208.95</ele>
        <time>2017-01-22T09:11:35.999Z</time>
      </trkpt>
      <trkpt lat="46.69646" lon="-0.05956">
        <ele>208.63</ele>
        <time>2017-01-22T09:11:38.999Z</time>
      </trkpt>
      <trkpt lat="46.69653" lon="-0.05947">
        <ele>208.48</ele>
        <time>2017-01-22T09:11:40.999Z</time>
      </trkpt>
      <trkpt lat="46.69663" lon="-0.05935">
        <ele>208.35</ele>
        <time>2017-01-22T09:11:43.999Z</time>
      </trkpt>
      <trkpt lat="46.69671" lon="-0.05927">
        <ele>208.24</ele>
        <time>2017-01-22T09:11:45.999Z</time>
      </trkpt>
      <trkpt lat="46.69678" lon="-0.05919">
        <ele>208.1</ele>
        <time>2017-01-22T09:11:47.999Z</time>
      </trkpt>
      <trkpt lat="46.69691" lon="-0.0591">
        <ele>207.96</ele>
        <time>2017-01-22T09:11:50.999Z</time>
      </trkpt>
      <trkpt lat="46.697" lon="-0.05905">
        <ele>207.92</ele>
        <time>2017-01-22T09:11:52.999Z</time>
      </trkpt>
      <trkpt lat="46.69711" lon="-0.05901">
        <ele>207.89</ele>
        <time>2017-01-22T09:11:54.999Z</time>
      </trkpt>
      <trkpt lat="46.69722" lon="-0.05897">
        <ele>207.87</ele>
        <time>2017-01-22T09:11:56.999Z</time>
      </trkpt>
      <trkpt lat="46.69733" lon="-0.05893">
        <ele>207.85</ele>
        <time>2017-01-22T09:11:58.999Z</time>
      </trkpt>
      <trkpt lat="46.69745" lon="-0.0589">
        <ele>207.81</ele>
        <time>2017-01-22T09:12:00.999Z</time>
      </trkpt>
      <trkpt lat="46.69757" lon="-0.05887">
        <ele>207.76</ele>
        <time>2017-01-22T09:12:02.999Z</time>
      </trkpt>
      <trkpt lat="46.69769" lon="-0.05884">
        <ele>207.7</ele>
        <time>2017-01-22T09:12:04.999Z</time>
      </trkpt>
      <trkpt lat="46.6978" lon="-0.0588">
        <ele>207.63</ele>
        <time>2017-01-22T09:12:06.999Z</time>
      </trkpt>
      <trkpt lat="46.69792" lon="-0.05877">
        <ele>207.54</ele>
        <time>2017-01-22T09:12:08.999Z</time>
      </trkpt>
      <trkpt lat="46.69804" lon="-0.05873">
        <ele>207.43</ele>
        <time>2017-01-22T09:12:10.999Z</time>
      </trkpt>
      <trkpt lat="46.69816" lon="-0.05869">
        <ele>207.26</ele>
        <time>2017-01-22T09:12:12.999Z</time>
      </trkpt>
      <trkpt lat="46.69828" lon="-0.05863">
        <ele>207.01</ele>
        <time>2017-01-22T09:12:14.999Z</time>
      </trkpt>
      <trkpt lat="46.69841" lon="-0.05858">
        <ele>206.62</ele>
        <time>2017-01-22T09:12:16.999Z</time>
      </trkpt>
      <trkpt lat="46.69854" lon="-0.05852">
        <ele>206.15</ele>
        <time>2017-01-22T09:12:18.999Z</time>
      </trkpt>
      <trkpt lat="46.69866" lon="-0.05844">
        <ele>205.77</ele>
        <time>2017-01-22T09:12:20.999Z</time>
      </trkpt>
      <trkpt lat="46.69879" lon="-0.05835">
        <ele>205.5</ele>
        <time>2017-01-22T09:12:22.999Z</time>
      </trkpt>
      <trkpt lat="46.69892" lon="-0.05828">
        <ele>205.23</ele>
        <time>2017-01-22T09:12:24.999Z</time>
      </trkpt>
      <trkpt lat="46.69906" lon="-0.05823">
        <ele>204.85</ele>
        <time>2017-01-22T09:12:26.999Z</time>
      </trkpt>
      <trkpt lat="46.69919" lon="-0.05816">
        <ele>204.64</ele>
        <time>2017-01-22T09:12:28.999Z</time>
      </trkpt>
      <trkpt lat="46.69932" lon="-0.05807">
        <ele>204.57</ele>
        <time>2017-01-22T09:12:30.999Z</time>
      </trkpt>
      <trkpt lat="46.69944" lon="-0.05796">
        <ele>204.54</ele>
        <time>2017-01-22T09:12:32.999Z</time>
      </trkpt>
      <trkpt lat="46.69955" lon="-0.05787">
        <ele>204.72</ele>
        <time>2017-01-22T09:12:34.999Z</time>
      </trkpt>
      <trkpt lat="46.69967" lon="-0.05779">
        <ele>204.86</ele>
        <time>2017-01-22T09:12:36.999Z</time>
      </trkpt>
      <trkpt lat="46.69979" lon="-0.05773">
        <ele>204.94</ele>
        <time>2017-01-22T09:12:38.999Z</time>
      </trkpt>
      <trkpt lat="46.69991" lon="-0.05768">
        <ele>205.18</ele>
        <time>2017-01-22T09:12:40.999Z</time>
      </trkpt>
      <trkpt lat="46.70002" lon="-0.05763">
        <ele>205.37</ele>
        <time>2017-01-22T09:12:42.999Z</time>
      </trkpt>
      <trkpt lat="46.70011" lon="-0.05759">
        <ele>205.57</ele>
        <time>2017-01-22T09:12:44.999Z</time>
      </trkpt>
      <trkpt lat="46.70022" lon="-0.05754">
        <ele>205.63</ele>
        <time>2017-01-22T09:12:47.999Z</time>
      </trkpt>
      <trkpt lat="46.70034" lon="-0.05751">
        <ele>205.65</ele>
        <time>2017-01-22T09:12:51.999Z</time>
      </trkpt>
      <trkpt lat="46.70045" lon="-0.05746">
        <ele>205.83</ele>
        <time>2017-01-22T09:12:54.999Z</time>
      </trkpt>
      <trkpt lat="46.70055" lon="-0.05737">
        <ele>205.88</ele>
        <time>2017-01-22T09:12:57.999Z</time>
      </trkpt>
      <trkpt lat="46.70065" lon="-0.05724">
        <ele>205.99</ele>
        <time>2017-01-22T09:13:00.999Z</time>
      </trkpt>
      <trkpt lat="46.70072" lon="-0.05714">
        <ele>205.94</ele>
        <time>2017-01-22T09:13:02.999Z</time>
      </trkpt>
      <trkpt lat="46.7008" lon="-0.05701">
        <ele>205.96</ele>
        <time>2017-01-22T09:13:05.999Z</time>
      </trkpt>
      <trkpt lat="46.70089" lon="-0.05688">
        <ele>206.1</ele>
        <time>2017-01-22T09:13:08.999Z</time>
      </trkpt>
      <trkpt lat="46.70096" lon="-0.05678">
        <ele>206.07</ele>
        <time>2017-01-22T09:13:10.999Z</time>
      </trkpt>
      <trkpt lat="46.70102" lon="-0.05667">
        <ele>206.14</ele>
        <time>2017-01-22T09:13:12.999Z</time>
      </trkpt>
      <trkpt lat="46.70109" lon="-0.05656">
        <ele>206.27</ele>
        <time>2017-01-22T09:13:14.999Z</time>
      </trkpt>
      <trkpt lat="46.70117" lon="-0.05646">
        <ele>206.36</ele>
        <time>2017-01-22T09:13:16.999Z</time>
      </trkpt>
      <trkpt lat="46.70124" lon="-0.05635">
        <ele>206.46</ele>
        <time>2017-01-22T09:13:18.999Z</time>
      </trkpt>
      <trkpt lat="46.70132" lon="-0.05625">
        <ele>206.54</ele>
        <time>2017-01-22T09:13:20.999Z</time>
      </trkpt>
      <trkpt lat="46.70139" lon="-0.05615">
        <ele>206.64</ele>
        <time>2017-01-22T09:13:22.999Z</time>
      </trkpt>
      <trkpt lat="46.70147" lon="-0.05605">
        <ele>206.73</ele>
        <time>2017-01-22T09:13:24.999Z</time>
      </trkpt>
      <trkpt lat="46.70154" lon="-0.05595">
        <ele>206.86</ele>
        <time>2017-01-22T09:13:26.999Z</time>
      </trkpt>
      <trkpt lat="46.70161" lon="-0.05585">
        <ele>206.98</ele>
        <time>2017-01-22T09:13:28.999Z</time>
      </trkpt>
      <trkpt lat="46.70168" lon="-0.05574">
        <ele>207.09</ele>
        <time>2017-01-22T09:13:30.999Z</time>
      </trkpt>
      <trkpt lat="46.70174" lon="-0.05565">
        <ele>207.19</ele>
        <time>2017-01-22T09:13:32.999Z</time>
      </trkpt>
      <trkpt lat="46.70184" lon="-0.05551">
        <ele>207.28</ele>
        <time>2017-01-22T09:13:35.999Z</time>
      </trkpt>
      <trkpt lat="46.70193" lon="-0.05542">
        <ele>208.22</ele>
        <time>2017-01-22T09:14:37.999Z</time>
      </trkpt>
      <trkpt lat="46.70194" lon="-0.05527">
        <ele>209.11</ele>
        <time>2017-01-22T09:14:40.999Z</time>
      </trkpt>
      <trkpt lat="46.70201" lon="-0.05508">
        <ele>210.08</ele>
        <time>2017-01-22T09:14:42.999Z</time>
      </trkpt>
      <trkpt lat="46.70208" lon="-0.0549">
        <ele>210.55</ele>
        <time>2017-01-22T09:14:44.999Z</time>
      </trkpt>
      <trkpt lat="46.70214" lon="-0.05474">
        <ele>210.68</ele>
        <time>2017-01-22T09:14:46.999Z</time>
      </trkpt>
      <trkpt lat="46.7022" lon="-0.05458">
        <ele>210.62</ele>
        <time>2017-01-22T09:14:48.999Z</time>
      </trkpt>
      <trkpt lat="46.70226" lon="-0.05443">
        <ele>210.43</ele>
        <time>2017-01-22T09:14:50.999Z</time>
      </trkpt>
      <trkpt lat="46.70231" lon="-0.05427">
        <ele>210.25</ele>
        <time>2017-01-22T09:14:52.999Z</time>
      </trkpt>
      <trkpt lat="46.70236" lon="-0.05412">
        <ele>210.09</ele>
        <time>2017-01-22T09:14:54.999Z</time>
      </trkpt>
      <trkpt lat="46.70242" lon="-0.05397">
        <ele>209.96</ele>
        <time>2017-01-22T09:14:56.999Z</time>
      </trkpt>
      <trkpt lat="46.70247" lon="-0.05383">
        <ele>209.87</ele>
        <time>2017-01-22T09:14:58.999Z</time>
      </trkpt>
      <trkpt lat="46.70252" lon="-0.05369">
        <ele>209.81</ele>
        <time>2017-01-22T09:15:00.999Z</time>
      </trkpt>
      <trkpt lat="46.70256" lon="-0.05357">
        <ele>209.72</ele>
        <time>2017-01-22T09:15:02.999Z</time>
      </trkpt>
      <trkpt lat="46.70267" lon="-0.05358">
        <ele>209.68</ele>
        <time>2017-01-22T09:15:06.999Z</time>
      </trkpt>
      <trkpt lat="46.70274" lon="-0.05367">
        <ele>209.42</ele>
        <time>2017-01-22T09:15:08.999Z</time>
      </trkpt>
      <trkpt lat="46.70284" lon="-0.05378">
        <ele>209.25</ele>
        <time>2017-01-22T09:15:10.999Z</time>
      </trkpt>
      <trkpt lat="46.70293" lon="-0.0539">
        <ele>209.11</ele>
        <time>2017-01-22T09:15:12.999Z</time>
      </trkpt>
      <trkpt lat="46.70303" lon="-0.05402">
        <ele>209</ele>
        <time>2017-01-22T09:15:14.999Z</time>
      </trkpt>
      <trkpt lat="46.70313" lon="-0.05413">
        <ele>208.89</ele>
        <time>2017-01-22T09:15:16.999Z</time>
      </trkpt>
      <trkpt lat="46.70322" lon="-0.05426">
        <ele>208.72</ele>
        <time>2017-01-22T09:15:18.999Z</time>
      </trkpt>
      <trkpt lat="46.70332" lon="-0.0544">
        <ele>208.54</ele>
        <time>2017-01-22T09:15:20.999Z</time>
      </trkpt>
      <trkpt lat="46.70341" lon="-0.05453">
        <ele>208.45</ele>
        <time>2017-01-22T09:15:22.999Z</time>
      </trkpt>
      <trkpt lat="46.70351" lon="-0.05465">
        <ele>208.36</ele>
        <time>2017-01-22T09:15:24.999Z</time>
      </trkpt>
      <trkpt lat="46.70359" lon="-0.05476">
        <ele>208.27</ele>
        <time>2017-01-22T09:15:26.999Z</time>
      </trkpt>
      <trkpt lat="46.70368" lon="-0.05488">
        <ele>208.18</ele>
        <time>2017-01-22T09:15:28.999Z</time>
      </trkpt>
      <trkpt lat="46.70376" lon="-0.05498">
        <ele>208.11</ele>
        <time>2017-01-22T09:15:30.999Z</time>
      </trkpt>
      <trkpt lat="46.70385" lon="-0.05507">
        <ele>208.07</ele>
        <time>2017-01-22T09:15:32.999Z</time>
      </trkpt>
      <trkpt lat="46.70393" lon="-0.05517">
        <ele>208.03</ele>
        <time>2017-01-22T09:15:34.999Z</time>
      </trkpt>
      <trkpt lat="46.70401" lon="-0.05526">
        <ele>207.96</ele>
        <time>2017-01-22T09:15:36.999Z</time>
      </trkpt>
      <trkpt lat="46.70408" lon="-0.05536">
        <ele>207.92</ele>
        <time>2017-01-22T09:15:38.999Z</time>
      </trkpt>
      <trkpt lat="46.70416" lon="-0.05546">
        <ele>207.9</ele>
        <time>2017-01-22T09:15:40.999Z</time>
      </trkpt>
      <trkpt lat="46.70423" lon="-0.05555">
        <ele>207.86</ele>
        <time>2017-01-22T09:15:42.999Z</time>
      </trkpt>
      <trkpt lat="46.7043" lon="-0.05564">
        <ele>207.82</ele>
        <time>2017-01-22T09:15:44.999Z</time>
      </trkpt>
      <trkpt lat="46.70437" lon="-0.05573">
        <ele>207.8</ele>
        <time>2017-01-22T09:15:46.999Z</time>
      </trkpt>
      <trkpt lat="46.70445" lon="-0.05583">
        <ele>207.82</ele>
        <time>2017-01-22T09:15:48.999Z</time>
      </trkpt>
      <trkpt lat="46.70452" lon="-0.05592">
        <ele>207.84</ele>
        <time>2017-01-22T09:15:50.999Z</time>
      </trkpt>
      <trkpt lat="46.7046" lon="-0.05603">
        <ele>207.84</ele>
        <time>2017-01-22T09:15:52.999Z</time>
      </trkpt>
      <trkpt lat="46.70467" lon="-0.05613">
        <ele>207.85</ele>
        <time>2017-01-22T09:15:54.999Z</time>
      </trkpt>
      <trkpt lat="46.70475" lon="-0.05623">
        <ele>207.83</ele>
        <time>2017-01-22T09:15:56.999Z</time>
      </trkpt>
      <trkpt lat="46.70483" lon="-0.05635">
        <ele>207.84</ele>
        <time>2017-01-22T09:15:58.999Z</time>
      </trkpt>
      <trkpt lat="46.70492" lon="-0.05647">
        <ele>208.01</ele>
        <time>2017-01-22T09:16:00.999Z</time>
      </trkpt>
      <trkpt lat="46.70501" lon="-0.05658">
        <ele>208.21</ele>
        <time>2017-01-22T09:16:02.999Z</time>
      </trkpt>
      <trkpt lat="46.70509" lon="-0.05669">
        <ele>208.39</ele>
        <time>2017-01-22T09:16:04.999Z</time>
      </trkpt>
      <trkpt lat="46.70516" lon="-0.0568">
        <ele>208.55</ele>
        <time>2017-01-22T09:16:06.999Z</time>
      </trkpt>
      <trkpt lat="46.70524" lon="-0.0569">
        <ele>208.72</ele>
        <time>2017-01-22T09:16:08.999Z</time>
      </trkpt>
      <trkpt lat="46.7053" lon="-0.057">
        <ele>208.85</ele>
        <time>2017-01-22T09:16:10.999Z</time>
      </trkpt>
      <trkpt lat="46.70538" lon="-0.05711">
        <ele>208.91</ele>
        <time>2017-01-22T09:16:12.999Z</time>
      </trkpt>
      <trkpt lat="46.70546" lon="-0.05722">
        <ele>208.95</ele>
        <time>2017-01-22T09:16:14.999Z</time>
      </trkpt>
      <trkpt lat="46.70554" lon="-0.05732">
        <ele>208.96</ele>
        <time>2017-01-22T09:16:16.999Z</time>
      </trkpt>
      <trkpt lat="46.70561" lon="-0.05741">
        <ele>208.9</ele>
        <time>2017-01-22T09:16:18.999Z</time>
      </trkpt>
      <trkpt lat="46.70567" lon="-0.0575">
        <ele>208.75</ele>
        <time>2017-01-22T09:16:20.999Z</time>
      </trkpt>
      <trkpt lat="46.70576" lon="-0.05759">
        <ele>208.64</ele>
        <time>2017-01-22T09:16:22.999Z</time>
      </trkpt>
      <trkpt lat="46.70585" lon="-0.05767">
        <ele>208.52</ele>
        <time>2017-01-22T09:16:24.999Z</time>
      </trkpt>
      <trkpt lat="46.70596" lon="-0.05776">
        <ele>208.34</ele>
        <time>2017-01-22T09:16:27.999Z</time>
      </trkpt>
      <trkpt lat="46.70607" lon="-0.05784">
        <ele>208.18</ele>
        <time>2017-01-22T09:16:30.999Z</time>
      </trkpt>
      <trkpt lat="46.70617" lon="-0.05794">
        <ele>208.06</ele>
        <time>2017-01-22T09:16:33.999Z</time>
      </trkpt>
      <trkpt lat="46.70624" lon="-0.05802">
        <ele>207.95</ele>
        <time>2017-01-22T09:16:35.999Z</time>
      </trkpt>
      <trkpt lat="46.70632" lon="-0.05812">
        <ele>207.81</ele>
        <time>2017-01-22T09:16:37.999Z</time>
      </trkpt>
      <trkpt lat="46.7064" lon="-0.05821">
        <ele>207.67</ele>
        <time>2017-01-22T09:16:39.999Z</time>
      </trkpt>
      <trkpt lat="46.70648" lon="-0.0583">
        <ele>207.55</ele>
        <time>2017-01-22T09:16:41.999Z</time>
      </trkpt>
      <trkpt lat="46.70656" lon="-0.05839">
        <ele>207.47</ele>
        <time>2017-01-22T09:16:43.999Z</time>
      </trkpt>
      <trkpt lat="46.70664" lon="-0.05848">
        <ele>207.4</ele>
        <time>2017-01-22T09:16:45.999Z</time>
      </trkpt>
      <trkpt lat="46.70672" lon="-0.05858">
        <ele>207.35</ele>
        <time>2017-01-22T09:16:47.999Z</time>
      </trkpt>
      <trkpt lat="46.70679" lon="-0.0587">
        <ele>207.32</ele>
        <time>2017-01-22T09:16:49.999Z</time>
      </trkpt>
      <trkpt lat="46.70686" lon="-0.05881">
        <ele>207.29</ele>
        <time>2017-01-22T09:16:51.999Z</time>
      </trkpt>
      <trkpt lat="46.70693" lon="-0.05893">
        <ele>207.28</ele>
        <time>2017-01-22T09:16:53.999Z</time>
      </trkpt>
      <trkpt lat="46.707" lon="-0.05904">
        <ele>207.25</ele>
        <time>2017-01-22T09:16:55.999Z</time>
      </trkpt>
      <trkpt lat="46.70707" lon="-0.05916">
        <ele>207.22</ele>
        <time>2017-01-22T09:16:57.999Z</time>
      </trkpt>
      <trkpt lat="46.70715" lon="-0.05929">
        <ele>207.21</ele>
        <time>2017-01-22T09:16:59.999Z</time>
      </trkpt>
      <trkpt lat="46.70723" lon="-0.05941">
        <ele>207.2</ele>
        <time>2017-01-22T09:17:01.999Z</time>
      </trkpt>
      <trkpt lat="46.70731" lon="-0.05953">
        <ele>207.16</ele>
        <time>2017-01-22T09:17:03.999Z</time>
      </trkpt>
      <trkpt lat="46.70739" lon="-0.05965">
        <ele>207.12</ele>
        <time>2017-01-22T09:17:05.999Z</time>
      </trkpt>
      <trkpt lat="46.70748" lon="-0.05976">
        <ele>207.07</ele>
        <time>2017-01-22T09:17:07.999Z</time>
      </trkpt>
      <trkpt lat="46.70756" lon="-0.05988">
        <ele>207.04</ele>
        <time>2017-01-22T09:17:09.999Z</time>
      </trkpt>
      <trkpt lat="46.70763" lon="-0.06001">
        <ele>206.95</ele>
        <time>2017-01-22T09:17:11.999Z</time>
      </trkpt>
      <trkpt lat="46.7077" lon="-0.06014">
        <ele>206.86</ele>
        <time>2017-01-22T09:17:13.999Z</time>
      </trkpt>
      <trkpt lat="46.70777" lon="-0.06028">
        <ele>206.77</ele>
        <time>2017-01-22T09:17:15.999Z</time>
      </trkpt>
      <trkpt lat="46.70784" lon="-0.06042">
        <ele>206.7</ele>
        <time>2017-01-22T09:17:17.999Z</time>
      </trkpt>
      <trkpt lat="46.7079" lon="-0.06055">
        <ele>206.54</ele>
        <time>2017-01-22T09:17:19.999Z</time>
      </trkpt>
      <trkpt lat="46.70797" lon="-0.0607">
        <ele>206.31</ele>
        <time>2017-01-22T09:17:21.999Z</time>
      </trkpt>
      <trkpt lat="46.70803" lon="-0.06085">
        <ele>206.04</ele>
        <time>2017-01-22T09:17:23.999Z</time>
      </trkpt>
      <trkpt lat="46.7081" lon="-0.061">
        <ele>205.47</ele>
        <time>2017-01-22T09:17:25.999Z</time>
      </trkpt>
      <trkpt lat="46.70818" lon="-0.06115">
        <ele>204.63</ele>
        <time>2017-01-22T09:17:27.999Z</time>
      </trkpt>
      <trkpt lat="46.70826" lon="-0.06128">
        <ele>203.88</ele>
        <time>2017-01-22T09:17:29.999Z</time>
      </trkpt>
      <trkpt lat="46.70835" lon="-0.06141">
        <ele>203.22</ele>
        <time>2017-01-22T09:17:31.999Z</time>
      </trkpt>
      <trkpt lat="46.70843" lon="-0.06154">
        <ele>202.69</ele>
        <time>2017-01-22T09:17:33.999Z</time>
      </trkpt>
      <trkpt lat="46.70851" lon="-0.06167">
        <ele>202.27</ele>
        <time>2017-01-22T09:17:35.999Z</time>
      </trkpt>
      <trkpt lat="46.70859" lon="-0.0618">
        <ele>201.85</ele>
        <time>2017-01-22T09:17:37.999Z</time>
      </trkpt>
      <trkpt lat="46.70868" lon="-0.06194">
        <ele>201.53</ele>
        <time>2017-01-22T09:17:39.999Z</time>
      </trkpt>
      <trkpt lat="46.70875" lon="-0.06207">
        <ele>201.24</ele>
        <time>2017-01-22T09:17:41.999Z</time>
      </trkpt>
      <trkpt lat="46.70882" lon="-0.0622">
        <ele>201.03</ele>
        <time>2017-01-22T09:17:43.999Z</time>
      </trkpt>
      <trkpt lat="46.70889" lon="-0.06234">
        <ele>200.8</ele>
        <time>2017-01-22T09:17:45.999Z</time>
      </trkpt>
      <trkpt lat="46.70896" lon="-0.06248">
        <ele>200.59</ele>
        <time>2017-01-22T09:17:47.999Z</time>
      </trkpt>
      <trkpt lat="46.70903" lon="-0.06263">
        <ele>200.38</ele>
        <time>2017-01-22T09:17:49.999Z</time>
      </trkpt>
      <trkpt lat="46.7091" lon="-0.06277">
        <ele>200.15</ele>
        <time>2017-01-22T09:17:51.999Z</time>
      </trkpt>
      <trkpt lat="46.70916" lon="-0.06292">
        <ele>199.9</ele>
        <time>2017-01-22T09:17:53.999Z</time>
      </trkpt>
      <trkpt lat="46.70922" lon="-0.06307">
        <ele>199.6</ele>
        <time>2017-01-22T09:17:55.999Z</time>
      </trkpt>
      <trkpt lat="46.70929" lon="-0.06323">
        <ele>199.34</ele>
        <time>2017-01-22T09:17:57.999Z</time>
      </trkpt>
      <trkpt lat="46.70936" lon="-0.06336">
        <ele>199.13</ele>
        <time>2017-01-22T09:17:59.999Z</time>
      </trkpt>
      <trkpt lat="46.70944" lon="-0.06348">
        <ele>198.98</ele>
        <time>2017-01-22T09:18:01.999Z</time>
      </trkpt>
      <trkpt lat="46.70952" lon="-0.06359">
        <ele>198.84</ele>
        <time>2017-01-22T09:18:03.999Z</time>
      </trkpt>
      <trkpt lat="46.70959" lon="-0.06371">
        <ele>198.58</ele>
        <time>2017-01-22T09:18:05.999Z</time>
      </trkpt>
      <trkpt lat="46.70965" lon="-0.06383">
        <ele>198.18</ele>
        <time>2017-01-22T09:18:07.999Z</time>
      </trkpt>
      <trkpt lat="46.70972" lon="-0.06393">
        <ele>197.62</ele>
        <time>2017-01-22T09:18:09.999Z</time>
      </trkpt>
      <trkpt lat="46.70979" lon="-0.06402">
        <ele>197.13</ele>
        <time>2017-01-22T09:18:11.999Z</time>
      </trkpt>
      <trkpt lat="46.70987" lon="-0.06415">
        <ele>196.53</ele>
        <time>2017-01-22T09:18:13.999Z</time>
      </trkpt>
      <trkpt lat="46.70997" lon="-0.0643">
        <ele>196.14</ele>
        <time>2017-01-22T09:18:15.999Z</time>
      </trkpt>
      <trkpt lat="46.71002" lon="-0.06442">
        <ele>196.06</ele>
        <time>2017-01-22T09:18:17.999Z</time>
      </trkpt>
      <trkpt lat="46.71002" lon="-0.06455">
        <ele>196.3</ele>
        <time>2017-01-22T09:18:19.999Z</time>
      </trkpt>
      <trkpt lat="46.70997" lon="-0.06471">
        <ele>196.83</ele>
        <time>2017-01-22T09:18:22.999Z</time>
      </trkpt>
      <trkpt lat="46.70995" lon="-0.06489">
        <ele>197.12</ele>
        <time>2017-01-22T09:18:25.999Z</time>
      </trkpt>
      <trkpt lat="46.71006" lon="-0.06498">
        <ele>196.85</ele>
        <time>2017-01-22T09:18:28.999Z</time>
      </trkpt>
      <trkpt lat="46.71016" lon="-0.06495">
        <ele>196.98</ele>
        <time>2017-01-22T09:18:30.999Z</time>
      </trkpt>
      <trkpt lat="46.71028" lon="-0.06496">
        <ele>197.67</ele>
        <time>2017-01-22T09:18:32.999Z</time>
      </trkpt>
      <trkpt lat="46.71037" lon="-0.06501">
        <ele>198.53</ele>
        <time>2017-01-22T09:18:34.999Z</time>
      </trkpt>
      <trkpt lat="46.71047" lon="-0.06512">
        <ele>199.58</ele>
        <time>2017-01-22T09:18:37.999Z</time>
      </trkpt>
      <trkpt lat="46.71056" lon="-0.06525">
        <ele>200.26</ele>
        <time>2017-01-22T09:18:40.999Z</time>
      </trkpt>
      <trkpt lat="46.71062" lon="-0.06535">
        <ele>200.54</ele>
        <time>2017-01-22T09:18:42.999Z</time>
      </trkpt>
      <trkpt lat="46.71071" lon="-0.06547">
        <ele>200.92</ele>
        <time>2017-01-22T09:18:45.999Z</time>
      </trkpt>
      <trkpt lat="46.7108" lon="-0.0656">
        <ele>201.2</ele>
        <time>2017-01-22T09:18:48.999Z</time>
      </trkpt>
      <trkpt lat="46.7109" lon="-0.06572">
        <ele>201.38</ele>
        <time>2017-01-22T09:18:51.999Z</time>
      </trkpt>
      <trkpt lat="46.71098" lon="-0.06585">
        <ele>201.47</ele>
        <time>2017-01-22T09:18:54.999Z</time>
      </trkpt>
      <trkpt lat="46.71106" lon="-0.06598">
        <ele>201.51</ele>
        <time>2017-01-22T09:18:57.999Z</time>
      </trkpt>
      <trkpt lat="46.71113" lon="-0.06611">
        <ele>201.47</ele>
        <time>2017-01-22T09:19:00.999Z</time>
      </trkpt>
      <trkpt lat="46.71119" lon="-0.06624">
        <ele>201.43</ele>
        <time>2017-01-22T09:19:03.999Z</time>
      </trkpt>
      <trkpt lat="46.71125" lon="-0.06637">
        <ele>201.4</ele>
        <time>2017-01-22T09:19:06.999Z</time>
      </trkpt>
      <trkpt lat="46.71131" lon="-0.0665">
        <ele>201.34</ele>
        <time>2017-01-22T09:19:09.999Z</time>
      </trkpt>
      <trkpt lat="46.71137" lon="-0.06664">
        <ele>201.32</ele>
        <time>2017-01-22T09:19:12.999Z</time>
      </trkpt>
      <trkpt lat="46.71143" lon="-0.06677">
        <ele>201.24</ele>
        <time>2017-01-22T09:19:15.999Z</time>
      </trkpt>
      <trkpt lat="46.71149" lon="-0.0669">
        <ele>201.12</ele>
        <time>2017-01-22T09:19:18.999Z</time>
      </trkpt>
      <trkpt lat="46.71156" lon="-0.06704">
        <ele>200.98</ele>
        <time>2017-01-22T09:19:21.999Z</time>
      </trkpt>
      <trkpt lat="46.71162" lon="-0.06717">
        <ele>200.86</ele>
        <time>2017-01-22T09:19:24.999Z</time>
      </trkpt>
      <trkpt lat="46.71169" lon="-0.06732">
        <ele>200.79</ele>
        <time>2017-01-22T09:19:27.999Z</time>
      </trkpt>
      <trkpt lat="46.71176" lon="-0.06746">
        <ele>200.79</ele>
        <time>2017-01-22T09:19:30.999Z</time>
      </trkpt>
      <trkpt lat="46.71182" lon="-0.0676">
        <ele>200.81</ele>
        <time>2017-01-22T09:19:33.999Z</time>
      </trkpt>
      <trkpt lat="46.71189" lon="-0.06775">
        <ele>200.74</ele>
        <time>2017-01-22T09:19:36.999Z</time>
      </trkpt>
      <trkpt lat="46.71196" lon="-0.06791">
        <ele>200.74</ele>
        <time>2017-01-22T09:19:39.999Z</time>
      </trkpt>
      <trkpt lat="46.71203" lon="-0.06806">
        <ele>200.76</ele>
        <time>2017-01-22T09:19:42.999Z</time>
      </trkpt>
      <trkpt lat="46.71209" lon="-0.06816">
        <ele>200.77</ele>
        <time>2017-01-22T09:19:44.999Z</time>
      </trkpt>
      <trkpt lat="46.71214" lon="-0.06826">
        <ele>200.8</ele>
        <time>2017-01-22T09:19:46.999Z</time>
      </trkpt>
      <trkpt lat="46.7122" lon="-0.06837">
        <ele>200.81</ele>
        <time>2017-01-22T09:19:48.999Z</time>
      </trkpt>
      <trkpt lat="46.71228" lon="-0.06852">
        <ele>200.76</ele>
        <time>2017-01-22T09:19:51.999Z</time>
      </trkpt>
      <trkpt lat="46.71235" lon="-0.06862">
        <ele>200.71</ele>
        <time>2017-01-22T09:19:53.999Z</time>
      </trkpt>
      <trkpt lat="46.71241" lon="-0.06872">
        <ele>200.72</ele>
        <time>2017-01-22T09:19:55.999Z</time>
      </trkpt>
      <trkpt lat="46.71248" lon="-0.06882">
        <ele>200.71</ele>
        <time>2017-01-22T09:19:57.999Z</time>
      </trkpt>
      <trkpt lat="46.71257" lon="-0.06896">
        <ele>200.66</ele>
        <time>2017-01-22T09:20:00.999Z</time>
      </trkpt>
      <trkpt lat="46.71267" lon="-0.0691">
        <ele>200.58</ele>
        <time>2017-01-22T09:20:03.999Z</time>
      </trkpt>
      <trkpt lat="46.71276" lon="-0.06922">
        <ele>200.55</ele>
        <time>2017-01-22T09:20:06.999Z</time>
      </trkpt>
      <trkpt lat="46.71284" lon="-0.06934">
        <ele>200.47</ele>
        <time>2017-01-22T09:20:09.999Z</time>
      </trkpt>
      <trkpt lat="46.71293" lon="-0.06944">
        <ele>200.42</ele>
        <time>2017-01-22T09:20:12.999Z</time>
      </trkpt>
      <trkpt lat="46.71302" lon="-0.06957">
        <ele>200.41</ele>
        <time>2017-01-22T09:20:15.999Z</time>
      </trkpt>
      <trkpt lat="46.71312" lon="-0.06969">
        <ele>200.41</ele>
        <time>2017-01-22T09:20:18.999Z</time>
      </trkpt>
      <trkpt lat="46.71323" lon="-0.06981">
        <ele>200.43</ele>
        <time>2017-01-22T09:20:21.999Z</time>
      </trkpt>
      <trkpt lat="46.7133" lon="-0.0699">
        <ele>200.4</ele>
        <time>2017-01-22T09:20:23.999Z</time>
      </trkpt>
      <trkpt lat="46.71337" lon="-0.06999">
        <ele>200.41</ele>
        <time>2017-01-22T09:20:25.999Z</time>
      </trkpt>
      <trkpt lat="46.71343" lon="-0.0701">
        <ele>200.45</ele>
        <time>2017-01-22T09:20:27.999Z</time>
      </trkpt>
      <trkpt lat="46.71352" lon="-0.07024">
        <ele>200.46</ele>
        <time>2017-01-22T09:20:29.999Z</time>
      </trkpt>
      <trkpt lat="46.7136" lon="-0.07039">
        <ele>200.4</ele>
        <time>2017-01-22T09:20:31.999Z</time>
      </trkpt>
      <trkpt lat="46.71368" lon="-0.07055">
        <ele>200.11</ele>
        <time>2017-01-22T09:20:33.999Z</time>
      </trkpt>
      <trkpt lat="46.71377" lon="-0.0707">
        <ele>199.85</ele>
        <time>2017-01-22T09:20:35.999Z</time>
      </trkpt>
      <trkpt lat="46.71385" lon="-0.07085">
        <ele>199.64</ele>
        <time>2017-01-22T09:20:37.999Z</time>
      </trkpt>
      <trkpt lat="46.71393" lon="-0.071">
        <ele>199.55</ele>
        <time>2017-01-22T09:20:39.999Z</time>
      </trkpt>
      <trkpt lat="46.714" lon="-0.07115">
        <ele>199.52</ele>
        <time>2017-01-22T09:20:41.999Z</time>
      </trkpt>
      <trkpt lat="46.71408" lon="-0.07128">
        <ele>199.41</ele>
        <time>2017-01-22T09:20:43.999Z</time>
      </trkpt>
      <trkpt lat="46.71416" lon="-0.07139">
        <ele>199.28</ele>
        <time>2017-01-22T09:20:45.999Z</time>
      </trkpt>
      <trkpt lat="46.71425" lon="-0.07149">
        <ele>199.18</ele>
        <time>2017-01-22T09:20:47.999Z</time>
      </trkpt>
      <trkpt lat="46.71432" lon="-0.07158">
        <ele>199.09</ele>
        <time>2017-01-22T09:20:49.999Z</time>
      </trkpt>
      <trkpt lat="46.71439" lon="-0.07168">
        <ele>199.07</ele>
        <time>2017-01-22T09:20:51.999Z</time>
      </trkpt>
      <trkpt lat="46.71446" lon="-0.07179">
        <ele>199.13</ele>
        <time>2017-01-22T09:20:53.999Z</time>
      </trkpt>
      <trkpt lat="46.71452" lon="-0.07195">
        <ele>199.14</ele>
        <time>2017-01-22T09:20:56.999Z</time>
      </trkpt>
      <trkpt lat="46.71458" lon="-0.0721">
        <ele>199.26</ele>
        <time>2017-01-22T09:20:59.999Z</time>
      </trkpt>
      <trkpt lat="46.71464" lon="-0.07227">
        <ele>199.48</ele>
        <time>2017-01-22T09:21:02.999Z</time>
      </trkpt>
      <trkpt lat="46.7147" lon="-0.07243">
        <ele>199.67</ele>
        <time>2017-01-22T09:21:05.999Z</time>
      </trkpt>
      <trkpt lat="46.71475" lon="-0.07259">
        <ele>199.76</ele>
        <time>2017-01-22T09:21:08.999Z</time>
      </trkpt>
      <trkpt lat="46.7148" lon="-0.07276">
        <ele>199.82</ele>
        <time>2017-01-22T09:21:11.999Z</time>
      </trkpt>
      <trkpt lat="46.71486" lon="-0.07292">
        <ele>199.74</ele>
        <time>2017-01-22T09:21:14.999Z</time>
      </trkpt>
      <trkpt lat="46.71491" lon="-0.07307">
        <ele>199.69</ele>
        <time>2017-01-22T09:21:17.999Z</time>
      </trkpt>
      <trkpt lat="46.71495" lon="-0.07323">
        <ele>199.72</ele>
        <time>2017-01-22T09:21:20.999Z</time>
      </trkpt>
      <trkpt lat="46.715" lon="-0.07338">
        <ele>199.78</ele>
        <time>2017-01-22T09:21:23.999Z</time>
      </trkpt>
      <trkpt lat="46.71503" lon="-0.0735">
        <ele>199.81</ele>
        <time>2017-01-22T09:21:26.999Z</time>
      </trkpt>
      <trkpt lat="46.71507" lon="-0.07364">
        <ele>199.85</ele>
        <time>2017-01-22T09:21:29.999Z</time>
      </trkpt>
      <trkpt lat="46.71511" lon="-0.07377">
        <ele>199.9</ele>
        <time>2017-01-22T09:21:32.999Z</time>
      </trkpt>
      <trkpt lat="46.71522" lon="-0.07384">
        <ele>200.14</ele>
        <time>2017-01-22T09:21:36.999Z</time>
      </trkpt>
      <trkpt lat="46.71533" lon="-0.07379">
        <ele>200.53</ele>
        <time>2017-01-22T09:21:39.999Z</time>
      </trkpt>
      <trkpt lat="46.71547" lon="-0.07377">
        <ele>200.78</ele>
        <time>2017-01-22T09:21:42.999Z</time>
      </trkpt>
      <trkpt lat="46.71556" lon="-0.07375">
        <ele>200.91</ele>
        <time>2017-01-22T09:21:44.999Z</time>
      </trkpt>
      <trkpt lat="46.71565" lon="-0.07374">
        <ele>201.02</ele>
        <time>2017-01-22T09:21:46.999Z</time>
      </trkpt>
      <trkpt lat="46.71578" lon="-0.07372">
        <ele>201.17</ele>
        <time>2017-01-22T09:21:49.999Z</time>
      </trkpt>
      <trkpt lat="46.71587" lon="-0.07371">
        <ele>201.27</ele>
        <time>2017-01-22T09:21:51.999Z</time>
      </trkpt>
      <trkpt lat="46.71597" lon="-0.07371">
        <ele>201.36</ele>
        <time>2017-01-22T09:21:53.999Z</time>
      </trkpt>
      <trkpt lat="46.71607" lon="-0.0737">
        <ele>201.43</ele>
        <time>2017-01-22T09:21:55.999Z</time>
      </trkpt>
      <trkpt lat="46.71617" lon="-0.07369">
        <ele>201.49</ele>
        <time>2017-01-22T09:21:57.999Z</time>
      </trkpt>
      <trkpt lat="46.71627" lon="-0.07368">
        <ele>201.56</ele>
        <time>2017-01-22T09:21:59.999Z</time>
      </trkpt>
      <trkpt lat="46.71636" lon="-0.07366">
        <ele>201.62</ele>
        <time>2017-01-22T09:22:01.999Z</time>
      </trkpt>
      <trkpt lat="46.71646" lon="-0.07365">
        <ele>201.68</ele>
        <time>2017-01-22T09:22:03.999Z</time>
      </trkpt>
      <trkpt lat="46.71655" lon="-0.07363">
        <ele>201.75</ele>
        <time>2017-01-22T09:22:05.999Z</time>
      </trkpt>
      <trkpt lat="46.71666" lon="-0.07362">
        <ele>201.8</ele>
        <time>2017-01-22T09:22:07.999Z</time>
      </trkpt>
      <trkpt lat="46.71675" lon="-0.0736">
        <ele>201.84</ele>
        <time>2017-01-22T09:22:09.999Z</time>
      </trkpt>
      <trkpt lat="46.71686" lon="-0.07358">
        <ele>201.89</ele>
        <time>2017-01-22T09:22:11.999Z</time>
      </trkpt>
      <trkpt lat="46.71696" lon="-0.07357">
        <ele>201.93</ele>
        <time>2017-01-22T09:22:13.999Z</time>
      </trkpt>
      <trkpt lat="46.71706" lon="-0.07356">
        <ele>201.98</ele>
        <time>2017-01-22T09:22:15.999Z</time>
      </trkpt>
      <trkpt lat="46.71716" lon="-0.07354">
        <ele>202.02</ele>
        <time>2017-01-22T09:22:17.999Z</time>
      </trkpt>
      <trkpt lat="46.71727" lon="-0.07353">
        <ele>202.06</ele>
        <time>2017-01-22T09:22:19.999Z</time>
      </trkpt>
      <trkpt lat="46.71737" lon="-0.07351">
        <ele>202.1</ele>
        <time>2017-01-22T09:22:21.999Z</time>
      </trkpt>
      <trkpt lat="46.71746" lon="-0.0735">
        <ele>202.13</ele>
        <time>2017-01-22T09:22:23.999Z</time>
      </trkpt>
      <trkpt lat="46.71757" lon="-0.07348">
        <ele>202.15</ele>
        <time>2017-01-22T09:22:25.999Z</time>
      </trkpt>
      <trkpt lat="46.71767" lon="-0.07347">
        <ele>202.15</ele>
        <time>2017-01-22T09:22:27.999Z</time>
      </trkpt>
      <trkpt lat="46.71777" lon="-0.07346">
        <ele>202.12</ele>
        <time>2017-01-22T09:22:29.999Z</time>
      </trkpt>
      <trkpt lat="46.71788" lon="-0.07344">
        <ele>202.08</ele>
        <time>2017-01-22T09:22:31.999Z</time>
      </trkpt>
      <trkpt lat="46.71799" lon="-0.07342">
        <ele>202.02</ele>
        <time>2017-01-22T09:22:33.999Z</time>
      </trkpt>
      <trkpt lat="46.7181" lon="-0.0734">
        <ele>201.94</ele>
        <time>2017-01-22T09:22:35.999Z</time>
      </trkpt>
      <trkpt lat="46.7182" lon="-0.07337">
        <ele>201.82</ele>
        <time>2017-01-22T09:22:37.999Z</time>
      </trkpt>
      <trkpt lat="46.7183" lon="-0.07332">
        <ele>201.69</ele>
        <time>2017-01-22T09:22:39.999Z</time>
      </trkpt>
      <trkpt lat="46.71841" lon="-0.07326">
        <ele>201.55</ele>
        <time>2017-01-22T09:22:41.999Z</time>
      </trkpt>
      <trkpt lat="46.71851" lon="-0.0732">
        <ele>201.4</ele>
        <time>2017-01-22T09:22:43.999Z</time>
      </trkpt>
      <trkpt lat="46.71862" lon="-0.07314">
        <ele>201.27</ele>
        <time>2017-01-22T09:22:45.999Z</time>
      </trkpt>
      <trkpt lat="46.71872" lon="-0.07306">
        <ele>201.15</ele>
        <time>2017-01-22T09:22:47.999Z</time>
      </trkpt>
      <trkpt lat="46.7188" lon="-0.07297">
        <ele>201.01</ele>
        <time>2017-01-22T09:22:49.999Z</time>
      </trkpt>
      <trkpt lat="46.71888" lon="-0.07287">
        <ele>200.94</ele>
        <time>2017-01-22T09:22:51.999Z</time>
      </trkpt>
      <trkpt lat="46.71896" lon="-0.07278">
        <ele>200.83</ele>
        <time>2017-01-22T09:22:53.999Z</time>
      </trkpt>
      <trkpt lat="46.71904" lon="-0.07271">
        <ele>200.69</ele>
        <time>2017-01-22T09:22:55.999Z</time>
      </trkpt>
      <trkpt lat="46.71916" lon="-0.07264">
        <ele>200.5</ele>
        <time>2017-01-22T09:22:58.999Z</time>
      </trkpt>
      <trkpt lat="46.71928" lon="-0.0726">
        <ele>200.5</ele>
        <time>2017-01-22T09:23:01.999Z</time>
      </trkpt>
      <trkpt lat="46.71941" lon="-0.07256">
        <ele>200.62</ele>
        <time>2017-01-22T09:23:04.999Z</time>
      </trkpt>
      <trkpt lat="46.71953" lon="-0.07252">
        <ele>200.85</ele>
        <time>2017-01-22T09:23:07.999Z</time>
      </trkpt>
      <trkpt lat="46.71965" lon="-0.07248">
        <ele>201.24</ele>
        <time>2017-01-22T09:23:10.999Z</time>
      </trkpt>
      <trkpt lat="46.71977" lon="-0.07247">
        <ele>201.53</ele>
        <time>2017-01-22T09:23:13.999Z</time>
      </trkpt>
      <trkpt lat="46.71986" lon="-0.07246">
        <ele>201.59</ele>
        <time>2017-01-22T09:23:16.999Z</time>
      </trkpt>
      <trkpt lat="46.71996" lon="-0.07243">
        <ele>201.66</ele>
        <time>2017-01-22T09:23:19.999Z</time>
      </trkpt>
      <trkpt lat="46.72006" lon="-0.07237">
        <ele>201.77</ele>
        <time>2017-01-22T09:23:23.999Z</time>
      </trkpt>
      <trkpt lat="46.72015" lon="-0.07237">
        <ele>201.89</ele>
        <time>2017-01-22T09:23:27.999Z</time>
      </trkpt>
      <trkpt lat="46.72026" lon="-0.07236">
        <ele>202.03</ele>
        <time>2017-01-22T09:23:31.999Z</time>
      </trkpt>
      <trkpt lat="46.72033" lon="-0.07226">
        <ele>202.15</ele>
        <time>2017-01-22T09:23:34.999Z</time>
      </trkpt>
      <trkpt lat="46.72041" lon="-0.07219">
        <ele>202.27</ele>
        <time>2017-01-22T09:23:37.999Z</time>
      </trkpt>
      <trkpt lat="46.72052" lon="-0.07216">
        <ele>202.39</ele>
        <time>2017-01-22T09:23:40.999Z</time>
      </trkpt>
      <trkpt lat="46.72063" lon="-0.07215">
        <ele>203.17</ele>
        <time>2017-01-22T09:23:43.999Z</time>
      </trkpt>
      <trkpt lat="46.72075" lon="-0.07215">
        <ele>204.12</ele>
        <time>2017-01-22T09:23:46.999Z</time>
      </trkpt>
      <trkpt lat="46.72088" lon="-0.07217">
        <ele>204.72</ele>
        <time>2017-01-22T09:23:49.999Z</time>
      </trkpt>
      <trkpt lat="46.721" lon="-0.0722">
        <ele>205.43</ele>
        <time>2017-01-22T09:23:52.999Z</time>
      </trkpt>
      <trkpt lat="46.72112" lon="-0.07216">
        <ele>205.88</ele>
        <time>2017-01-22T09:23:55.999Z</time>
      </trkpt>
      <trkpt lat="46.72122" lon="-0.07204">
        <ele>206.22</ele>
        <time>2017-01-22T09:23:58.999Z</time>
      </trkpt>
      <trkpt lat="46.7213" lon="-0.07197">
        <ele>206.42</ele>
        <time>2017-01-22T09:24:00.999Z</time>
      </trkpt>
      <trkpt lat="46.72139" lon="-0.07192">
        <ele>206.51</ele>
        <time>2017-01-22T09:24:02.999Z</time>
      </trkpt>
      <trkpt lat="46.72147" lon="-0.07187">
        <ele>206.5</ele>
        <time>2017-01-22T09:24:04.999Z</time>
      </trkpt>
      <trkpt lat="46.72159" lon="-0.07181">
        <ele>206.38</ele>
        <time>2017-01-22T09:24:07.999Z</time>
      </trkpt>
      <trkpt lat="46.72169" lon="-0.07175">
        <ele>206.34</ele>
        <time>2017-01-22T09:24:10.999Z</time>
      </trkpt>
      <trkpt lat="46.7218" lon="-0.07169">
        <ele>205.9</ele>
        <time>2017-01-22T09:24:13.999Z</time>
      </trkpt>
      <trkpt lat="46.72192" lon="-0.07162">
        <ele>205.48</ele>
        <time>2017-01-22T09:24:16.999Z</time>
      </trkpt>
      <trkpt lat="46.72204" lon="-0.07152">
        <ele>205.23</ele>
        <time>2017-01-22T09:24:19.999Z</time>
      </trkpt>
      <trkpt lat="46.72212" lon="-0.07145">
        <ele>205.04</ele>
        <time>2017-01-22T09:24:21.999Z</time>
      </trkpt>
      <trkpt lat="46.72222" lon="-0.07134">
        <ele>204.86</ele>
        <time>2017-01-22T09:24:24.999Z</time>
      </trkpt>
      <trkpt lat="46.72232" lon="-0.07123">
        <ele>204.64</ele>
        <time>2017-01-22T09:24:27.999Z</time>
      </trkpt>
      <trkpt lat="46.72242" lon="-0.07114">
        <ele>204.39</ele>
        <time>2017-01-22T09:24:30.999Z</time>
      </trkpt>
      <trkpt lat="46.72255" lon="-0.07112">
        <ele>204.16</ele>
        <time>2017-01-22T09:24:33.999Z</time>
      </trkpt>
      <trkpt lat="46.72262" lon="-0.07118">
        <ele>204.02</ele>
        <time>2017-01-22T09:24:35.999Z</time>
      </trkpt>
      <trkpt lat="46.72272" lon="-0.07131">
        <ele>203.97</ele>
        <time>2017-01-22T09:24:38.999Z</time>
      </trkpt>
      <trkpt lat="46.72279" lon="-0.07141">
        <ele>203.99</ele>
        <time>2017-01-22T09:24:40.999Z</time>
      </trkpt>
      <trkpt lat="46.72287" lon="-0.07151">
        <ele>204.06</ele>
        <time>2017-01-22T09:24:42.999Z</time>
      </trkpt>
      <trkpt lat="46.72295" lon="-0.07161">
        <ele>204.14</ele>
        <time>2017-01-22T09:24:44.999Z</time>
      </trkpt>
      <trkpt lat="46.72303" lon="-0.07168">
        <ele>204.25</ele>
        <time>2017-01-22T09:24:46.999Z</time>
      </trkpt>
      <trkpt lat="46.72313" lon="-0.07174">
        <ele>204.35</ele>
        <time>2017-01-22T09:24:48.999Z</time>
      </trkpt>
      <trkpt lat="46.72322" lon="-0.07178">
        <ele>204.44</ele>
        <time>2017-01-22T09:24:50.999Z</time>
      </trkpt>
      <trkpt lat="46.72332" lon="-0.07179">
        <ele>204.5</ele>
        <time>2017-01-22T09:24:52.999Z</time>
      </trkpt>
      <trkpt lat="46.72344" lon="-0.07178">
        <ele>204.63</ele>
        <time>2017-01-22T09:24:55.999Z</time>
      </trkpt>
      <trkpt lat="46.72355" lon="-0.07178">
        <ele>204.81</ele>
        <time>2017-01-22T09:24:58.999Z</time>
      </trkpt>
      <trkpt lat="46.72366" lon="-0.07178">
        <ele>205.18</ele>
        <time>2017-01-22T09:25:01.999Z</time>
      </trkpt>
      <trkpt lat="46.72379" lon="-0.07179">
        <ele>205.55</ele>
        <time>2017-01-22T09:25:04.999Z</time>
      </trkpt>
      <trkpt lat="46.72388" lon="-0.07182">
        <ele>205.76</ele>
        <time>2017-01-22T09:25:06.999Z</time>
      </trkpt>
      <trkpt lat="46.72397" lon="-0.07185">
        <ele>205.95</ele>
        <time>2017-01-22T09:25:08.999Z</time>
      </trkpt>
      <trkpt lat="46.72407" lon="-0.07188">
        <ele>206.18</ele>
        <time>2017-01-22T09:25:10.999Z</time>
      </trkpt>
      <trkpt lat="46.72416" lon="-0.07191">
        <ele>206.41</ele>
        <time>2017-01-22T09:25:12.999Z</time>
      </trkpt>
      <trkpt lat="46.72425" lon="-0.07194">
        <ele>206.61</ele>
        <time>2017-01-22T09:25:14.999Z</time>
      </trkpt>
      <trkpt lat="46.72434" lon="-0.07197">
        <ele>206.77</ele>
        <time>2017-01-22T09:25:16.999Z</time>
      </trkpt>
      <trkpt lat="46.72447" lon="-0.07201">
        <ele>206.93</ele>
        <time>2017-01-22T09:25:19.999Z</time>
      </trkpt>
      <trkpt lat="46.7246" lon="-0.07205">
        <ele>206.98</ele>
        <time>2017-01-22T09:25:22.999Z</time>
      </trkpt>
      <trkpt lat="46.72469" lon="-0.07207">
        <ele>206.99</ele>
        <time>2017-01-22T09:25:24.999Z</time>
      </trkpt>
      <trkpt lat="46.72482" lon="-0.07211">
        <ele>207.06</ele>
        <time>2017-01-22T09:25:27.999Z</time>
      </trkpt>
      <trkpt lat="46.72491" lon="-0.07212">
        <ele>207.15</ele>
        <time>2017-01-22T09:25:29.999Z</time>
      </trkpt>
      <trkpt lat="46.72504" lon="-0.07213">
        <ele>207.29</ele>
        <time>2017-01-22T09:25:32.999Z</time>
      </trkpt>
      <trkpt lat="46.72517" lon="-0.0721">
        <ele>207.36</ele>
        <time>2017-01-22T09:25:35.999Z</time>
      </trkpt>
      <trkpt lat="46.7253" lon="-0.07206">
        <ele>207.3</ele>
        <time>2017-01-22T09:25:38.999Z</time>
      </trkpt>
      <trkpt lat="46.72539" lon="-0.07204">
        <ele>207.15</ele>
        <time>2017-01-22T09:25:40.999Z</time>
      </trkpt>
      <trkpt lat="46.72549" lon="-0.072">
        <ele>206.95</ele>
        <time>2017-01-22T09:25:42.999Z</time>
      </trkpt>
      <trkpt lat="46.72559" lon="-0.07195">
        <ele>206.69</ele>
        <time>2017-01-22T09:25:44.999Z</time>
      </trkpt>
      <trkpt lat="46.7257" lon="-0.0719">
        <ele>206.48</ele>
        <time>2017-01-22T09:25:46.999Z</time>
      </trkpt>
      <trkpt lat="46.7258" lon="-0.07185">
        <ele>206.29</ele>
        <time>2017-01-22T09:25:48.999Z</time>
      </trkpt>
      <trkpt lat="46.7259" lon="-0.07179">
        <ele>206.11</ele>
        <time>2017-01-22T09:25:50.999Z</time>
      </trkpt>
      <trkpt lat="46.726" lon="-0.07174">
        <ele>205.94</ele>
        <time>2017-01-22T09:25:52.999Z</time>
      </trkpt>
      <trkpt lat="46.72609" lon="-0.07169">
        <ele>205.75</ele>
        <time>2017-01-22T09:25:54.999Z</time>
      </trkpt>
      <trkpt lat="46.7262" lon="-0.07162">
        <ele>205.35</ele>
        <time>2017-01-22T09:25:57.999Z</time>
      </trkpt>
      <trkpt lat="46.7263" lon="-0.07166">
        <ele>205.3</ele>
        <time>2017-01-22T09:26:00.999Z</time>
      </trkpt>
      <trkpt lat="46.72636" lon="-0.07179">
        <ele>205.05</ele>
        <time>2017-01-22T09:26:03.999Z</time>
      </trkpt>
      <trkpt lat="46.72646" lon="-0.07192">
        <ele>204.72</ele>
        <time>2017-01-22T09:26:06.999Z</time>
      </trkpt>
      <trkpt lat="46.72652" lon="-0.07202">
        <ele>204.66</ele>
        <time>2017-01-22T09:26:08.999Z</time>
      </trkpt>
      <trkpt lat="46.72659" lon="-0.07212">
        <ele>204.66</ele>
        <time>2017-01-22T09:26:10.999Z</time>
      </trkpt>
      <trkpt lat="46.72665" lon="-0.07222">
        <ele>204.66</ele>
        <time>2017-01-22T09:26:12.999Z</time>
      </trkpt>
      <trkpt lat="46.72672" lon="-0.07234">
        <ele>204.67</ele>
        <time>2017-01-22T09:26:14.999Z</time>
      </trkpt>
      <trkpt lat="46.72676" lon="-0.07246">
        <ele>204.68</ele>
        <time>2017-01-22T09:26:16.999Z</time>
      </trkpt>
      <trkpt lat="46.72673" lon="-0.07263">
        <ele>204.81</ele>
        <time>2017-01-22T09:26:19.999Z</time>
      </trkpt>
      <trkpt lat="46.72664" lon="-0.07276">
        <ele>204.69</ele>
        <time>2017-01-22T09:26:22.999Z</time>
      </trkpt>
      <trkpt lat="46.72654" lon="-0.07286">
        <ele>204.43</ele>
        <time>2017-01-22T09:26:25.999Z</time>
      </trkpt>
      <trkpt lat="46.72646" lon="-0.07299">
        <ele>204.26</ele>
        <time>2017-01-22T09:26:28.999Z</time>
      </trkpt>
      <trkpt lat="46.72645" lon="-0.07314">
        <ele>204.23</ele>
        <time>2017-01-22T09:26:31.999Z</time>
      </trkpt>
      <trkpt lat="46.72644" lon="-0.07331">
        <ele>204.12</ele>
        <time>2017-01-22T09:26:34.999Z</time>
      </trkpt>
      <trkpt lat="46.72641" lon="-0.07346">
        <ele>204.1</ele>
        <time>2017-01-22T09:26:37.999Z</time>
      </trkpt>
      <trkpt lat="46.72636" lon="-0.07361">
        <ele>204.1</ele>
        <time>2017-01-22T09:26:40.999Z</time>
      </trkpt>
      <trkpt lat="46.72632" lon="-0.07378">
        <ele>204.21</ele>
        <time>2017-01-22T09:26:43.999Z</time>
      </trkpt>
      <trkpt lat="46.72628" lon="-0.07395">
        <ele>204.42</ele>
        <time>2017-01-22T09:26:46.999Z</time>
      </trkpt>
      <trkpt lat="46.72626" lon="-0.0741">
        <ele>204.55</ele>
        <time>2017-01-22T09:26:49.999Z</time>
      </trkpt>
      <trkpt lat="46.72625" lon="-0.07426">
        <ele>204.61</ele>
        <time>2017-01-22T09:26:52.999Z</time>
      </trkpt>
      <trkpt lat="46.72624" lon="-0.07442">
        <ele>205.21</ele>
        <time>2017-01-22T09:26:55.999Z</time>
      </trkpt>
      <trkpt lat="46.72626" lon="-0.07457">
        <ele>205.55</ele>
        <time>2017-01-22T09:26:58.999Z</time>
      </trkpt>
      <trkpt lat="46.72636" lon="-0.07467">
        <ele>206.27</ele>
        <time>2017-01-22T09:27:01.999Z</time>
      </trkpt>
      <trkpt lat="46.72644" lon="-0.07473">
        <ele>206.66</ele>
        <time>2017-01-22T09:27:03.999Z</time>
      </trkpt>
      <trkpt lat="46.72655" lon="-0.0748">
        <ele>207.03</ele>
        <time>2017-01-22T09:27:05.999Z</time>
      </trkpt>
      <trkpt lat="46.72664" lon="-0.07486">
        <ele>207.35</ele>
        <time>2017-01-22T09:27:07.999Z</time>
      </trkpt>
      <trkpt lat="46.72672" lon="-0.07493">
        <ele>207.62</ele>
        <time>2017-01-22T09:27:09.999Z</time>
      </trkpt>
      <trkpt lat="46.72681" lon="-0.075">
        <ele>207.86</ele>
        <time>2017-01-22T09:27:11.999Z</time>
      </trkpt>
      <trkpt lat="46.72689" lon="-0.07507">
        <ele>208.09</ele>
        <time>2017-01-22T09:27:13.999Z</time>
      </trkpt>
      <trkpt lat="46.72696" lon="-0.07517">
        <ele>208.3</ele>
        <time>2017-01-22T09:27:15.999Z</time>
      </trkpt>
      <trkpt lat="46.72702" lon="-0.07528">
        <ele>208.38</ele>
        <time>2017-01-22T09:27:17.999Z</time>
      </trkpt>
      <trkpt lat="46.72708" lon="-0.0754">
        <ele>208.39</ele>
        <time>2017-01-22T09:27:19.999Z</time>
      </trkpt>
      <trkpt lat="46.72712" lon="-0.07556">
        <ele>208.36</ele>
        <time>2017-01-22T09:27:22.999Z</time>
      </trkpt>
      <trkpt lat="46.72715" lon="-0.07573">
        <ele>208.36</ele>
        <time>2017-01-22T09:27:25.999Z</time>
      </trkpt>
      <trkpt lat="46.72723" lon="-0.07584">
        <ele>208.37</ele>
        <time>2017-01-22T09:27:28.999Z</time>
      </trkpt>
      <trkpt lat="46.72732" lon="-0.07592">
        <ele>208.41</ele>
        <time>2017-01-22T09:27:32.999Z</time>
      </trkpt>
      <trkpt lat="46.72728" lon="-0.07605">
        <ele>208.96</ele>
        <time>2017-01-22T09:28:21.999Z</time>
      </trkpt>
      <trkpt lat="46.72721" lon="-0.07596">
        <ele>209.24</ele>
        <time>2017-01-22T09:30:32.999Z</time>
      </trkpt>
      <trkpt lat="46.7273" lon="-0.07591">
        <ele>209.29</ele>
        <time>2017-01-22T09:33:57.999Z</time>
      </trkpt>
      <trkpt lat="46.72731" lon="-0.07604">
        <ele>208.1</ele>
        <time>2017-01-22T09:37:57.999Z</time>
      </trkpt>
      <trkpt lat="46.7273" lon="-0.07591">
        <ele>207.3</ele>
        <time>2017-01-22T09:42:32.999Z</time>
      </trkpt>
      <trkpt lat="46.72724" lon="-0.07603">
        <ele>206.62</ele>
        <time>2017-01-22T09:44:59.999Z</time>
      </trkpt>
      <trkpt lat="46.72719" lon="-0.07617">
        <ele>206.55</ele>
        <time>2017-01-22T09:45:03.999Z</time>
      </trkpt>
      <trkpt lat="46.72714" lon="-0.07631">
        <ele>206.52</ele>
        <time>2017-01-22T09:45:06.999Z</time>
      </trkpt>
      <trkpt lat="46.72709" lon="-0.07644">
        <ele>206.51</ele>
        <time>2017-01-22T09:45:09.999Z</time>
      </trkpt>
      <trkpt lat="46.72704" lon="-0.07659">
        <ele>206.52</ele>
        <time>2017-01-22T09:45:12.999Z</time>
      </trkpt>
      <trkpt lat="46.72698" lon="-0.07674">
        <ele>206.55</ele>
        <time>2017-01-22T09:45:15.999Z</time>
      </trkpt>
      <trkpt lat="46.72692" lon="-0.07689">
        <ele>206.64</ele>
        <time>2017-01-22T09:45:18.999Z</time>
      </trkpt>
      <trkpt lat="46.72685" lon="-0.07706">
        <ele>206.7</ele>
        <time>2017-01-22T09:45:21.999Z</time>
      </trkpt>
      <trkpt lat="46.72678" lon="-0.07722">
        <ele>206.76</ele>
        <time>2017-01-22T09:45:24.999Z</time>
      </trkpt>
      <trkpt lat="46.72672" lon="-0.07737">
        <ele>206.84</ele>
        <time>2017-01-22T09:45:27.999Z</time>
      </trkpt>
      <trkpt lat="46.72668" lon="-0.07753">
        <ele>206.99</ele>
        <time>2017-01-22T09:45:30.999Z</time>
      </trkpt>
      <trkpt lat="46.72665" lon="-0.07769">
        <ele>207.18</ele>
        <time>2017-01-22T09:45:33.999Z</time>
      </trkpt>
      <trkpt lat="46.72663" lon="-0.07788">
        <ele>207.29</ele>
        <time>2017-01-22T09:45:36.999Z</time>
      </trkpt>
      <trkpt lat="46.72661" lon="-0.07807">
        <ele>207.35</ele>
        <time>2017-01-22T09:45:39.999Z</time>
      </trkpt>
      <trkpt lat="46.7266" lon="-0.07825">
        <ele>207.46</ele>
        <time>2017-01-22T09:45:42.999Z</time>
      </trkpt>
      <trkpt lat="46.72657" lon="-0.07842">
        <ele>207.52</ele>
        <time>2017-01-22T09:45:45.999Z</time>
      </trkpt>
      <trkpt lat="46.72651" lon="-0.07857">
        <ele>207.51</ele>
        <time>2017-01-22T09:45:48.999Z</time>
      </trkpt>
      <trkpt lat="46.72641" lon="-0.07868">
        <ele>207.42</ele>
        <time>2017-01-22T09:45:51.999Z</time>
      </trkpt>
      <trkpt lat="46.72631" lon="-0.07876">
        <ele>207.24</ele>
        <time>2017-01-22T09:45:54.999Z</time>
      </trkpt>
      <trkpt lat="46.72619" lon="-0.07882">
        <ele>207.17</ele>
        <time>2017-01-22T09:45:57.999Z</time>
      </trkpt>
      <trkpt lat="46.72606" lon="-0.07889">
        <ele>207.23</ele>
        <time>2017-01-22T09:46:00.999Z</time>
      </trkpt>
      <trkpt lat="46.72598" lon="-0.07894">
        <ele>207.35</ele>
        <time>2017-01-22T09:46:02.999Z</time>
      </trkpt>
      <trkpt lat="46.72589" lon="-0.07899">
        <ele>207.43</ele>
        <time>2017-01-22T09:46:04.999Z</time>
      </trkpt>
      <trkpt lat="46.72575" lon="-0.07907">
        <ele>207.61</ele>
        <time>2017-01-22T09:46:07.999Z</time>
      </trkpt>
      <trkpt lat="46.72561" lon="-0.07916">
        <ele>207.8</ele>
        <time>2017-01-22T09:46:10.999Z</time>
      </trkpt>
      <trkpt lat="46.72547" lon="-0.07927">
        <ele>207.97</ele>
        <time>2017-01-22T09:46:13.999Z</time>
      </trkpt>
      <trkpt lat="46.72538" lon="-0.07936">
        <ele>208.09</ele>
        <time>2017-01-22T09:46:15.999Z</time>
      </trkpt>
      <trkpt lat="46.72529" lon="-0.07945">
        <ele>208.17</ele>
        <time>2017-01-22T09:46:17.999Z</time>
      </trkpt>
      <trkpt lat="46.72521" lon="-0.07953">
        <ele>208.22</ele>
        <time>2017-01-22T09:46:19.999Z</time>
      </trkpt>
      <trkpt lat="46.72515" lon="-0.07963">
        <ele>208.27</ele>
        <time>2017-01-22T09:46:21.999Z</time>
      </trkpt>
      <trkpt lat="46.72508" lon="-0.07975">
        <ele>208.35</ele>
        <time>2017-01-22T09:46:23.999Z</time>
      </trkpt>
      <trkpt lat="46.72501" lon="-0.07994">
        <ele>208.49</ele>
        <time>2017-01-22T09:46:26.999Z</time>
      </trkpt>
      <trkpt lat="46.72495" lon="-0.08009">
        <ele>208.53</ele>
        <time>2017-01-22T09:46:28.999Z</time>
      </trkpt>
      <trkpt lat="46.7249" lon="-0.08024">
        <ele>208.54</ele>
        <time>2017-01-22T09:46:30.999Z</time>
      </trkpt>
      <trkpt lat="46.72485" lon="-0.08038">
        <ele>208.54</ele>
        <time>2017-01-22T09:46:32.999Z</time>
      </trkpt>
      <trkpt lat="46.72479" lon="-0.0805">
        <ele>208.54</ele>
        <time>2017-01-22T09:46:34.999Z</time>
      </trkpt>
      <trkpt lat="46.72472" lon="-0.08061">
        <ele>208.58</ele>
        <time>2017-01-22T09:46:36.999Z</time>
      </trkpt>
      <trkpt lat="46.72463" lon="-0.08071">
        <ele>208.69</ele>
        <time>2017-01-22T09:46:38.999Z</time>
      </trkpt>
      <trkpt lat="46.72454" lon="-0.0808">
        <ele>208.83</ele>
        <time>2017-01-22T09:46:40.999Z</time>
      </trkpt>
      <trkpt lat="46.72445" lon="-0.08088">
        <ele>208.97</ele>
        <time>2017-01-22T09:46:42.999Z</time>
      </trkpt>
      <trkpt lat="46.72435" lon="-0.08097">
        <ele>209.06</ele>
        <time>2017-01-22T09:46:44.999Z</time>
      </trkpt>
      <trkpt lat="46.72425" lon="-0.08104">
        <ele>209.16</ele>
        <time>2017-01-22T09:46:46.999Z</time>
      </trkpt>
      <trkpt lat="46.72414" lon="-0.08109">
        <ele>209.22</ele>
        <time>2017-01-22T09:46:48.999Z</time>
      </trkpt>
      <trkpt lat="46.72403" lon="-0.0811">
        <ele>209.28</ele>
        <time>2017-01-22T09:46:50.999Z</time>
      </trkpt>
      <trkpt lat="46.72393" lon="-0.0811">
        <ele>209.5</ele>
        <time>2017-01-22T09:46:52.999Z</time>
      </trkpt>
      <trkpt lat="46.72383" lon="-0.08108">
        <ele>209.68</ele>
        <time>2017-01-22T09:46:54.999Z</time>
      </trkpt>
      <trkpt lat="46.72373" lon="-0.08104">
        <ele>210.02</ele>
        <time>2017-01-22T09:46:57.999Z</time>
      </trkpt>
      <trkpt lat="46.72363" lon="-0.08098">
        <ele>210.1</ele>
        <time>2017-01-22T09:47:00.999Z</time>
      </trkpt>
      <trkpt lat="46.72351" lon="-0.08104">
        <ele>210.17</ele>
        <time>2017-01-22T09:47:04.999Z</time>
      </trkpt>
      <trkpt lat="46.72348" lon="-0.08118">
        <ele>210.16</ele>
        <time>2017-01-22T09:47:07.999Z</time>
      </trkpt>
      <trkpt lat="46.72342" lon="-0.08133">
        <ele>210.01</ele>
        <time>2017-01-22T09:47:10.999Z</time>
      </trkpt>
      <trkpt lat="46.72337" lon="-0.08144">
        <ele>209.87</ele>
        <time>2017-01-22T09:47:12.999Z</time>
      </trkpt>
      <trkpt lat="46.72331" lon="-0.08155">
        <ele>209.76</ele>
        <time>2017-01-22T09:47:14.999Z</time>
      </trkpt>
      <trkpt lat="46.72326" lon="-0.08167">
        <ele>209.71</ele>
        <time>2017-01-22T09:47:16.999Z</time>
      </trkpt>
      <trkpt lat="46.7232" lon="-0.08178">
        <ele>209.66</ele>
        <time>2017-01-22T09:47:18.999Z</time>
      </trkpt>
      <trkpt lat="46.72315" lon="-0.08189">
        <ele>209.59</ele>
        <time>2017-01-22T09:47:20.999Z</time>
      </trkpt>
      <trkpt lat="46.72309" lon="-0.08203">
        <ele>209.4</ele>
        <time>2017-01-22T09:47:22.999Z</time>
      </trkpt>
      <trkpt lat="46.72303" lon="-0.08215">
        <ele>209.33</ele>
        <time>2017-01-22T09:47:24.999Z</time>
      </trkpt>
      <trkpt lat="46.72298" lon="-0.08227">
        <ele>209.34</ele>
        <time>2017-01-22T09:47:26.999Z</time>
      </trkpt>
      <trkpt lat="46.72294" lon="-0.0824">
        <ele>209.36</ele>
        <time>2017-01-22T09:47:28.999Z</time>
      </trkpt>
      <trkpt lat="46.72288" lon="-0.08253">
        <ele>209.36</ele>
        <time>2017-01-22T09:47:30.999Z</time>
      </trkpt>
      <trkpt lat="46.72282" lon="-0.08265">
        <ele>209.26</ele>
        <time>2017-01-22T09:47:32.999Z</time>
      </trkpt>
      <trkpt lat="46.72276" lon="-0.08277">
        <ele>209.2</ele>
        <time>2017-01-22T09:47:34.999Z</time>
      </trkpt>
      <trkpt lat="46.72271" lon="-0.08288">
        <ele>209.13</ele>
        <time>2017-01-22T09:47:36.999Z</time>
      </trkpt>
      <trkpt lat="46.72266" lon="-0.08301">
        <ele>209.01</ele>
        <time>2017-01-22T09:47:38.999Z</time>
      </trkpt>
      <trkpt lat="46.72259" lon="-0.08314">
        <ele>208.97</ele>
        <time>2017-01-22T09:47:40.999Z</time>
      </trkpt>
      <trkpt lat="46.72253" lon="-0.08327">
        <ele>209.1</ele>
        <time>2017-01-22T09:47:42.999Z</time>
      </trkpt>
      <trkpt lat="46.7225" lon="-0.0834">
        <ele>209.17</ele>
        <time>2017-01-22T09:47:44.999Z</time>
      </trkpt>
      <trkpt lat="46.72243" lon="-0.08352">
        <ele>209.31</ele>
        <time>2017-01-22T09:47:46.999Z</time>
      </trkpt>
      <trkpt lat="46.72236" lon="-0.08364">
        <ele>209.44</ele>
        <time>2017-01-22T09:47:48.999Z</time>
      </trkpt>
      <trkpt lat="46.72229" lon="-0.08376">
        <ele>209.88</ele>
        <time>2017-01-22T09:47:50.999Z</time>
      </trkpt>
      <trkpt lat="46.72223" lon="-0.08389">
        <ele>210.52</ele>
        <time>2017-01-22T09:47:52.999Z</time>
      </trkpt>
      <trkpt lat="46.72218" lon="-0.08402">
        <ele>211.19</ele>
        <time>2017-01-22T09:47:54.999Z</time>
      </trkpt>
      <trkpt lat="46.72212" lon="-0.08414">
        <ele>211.67</ele>
        <time>2017-01-22T09:47:56.999Z</time>
      </trkpt>
      <trkpt lat="46.72207" lon="-0.08427">
        <ele>212.01</ele>
        <time>2017-01-22T09:47:58.999Z</time>
      </trkpt>
      <trkpt lat="46.72202" lon="-0.08439">
        <ele>212.11</ele>
        <time>2017-01-22T09:48:00.999Z</time>
      </trkpt>
      <trkpt lat="46.72197" lon="-0.08452">
        <ele>212.09</ele>
        <time>2017-01-22T09:48:02.999Z</time>
      </trkpt>
      <trkpt lat="46.72192" lon="-0.08465">
        <ele>212.03</ele>
        <time>2017-01-22T09:48:04.999Z</time>
      </trkpt>
      <trkpt lat="46.72188" lon="-0.08479">
        <ele>211.82</ele>
        <time>2017-01-22T09:48:06.999Z</time>
      </trkpt>
      <trkpt lat="46.72181" lon="-0.08493">
        <ele>211.64</ele>
        <time>2017-01-22T09:48:08.999Z</time>
      </trkpt>
      <trkpt lat="46.72173" lon="-0.08505">
        <ele>211.46</ele>
        <time>2017-01-22T09:48:10.999Z</time>
      </trkpt>
      <trkpt lat="46.72163" lon="-0.08517">
        <ele>211.39</ele>
        <time>2017-01-22T09:48:12.999Z</time>
      </trkpt>
      <trkpt lat="46.72155" lon="-0.08528">
        <ele>211.46</ele>
        <time>2017-01-22T09:48:14.999Z</time>
      </trkpt>
      <trkpt lat="46.72147" lon="-0.08537">
        <ele>211.6</ele>
        <time>2017-01-22T09:48:16.999Z</time>
      </trkpt>
      <trkpt lat="46.72139" lon="-0.08547">
        <ele>211.78</ele>
        <time>2017-01-22T09:48:18.999Z</time>
      </trkpt>
      <trkpt lat="46.72131" lon="-0.08557">
        <ele>211.87</ele>
        <time>2017-01-22T09:48:20.999Z</time>
      </trkpt>
      <trkpt lat="46.72121" lon="-0.08565">
        <ele>211.9</ele>
        <time>2017-01-22T09:48:22.999Z</time>
      </trkpt>
      <trkpt lat="46.7211" lon="-0.08573">
        <ele>211.92</ele>
        <time>2017-01-22T09:48:24.999Z</time>
      </trkpt>
      <trkpt lat="46.721" lon="-0.08578">
        <ele>211.99</ele>
        <time>2017-01-22T09:48:26.999Z</time>
      </trkpt>
      <trkpt lat="46.72089" lon="-0.08583">
        <ele>212.1</ele>
        <time>2017-01-22T09:48:28.999Z</time>
      </trkpt>
      <trkpt lat="46.7208" lon="-0.08588">
        <ele>212.22</ele>
        <time>2017-01-22T09:48:30.999Z</time>
      </trkpt>
      <trkpt lat="46.72072" lon="-0.08593">
        <ele>212.38</ele>
        <time>2017-01-22T09:48:32.999Z</time>
      </trkpt>
      <trkpt lat="46.72063" lon="-0.08598">
        <ele>212.57</ele>
        <time>2017-01-22T09:48:34.999Z</time>
      </trkpt>
      <trkpt lat="46.72054" lon="-0.08604">
        <ele>212.83</ele>
        <time>2017-01-22T09:48:36.999Z</time>
      </trkpt>
      <trkpt lat="46.72045" lon="-0.0861">
        <ele>213.1</ele>
        <time>2017-01-22T09:48:38.999Z</time>
      </trkpt>
      <trkpt lat="46.72037" lon="-0.08616">
        <ele>213.31</ele>
        <time>2017-01-22T09:48:40.999Z</time>
      </trkpt>
      <trkpt lat="46.72029" lon="-0.08623">
        <ele>213.4</ele>
        <time>2017-01-22T09:48:42.999Z</time>
      </trkpt>
      <trkpt lat="46.7202" lon="-0.0863">
        <ele>213.46</ele>
        <time>2017-01-22T09:48:44.999Z</time>
      </trkpt>
      <trkpt lat="46.72012" lon="-0.08637">
        <ele>213.44</ele>
        <time>2017-01-22T09:48:46.999Z</time>
      </trkpt>
      <trkpt lat="46.72004" lon="-0.08644">
        <ele>213.42</ele>
        <time>2017-01-22T09:48:48.999Z</time>
      </trkpt>
      <trkpt lat="46.71996" lon="-0.08651">
        <ele>213.31</ele>
        <time>2017-01-22T09:48:50.999Z</time>
      </trkpt>
      <trkpt lat="46.71986" lon="-0.08659">
        <ele>213.17</ele>
        <time>2017-01-22T09:48:52.999Z</time>
      </trkpt>
      <trkpt lat="46.71977" lon="-0.08666">
        <ele>213</ele>
        <time>2017-01-22T09:48:54.999Z</time>
      </trkpt>
      <trkpt lat="46.71967" lon="-0.08675">
        <ele>212.88</ele>
        <time>2017-01-22T09:48:56.999Z</time>
      </trkpt>
      <trkpt lat="46.71958" lon="-0.08683">
        <ele>212.73</ele>
        <time>2017-01-22T09:48:58.999Z</time>
      </trkpt>
      <trkpt lat="46.71949" lon="-0.08692">
        <ele>212.6</ele>
        <time>2017-01-22T09:49:00.999Z</time>
      </trkpt>
      <trkpt lat="46.7194" lon="-0.08701">
        <ele>212.49</ele>
        <time>2017-01-22T09:49:02.999Z</time>
      </trkpt>
      <trkpt lat="46.7193" lon="-0.08709">
        <ele>212.44</ele>
        <time>2017-01-22T09:49:04.999Z</time>
      </trkpt>
      <trkpt lat="46.71922" lon="-0.08717">
        <ele>212.43</ele>
        <time>2017-01-22T09:49:06.999Z</time>
      </trkpt>
      <trkpt lat="46.71912" lon="-0.08725">
        <ele>212.46</ele>
        <time>2017-01-22T09:49:08.999Z</time>
      </trkpt>
      <trkpt lat="46.71903" lon="-0.08732">
        <ele>212.49</ele>
        <time>2017-01-22T09:49:10.999Z</time>
      </trkpt>
      <trkpt lat="46.71895" lon="-0.0874">
        <ele>212.59</ele>
        <time>2017-01-22T09:49:12.999Z</time>
      </trkpt>
      <trkpt lat="46.71886" lon="-0.08747">
        <ele>212.7</ele>
        <time>2017-01-22T09:49:14.999Z</time>
      </trkpt>
      <trkpt lat="46.71878" lon="-0.08754">
        <ele>212.84</ele>
        <time>2017-01-22T09:49:16.999Z</time>
      </trkpt>
      <trkpt lat="46.71867" lon="-0.08762">
        <ele>213.07</ele>
        <time>2017-01-22T09:49:19.999Z</time>
      </trkpt>
      <trkpt lat="46.71858" lon="-0.08776">
        <ele>213.51</ele>
        <time>2017-01-22T09:49:22.999Z</time>
      </trkpt>
      <trkpt lat="46.71856" lon="-0.08789">
        <ele>213.84</ele>
        <time>2017-01-22T09:49:24.999Z</time>
      </trkpt>
      <trkpt lat="46.71854" lon="-0.08809">
        <ele>214.2</ele>
        <time>2017-01-22T09:49:27.999Z</time>
      </trkpt>
      <trkpt lat="46.71853" lon="-0.08823">
        <ele>214.32</ele>
        <time>2017-01-22T09:49:29.999Z</time>
      </trkpt>
      <trkpt lat="46.71852" lon="-0.08837">
        <ele>214.36</ele>
        <time>2017-01-22T09:49:31.999Z</time>
      </trkpt>
      <trkpt lat="46.7185" lon="-0.08855">
        <ele>214.32</ele>
        <time>2017-01-22T09:49:34.999Z</time>
      </trkpt>
      <trkpt lat="46.71849" lon="-0.08873">
        <ele>214.35</ele>
        <time>2017-01-22T09:49:37.999Z</time>
      </trkpt>
      <trkpt lat="46.71847" lon="-0.08892">
        <ele>214.4</ele>
        <time>2017-01-22T09:49:40.999Z</time>
      </trkpt>
      <trkpt lat="46.71846" lon="-0.08908">
        <ele>214.35</ele>
        <time>2017-01-22T09:49:42.999Z</time>
      </trkpt>
      <trkpt lat="46.71844" lon="-0.08923">
        <ele>214.24</ele>
        <time>2017-01-22T09:49:44.999Z</time>
      </trkpt>
      <trkpt lat="46.7184" lon="-0.08937">
        <ele>214.19</ele>
        <time>2017-01-22T09:49:46.999Z</time>
      </trkpt>
      <trkpt lat="46.71836" lon="-0.08953">
        <ele>214.18</ele>
        <time>2017-01-22T09:49:48.999Z</time>
      </trkpt>
      <trkpt lat="46.71832" lon="-0.08971">
        <ele>214.1</ele>
        <time>2017-01-22T09:49:50.999Z</time>
      </trkpt>
      <trkpt lat="46.71829" lon="-0.08988">
        <ele>213.96</ele>
        <time>2017-01-22T09:49:52.999Z</time>
      </trkpt>
      <trkpt lat="46.71825" lon="-0.09004">
        <ele>213.71</ele>
        <time>2017-01-22T09:49:54.999Z</time>
      </trkpt>
      <trkpt lat="46.71821" lon="-0.09021">
        <ele>213.52</ele>
        <time>2017-01-22T09:49:56.999Z</time>
      </trkpt>
      <trkpt lat="46.71817" lon="-0.09037">
        <ele>213.31</ele>
        <time>2017-01-22T09:49:58.999Z</time>
      </trkpt>
      <trkpt lat="46.71814" lon="-0.09052">
        <ele>213.06</ele>
        <time>2017-01-22T09:50:00.999Z</time>
      </trkpt>
      <trkpt lat="46.71811" lon="-0.09068">
        <ele>212.8</ele>
        <time>2017-01-22T09:50:02.999Z</time>
      </trkpt>
      <trkpt lat="46.71808" lon="-0.09084">
        <ele>212.58</ele>
        <time>2017-01-22T09:50:04.999Z</time>
      </trkpt>
      <trkpt lat="46.71804" lon="-0.091">
        <ele>212.42</ele>
        <time>2017-01-22T09:50:06.999Z</time>
      </trkpt>
      <trkpt lat="46.718" lon="-0.09117">
        <ele>212.36</ele>
        <time>2017-01-22T09:50:08.999Z</time>
      </trkpt>
      <trkpt lat="46.71796" lon="-0.09134">
        <ele>212.33</ele>
        <time>2017-01-22T09:50:10.999Z</time>
      </trkpt>
      <trkpt lat="46.71792" lon="-0.09151">
        <ele>212.33</ele>
        <time>2017-01-22T09:50:12.999Z</time>
      </trkpt>
      <trkpt lat="46.71789" lon="-0.09168">
        <ele>212.41</ele>
        <time>2017-01-22T09:50:14.999Z</time>
      </trkpt>
      <trkpt lat="46.71787" lon="-0.09184">
        <ele>212.53</ele>
        <time>2017-01-22T09:50:16.999Z</time>
      </trkpt>
      <trkpt lat="46.71784" lon="-0.092">
        <ele>212.68</ele>
        <time>2017-01-22T09:50:18.999Z</time>
      </trkpt>
      <trkpt lat="46.71782" lon="-0.09213">
        <ele>212.89</ele>
        <time>2017-01-22T09:50:20.999Z</time>
      </trkpt>
      <trkpt lat="46.7178" lon="-0.09228">
        <ele>213.16</ele>
        <time>2017-01-22T09:50:22.999Z</time>
      </trkpt>
      <trkpt lat="46.71779" lon="-0.09243">
        <ele>213.41</ele>
        <time>2017-01-22T09:50:24.999Z</time>
      </trkpt>
      <trkpt lat="46.71779" lon="-0.09258">
        <ele>213.52</ele>
        <time>2017-01-22T09:50:26.999Z</time>
      </trkpt>
      <trkpt lat="46.71778" lon="-0.09274">
        <ele>213.6</ele>
        <time>2017-01-22T09:50:28.999Z</time>
      </trkpt>
      <trkpt lat="46.71777" lon="-0.09291">
        <ele>213.6</ele>
        <time>2017-01-22T09:50:30.999Z</time>
      </trkpt>
      <trkpt lat="46.71775" lon="-0.09307">
        <ele>213.53</ele>
        <time>2017-01-22T09:50:32.999Z</time>
      </trkpt>
      <trkpt lat="46.71772" lon="-0.09322">
        <ele>213.35</ele>
        <time>2017-01-22T09:50:34.999Z</time>
      </trkpt>
      <trkpt lat="46.71768" lon="-0.09337">
        <ele>213.24</ele>
        <time>2017-01-22T09:50:36.999Z</time>
      </trkpt>
      <trkpt lat="46.71764" lon="-0.09352">
        <ele>213.05</ele>
        <time>2017-01-22T09:50:38.999Z</time>
      </trkpt>
      <trkpt lat="46.71759" lon="-0.09367">
        <ele>212.95</ele>
        <time>2017-01-22T09:50:40.999Z</time>
      </trkpt>
      <trkpt lat="46.71754" lon="-0.09382">
        <ele>212.94</ele>
        <time>2017-01-22T09:50:42.999Z</time>
      </trkpt>
      <trkpt lat="46.7175" lon="-0.09396">
        <ele>213.06</ele>
        <time>2017-01-22T09:50:44.999Z</time>
      </trkpt>
      <trkpt lat="46.71746" lon="-0.09413">
        <ele>213.15</ele>
        <time>2017-01-22T09:50:46.999Z</time>
      </trkpt>
      <trkpt lat="46.71741" lon="-0.09427">
        <ele>213.18</ele>
        <time>2017-01-22T09:50:48.999Z</time>
      </trkpt>
      <trkpt lat="46.71734" lon="-0.09441">
        <ele>213.18</ele>
        <time>2017-01-22T09:50:50.999Z</time>
      </trkpt>
      <trkpt lat="46.71728" lon="-0.09455">
        <ele>213.11</ele>
        <time>2017-01-22T09:50:52.999Z</time>
      </trkpt>
      <trkpt lat="46.71721" lon="-0.09469">
        <ele>213</ele>
        <time>2017-01-22T09:50:54.999Z</time>
      </trkpt>
      <trkpt lat="46.71712" lon="-0.09482">
        <ele>212.94</ele>
        <time>2017-01-22T09:50:56.999Z</time>
      </trkpt>
      <trkpt lat="46.71704" lon="-0.09496">
        <ele>212.9</ele>
        <time>2017-01-22T09:50:58.999Z</time>
      </trkpt>
      <trkpt lat="46.71697" lon="-0.0951">
        <ele>212.84</ele>
        <time>2017-01-22T09:51:00.999Z</time>
      </trkpt>
      <trkpt lat="46.7169" lon="-0.09525">
        <ele>212.83</ele>
        <time>2017-01-22T09:51:02.999Z</time>
      </trkpt>
      <trkpt lat="46.71682" lon="-0.0954">
        <ele>212.82</ele>
        <time>2017-01-22T09:51:04.999Z</time>
      </trkpt>
      <trkpt lat="46.71676" lon="-0.09556">
        <ele>212.8</ele>
        <time>2017-01-22T09:51:06.999Z</time>
      </trkpt>
      <trkpt lat="46.71671" lon="-0.0957">
        <ele>212.76</ele>
        <time>2017-01-22T09:51:08.999Z</time>
      </trkpt>
      <trkpt lat="46.71666" lon="-0.09582">
        <ele>212.67</ele>
        <time>2017-01-22T09:51:10.999Z</time>
      </trkpt>
      <trkpt lat="46.71662" lon="-0.09595">
        <ele>212.61</ele>
        <time>2017-01-22T09:51:12.999Z</time>
      </trkpt>
      <trkpt lat="46.71657" lon="-0.09608">
        <ele>212.59</ele>
        <time>2017-01-22T09:51:14.999Z</time>
      </trkpt>
      <trkpt lat="46.71651" lon="-0.09623">
        <ele>212.72</ele>
        <time>2017-01-22T09:51:16.999Z</time>
      </trkpt>
      <trkpt lat="46.71647" lon="-0.09637">
        <ele>212.83</ele>
        <time>2017-01-22T09:51:18.999Z</time>
      </trkpt>
      <trkpt lat="46.71642" lon="-0.09653">
        <ele>213</ele>
        <time>2017-01-22T09:51:20.999Z</time>
      </trkpt>
      <trkpt lat="46.71639" lon="-0.09671">
        <ele>213.2</ele>
        <time>2017-01-22T09:51:22.999Z</time>
      </trkpt>
      <trkpt lat="46.71635" lon="-0.0969">
        <ele>213.34</ele>
        <time>2017-01-22T09:51:24.999Z</time>
      </trkpt>
      <trkpt lat="46.71632" lon="-0.09708">
        <ele>213.45</ele>
        <time>2017-01-22T09:51:26.999Z</time>
      </trkpt>
      <trkpt lat="46.71629" lon="-0.09727">
        <ele>213.48</ele>
        <time>2017-01-22T09:51:28.999Z</time>
      </trkpt>
      <trkpt lat="46.71626" lon="-0.09746">
        <ele>213.43</ele>
        <time>2017-01-22T09:51:30.999Z</time>
      </trkpt>
      <trkpt lat="46.71624" lon="-0.09764">
        <ele>213.2</ele>
        <time>2017-01-22T09:51:32.999Z</time>
      </trkpt>
      <trkpt lat="46.7162" lon="-0.09782">
        <ele>213.14</ele>
        <time>2017-01-22T09:51:34.999Z</time>
      </trkpt>
      <trkpt lat="46.71617" lon="-0.09798">
        <ele>213.22</ele>
        <time>2017-01-22T09:51:36.999Z</time>
      </trkpt>
      <trkpt lat="46.71612" lon="-0.09814">
        <ele>213.13</ele>
        <time>2017-01-22T09:51:38.999Z</time>
      </trkpt>
      <trkpt lat="46.71607" lon="-0.09829">
        <ele>213.11</ele>
        <time>2017-01-22T09:51:40.999Z</time>
      </trkpt>
      <trkpt lat="46.71603" lon="-0.09845">
        <ele>213.08</ele>
        <time>2017-01-22T09:51:42.999Z</time>
      </trkpt>
      <trkpt lat="46.71602" lon="-0.0986">
        <ele>213</ele>
        <time>2017-01-22T09:51:44.999Z</time>
      </trkpt>
      <trkpt lat="46.71599" lon="-0.09874">
        <ele>212.9</ele>
        <time>2017-01-22T09:51:46.999Z</time>
      </trkpt>
      <trkpt lat="46.71598" lon="-0.09888">
        <ele>212.92</ele>
        <time>2017-01-22T09:51:48.999Z</time>
      </trkpt>
      <trkpt lat="46.71597" lon="-0.09901">
        <ele>212.99</ele>
        <time>2017-01-22T09:51:50.999Z</time>
      </trkpt>
      <trkpt lat="46.71595" lon="-0.09916">
        <ele>213.16</ele>
        <time>2017-01-22T09:51:52.999Z</time>
      </trkpt>
      <trkpt lat="46.71595" lon="-0.09932">
        <ele>213.32</ele>
        <time>2017-01-22T09:51:54.999Z</time>
      </trkpt>
      <trkpt lat="46.71595" lon="-0.09948">
        <ele>213.49</ele>
        <time>2017-01-22T09:51:56.999Z</time>
      </trkpt>
      <trkpt lat="46.71594" lon="-0.09963">
        <ele>213.37</ele>
        <time>2017-01-22T09:51:58.999Z</time>
      </trkpt>
      <trkpt lat="46.71592" lon="-0.09977">
        <ele>213.04</ele>
        <time>2017-01-22T09:52:00.999Z</time>
      </trkpt>
      <trkpt lat="46.71589" lon="-0.09993">
        <ele>212.66</ele>
        <time>2017-01-22T09:52:02.999Z</time>
      </trkpt>
      <trkpt lat="46.71588" lon="-0.10008">
        <ele>212.34</ele>
        <time>2017-01-22T09:52:04.999Z</time>
      </trkpt>
      <trkpt lat="46.71587" lon="-0.10021">
        <ele>212.08</ele>
        <time>2017-01-22T09:52:06.999Z</time>
      </trkpt>
      <trkpt lat="46.71587" lon="-0.10035">
        <ele>211.83</ele>
        <time>2017-01-22T09:52:08.999Z</time>
      </trkpt>
      <trkpt lat="46.71587" lon="-0.1005">
        <ele>211.61</ele>
        <time>2017-01-22T09:52:10.999Z</time>
      </trkpt>
      <trkpt lat="46.71586" lon="-0.10066">
        <ele>211.45</ele>
        <time>2017-01-22T09:52:12.999Z</time>
      </trkpt>
      <trkpt lat="46.71586" lon="-0.10082">
        <ele>211.31</ele>
        <time>2017-01-22T09:52:14.999Z</time>
      </trkpt>
      <trkpt lat="46.71586" lon="-0.10097">
        <ele>211.2</ele>
        <time>2017-01-22T09:52:16.999Z</time>
      </trkpt>
      <trkpt lat="46.71586" lon="-0.10114">
        <ele>211.07</ele>
        <time>2017-01-22T09:52:18.999Z</time>
      </trkpt>
      <trkpt lat="46.71586" lon="-0.1013">
        <ele>210.96</ele>
        <time>2017-01-22T09:52:20.999Z</time>
      </trkpt>
      <trkpt lat="46.71585" lon="-0.10145">
        <ele>210.85</ele>
        <time>2017-01-22T09:52:22.999Z</time>
      </trkpt>
      <trkpt lat="46.71583" lon="-0.1016">
        <ele>210.68</ele>
        <time>2017-01-22T09:52:24.999Z</time>
      </trkpt>
      <trkpt lat="46.71581" lon="-0.10175">
        <ele>210.61</ele>
        <time>2017-01-22T09:52:26.999Z</time>
      </trkpt>
      <trkpt lat="46.71577" lon="-0.10189">
        <ele>210.61</ele>
        <time>2017-01-22T09:52:28.999Z</time>
      </trkpt>
      <trkpt lat="46.71573" lon="-0.10203">
        <ele>210.67</ele>
        <time>2017-01-22T09:52:30.999Z</time>
      </trkpt>
      <trkpt lat="46.71567" lon="-0.10217">
        <ele>210.86</ele>
        <time>2017-01-22T09:52:32.999Z</time>
      </trkpt>
      <trkpt lat="46.71561" lon="-0.1023">
        <ele>211.01</ele>
        <time>2017-01-22T09:52:34.999Z</time>
      </trkpt>
      <trkpt lat="46.71553" lon="-0.10243">
        <ele>211.1</ele>
        <time>2017-01-22T09:52:36.999Z</time>
      </trkpt>
      <trkpt lat="46.71547" lon="-0.10257">
        <ele>211.07</ele>
        <time>2017-01-22T09:52:38.999Z</time>
      </trkpt>
      <trkpt lat="46.7154" lon="-0.10271">
        <ele>210.96</ele>
        <time>2017-01-22T09:52:40.999Z</time>
      </trkpt>
      <trkpt lat="46.71533" lon="-0.10284">
        <ele>210.88</ele>
        <time>2017-01-22T09:52:42.999Z</time>
      </trkpt>
      <trkpt lat="46.71526" lon="-0.10297">
        <ele>210.87</ele>
        <time>2017-01-22T09:52:44.999Z</time>
      </trkpt>
      <trkpt lat="46.71521" lon="-0.1031">
        <ele>210.94</ele>
        <time>2017-01-22T09:52:46.999Z</time>
      </trkpt>
      <trkpt lat="46.71515" lon="-0.10323">
        <ele>211.08</ele>
        <time>2017-01-22T09:52:48.999Z</time>
      </trkpt>
      <trkpt lat="46.71511" lon="-0.10337">
        <ele>211.28</ele>
        <time>2017-01-22T09:52:50.999Z</time>
      </trkpt>
      <trkpt lat="46.7151" lon="-0.10353">
        <ele>211.42</ele>
        <time>2017-01-22T09:52:52.999Z</time>
      </trkpt>
      <trkpt lat="46.71509" lon="-0.10369">
        <ele>211.49</ele>
        <time>2017-01-22T09:52:54.999Z</time>
      </trkpt>
      <trkpt lat="46.71508" lon="-0.10386">
        <ele>211.59</ele>
        <time>2017-01-22T09:52:56.999Z</time>
      </trkpt>
      <trkpt lat="46.71507" lon="-0.104">
        <ele>211.67</ele>
        <time>2017-01-22T09:52:58.999Z</time>
      </trkpt>
      <trkpt lat="46.71508" lon="-0.10416">
        <ele>211.63</ele>
        <time>2017-01-22T09:53:00.999Z</time>
      </trkpt>
      <trkpt lat="46.71509" lon="-0.10434">
        <ele>211.55</ele>
        <time>2017-01-22T09:53:02.999Z</time>
      </trkpt>
      <trkpt lat="46.71509" lon="-0.1045">
        <ele>211.46</ele>
        <time>2017-01-22T09:53:04.999Z</time>
      </trkpt>
      <trkpt lat="46.71508" lon="-0.10466">
        <ele>211.32</ele>
        <time>2017-01-22T09:53:06.999Z</time>
      </trkpt>
      <trkpt lat="46.71508" lon="-0.10483">
        <ele>211.26</ele>
        <time>2017-01-22T09:53:08.999Z</time>
      </trkpt>
      <trkpt lat="46.71506" lon="-0.10499">
        <ele>211.12</ele>
        <time>2017-01-22T09:53:10.999Z</time>
      </trkpt>
      <trkpt lat="46.71504" lon="-0.10516">
        <ele>210.94</ele>
        <time>2017-01-22T09:53:12.999Z</time>
      </trkpt>
      <trkpt lat="46.71501" lon="-0.10532">
        <ele>210.85</ele>
        <time>2017-01-22T09:53:14.999Z</time>
      </trkpt>
      <trkpt lat="46.71497" lon="-0.10548">
        <ele>210.78</ele>
        <time>2017-01-22T09:53:16.999Z</time>
      </trkpt>
      <trkpt lat="46.71493" lon="-0.10563">
        <ele>210.78</ele>
        <time>2017-01-22T09:53:18.999Z</time>
      </trkpt>
      <trkpt lat="46.7149" lon="-0.10578">
        <ele>210.84</ele>
        <time>2017-01-22T09:53:20.999Z</time>
      </trkpt>
      <trkpt lat="46.71486" lon="-0.10593">
        <ele>210.9</ele>
        <time>2017-01-22T09:53:22.999Z</time>
      </trkpt>
      <trkpt lat="46.71481" lon="-0.10609">
        <ele>210.92</ele>
        <time>2017-01-22T09:53:24.999Z</time>
      </trkpt>
      <trkpt lat="46.71477" lon="-0.10625">
        <ele>210.94</ele>
        <time>2017-01-22T09:53:26.999Z</time>
      </trkpt>
      <trkpt lat="46.71473" lon="-0.1064">
        <ele>211.03</ele>
        <time>2017-01-22T09:53:28.999Z</time>
      </trkpt>
      <trkpt lat="46.71468" lon="-0.10656">
        <ele>211.06</ele>
        <time>2017-01-22T09:53:30.999Z</time>
      </trkpt>
      <trkpt lat="46.71464" lon="-0.10671">
        <ele>211.11</ele>
        <time>2017-01-22T09:53:32.999Z</time>
      </trkpt>
      <trkpt lat="46.7146" lon="-0.10687">
        <ele>211.18</ele>
        <time>2017-01-22T09:53:34.999Z</time>
      </trkpt>
      <trkpt lat="46.71456" lon="-0.10704">
        <ele>211.19</ele>
        <time>2017-01-22T09:53:36.999Z</time>
      </trkpt>
      <trkpt lat="46.71452" lon="-0.1072">
        <ele>211.18</ele>
        <time>2017-01-22T09:53:38.999Z</time>
      </trkpt>
      <trkpt lat="46.71448" lon="-0.10735">
        <ele>211.16</ele>
        <time>2017-01-22T09:53:40.999Z</time>
      </trkpt>
      <trkpt lat="46.71444" lon="-0.10749">
        <ele>211.18</ele>
        <time>2017-01-22T09:53:42.999Z</time>
      </trkpt>
      <trkpt lat="46.71441" lon="-0.10764">
        <ele>211.21</ele>
        <time>2017-01-22T09:53:44.999Z</time>
      </trkpt>
      <trkpt lat="46.71438" lon="-0.10777">
        <ele>211.23</ele>
        <time>2017-01-22T09:53:46.999Z</time>
      </trkpt>
      <trkpt lat="46.71434" lon="-0.10792">
        <ele>211.24</ele>
        <time>2017-01-22T09:53:48.999Z</time>
      </trkpt>
      <trkpt lat="46.7143" lon="-0.10806">
        <ele>211.21</ele>
        <time>2017-01-22T09:53:50.999Z</time>
      </trkpt>
      <trkpt lat="46.71426" lon="-0.1082">
        <ele>211.15</ele>
        <time>2017-01-22T09:53:52.999Z</time>
      </trkpt>
      <trkpt lat="46.71423" lon="-0.10835">
        <ele>211.1</ele>
        <time>2017-01-22T09:53:54.999Z</time>
      </trkpt>
      <trkpt lat="46.71419" lon="-0.10849">
        <ele>211.13</ele>
        <time>2017-01-22T09:53:56.999Z</time>
      </trkpt>
      <trkpt lat="46.71416" lon="-0.10863">
        <ele>211.15</ele>
        <time>2017-01-22T09:53:58.999Z</time>
      </trkpt>
      <trkpt lat="46.71413" lon="-0.10876">
        <ele>211.45</ele>
        <time>2017-01-22T09:54:00.999Z</time>
      </trkpt>
      <trkpt lat="46.71413" lon="-0.1089">
        <ele>211.82</ele>
        <time>2017-01-22T09:54:02.999Z</time>
      </trkpt>
      <trkpt lat="46.71415" lon="-0.10906">
        <ele>212.17</ele>
        <time>2017-01-22T09:54:04.999Z</time>
      </trkpt>
      <trkpt lat="46.71419" lon="-0.10921">
        <ele>212.41</ele>
        <time>2017-01-22T09:54:06.999Z</time>
      </trkpt>
      <trkpt lat="46.71423" lon="-0.10935">
        <ele>212.58</ele>
        <time>2017-01-22T09:54:08.999Z</time>
      </trkpt>
      <trkpt lat="46.71427" lon="-0.1095">
        <ele>212.71</ele>
        <time>2017-01-22T09:54:10.999Z</time>
      </trkpt>
      <trkpt lat="46.71431" lon="-0.10965">
        <ele>212.81</ele>
        <time>2017-01-22T09:54:12.999Z</time>
      </trkpt>
      <trkpt lat="46.71435" lon="-0.10977">
        <ele>212.89</ele>
        <time>2017-01-22T09:54:14.999Z</time>
      </trkpt>
      <trkpt lat="46.71438" lon="-0.1099">
        <ele>212.91</ele>
        <time>2017-01-22T09:54:16.999Z</time>
      </trkpt>
      <trkpt lat="46.71444" lon="-0.11007">
        <ele>212.93</ele>
        <time>2017-01-22T09:54:19.999Z</time>
      </trkpt>
      <trkpt lat="46.7145" lon="-0.11024">
        <ele>212.89</ele>
        <time>2017-01-22T09:54:22.999Z</time>
      </trkpt>
      <trkpt lat="46.71455" lon="-0.11037">
        <ele>212.69</ele>
        <time>2017-01-22T09:54:24.999Z</time>
      </trkpt>
      <trkpt lat="46.71462" lon="-0.11052">
        <ele>212.37</ele>
        <time>2017-01-22T09:54:26.999Z</time>
      </trkpt>
      <trkpt lat="46.71467" lon="-0.11063">
        <ele>212.02</ele>
        <time>2017-01-22T09:54:28.999Z</time>
      </trkpt>
      <trkpt lat="46.71473" lon="-0.11076">
        <ele>211.6</ele>
        <time>2017-01-22T09:54:30.999Z</time>
      </trkpt>
      <trkpt lat="46.71478" lon="-0.1109">
        <ele>211.18</ele>
        <time>2017-01-22T09:54:32.999Z</time>
      </trkpt>
      <trkpt lat="46.71484" lon="-0.11103">
        <ele>210.87</ele>
        <time>2017-01-22T09:54:34.999Z</time>
      </trkpt>
      <trkpt lat="46.71489" lon="-0.11115">
        <ele>210.59</ele>
        <time>2017-01-22T09:54:36.999Z</time>
      </trkpt>
      <trkpt lat="46.71496" lon="-0.11131">
        <ele>210.22</ele>
        <time>2017-01-22T09:54:39.999Z</time>
      </trkpt>
      <trkpt lat="46.71502" lon="-0.11144">
        <ele>210.05</ele>
        <time>2017-01-22T09:54:41.999Z</time>
      </trkpt>
      <trkpt lat="46.71508" lon="-0.11159">
        <ele>209.88</ele>
        <time>2017-01-22T09:54:43.999Z</time>
      </trkpt>
      <trkpt lat="46.71514" lon="-0.11174">
        <ele>209.74</ele>
        <time>2017-01-22T09:54:45.999Z</time>
      </trkpt>
      <trkpt lat="46.7152" lon="-0.11186">
        <ele>209.66</ele>
        <time>2017-01-22T09:54:47.999Z</time>
      </trkpt>
      <trkpt lat="46.71526" lon="-0.112">
        <ele>209.62</ele>
        <time>2017-01-22T09:54:49.999Z</time>
      </trkpt>
      <trkpt lat="46.71531" lon="-0.11214">
        <ele>209.58</ele>
        <time>2017-01-22T09:54:51.999Z</time>
      </trkpt>
      <trkpt lat="46.71537" lon="-0.11226">
        <ele>209.51</ele>
        <time>2017-01-22T09:54:53.999Z</time>
      </trkpt>
      <trkpt lat="46.71542" lon="-0.11238">
        <ele>209.5</ele>
        <time>2017-01-22T09:54:55.999Z</time>
      </trkpt>
      <trkpt lat="46.71549" lon="-0.11255">
        <ele>209.44</ele>
        <time>2017-01-22T09:54:58.999Z</time>
      </trkpt>
      <trkpt lat="46.71555" lon="-0.11267">
        <ele>209.42</ele>
        <time>2017-01-22T09:55:00.999Z</time>
      </trkpt>
      <trkpt lat="46.71558" lon="-0.1128">
        <ele>209.46</ele>
        <time>2017-01-22T09:55:02.999Z</time>
      </trkpt>
      <trkpt lat="46.71562" lon="-0.11298">
        <ele>209.59</ele>
        <time>2017-01-22T09:55:05.999Z</time>
      </trkpt>
      <trkpt lat="46.71565" lon="-0.11312">
        <ele>209.69</ele>
        <time>2017-01-22T09:55:07.999Z</time>
      </trkpt>
      <trkpt lat="46.71566" lon="-0.11326">
        <ele>209.87</ele>
        <time>2017-01-22T09:55:09.999Z</time>
      </trkpt>
      <trkpt lat="46.71567" lon="-0.11339">
        <ele>210.13</ele>
        <time>2017-01-22T09:55:11.999Z</time>
      </trkpt>
      <trkpt lat="46.71568" lon="-0.11353">
        <ele>210.4</ele>
        <time>2017-01-22T09:55:13.999Z</time>
      </trkpt>
      <trkpt lat="46.71569" lon="-0.11366">
        <ele>210.53</ele>
        <time>2017-01-22T09:55:15.999Z</time>
      </trkpt>
      <trkpt lat="46.7157" lon="-0.1138">
        <ele>210.63</ele>
        <time>2017-01-22T09:55:17.999Z</time>
      </trkpt>
      <trkpt lat="46.71572" lon="-0.11399">
        <ele>210.7</ele>
        <time>2017-01-22T09:55:20.999Z</time>
      </trkpt>
      <trkpt lat="46.71573" lon="-0.11412">
        <ele>210.87</ele>
        <time>2017-01-22T09:55:22.999Z</time>
      </trkpt>
      <trkpt lat="46.71574" lon="-0.11425">
        <ele>211.05</ele>
        <time>2017-01-22T09:55:24.999Z</time>
      </trkpt>
      <trkpt lat="46.71575" lon="-0.11438">
        <ele>211.29</ele>
        <time>2017-01-22T09:55:26.999Z</time>
      </trkpt>
      <trkpt lat="46.71577" lon="-0.11452">
        <ele>211.49</ele>
        <time>2017-01-22T09:55:28.999Z</time>
      </trkpt>
      <trkpt lat="46.7158" lon="-0.11471">
        <ele>211.63</ele>
        <time>2017-01-22T09:55:31.999Z</time>
      </trkpt>
      <trkpt lat="46.71583" lon="-0.1149">
        <ele>211.87</ele>
        <time>2017-01-22T09:55:34.999Z</time>
      </trkpt>
      <trkpt lat="46.71586" lon="-0.11505">
        <ele>212.03</ele>
        <time>2017-01-22T09:55:36.999Z</time>
      </trkpt>
      <trkpt lat="46.71587" lon="-0.11518">
        <ele>212.11</ele>
        <time>2017-01-22T09:55:38.999Z</time>
      </trkpt>
      <trkpt lat="46.71585" lon="-0.11534">
        <ele>212.11</ele>
        <time>2017-01-22T09:55:40.999Z</time>
      </trkpt>
      <trkpt lat="46.71574" lon="-0.1154">
        <ele>212</ele>
        <time>2017-01-22T09:55:42.999Z</time>
      </trkpt>
      <trkpt lat="46.71562" lon="-0.11546">
        <ele>211.96</ele>
        <time>2017-01-22T09:55:44.999Z</time>
      </trkpt>
      <trkpt lat="46.71551" lon="-0.11551">
        <ele>211.93</ele>
        <time>2017-01-22T09:55:46.999Z</time>
      </trkpt>
      <trkpt lat="46.7154" lon="-0.11556">
        <ele>211.99</ele>
        <time>2017-01-22T09:55:48.999Z</time>
      </trkpt>
      <trkpt lat="46.71529" lon="-0.1156">
        <ele>212.01</ele>
        <time>2017-01-22T09:55:50.999Z</time>
      </trkpt>
      <trkpt lat="46.71518" lon="-0.11565">
        <ele>212.09</ele>
        <time>2017-01-22T09:55:52.999Z</time>
      </trkpt>
      <trkpt lat="46.71507" lon="-0.1157">
        <ele>212.17</ele>
        <time>2017-01-22T09:55:54.999Z</time>
      </trkpt>
      <trkpt lat="46.71497" lon="-0.11576">
        <ele>212.27</ele>
        <time>2017-01-22T09:55:56.999Z</time>
      </trkpt>
      <trkpt lat="46.71486" lon="-0.11581">
        <ele>212.33</ele>
        <time>2017-01-22T09:55:58.999Z</time>
      </trkpt>
      <trkpt lat="46.71476" lon="-0.11585">
        <ele>212.43</ele>
        <time>2017-01-22T09:56:00.999Z</time>
      </trkpt>
      <trkpt lat="46.71465" lon="-0.11589">
        <ele>212.47</ele>
        <time>2017-01-22T09:56:02.999Z</time>
      </trkpt>
      <trkpt lat="46.71452" lon="-0.11592">
        <ele>212.43</ele>
        <time>2017-01-22T09:56:04.999Z</time>
      </trkpt>
      <trkpt lat="46.7144" lon="-0.11594">
        <ele>212.34</ele>
        <time>2017-01-22T09:56:06.999Z</time>
      </trkpt>
      <trkpt lat="46.71428" lon="-0.11594">
        <ele>212.2</ele>
        <time>2017-01-22T09:56:08.999Z</time>
      </trkpt>
      <trkpt lat="46.71416" lon="-0.11594">
        <ele>212.17</ele>
        <time>2017-01-22T09:56:10.999Z</time>
      </trkpt>
      <trkpt lat="46.71404" lon="-0.11592">
        <ele>212.35</ele>
        <time>2017-01-22T09:56:12.999Z</time>
      </trkpt>
      <trkpt lat="46.71393" lon="-0.1159">
        <ele>212.58</ele>
        <time>2017-01-22T09:56:14.999Z</time>
      </trkpt>
      <trkpt lat="46.71381" lon="-0.11587">
        <ele>213.07</ele>
        <time>2017-01-22T09:56:16.999Z</time>
      </trkpt>
      <trkpt lat="46.7137" lon="-0.11585">
        <ele>213.66</ele>
        <time>2017-01-22T09:56:18.999Z</time>
      </trkpt>
      <trkpt lat="46.71358" lon="-0.11583">
        <ele>214.13</ele>
        <time>2017-01-22T09:56:20.999Z</time>
      </trkpt>
      <trkpt lat="46.71346" lon="-0.11581">
        <ele>214.54</ele>
        <time>2017-01-22T09:56:22.999Z</time>
      </trkpt>
      <trkpt lat="46.71333" lon="-0.11579">
        <ele>214.93</ele>
        <time>2017-01-22T09:56:24.999Z</time>
      </trkpt>
      <trkpt lat="46.71322" lon="-0.11577">
        <ele>215.32</ele>
        <time>2017-01-22T09:56:26.999Z</time>
      </trkpt>
      <trkpt lat="46.71311" lon="-0.11575">
        <ele>215.66</ele>
        <time>2017-01-22T09:56:28.999Z</time>
      </trkpt>
      <trkpt lat="46.71299" lon="-0.11572">
        <ele>215.87</ele>
        <time>2017-01-22T09:56:30.999Z</time>
      </trkpt>
      <trkpt lat="46.71288" lon="-0.11571">
        <ele>216.09</ele>
        <time>2017-01-22T09:56:32.999Z</time>
      </trkpt>
      <trkpt lat="46.71277" lon="-0.11568">
        <ele>216.29</ele>
        <time>2017-01-22T09:56:34.999Z</time>
      </trkpt>
      <trkpt lat="46.71267" lon="-0.11567">
        <ele>216.43</ele>
        <time>2017-01-22T09:56:36.999Z</time>
      </trkpt>
      <trkpt lat="46.71257" lon="-0.11564">
        <ele>216.57</ele>
        <time>2017-01-22T09:56:38.999Z</time>
      </trkpt>
      <trkpt lat="46.71247" lon="-0.11563">
        <ele>216.66</ele>
        <time>2017-01-22T09:56:40.999Z</time>
      </trkpt>
      <trkpt lat="46.71237" lon="-0.11561">
        <ele>216.76</ele>
        <time>2017-01-22T09:56:42.999Z</time>
      </trkpt>
      <trkpt lat="46.71224" lon="-0.11563">
        <ele>216.98</ele>
        <time>2017-01-22T09:56:45.999Z</time>
      </trkpt>
      <trkpt lat="46.71217" lon="-0.11571">
        <ele>217.18</ele>
        <time>2017-01-22T09:56:47.999Z</time>
      </trkpt>
      <trkpt lat="46.71214" lon="-0.11591">
        <ele>217.6</ele>
        <time>2017-01-22T09:56:50.999Z</time>
      </trkpt>
      <trkpt lat="46.71215" lon="-0.11607">
        <ele>217.76</ele>
        <time>2017-01-22T09:56:52.999Z</time>
      </trkpt>
      <trkpt lat="46.71214" lon="-0.11622">
        <ele>217.73</ele>
        <time>2017-01-22T09:56:54.999Z</time>
      </trkpt>
      <trkpt lat="46.71212" lon="-0.11638">
        <ele>217.65</ele>
        <time>2017-01-22T09:56:56.999Z</time>
      </trkpt>
      <trkpt lat="46.71212" lon="-0.11655">
        <ele>217.63</ele>
        <time>2017-01-22T09:56:58.999Z</time>
      </trkpt>
      <trkpt lat="46.71212" lon="-0.1167">
        <ele>217.69</ele>
        <time>2017-01-22T09:57:00.999Z</time>
      </trkpt>
      <trkpt lat="46.71213" lon="-0.11687">
        <ele>217.75</ele>
        <time>2017-01-22T09:57:02.999Z</time>
      </trkpt>
      <trkpt lat="46.71213" lon="-0.11709">
        <ele>217.71</ele>
        <time>2017-01-22T09:57:04.999Z</time>
      </trkpt>
      <trkpt lat="46.71213" lon="-0.11728">
        <ele>217.62</ele>
        <time>2017-01-22T09:57:06.999Z</time>
      </trkpt>
      <trkpt lat="46.71212" lon="-0.11745">
        <ele>217.64</ele>
        <time>2017-01-22T09:57:08.999Z</time>
      </trkpt>
      <trkpt lat="46.71211" lon="-0.11763">
        <ele>217.65</ele>
        <time>2017-01-22T09:57:10.999Z</time>
      </trkpt>
      <trkpt lat="46.71211" lon="-0.1178">
        <ele>217.61</ele>
        <time>2017-01-22T09:57:12.999Z</time>
      </trkpt>
      <trkpt lat="46.7121" lon="-0.11797">
        <ele>217.58</ele>
        <time>2017-01-22T09:57:14.999Z</time>
      </trkpt>
      <trkpt lat="46.71209" lon="-0.11815">
        <ele>217.51</ele>
        <time>2017-01-22T09:57:16.999Z</time>
      </trkpt>
      <trkpt lat="46.7121" lon="-0.11833">
        <ele>217.5</ele>
        <time>2017-01-22T09:57:18.999Z</time>
      </trkpt>
      <trkpt lat="46.71209" lon="-0.11851">
        <ele>217.57</ele>
        <time>2017-01-22T09:57:20.999Z</time>
      </trkpt>
      <trkpt lat="46.71209" lon="-0.11868">
        <ele>217.66</ele>
        <time>2017-01-22T09:57:22.999Z</time>
      </trkpt>
      <trkpt lat="46.71209" lon="-0.11886">
        <ele>217.67</ele>
        <time>2017-01-22T09:57:24.999Z</time>
      </trkpt>
      <trkpt lat="46.71208" lon="-0.11903">
        <ele>217.61</ele>
        <time>2017-01-22T09:57:26.999Z</time>
      </trkpt>
      <trkpt lat="46.71207" lon="-0.11922">
        <ele>217.43</ele>
        <time>2017-01-22T09:57:28.999Z</time>
      </trkpt>
      <trkpt lat="46.71207" lon="-0.1194">
        <ele>217.14</ele>
        <time>2017-01-22T09:57:30.999Z</time>
      </trkpt>
      <trkpt lat="46.71207" lon="-0.11959">
        <ele>216.86</ele>
        <time>2017-01-22T09:57:32.999Z</time>
      </trkpt>
      <trkpt lat="46.71207" lon="-0.11977">
        <ele>216.72</ele>
        <time>2017-01-22T09:57:34.999Z</time>
      </trkpt>
      <trkpt lat="46.71207" lon="-0.11995">
        <ele>216.53</ele>
        <time>2017-01-22T09:57:36.999Z</time>
      </trkpt>
      <trkpt lat="46.71206" lon="-0.12013">
        <ele>216.21</ele>
        <time>2017-01-22T09:57:38.999Z</time>
      </trkpt>
      <trkpt lat="46.71205" lon="-0.12032">
        <ele>215.7</ele>
        <time>2017-01-22T09:57:40.999Z</time>
      </trkpt>
      <trkpt lat="46.71201" lon="-0.12049">
        <ele>215.35</ele>
        <time>2017-01-22T09:57:42.999Z</time>
      </trkpt>
      <trkpt lat="46.71196" lon="-0.12064">
        <ele>214.91</ele>
        <time>2017-01-22T09:57:44.999Z</time>
      </trkpt>
      <trkpt lat="46.7119" lon="-0.12078">
        <ele>214.26</ele>
        <time>2017-01-22T09:57:46.999Z</time>
      </trkpt>
      <trkpt lat="46.71182" lon="-0.12094">
        <ele>213.65</ele>
        <time>2017-01-22T09:57:48.999Z</time>
      </trkpt>
      <trkpt lat="46.71175" lon="-0.1211">
        <ele>213.12</ele>
        <time>2017-01-22T09:57:50.999Z</time>
      </trkpt>
      <trkpt lat="46.71168" lon="-0.12126">
        <ele>212.84</ele>
        <time>2017-01-22T09:57:52.999Z</time>
      </trkpt>
      <trkpt lat="46.7116" lon="-0.12142">
        <ele>212.66</ele>
        <time>2017-01-22T09:57:54.999Z</time>
      </trkpt>
      <trkpt lat="46.71154" lon="-0.12158">
        <ele>212.64</ele>
        <time>2017-01-22T09:57:56.999Z</time>
      </trkpt>
      <trkpt lat="46.71151" lon="-0.12175">
        <ele>212.58</ele>
        <time>2017-01-22T09:57:58.999Z</time>
      </trkpt>
      <trkpt lat="46.71149" lon="-0.12193">
        <ele>212.53</ele>
        <time>2017-01-22T09:58:00.999Z</time>
      </trkpt>
      <trkpt lat="46.7115" lon="-0.12211">
        <ele>212.57</ele>
        <time>2017-01-22T09:58:02.999Z</time>
      </trkpt>
      <trkpt lat="46.71152" lon="-0.12227">
        <ele>212.78</ele>
        <time>2017-01-22T09:58:04.999Z</time>
      </trkpt>
      <trkpt lat="46.71153" lon="-0.12243">
        <ele>212.91</ele>
        <time>2017-01-22T09:58:06.999Z</time>
      </trkpt>
      <trkpt lat="46.71155" lon="-0.12259">
        <ele>213.04</ele>
        <time>2017-01-22T09:58:08.999Z</time>
      </trkpt>
      <trkpt lat="46.71156" lon="-0.12274">
        <ele>213.34</ele>
        <time>2017-01-22T09:58:10.999Z</time>
      </trkpt>
      <trkpt lat="46.71157" lon="-0.1229">
        <ele>213.53</ele>
        <time>2017-01-22T09:58:12.999Z</time>
      </trkpt>
      <trkpt lat="46.71159" lon="-0.12305">
        <ele>213.58</ele>
        <time>2017-01-22T09:58:14.999Z</time>
      </trkpt>
      <trkpt lat="46.7116" lon="-0.1232">
        <ele>213.62</ele>
        <time>2017-01-22T09:58:16.999Z</time>
      </trkpt>
      <trkpt lat="46.71162" lon="-0.12335">
        <ele>213.58</ele>
        <time>2017-01-22T09:58:18.999Z</time>
      </trkpt>
      <trkpt lat="46.71163" lon="-0.1235">
        <ele>213.5</ele>
        <time>2017-01-22T09:58:20.999Z</time>
      </trkpt>
      <trkpt lat="46.71165" lon="-0.12364">
        <ele>213.46</ele>
        <time>2017-01-22T09:58:22.999Z</time>
      </trkpt>
      <trkpt lat="46.71169" lon="-0.12382">
        <ele>213.44</ele>
        <time>2017-01-22T09:58:25.999Z</time>
      </trkpt>
      <trkpt lat="46.7117" lon="-0.12398">
        <ele>213.41</ele>
        <time>2017-01-22T09:58:28.999Z</time>
      </trkpt>
      <trkpt lat="46.7116" lon="-0.12408">
        <ele>213.16</ele>
        <time>2017-01-22T09:58:31.999Z</time>
      </trkpt>
      <trkpt lat="46.71149" lon="-0.12417">
        <ele>212.9</ele>
        <time>2017-01-22T09:58:33.999Z</time>
      </trkpt>
      <trkpt lat="46.71139" lon="-0.12428">
        <ele>212.72</ele>
        <time>2017-01-22T09:58:35.999Z</time>
      </trkpt>
      <trkpt lat="46.71127" lon="-0.12441">
        <ele>212.33</ele>
        <time>2017-01-22T09:58:37.999Z</time>
      </trkpt>
      <trkpt lat="46.71114" lon="-0.12452">
        <ele>211.94</ele>
        <time>2017-01-22T09:58:39.999Z</time>
      </trkpt>
      <trkpt lat="46.71103" lon="-0.12462">
        <ele>211.65</ele>
        <time>2017-01-22T09:58:41.999Z</time>
      </trkpt>
      <trkpt lat="46.71093" lon="-0.12474">
        <ele>211.52</ele>
        <time>2017-01-22T09:58:43.999Z</time>
      </trkpt>
      <trkpt lat="46.71086" lon="-0.12485">
        <ele>211.39</ele>
        <time>2017-01-22T09:58:45.999Z</time>
      </trkpt>
      <trkpt lat="46.7108" lon="-0.125">
        <ele>211.27</ele>
        <time>2017-01-22T09:58:48.999Z</time>
      </trkpt>
      <trkpt lat="46.71072" lon="-0.12516">
        <ele>211.1</ele>
        <time>2017-01-22T09:58:51.999Z</time>
      </trkpt>
      <trkpt lat="46.71065" lon="-0.12527">
        <ele>211.01</ele>
        <time>2017-01-22T09:58:53.999Z</time>
      </trkpt>
      <trkpt lat="46.71058" lon="-0.12538">
        <ele>210.9</ele>
        <time>2017-01-22T09:58:55.999Z</time>
      </trkpt>
      <trkpt lat="46.71048" lon="-0.12552">
        <ele>210.68</ele>
        <time>2017-01-22T09:58:57.999Z</time>
      </trkpt>
      <trkpt lat="46.71039" lon="-0.12567">
        <ele>210.36</ele>
        <time>2017-01-22T09:58:59.999Z</time>
      </trkpt>
      <trkpt lat="46.71032" lon="-0.12583">
        <ele>210.07</ele>
        <time>2017-01-22T09:59:01.999Z</time>
      </trkpt>
      <trkpt lat="46.71024" lon="-0.12597">
        <ele>209.83</ele>
        <time>2017-01-22T09:59:03.999Z</time>
      </trkpt>
      <trkpt lat="46.71018" lon="-0.1261">
        <ele>209.49</ele>
        <time>2017-01-22T09:59:05.999Z</time>
      </trkpt>
      <trkpt lat="46.71011" lon="-0.12622">
        <ele>209.03</ele>
        <time>2017-01-22T09:59:07.999Z</time>
      </trkpt>
      <trkpt lat="46.71003" lon="-0.12634">
        <ele>208.8</ele>
        <time>2017-01-22T09:59:10.999Z</time>
      </trkpt>
      <trkpt lat="46.71004" lon="-0.1265">
        <ele>208.51</ele>
        <time>2017-01-22T09:59:14.999Z</time>
      </trkpt>
      <trkpt lat="46.7101" lon="-0.12666">
        <ele>208.09</ele>
        <time>2017-01-22T09:59:16.999Z</time>
      </trkpt>
      <trkpt lat="46.71015" lon="-0.12684">
        <ele>207.53</ele>
        <time>2017-01-22T09:59:18.999Z</time>
      </trkpt>
      <trkpt lat="46.71019" lon="-0.12703">
        <ele>207.22</ele>
        <time>2017-01-22T09:59:20.999Z</time>
      </trkpt>
      <trkpt lat="46.71024" lon="-0.12723">
        <ele>207</ele>
        <time>2017-01-22T09:59:22.999Z</time>
      </trkpt>
      <trkpt lat="46.71029" lon="-0.12742">
        <ele>206.78</ele>
        <time>2017-01-22T09:59:24.999Z</time>
      </trkpt>
      <trkpt lat="46.71036" lon="-0.12759">
        <ele>206.6</ele>
        <time>2017-01-22T09:59:26.999Z</time>
      </trkpt>
      <trkpt lat="46.71044" lon="-0.12774">
        <ele>206.53</ele>
        <time>2017-01-22T09:59:28.999Z</time>
      </trkpt>
      <trkpt lat="46.71051" lon="-0.12787">
        <ele>206.73</ele>
        <time>2017-01-22T09:59:30.999Z</time>
      </trkpt>
      <trkpt lat="46.71058" lon="-0.128">
        <ele>206.76</ele>
        <time>2017-01-22T09:59:32.999Z</time>
      </trkpt>
      <trkpt lat="46.71066" lon="-0.12813">
        <ele>206.6</ele>
        <time>2017-01-22T09:59:34.999Z</time>
      </trkpt>
      <trkpt lat="46.71074" lon="-0.12824">
        <ele>206.48</ele>
        <time>2017-01-22T09:59:36.999Z</time>
      </trkpt>
      <trkpt lat="46.71083" lon="-0.12834">
        <ele>206.16</ele>
        <time>2017-01-22T09:59:38.999Z</time>
      </trkpt>
      <trkpt lat="46.71092" lon="-0.12842">
        <ele>206.3</ele>
        <time>2017-01-22T09:59:40.999Z</time>
      </trkpt>
      <trkpt lat="46.711" lon="-0.12849">
        <ele>206.22</ele>
        <time>2017-01-22T09:59:42.999Z</time>
      </trkpt>
      <trkpt lat="46.71109" lon="-0.12855">
        <ele>206.1</ele>
        <time>2017-01-22T09:59:44.999Z</time>
      </trkpt>
      <trkpt lat="46.71121" lon="-0.12863">
        <ele>206</ele>
        <time>2017-01-22T09:59:46.999Z</time>
      </trkpt>
      <trkpt lat="46.71132" lon="-0.12868">
        <ele>206.01</ele>
        <time>2017-01-22T09:59:48.999Z</time>
      </trkpt>
      <trkpt lat="46.71145" lon="-0.12873">
        <ele>206.04</ele>
        <time>2017-01-22T09:59:50.999Z</time>
      </trkpt>
      <trkpt lat="46.71157" lon="-0.12879">
        <ele>206.03</ele>
        <time>2017-01-22T09:59:52.999Z</time>
      </trkpt>
      <trkpt lat="46.7117" lon="-0.12884">
        <ele>205.87</ele>
        <time>2017-01-22T09:59:54.999Z</time>
      </trkpt>
      <trkpt lat="46.71182" lon="-0.12888">
        <ele>205.74</ele>
        <time>2017-01-22T09:59:56.999Z</time>
      </trkpt>
      <trkpt lat="46.71193" lon="-0.12892">
        <ele>205.46</ele>
        <time>2017-01-22T09:59:58.999Z</time>
      </trkpt>
      <trkpt lat="46.71205" lon="-0.12896">
        <ele>205.27</ele>
        <time>2017-01-22T10:00:00.999Z</time>
      </trkpt>
      <trkpt lat="46.71217" lon="-0.12902">
        <ele>205.12</ele>
        <time>2017-01-22T10:00:02.999Z</time>
      </trkpt>
      <trkpt lat="46.71229" lon="-0.12907">
        <ele>204.98</ele>
        <time>2017-01-22T10:00:04.999Z</time>
      </trkpt>
      <trkpt lat="46.71242" lon="-0.12912">
        <ele>204.73</ele>
        <time>2017-01-22T10:00:06.999Z</time>
      </trkpt>
      <trkpt lat="46.71255" lon="-0.12917">
        <ele>204.51</ele>
        <time>2017-01-22T10:00:08.999Z</time>
      </trkpt>
      <trkpt lat="46.71267" lon="-0.12921">
        <ele>204.27</ele>
        <time>2017-01-22T10:00:10.999Z</time>
      </trkpt>
      <trkpt lat="46.71281" lon="-0.12923">
        <ele>203.9</ele>
        <time>2017-01-22T10:00:12.999Z</time>
      </trkpt>
      <trkpt lat="46.71293" lon="-0.12926">
        <ele>203.38</ele>
        <time>2017-01-22T10:00:14.999Z</time>
      </trkpt>
      <trkpt lat="46.71301" lon="-0.12935">
        <ele>203.29</ele>
        <time>2017-01-22T10:00:16.999Z</time>
      </trkpt>
      <trkpt lat="46.71296" lon="-0.12953">
        <ele>201.98</ele>
        <time>2017-01-22T10:00:19.999Z</time>
      </trkpt>
      <trkpt lat="46.7129" lon="-0.12969">
        <ele>200.99</ele>
        <time>2017-01-22T10:00:21.999Z</time>
      </trkpt>
      <trkpt lat="46.71282" lon="-0.12986">
        <ele>200.15</ele>
        <time>2017-01-22T10:00:23.999Z</time>
      </trkpt>
      <trkpt lat="46.71275" lon="-0.13003">
        <ele>199.47</ele>
        <time>2017-01-22T10:00:25.999Z</time>
      </trkpt>
      <trkpt lat="46.71269" lon="-0.13021">
        <ele>199.05</ele>
        <time>2017-01-22T10:00:27.999Z</time>
      </trkpt>
      <trkpt lat="46.71264" lon="-0.1304">
        <ele>198.45</ele>
        <time>2017-01-22T10:00:29.999Z</time>
      </trkpt>
      <trkpt lat="46.71257" lon="-0.13063">
        <ele>197.75</ele>
        <time>2017-01-22T10:00:31.999Z</time>
      </trkpt>
      <trkpt lat="46.71252" lon="-0.13084">
        <ele>197.23</ele>
        <time>2017-01-22T10:00:33.999Z</time>
      </trkpt>
      <trkpt lat="46.71247" lon="-0.13106">
        <ele>197.03</ele>
        <time>2017-01-22T10:00:35.999Z</time>
      </trkpt>
      <trkpt lat="46.71241" lon="-0.13126">
        <ele>196.66</ele>
        <time>2017-01-22T10:00:37.999Z</time>
      </trkpt>
      <trkpt lat="46.71236" lon="-0.13146">
        <ele>196.11</ele>
        <time>2017-01-22T10:00:39.999Z</time>
      </trkpt>
      <trkpt lat="46.71231" lon="-0.13167">
        <ele>195.56</ele>
        <time>2017-01-22T10:00:41.999Z</time>
      </trkpt>
      <trkpt lat="46.7123" lon="-0.1319">
        <ele>194.76</ele>
        <time>2017-01-22T10:00:43.999Z</time>
      </trkpt>
      <trkpt lat="46.71229" lon="-0.13214">
        <ele>193.96</ele>
        <time>2017-01-22T10:00:45.999Z</time>
      </trkpt>
      <trkpt lat="46.71226" lon="-0.13237">
        <ele>193.42</ele>
        <time>2017-01-22T10:00:47.999Z</time>
      </trkpt>
      <trkpt lat="46.71224" lon="-0.1326">
        <ele>192.58</ele>
        <time>2017-01-22T10:00:49.999Z</time>
      </trkpt>
      <trkpt lat="46.71222" lon="-0.13283">
        <ele>191.63</ele>
        <time>2017-01-22T10:00:51.999Z</time>
      </trkpt>
      <trkpt lat="46.71221" lon="-0.13302">
        <ele>190.65</ele>
        <time>2017-01-22T10:00:53.999Z</time>
      </trkpt>
      <trkpt lat="46.71221" lon="-0.13322">
        <ele>189.05</ele>
        <time>2017-01-22T10:00:55.999Z</time>
      </trkpt>
      <trkpt lat="46.7122" lon="-0.13341">
        <ele>187.45</ele>
        <time>2017-01-22T10:00:57.999Z</time>
      </trkpt>
      <trkpt lat="46.71219" lon="-0.13357">
        <ele>186.85</ele>
        <time>2017-01-22T10:01:00.999Z</time>
      </trkpt>
      <trkpt lat="46.71207" lon="-0.13357">
        <ele>186.61</ele>
        <time>2017-01-22T10:01:05.999Z</time>
      </trkpt>
      <trkpt lat="46.71198" lon="-0.13355">
        <ele>186.35</ele>
        <time>2017-01-22T10:01:08.999Z</time>
      </trkpt>
      <trkpt lat="46.71187" lon="-0.13354">
        <ele>186.17</ele>
        <time>2017-01-22T10:01:11.999Z</time>
      </trkpt>
      <trkpt lat="46.71176" lon="-0.13355">
        <ele>186</ele>
        <time>2017-01-22T10:01:14.999Z</time>
      </trkpt>
      <trkpt lat="46.71163" lon="-0.13355">
        <ele>185.93</ele>
        <time>2017-01-22T10:01:17.999Z</time>
      </trkpt>
      <trkpt lat="46.71151" lon="-0.13355">
        <ele>185.78</ele>
        <time>2017-01-22T10:01:20.999Z</time>
      </trkpt>
      <trkpt lat="46.71141" lon="-0.13354">
        <ele>185.58</ele>
        <time>2017-01-22T10:01:22.999Z</time>
      </trkpt>
      <trkpt lat="46.71132" lon="-0.13353">
        <ele>185.73</ele>
        <time>2017-01-22T10:01:24.999Z</time>
      </trkpt>
      <trkpt lat="46.71122" lon="-0.13352">
        <ele>185.89</ele>
        <time>2017-01-22T10:01:26.999Z</time>
      </trkpt>
      <trkpt lat="46.71111" lon="-0.13351">
        <ele>185.93</ele>
        <time>2017-01-22T10:01:29.999Z</time>
      </trkpt>
      <trkpt lat="46.71098" lon="-0.13348">
        <ele>186.01</ele>
        <time>2017-01-22T10:01:32.999Z</time>
      </trkpt>
      <trkpt lat="46.71089" lon="-0.13347">
        <ele>186.09</ele>
        <time>2017-01-22T10:01:34.999Z</time>
      </trkpt>
      <trkpt lat="46.7108" lon="-0.13345">
        <ele>186.13</ele>
        <time>2017-01-22T10:01:36.999Z</time>
      </trkpt>
      <trkpt lat="46.71067" lon="-0.13343">
        <ele>186.15</ele>
        <time>2017-01-22T10:01:39.999Z</time>
      </trkpt>
      <trkpt lat="46.71058" lon="-0.13343">
        <ele>186.17</ele>
        <time>2017-01-22T10:01:41.999Z</time>
      </trkpt>
      <trkpt lat="46.71046" lon="-0.13341">
        <ele>186.04</ele>
        <time>2017-01-22T10:01:44.999Z</time>
      </trkpt>
      <trkpt lat="46.71034" lon="-0.1334">
        <ele>185.9</ele>
        <time>2017-01-22T10:01:47.999Z</time>
      </trkpt>
      <trkpt lat="46.71022" lon="-0.1334">
        <ele>185.78</ele>
        <time>2017-01-22T10:01:50.999Z</time>
      </trkpt>
      <trkpt lat="46.71011" lon="-0.13339">
        <ele>185.77</ele>
        <time>2017-01-22T10:01:53.999Z</time>
      </trkpt>
      <trkpt lat="46.70999" lon="-0.13338">
        <ele>185.78</ele>
        <time>2017-01-22T10:01:56.999Z</time>
      </trkpt>
      <trkpt lat="46.70988" lon="-0.13339">
        <ele>185.77</ele>
        <time>2017-01-22T10:01:59.999Z</time>
      </trkpt>
      <trkpt lat="46.70978" lon="-0.1334">
        <ele>185.76</ele>
        <time>2017-01-22T10:02:02.999Z</time>
      </trkpt>
      <trkpt lat="46.70968" lon="-0.13339">
        <ele>185.76</ele>
        <time>2017-01-22T10:02:05.999Z</time>
      </trkpt>
      <trkpt lat="46.70958" lon="-0.13339">
        <ele>185.75</ele>
        <time>2017-01-22T10:02:08.999Z</time>
      </trkpt>
      <trkpt lat="46.70948" lon="-0.13338">
        <ele>185.76</ele>
        <time>2017-01-22T10:02:11.999Z</time>
      </trkpt>
      <trkpt lat="46.70938" lon="-0.13338">
        <ele>185.77</ele>
        <time>2017-01-22T10:02:14.999Z</time>
      </trkpt>
      <trkpt lat="46.70929" lon="-0.13337">
        <ele>185.83</ele>
        <time>2017-01-22T10:02:17.999Z</time>
      </trkpt>
      <trkpt lat="46.70919" lon="-0.13335">
        <ele>185.93</ele>
        <time>2017-01-22T10:02:20.999Z</time>
      </trkpt>
      <trkpt lat="46.70908" lon="-0.13335">
        <ele>186.09</ele>
        <time>2017-01-22T10:02:24.999Z</time>
      </trkpt>
      <trkpt lat="46.70896" lon="-0.13334">
        <ele>186.27</ele>
        <time>2017-01-22T10:02:28.999Z</time>
      </trkpt>
      <trkpt lat="46.70885" lon="-0.13334">
        <ele>186.53</ele>
        <time>2017-01-22T10:02:32.999Z</time>
      </trkpt>
      <trkpt lat="46.70875" lon="-0.13341">
        <ele>186.92</ele>
        <time>2017-01-22T10:02:37.999Z</time>
      </trkpt>
      <trkpt lat="46.70873" lon="-0.13354">
        <ele>187.22</ele>
        <time>2017-01-22T10:02:41.999Z</time>
      </trkpt>
      <trkpt lat="46.70877" lon="-0.13371">
        <ele>188.44</ele>
        <time>2017-01-22T10:02:44.999Z</time>
      </trkpt>
      <trkpt lat="46.70881" lon="-0.13389">
        <ele>188.56</ele>
        <time>2017-01-22T10:02:47.999Z</time>
      </trkpt>
      <trkpt lat="46.70884" lon="-0.13408">
        <ele>189.5</ele>
        <time>2017-01-22T10:02:50.999Z</time>
      </trkpt>
      <trkpt lat="46.70887" lon="-0.13422">
        <ele>189.81</ele>
        <time>2017-01-22T10:02:52.999Z</time>
      </trkpt>
      <trkpt lat="46.7089" lon="-0.13437">
        <ele>189.94</ele>
        <time>2017-01-22T10:02:54.999Z</time>
      </trkpt>
      <trkpt lat="46.70892" lon="-0.13451">
        <ele>189.97</ele>
        <time>2017-01-22T10:02:56.999Z</time>
      </trkpt>
      <trkpt lat="46.70895" lon="-0.13465">
        <ele>189.92</ele>
        <time>2017-01-22T10:02:58.999Z</time>
      </trkpt>
      <trkpt lat="46.70897" lon="-0.1348">
        <ele>189.85</ele>
        <time>2017-01-22T10:03:00.999Z</time>
      </trkpt>
      <trkpt lat="46.709" lon="-0.13495">
        <ele>189.77</ele>
        <time>2017-01-22T10:03:02.999Z</time>
      </trkpt>
      <trkpt lat="46.70902" lon="-0.13511">
        <ele>189.76</ele>
        <time>2017-01-22T10:03:04.999Z</time>
      </trkpt>
      <trkpt lat="46.70904" lon="-0.13525">
        <ele>189.69</ele>
        <time>2017-01-22T10:03:06.999Z</time>
      </trkpt>
      <trkpt lat="46.70906" lon="-0.13542">
        <ele>189.56</ele>
        <time>2017-01-22T10:03:08.999Z</time>
      </trkpt>
      <trkpt lat="46.70908" lon="-0.13558">
        <ele>189.46</ele>
        <time>2017-01-22T10:03:10.999Z</time>
      </trkpt>
      <trkpt lat="46.70911" lon="-0.13576">
        <ele>189.3</ele>
        <time>2017-01-22T10:03:12.999Z</time>
      </trkpt>
      <trkpt lat="46.70913" lon="-0.13591">
        <ele>189.22</ele>
        <time>2017-01-22T10:03:14.999Z</time>
      </trkpt>
      <trkpt lat="46.70916" lon="-0.13607">
        <ele>189.17</ele>
        <time>2017-01-22T10:03:16.999Z</time>
      </trkpt>
      <trkpt lat="46.70919" lon="-0.13624">
        <ele>189.07</ele>
        <time>2017-01-22T10:03:18.999Z</time>
      </trkpt>
      <trkpt lat="46.70923" lon="-0.13641">
        <ele>188.97</ele>
        <time>2017-01-22T10:03:20.999Z</time>
      </trkpt>
      <trkpt lat="46.70927" lon="-0.13657">
        <ele>188.94</ele>
        <time>2017-01-22T10:03:22.999Z</time>
      </trkpt>
      <trkpt lat="46.70932" lon="-0.13674">
        <ele>189.02</ele>
        <time>2017-01-22T10:03:24.999Z</time>
      </trkpt>
      <trkpt lat="46.70936" lon="-0.1369">
        <ele>189.11</ele>
        <time>2017-01-22T10:03:26.999Z</time>
      </trkpt>
      <trkpt lat="46.7094" lon="-0.13706">
        <ele>189.19</ele>
        <time>2017-01-22T10:03:28.999Z</time>
      </trkpt>
      <trkpt lat="46.70945" lon="-0.13722">
        <ele>189.25</ele>
        <time>2017-01-22T10:03:30.999Z</time>
      </trkpt>
      <trkpt lat="46.70949" lon="-0.13738">
        <ele>189.4</ele>
        <time>2017-01-22T10:03:32.999Z</time>
      </trkpt>
      <trkpt lat="46.70954" lon="-0.13754">
        <ele>189.5</ele>
        <time>2017-01-22T10:03:34.999Z</time>
      </trkpt>
      <trkpt lat="46.70959" lon="-0.13769">
        <ele>189.53</ele>
        <time>2017-01-22T10:03:36.999Z</time>
      </trkpt>
      <trkpt lat="46.70965" lon="-0.13785">
        <ele>189.56</ele>
        <time>2017-01-22T10:03:38.999Z</time>
      </trkpt>
      <trkpt lat="46.70971" lon="-0.13799">
        <ele>189.61</ele>
        <time>2017-01-22T10:03:40.999Z</time>
      </trkpt>
      <trkpt lat="46.70977" lon="-0.13813">
        <ele>189.64</ele>
        <time>2017-01-22T10:03:42.999Z</time>
      </trkpt>
      <trkpt lat="46.70984" lon="-0.13826">
        <ele>189.73</ele>
        <time>2017-01-22T10:03:44.999Z</time>
      </trkpt>
      <trkpt lat="46.70992" lon="-0.1384">
        <ele>189.82</ele>
        <time>2017-01-22T10:03:46.999Z</time>
      </trkpt>
      <trkpt lat="46.71" lon="-0.13853">
        <ele>189.84</ele>
        <time>2017-01-22T10:03:48.999Z</time>
      </trkpt>
      <trkpt lat="46.71007" lon="-0.13864">
        <ele>189.91</ele>
        <time>2017-01-22T10:03:50.999Z</time>
      </trkpt>
      <trkpt lat="46.71014" lon="-0.13875">
        <ele>189.97</ele>
        <time>2017-01-22T10:03:52.999Z</time>
      </trkpt>
      <trkpt lat="46.71023" lon="-0.13888">
        <ele>189.89</ele>
        <time>2017-01-22T10:03:54.999Z</time>
      </trkpt>
      <trkpt lat="46.7103" lon="-0.13899">
        <ele>189.72</ele>
        <time>2017-01-22T10:03:56.999Z</time>
      </trkpt>
      <trkpt lat="46.71038" lon="-0.1391">
        <ele>189.51</ele>
        <time>2017-01-22T10:03:58.999Z</time>
      </trkpt>
      <trkpt lat="46.71045" lon="-0.13923">
        <ele>189.3</ele>
        <time>2017-01-22T10:04:00.999Z</time>
      </trkpt>
      <trkpt lat="46.7105" lon="-0.13937">
        <ele>189.22</ele>
        <time>2017-01-22T10:04:02.999Z</time>
      </trkpt>
      <trkpt lat="46.71056" lon="-0.1395">
        <ele>189.27</ele>
        <time>2017-01-22T10:04:04.999Z</time>
      </trkpt>
      <trkpt lat="46.71062" lon="-0.13961">
        <ele>189.35</ele>
        <time>2017-01-22T10:04:06.999Z</time>
      </trkpt>
      <trkpt lat="46.71067" lon="-0.13973">
        <ele>189.43</ele>
        <time>2017-01-22T10:04:08.999Z</time>
      </trkpt>
      <trkpt lat="46.71073" lon="-0.13985">
        <ele>189.49</ele>
        <time>2017-01-22T10:04:10.999Z</time>
      </trkpt>
      <trkpt lat="46.71079" lon="-0.13997">
        <ele>189.61</ele>
        <time>2017-01-22T10:04:12.999Z</time>
      </trkpt>
      <trkpt lat="46.71084" lon="-0.14008">
        <ele>189.67</ele>
        <time>2017-01-22T10:04:14.999Z</time>
      </trkpt>
      <trkpt lat="46.71088" lon="-0.1402">
        <ele>189.68</ele>
        <time>2017-01-22T10:04:16.999Z</time>
      </trkpt>
      <trkpt lat="46.71094" lon="-0.14033">
        <ele>189.65</ele>
        <time>2017-01-22T10:04:18.999Z</time>
      </trkpt>
      <trkpt lat="46.711" lon="-0.14045">
        <ele>189.62</ele>
        <time>2017-01-22T10:04:20.999Z</time>
      </trkpt>
      <trkpt lat="46.71106" lon="-0.1406">
        <ele>189.53</ele>
        <time>2017-01-22T10:04:22.999Z</time>
      </trkpt>
      <trkpt lat="46.71111" lon="-0.14073">
        <ele>189.44</ele>
        <time>2017-01-22T10:04:24.999Z</time>
      </trkpt>
      <trkpt lat="46.71114" lon="-0.14086">
        <ele>189.39</ele>
        <time>2017-01-22T10:04:26.999Z</time>
      </trkpt>
      <trkpt lat="46.71118" lon="-0.14098">
        <ele>189.24</ele>
        <time>2017-01-22T10:04:28.999Z</time>
      </trkpt>
      <trkpt lat="46.71122" lon="-0.14111">
        <ele>189.14</ele>
        <time>2017-01-22T10:04:30.999Z</time>
      </trkpt>
      <trkpt lat="46.71125" lon="-0.14125">
        <ele>189.09</ele>
        <time>2017-01-22T10:04:32.999Z</time>
      </trkpt>
      <trkpt lat="46.71129" lon="-0.14141">
        <ele>189.11</ele>
        <time>2017-01-22T10:04:34.999Z</time>
      </trkpt>
      <trkpt lat="46.71132" lon="-0.14157">
        <ele>189.15</ele>
        <time>2017-01-22T10:04:36.999Z</time>
      </trkpt>
      <trkpt lat="46.71135" lon="-0.14173">
        <ele>189.17</ele>
        <time>2017-01-22T10:04:38.999Z</time>
      </trkpt>
      <trkpt lat="46.71138" lon="-0.1419">
        <ele>189.19</ele>
        <time>2017-01-22T10:04:40.999Z</time>
      </trkpt>
      <trkpt lat="46.71141" lon="-0.14205">
        <ele>189.14</ele>
        <time>2017-01-22T10:04:42.999Z</time>
      </trkpt>
      <trkpt lat="46.71145" lon="-0.14219">
        <ele>188.95</ele>
        <time>2017-01-22T10:04:44.999Z</time>
      </trkpt>
      <trkpt lat="46.71153" lon="-0.1423">
        <ele>188.61</ele>
        <time>2017-01-22T10:04:46.999Z</time>
      </trkpt>
      <trkpt lat="46.71161" lon="-0.1424">
        <ele>188.13</ele>
        <time>2017-01-22T10:04:48.999Z</time>
      </trkpt>
      <trkpt lat="46.71171" lon="-0.14248">
        <ele>187.56</ele>
        <time>2017-01-22T10:04:50.999Z</time>
      </trkpt>
      <trkpt lat="46.71181" lon="-0.14256">
        <ele>187.08</ele>
        <time>2017-01-22T10:04:52.999Z</time>
      </trkpt>
      <trkpt lat="46.7119" lon="-0.14266">
        <ele>186.38</ele>
        <time>2017-01-22T10:04:54.999Z</time>
      </trkpt>
      <trkpt lat="46.712" lon="-0.14279">
        <ele>185.27</ele>
        <time>2017-01-22T10:04:56.999Z</time>
      </trkpt>
      <trkpt lat="46.71209" lon="-0.14294">
        <ele>183.84</ele>
        <time>2017-01-22T10:04:58.999Z</time>
      </trkpt>
      <trkpt lat="46.71219" lon="-0.1431">
        <ele>182.45</ele>
        <time>2017-01-22T10:05:00.999Z</time>
      </trkpt>
      <trkpt lat="46.71227" lon="-0.14326">
        <ele>181.29</ele>
        <time>2017-01-22T10:05:02.999Z</time>
      </trkpt>
      <trkpt lat="46.71234" lon="-0.14341">
        <ele>180.29</ele>
        <time>2017-01-22T10:05:04.999Z</time>
      </trkpt>
      <trkpt lat="46.71239" lon="-0.14353">
        <ele>179.43</ele>
        <time>2017-01-22T10:05:06.999Z</time>
      </trkpt>
      <trkpt lat="46.71247" lon="-0.14368">
        <ele>178.06</ele>
        <time>2017-01-22T10:05:09.999Z</time>
      </trkpt>
      <trkpt lat="46.71256" lon="-0.14375">
        <ele>177.28</ele>
        <time>2017-01-22T10:05:11.999Z</time>
      </trkpt>
      <trkpt lat="46.71266" lon="-0.14384">
        <ele>176.69</ele>
        <time>2017-01-22T10:05:13.999Z</time>
      </trkpt>
      <trkpt lat="46.71278" lon="-0.14392">
        <ele>175.99</ele>
        <time>2017-01-22T10:05:15.999Z</time>
      </trkpt>
      <trkpt lat="46.71292" lon="-0.14393">
        <ele>175.32</ele>
        <time>2017-01-22T10:05:17.999Z</time>
      </trkpt>
      <trkpt lat="46.71304" lon="-0.14395">
        <ele>174.82</ele>
        <time>2017-01-22T10:05:19.999Z</time>
      </trkpt>
      <trkpt lat="46.71313" lon="-0.14405">
        <ele>174.4</ele>
        <time>2017-01-22T10:05:21.999Z</time>
      </trkpt>
      <trkpt lat="46.71321" lon="-0.14418">
        <ele>174.2</ele>
        <time>2017-01-22T10:05:23.999Z</time>
      </trkpt>
      <trkpt lat="46.7133" lon="-0.14431">
        <ele>173.88</ele>
        <time>2017-01-22T10:05:25.999Z</time>
      </trkpt>
      <trkpt lat="46.71337" lon="-0.14444">
        <ele>173.76</ele>
        <time>2017-01-22T10:05:27.999Z</time>
      </trkpt>
      <trkpt lat="46.71347" lon="-0.14457">
        <ele>173.7</ele>
        <time>2017-01-22T10:05:29.999Z</time>
      </trkpt>
      <trkpt lat="46.7136" lon="-0.14466">
        <ele>173.47</ele>
        <time>2017-01-22T10:05:31.999Z</time>
      </trkpt>
      <trkpt lat="46.71374" lon="-0.1447">
        <ele>173.49</ele>
        <time>2017-01-22T10:05:33.999Z</time>
      </trkpt>
      <trkpt lat="46.71388" lon="-0.14472">
        <ele>173.37</ele>
        <time>2017-01-22T10:05:35.999Z</time>
      </trkpt>
      <trkpt lat="46.71401" lon="-0.14472">
        <ele>173.09</ele>
        <time>2017-01-22T10:05:37.999Z</time>
      </trkpt>
      <trkpt lat="46.71412" lon="-0.14463">
        <ele>172.87</ele>
        <time>2017-01-22T10:05:39.999Z</time>
      </trkpt>
      <trkpt lat="46.7142" lon="-0.14452">
        <ele>172.59</ele>
        <time>2017-01-22T10:05:41.999Z</time>
      </trkpt>
      <trkpt lat="46.71428" lon="-0.14439">
        <ele>172.28</ele>
        <time>2017-01-22T10:05:43.999Z</time>
      </trkpt>
      <trkpt lat="46.71436" lon="-0.14428">
        <ele>172.16</ele>
        <time>2017-01-22T10:05:45.999Z</time>
      </trkpt>
      <trkpt lat="46.71443" lon="-0.14418">
        <ele>172.03</ele>
        <time>2017-01-22T10:05:47.999Z</time>
      </trkpt>
      <trkpt lat="46.7145" lon="-0.14409">
        <ele>171.95</ele>
        <time>2017-01-22T10:05:49.999Z</time>
      </trkpt>
      <trkpt lat="46.71457" lon="-0.14401">
        <ele>171.86</ele>
        <time>2017-01-22T10:05:51.999Z</time>
      </trkpt>
      <trkpt lat="46.71466" lon="-0.14393">
        <ele>171.84</ele>
        <time>2017-01-22T10:05:54.999Z</time>
      </trkpt>
      <trkpt lat="46.71474" lon="-0.14386">
        <ele>171.81</ele>
        <time>2017-01-22T10:05:59.999Z</time>
      </trkpt>
      <trkpt lat="46.71483" lon="-0.14376">
        <ele>171.78</ele>
        <time>2017-01-22T10:06:03.999Z</time>
      </trkpt>
      <trkpt lat="46.71491" lon="-0.14364">
        <ele>171.77</ele>
        <time>2017-01-22T10:06:06.999Z</time>
      </trkpt>
      <trkpt lat="46.715" lon="-0.14352">
        <ele>172.23</ele>
        <time>2017-01-22T10:06:09.999Z</time>
      </trkpt>
      <trkpt lat="46.71507" lon="-0.14343">
        <ele>172.77</ele>
        <time>2017-01-22T10:06:11.999Z</time>
      </trkpt>
      <trkpt lat="46.71516" lon="-0.14332">
        <ele>173.03</ele>
        <time>2017-01-22T10:06:14.999Z</time>
      </trkpt>
      <trkpt lat="46.71526" lon="-0.14322">
        <ele>173.07</ele>
        <time>2017-01-22T10:06:17.999Z</time>
      </trkpt>
      <trkpt lat="46.71536" lon="-0.14312">
        <ele>173.27</ele>
        <time>2017-01-22T10:06:20.999Z</time>
      </trkpt>
      <trkpt lat="46.71543" lon="-0.14303">
        <ele>173.4</ele>
        <time>2017-01-22T10:06:22.999Z</time>
      </trkpt>
      <trkpt lat="46.71553" lon="-0.14292">
        <ele>173.45</ele>
        <time>2017-01-22T10:06:24.999Z</time>
      </trkpt>
      <trkpt lat="46.71563" lon="-0.14281">
        <ele>173.45</ele>
        <time>2017-01-22T10:06:26.999Z</time>
      </trkpt>
      <trkpt lat="46.71574" lon="-0.14273">
        <ele>173.38</ele>
        <time>2017-01-22T10:06:28.999Z</time>
      </trkpt>
      <trkpt lat="46.71583" lon="-0.14267">
        <ele>173.3</ele>
        <time>2017-01-22T10:06:30.999Z</time>
      </trkpt>
      <trkpt lat="46.71595" lon="-0.14267">
        <ele>173.16</ele>
        <time>2017-01-22T10:06:32.999Z</time>
      </trkpt>
      <trkpt lat="46.71606" lon="-0.14268">
        <ele>173.02</ele>
        <time>2017-01-22T10:06:34.999Z</time>
      </trkpt>
      <trkpt lat="46.71618" lon="-0.14269">
        <ele>172.83</ele>
        <time>2017-01-22T10:06:36.999Z</time>
      </trkpt>
      <trkpt lat="46.71631" lon="-0.14269">
        <ele>172.68</ele>
        <time>2017-01-22T10:06:38.999Z</time>
      </trkpt>
      <trkpt lat="46.71642" lon="-0.14266">
        <ele>172.46</ele>
        <time>2017-01-22T10:06:40.999Z</time>
      </trkpt>
      <trkpt lat="46.71653" lon="-0.14259">
        <ele>172.24</ele>
        <time>2017-01-22T10:06:42.999Z</time>
      </trkpt>
      <trkpt lat="46.71664" lon="-0.14249">
        <ele>171.99</ele>
        <time>2017-01-22T10:06:44.999Z</time>
      </trkpt>
      <trkpt lat="46.71675" lon="-0.1424">
        <ele>171.7</ele>
        <time>2017-01-22T10:06:46.999Z</time>
      </trkpt>
      <trkpt lat="46.71684" lon="-0.1423">
        <ele>171.5</ele>
        <time>2017-01-22T10:06:48.999Z</time>
      </trkpt>
      <trkpt lat="46.71695" lon="-0.14221">
        <ele>171.32</ele>
        <time>2017-01-22T10:06:50.999Z</time>
      </trkpt>
      <trkpt lat="46.71703" lon="-0.14211">
        <ele>171.2</ele>
        <time>2017-01-22T10:06:52.999Z</time>
      </trkpt>
      <trkpt lat="46.71713" lon="-0.14201">
        <ele>171.13</ele>
        <time>2017-01-22T10:06:54.999Z</time>
      </trkpt>
      <trkpt lat="46.71722" lon="-0.14191">
        <ele>171</ele>
        <time>2017-01-22T10:06:56.999Z</time>
      </trkpt>
      <trkpt lat="46.7173" lon="-0.14182">
        <ele>170.87</ele>
        <time>2017-01-22T10:06:58.999Z</time>
      </trkpt>
      <trkpt lat="46.71738" lon="-0.14173">
        <ele>170.67</ele>
        <time>2017-01-22T10:07:00.999Z</time>
      </trkpt>
      <trkpt lat="46.71746" lon="-0.14164">
        <ele>170.53</ele>
        <time>2017-01-22T10:07:02.999Z</time>
      </trkpt>
      <trkpt lat="46.71754" lon="-0.14155">
        <ele>170.48</ele>
        <time>2017-01-22T10:07:04.999Z</time>
      </trkpt>
      <trkpt lat="46.71762" lon="-0.14146">
        <ele>170.52</ele>
        <time>2017-01-22T10:07:06.999Z</time>
      </trkpt>
      <trkpt lat="46.71772" lon="-0.14133">
        <ele>170.53</ele>
        <time>2017-01-22T10:07:09.999Z</time>
      </trkpt>
      <trkpt lat="46.71779" lon="-0.14124">
        <ele>170.45</ele>
        <time>2017-01-22T10:07:11.999Z</time>
      </trkpt>
      <trkpt lat="46.71787" lon="-0.14113">
        <ele>170.28</ele>
        <time>2017-01-22T10:07:13.999Z</time>
      </trkpt>
      <trkpt lat="46.71795" lon="-0.14103">
        <ele>170.08</ele>
        <time>2017-01-22T10:07:15.999Z</time>
      </trkpt>
      <trkpt lat="46.71803" lon="-0.14091">
        <ele>169.87</ele>
        <time>2017-01-22T10:07:17.999Z</time>
      </trkpt>
      <trkpt lat="46.71811" lon="-0.14078">
        <ele>169.64</ele>
        <time>2017-01-22T10:07:19.999Z</time>
      </trkpt>
      <trkpt lat="46.71818" lon="-0.14063">
        <ele>169.46</ele>
        <time>2017-01-22T10:07:21.999Z</time>
      </trkpt>
      <trkpt lat="46.71826" lon="-0.14047">
        <ele>169.1</ele>
        <time>2017-01-22T10:07:23.999Z</time>
      </trkpt>
      <trkpt lat="46.71834" lon="-0.14032">
        <ele>168.81</ele>
        <time>2017-01-22T10:07:25.999Z</time>
      </trkpt>
      <trkpt lat="46.71843" lon="-0.14013">
        <ele>168.42</ele>
        <time>2017-01-22T10:07:27.999Z</time>
      </trkpt>
      <trkpt lat="46.7185" lon="-0.13995">
        <ele>167.65</ele>
        <time>2017-01-22T10:07:29.999Z</time>
      </trkpt>
      <trkpt lat="46.71856" lon="-0.13977">
        <ele>166.75</ele>
        <time>2017-01-22T10:07:31.999Z</time>
      </trkpt>
      <trkpt lat="46.71862" lon="-0.1396">
        <ele>165.86</ele>
        <time>2017-01-22T10:07:33.999Z</time>
      </trkpt>
      <trkpt lat="46.71866" lon="-0.13947">
        <ele>165.18</ele>
        <time>2017-01-22T10:07:35.999Z</time>
      </trkpt>
      <trkpt lat="46.71871" lon="-0.13936">
        <ele>164.85</ele>
        <time>2017-01-22T10:07:37.999Z</time>
      </trkpt>
      <trkpt lat="46.71877" lon="-0.13924">
        <ele>164.86</ele>
        <time>2017-01-22T10:07:39.999Z</time>
      </trkpt>
      <trkpt lat="46.71883" lon="-0.13912">
        <ele>164.93</ele>
        <time>2017-01-22T10:07:41.999Z</time>
      </trkpt>
      <trkpt lat="46.71891" lon="-0.13899">
        <ele>165.02</ele>
        <time>2017-01-22T10:07:43.999Z</time>
      </trkpt>
      <trkpt lat="46.71899" lon="-0.13888">
        <ele>164.95</ele>
        <time>2017-01-22T10:07:45.999Z</time>
      </trkpt>
      <trkpt lat="46.71908" lon="-0.13879">
        <ele>164.93</ele>
        <time>2017-01-22T10:07:47.999Z</time>
      </trkpt>
      <trkpt lat="46.71916" lon="-0.1387">
        <ele>164.97</ele>
        <time>2017-01-22T10:07:49.999Z</time>
      </trkpt>
      <trkpt lat="46.71927" lon="-0.13861">
        <ele>165.18</ele>
        <time>2017-01-22T10:07:52.999Z</time>
      </trkpt>
      <trkpt lat="46.71935" lon="-0.13851">
        <ele>165.2</ele>
        <time>2017-01-22T10:07:55.999Z</time>
      </trkpt>
      <trkpt lat="46.71943" lon="-0.13841">
        <ele>165.28</ele>
        <time>2017-01-22T10:07:59.999Z</time>
      </trkpt>
      <trkpt lat="46.71949" lon="-0.13829">
        <ele>165.44</ele>
        <time>2017-01-22T10:08:04.999Z</time>
      </trkpt>
      <trkpt lat="46.71956" lon="-0.1382">
        <ele>165.6</ele>
        <time>2017-01-22T10:08:09.999Z</time>
      </trkpt>
      <trkpt lat="46.71961" lon="-0.13809">
        <ele>165.76</ele>
        <time>2017-01-22T10:08:14.999Z</time>
      </trkpt>
      <trkpt lat="46.71967" lon="-0.13796">
        <ele>165.96</ele>
        <time>2017-01-22T10:08:21.999Z</time>
      </trkpt>
      <trkpt lat="46.71973" lon="-0.13785">
        <ele>166.1</ele>
        <time>2017-01-22T10:08:27.999Z</time>
      </trkpt>
      <trkpt lat="46.71978" lon="-0.13774">
        <ele>166.25</ele>
        <time>2017-01-22T10:08:32.999Z</time>
      </trkpt>
      <trkpt lat="46.71985" lon="-0.13764">
        <ele>166.39</ele>
        <time>2017-01-22T10:08:36.999Z</time>
      </trkpt>
      <trkpt lat="46.71992" lon="-0.13754">
        <ele>166.69</ele>
        <time>2017-01-22T10:08:42.999Z</time>
      </trkpt>
      <trkpt lat="46.72" lon="-0.13742">
        <ele>167.11</ele>
        <time>2017-01-22T10:08:49.999Z</time>
      </trkpt>
      <trkpt lat="46.72007" lon="-0.13733">
        <ele>167.43</ele>
        <time>2017-01-22T10:08:54.999Z</time>
      </trkpt>
      <trkpt lat="46.72014" lon="-0.13723">
        <ele>167.81</ele>
        <time>2017-01-22T10:08:59.999Z</time>
      </trkpt>
      <trkpt lat="46.72022" lon="-0.13715">
        <ele>168.18</ele>
        <time>2017-01-22T10:09:04.999Z</time>
      </trkpt>
      <trkpt lat="46.7203" lon="-0.13706">
        <ele>168.76</ele>
        <time>2017-01-22T10:09:11.999Z</time>
      </trkpt>
      <trkpt lat="46.72036" lon="-0.13696">
        <ele>169.36</ele>
        <time>2017-01-22T10:09:17.999Z</time>
      </trkpt>
      <trkpt lat="46.72042" lon="-0.13685">
        <ele>169.87</ele>
        <time>2017-01-22T10:09:22.999Z</time>
      </trkpt>
      <trkpt lat="46.7205" lon="-0.13677">
        <ele>170.38</ele>
        <time>2017-01-22T10:09:27.999Z</time>
      </trkpt>
      <trkpt lat="46.72057" lon="-0.13667">
        <ele>170.94</ele>
        <time>2017-01-22T10:09:32.999Z</time>
      </trkpt>
      <trkpt lat="46.72063" lon="-0.13655">
        <ele>171.67</ele>
        <time>2017-01-22T10:09:38.999Z</time>
      </trkpt>
      <trkpt lat="46.7207" lon="-0.13643">
        <ele>172.14</ele>
        <time>2017-01-22T10:09:42.999Z</time>
      </trkpt>
      <trkpt lat="46.72077" lon="-0.13634">
        <ele>172.61</ele>
        <time>2017-01-22T10:09:46.999Z</time>
      </trkpt>
      <trkpt lat="46.72085" lon="-0.13627">
        <ele>173.12</ele>
        <time>2017-01-22T10:09:50.999Z</time>
      </trkpt>
      <trkpt lat="46.72094" lon="-0.13622">
        <ele>173.67</ele>
        <time>2017-01-22T10:09:54.999Z</time>
      </trkpt>
      <trkpt lat="46.72104" lon="-0.13618">
        <ele>174.23</ele>
        <time>2017-01-22T10:09:58.999Z</time>
      </trkpt>
      <trkpt lat="46.72114" lon="-0.13614">
        <ele>174.8</ele>
        <time>2017-01-22T10:10:02.999Z</time>
      </trkpt>
      <trkpt lat="46.72123" lon="-0.1361">
        <ele>175.39</ele>
        <time>2017-01-22T10:10:06.999Z</time>
      </trkpt>
      <trkpt lat="46.72133" lon="-0.13605">
        <ele>175.97</ele>
        <time>2017-01-22T10:10:10.999Z</time>
      </trkpt>
      <trkpt lat="46.72141" lon="-0.13598">
        <ele>176.57</ele>
        <time>2017-01-22T10:10:14.999Z</time>
      </trkpt>
      <trkpt lat="46.72149" lon="-0.1359">
        <ele>177.31</ele>
        <time>2017-01-22T10:10:19.999Z</time>
      </trkpt>
      <trkpt lat="46.72157" lon="-0.13584">
        <ele>178.07</ele>
        <time>2017-01-22T10:10:24.999Z</time>
      </trkpt>
      <trkpt lat="46.72165" lon="-0.13577">
        <ele>179.16</ele>
        <time>2017-01-22T10:10:31.999Z</time>
      </trkpt>
      <trkpt lat="46.72176" lon="-0.13573">
        <ele>180</ele>
        <time>2017-01-22T10:10:36.999Z</time>
      </trkpt>
      <trkpt lat="46.72187" lon="-0.13573">
        <ele>180.84</ele>
        <time>2017-01-22T10:10:41.999Z</time>
      </trkpt>
      <trkpt lat="46.72196" lon="-0.13576">
        <ele>181.76</ele>
        <time>2017-01-22T10:10:47.999Z</time>
      </trkpt>
      <trkpt lat="46.72205" lon="-0.13579">
        <ele>182.35</ele>
        <time>2017-01-22T10:10:51.999Z</time>
      </trkpt>
      <trkpt lat="46.72216" lon="-0.13583">
        <ele>183.08</ele>
        <time>2017-01-22T10:10:56.999Z</time>
      </trkpt>
      <trkpt lat="46.72224" lon="-0.13588">
        <ele>183.97</ele>
        <time>2017-01-22T10:11:02.999Z</time>
      </trkpt>
      <trkpt lat="46.72234" lon="-0.13592">
        <ele>184.57</ele>
        <time>2017-01-22T10:11:06.999Z</time>
      </trkpt>
      <trkpt lat="46.72245" lon="-0.13597">
        <ele>185.16</ele>
        <time>2017-01-22T10:11:10.999Z</time>
      </trkpt>
      <trkpt lat="46.72256" lon="-0.13601">
        <ele>185.71</ele>
        <time>2017-01-22T10:11:14.999Z</time>
      </trkpt>
      <trkpt lat="46.72267" lon="-0.13603">
        <ele>186.1</ele>
        <time>2017-01-22T10:11:17.999Z</time>
      </trkpt>
      <trkpt lat="46.72279" lon="-0.13598">
        <ele>189.11</ele>
        <time>2017-01-22T10:11:20.999Z</time>
      </trkpt>
      <trkpt lat="46.72287" lon="-0.13592">
        <ele>190.21</ele>
        <time>2017-01-22T10:11:22.999Z</time>
      </trkpt>
      <trkpt lat="46.72297" lon="-0.13586">
        <ele>190.85</ele>
        <time>2017-01-22T10:11:24.999Z</time>
      </trkpt>
      <trkpt lat="46.72312" lon="-0.13578">
        <ele>191.16</ele>
        <time>2017-01-22T10:11:26.999Z</time>
      </trkpt>
      <trkpt lat="46.72327" lon="-0.13569">
        <ele>191.22</ele>
        <time>2017-01-22T10:11:28.999Z</time>
      </trkpt>
      <trkpt lat="46.72343" lon="-0.13563">
        <ele>191.14</ele>
        <time>2017-01-22T10:11:30.999Z</time>
      </trkpt>
      <trkpt lat="46.72356" lon="-0.13557">
        <ele>190.97</ele>
        <time>2017-01-22T10:11:32.999Z</time>
      </trkpt>
      <trkpt lat="46.72369" lon="-0.13552">
        <ele>190.72</ele>
        <time>2017-01-22T10:11:34.999Z</time>
      </trkpt>
      <trkpt lat="46.7238" lon="-0.13546">
        <ele>190.47</ele>
        <time>2017-01-22T10:11:36.999Z</time>
      </trkpt>
      <trkpt lat="46.72391" lon="-0.13539">
        <ele>190.19</ele>
        <time>2017-01-22T10:11:38.999Z</time>
      </trkpt>
      <trkpt lat="46.72399" lon="-0.13534">
        <ele>190.12</ele>
        <time>2017-01-22T10:11:40.999Z</time>
      </trkpt>
      <trkpt lat="46.72408" lon="-0.13528">
        <ele>190.1</ele>
        <time>2017-01-22T10:11:43.999Z</time>
      </trkpt>
      <trkpt lat="46.7242" lon="-0.13521">
        <ele>190.08</ele>
        <time>2017-01-22T10:11:47.999Z</time>
      </trkpt>
      <trkpt lat="46.72433" lon="-0.13518">
        <ele>190.15</ele>
        <time>2017-01-22T10:11:50.999Z</time>
      </trkpt>
      <trkpt lat="46.72442" lon="-0.13517">
        <ele>190.42</ele>
        <time>2017-01-22T10:11:52.999Z</time>
      </trkpt>
      <trkpt lat="46.72455" lon="-0.13516">
        <ele>190.91</ele>
        <time>2017-01-22T10:11:55.999Z</time>
      </trkpt>
      <trkpt lat="46.72465" lon="-0.13515">
        <ele>191.31</ele>
        <time>2017-01-22T10:11:57.999Z</time>
      </trkpt>
      <trkpt lat="46.72474" lon="-0.13514">
        <ele>191.58</ele>
        <time>2017-01-22T10:11:59.999Z</time>
      </trkpt>
      <trkpt lat="46.72483" lon="-0.13512">
        <ele>191.69</ele>
        <time>2017-01-22T10:12:01.999Z</time>
      </trkpt>
      <trkpt lat="46.72493" lon="-0.1351">
        <ele>191.73</ele>
        <time>2017-01-22T10:12:03.999Z</time>
      </trkpt>
      <trkpt lat="46.72503" lon="-0.13508">
        <ele>191.68</ele>
        <time>2017-01-22T10:12:05.999Z</time>
      </trkpt>
      <trkpt lat="46.72512" lon="-0.13506">
        <ele>191.65</ele>
        <time>2017-01-22T10:12:07.999Z</time>
      </trkpt>
      <trkpt lat="46.72521" lon="-0.13505">
        <ele>191.59</ele>
        <time>2017-01-22T10:12:09.999Z</time>
      </trkpt>
      <trkpt lat="46.72535" lon="-0.13502">
        <ele>191.51</ele>
        <time>2017-01-22T10:12:12.999Z</time>
      </trkpt>
      <trkpt lat="46.72548" lon="-0.13501">
        <ele>191.49</ele>
        <time>2017-01-22T10:12:15.999Z</time>
      </trkpt>
      <trkpt lat="46.72561" lon="-0.13503">
        <ele>191.46</ele>
        <time>2017-01-22T10:12:18.999Z</time>
      </trkpt>
      <trkpt lat="46.72572" lon="-0.13507">
        <ele>191.45</ele>
        <time>2017-01-22T10:12:21.999Z</time>
      </trkpt>
      <trkpt lat="46.72583" lon="-0.13513">
        <ele>191.45</ele>
        <time>2017-01-22T10:12:24.999Z</time>
      </trkpt>
      <trkpt lat="46.72593" lon="-0.13517">
        <ele>191.44</ele>
        <time>2017-01-22T10:12:27.999Z</time>
      </trkpt>
      <trkpt lat="46.72606" lon="-0.13524">
        <ele>191.37</ele>
        <time>2017-01-22T10:12:30.999Z</time>
      </trkpt>
      <trkpt lat="46.72614" lon="-0.13528">
        <ele>191.32</ele>
        <time>2017-01-22T10:12:32.999Z</time>
      </trkpt>
      <trkpt lat="46.72623" lon="-0.13533">
        <ele>191.29</ele>
        <time>2017-01-22T10:12:34.999Z</time>
      </trkpt>
      <trkpt lat="46.72632" lon="-0.13537">
        <ele>191.28</ele>
        <time>2017-01-22T10:12:36.999Z</time>
      </trkpt>
      <trkpt lat="46.72641" lon="-0.1354">
        <ele>191.29</ele>
        <time>2017-01-22T10:12:38.999Z</time>
      </trkpt>
      <trkpt lat="46.72654" lon="-0.13541">
        <ele>191.25</ele>
        <time>2017-01-22T10:12:41.999Z</time>
      </trkpt>
      <trkpt lat="46.72667" lon="-0.13539">
        <ele>191.3</ele>
        <time>2017-01-22T10:12:44.999Z</time>
      </trkpt>
      <trkpt lat="46.72679" lon="-0.13539">
        <ele>191.38</ele>
        <time>2017-01-22T10:12:47.999Z</time>
      </trkpt>
      <trkpt lat="46.72689" lon="-0.13539">
        <ele>191.4</ele>
        <time>2017-01-22T10:12:50.999Z</time>
      </trkpt>
      <trkpt lat="46.72699" lon="-0.13546">
        <ele>191.41</ele>
        <time>2017-01-22T10:12:54.999Z</time>
      </trkpt>
      <trkpt lat="46.72701" lon="-0.1356">
        <ele>191.17</ele>
        <time>2017-01-22T10:12:56.999Z</time>
      </trkpt>
      <trkpt lat="46.72698" lon="-0.13574">
        <ele>190.88</ele>
        <time>2017-01-22T10:12:58.999Z</time>
      </trkpt>
      <trkpt lat="46.72697" lon="-0.13588">
        <ele>190.52</ele>
        <time>2017-01-22T10:13:00.999Z</time>
      </trkpt>
      <trkpt lat="46.72693" lon="-0.13606">
        <ele>190.12</ele>
        <time>2017-01-22T10:13:02.999Z</time>
      </trkpt>
      <trkpt lat="46.72684" lon="-0.13621">
        <ele>189.57</ele>
        <time>2017-01-22T10:13:04.999Z</time>
      </trkpt>
      <trkpt lat="46.72673" lon="-0.13631">
        <ele>189.08</ele>
        <time>2017-01-22T10:13:06.999Z</time>
      </trkpt>
      <trkpt lat="46.72665" lon="-0.13641">
        <ele>188.78</ele>
        <time>2017-01-22T10:13:08.999Z</time>
      </trkpt>
      <trkpt lat="46.72667" lon="-0.13654">
        <ele>188.74</ele>
        <time>2017-01-22T10:13:10.999Z</time>
      </trkpt>
      <trkpt lat="46.72671" lon="-0.13667">
        <ele>188.75</ele>
        <time>2017-01-22T10:13:12.999Z</time>
      </trkpt>
      <trkpt lat="46.72675" lon="-0.1368">
        <ele>188.84</ele>
        <time>2017-01-22T10:13:14.999Z</time>
      </trkpt>
      <trkpt lat="46.72679" lon="-0.13693">
        <ele>188.82</ele>
        <time>2017-01-22T10:13:16.999Z</time>
      </trkpt>
      <trkpt lat="46.72683" lon="-0.13706">
        <ele>188.91</ele>
        <time>2017-01-22T10:13:18.999Z</time>
      </trkpt>
      <trkpt lat="46.72686" lon="-0.13719">
        <ele>188.99</ele>
        <time>2017-01-22T10:13:20.999Z</time>
      </trkpt>
      <trkpt lat="46.72689" lon="-0.13732">
        <ele>189.05</ele>
        <time>2017-01-22T10:13:22.999Z</time>
      </trkpt>
      <trkpt lat="46.72692" lon="-0.13745">
        <ele>189.13</ele>
        <time>2017-01-22T10:13:24.999Z</time>
      </trkpt>
      <trkpt lat="46.72695" lon="-0.13759">
        <ele>189.33</ele>
        <time>2017-01-22T10:13:26.999Z</time>
      </trkpt>
      <trkpt lat="46.72698" lon="-0.13773">
        <ele>189.67</ele>
        <time>2017-01-22T10:13:28.999Z</time>
      </trkpt>
      <trkpt lat="46.72703" lon="-0.1379">
        <ele>190.08</ele>
        <time>2017-01-22T10:13:31.999Z</time>
      </trkpt>
      <trkpt lat="46.72707" lon="-0.13804">
        <ele>190.34</ele>
        <time>2017-01-22T10:13:34.999Z</time>
      </trkpt>
      <trkpt lat="46.72711" lon="-0.13818">
        <ele>190.37</ele>
        <time>2017-01-22T10:13:37.999Z</time>
      </trkpt>
      <trkpt lat="46.72715" lon="-0.13836">
        <ele>190.64</ele>
        <time>2017-01-22T10:13:40.999Z</time>
      </trkpt>
      <trkpt lat="46.72719" lon="-0.13854">
        <ele>190.73</ele>
        <time>2017-01-22T10:13:43.999Z</time>
      </trkpt>
      <trkpt lat="46.72722" lon="-0.13867">
        <ele>190.68</ele>
        <time>2017-01-22T10:13:45.999Z</time>
      </trkpt>
      <trkpt lat="46.72724" lon="-0.13881">
        <ele>190.59</ele>
        <time>2017-01-22T10:13:47.999Z</time>
      </trkpt>
      <trkpt lat="46.7273" lon="-0.13898">
        <ele>190.58</ele>
        <time>2017-01-22T10:13:50.999Z</time>
      </trkpt>
      <trkpt lat="46.72736" lon="-0.1391">
        <ele>190.41</ele>
        <time>2017-01-22T10:13:52.999Z</time>
      </trkpt>
      <trkpt lat="46.72743" lon="-0.13923">
        <ele>190.29</ele>
        <time>2017-01-22T10:13:54.999Z</time>
      </trkpt>
      <trkpt lat="46.72749" lon="-0.13933">
        <ele>190.24</ele>
        <time>2017-01-22T10:13:55.999Z</time>
      </trkpt>
      <trkpt lat="46.72759" lon="-0.13949">
        <ele>190.12</ele>
        <time>2017-01-22T10:13:57.999Z</time>
      </trkpt>
      <trkpt lat="46.72767" lon="-0.13964">
        <ele>190.04</ele>
        <time>2017-01-22T10:13:59.999Z</time>
      </trkpt>
      <trkpt lat="46.72775" lon="-0.13979">
        <ele>190.01</ele>
        <time>2017-01-22T10:14:01.999Z</time>
      </trkpt>
      <trkpt lat="46.72784" lon="-0.13995">
        <ele>190.03</ele>
        <time>2017-01-22T10:14:03.999Z</time>
      </trkpt>
      <trkpt lat="46.72791" lon="-0.14009">
        <ele>190.06</ele>
        <time>2017-01-22T10:14:05.999Z</time>
      </trkpt>
      <trkpt lat="46.72798" lon="-0.14023">
        <ele>190.02</ele>
        <time>2017-01-22T10:14:07.999Z</time>
      </trkpt>
      <trkpt lat="46.72805" lon="-0.14035">
        <ele>190.09</ele>
        <time>2017-01-22T10:14:09.999Z</time>
      </trkpt>
      <trkpt lat="46.72813" lon="-0.14048">
        <ele>190.29</ele>
        <time>2017-01-22T10:14:11.999Z</time>
      </trkpt>
      <trkpt lat="46.72821" lon="-0.14061">
        <ele>190.5</ele>
        <time>2017-01-22T10:14:13.999Z</time>
      </trkpt>
      <trkpt lat="46.72825" lon="-0.14079">
        <ele>190.49</ele>
        <time>2017-01-22T10:14:16.999Z</time>
      </trkpt>
      <trkpt lat="46.72818" lon="-0.14091">
        <ele>190.46</ele>
        <time>2017-01-22T10:14:18.999Z</time>
      </trkpt>
      <trkpt lat="46.72813" lon="-0.14106">
        <ele>190.11</ele>
        <time>2017-01-22T10:14:20.999Z</time>
      </trkpt>
      <trkpt lat="46.72806" lon="-0.14126">
        <ele>189.64</ele>
        <time>2017-01-22T10:14:22.999Z</time>
      </trkpt>
      <trkpt lat="46.72799" lon="-0.14148">
        <ele>189.1</ele>
        <time>2017-01-22T10:14:24.999Z</time>
      </trkpt>
      <trkpt lat="46.72793" lon="-0.14169">
        <ele>188.61</ele>
        <time>2017-01-22T10:14:26.999Z</time>
      </trkpt>
      <trkpt lat="46.72789" lon="-0.14191">
        <ele>188.36</ele>
        <time>2017-01-22T10:14:28.999Z</time>
      </trkpt>
      <trkpt lat="46.72784" lon="-0.14212">
        <ele>188.27</ele>
        <time>2017-01-22T10:14:30.999Z</time>
      </trkpt>
      <trkpt lat="46.7278" lon="-0.14234">
        <ele>188.21</ele>
        <time>2017-01-22T10:14:32.999Z</time>
      </trkpt>
      <trkpt lat="46.72776" lon="-0.14258">
        <ele>188.23</ele>
        <time>2017-01-22T10:14:34.999Z</time>
      </trkpt>
      <trkpt lat="46.72772" lon="-0.14283">
        <ele>188.37</ele>
        <time>2017-01-22T10:14:36.999Z</time>
      </trkpt>
      <trkpt lat="46.72769" lon="-0.14296">
        <ele>188.34</ele>
        <time>2017-01-22T10:14:37.999Z</time>
      </trkpt>
      <trkpt lat="46.72766" lon="-0.14308">
        <ele>188.31</ele>
        <time>2017-01-22T10:14:38.999Z</time>
      </trkpt>
      <trkpt lat="46.72759" lon="-0.14331">
        <ele>187.46</ele>
        <time>2017-01-22T10:14:40.999Z</time>
      </trkpt>
      <trkpt lat="46.72751" lon="-0.14353">
        <ele>186.11</ele>
        <time>2017-01-22T10:14:42.999Z</time>
      </trkpt>
      <trkpt lat="46.72744" lon="-0.14374">
        <ele>184.42</ele>
        <time>2017-01-22T10:14:44.999Z</time>
      </trkpt>
      <trkpt lat="46.72736" lon="-0.14393">
        <ele>183.39</ele>
        <time>2017-01-22T10:14:46.999Z</time>
      </trkpt>
      <trkpt lat="46.72724" lon="-0.14413">
        <ele>182.2</ele>
        <time>2017-01-22T10:14:48.999Z</time>
      </trkpt>
      <trkpt lat="46.72717" lon="-0.14424">
        <ele>181.44</ele>
        <time>2017-01-22T10:14:49.999Z</time>
      </trkpt>
      <trkpt lat="46.7271" lon="-0.14435">
        <ele>180.78</ele>
        <time>2017-01-22T10:14:50.999Z</time>
      </trkpt>
      <trkpt lat="46.72703" lon="-0.14446">
        <ele>180.24</ele>
        <time>2017-01-22T10:14:51.999Z</time>
      </trkpt>
      <trkpt lat="46.72696" lon="-0.14456">
        <ele>179.75</ele>
        <time>2017-01-22T10:14:52.999Z</time>
      </trkpt>
      <trkpt lat="46.72689" lon="-0.14467">
        <ele>179.35</ele>
        <time>2017-01-22T10:14:53.999Z</time>
      </trkpt>
      <trkpt lat="46.72683" lon="-0.14478">
        <ele>179.04</ele>
        <time>2017-01-22T10:14:54.999Z</time>
      </trkpt>
      <trkpt lat="46.72676" lon="-0.14488">
        <ele>178.81</ele>
        <time>2017-01-22T10:14:55.999Z</time>
      </trkpt>
      <trkpt lat="46.7267" lon="-0.14498">
        <ele>178.62</ele>
        <time>2017-01-22T10:14:56.999Z</time>
      </trkpt>
      <trkpt lat="46.72663" lon="-0.14509">
        <ele>178.39</ele>
        <time>2017-01-22T10:14:57.999Z</time>
      </trkpt>
      <trkpt lat="46.72657" lon="-0.14519">
        <ele>178.13</ele>
        <time>2017-01-22T10:14:58.999Z</time>
      </trkpt>
      <trkpt lat="46.7265" lon="-0.14529">
        <ele>177.81</ele>
        <time>2017-01-22T10:14:59.999Z</time>
      </trkpt>
      <trkpt lat="46.72643" lon="-0.14539">
        <ele>177.53</ele>
        <time>2017-01-22T10:15:00.999Z</time>
      </trkpt>
      <trkpt lat="46.72637" lon="-0.14549">
        <ele>177.23</ele>
        <time>2017-01-22T10:15:01.999Z</time>
      </trkpt>
      <trkpt lat="46.72631" lon="-0.14559">
        <ele>176.62</ele>
        <time>2017-01-22T10:15:02.999Z</time>
      </trkpt>
      <trkpt lat="46.72625" lon="-0.14569">
        <ele>176.01</ele>
        <time>2017-01-22T10:15:03.999Z</time>
      </trkpt>
      <trkpt lat="46.72613" lon="-0.14588">
        <ele>174.79</ele>
        <time>2017-01-22T10:15:05.999Z</time>
      </trkpt>
      <trkpt lat="46.72601" lon="-0.14607">
        <ele>173.78</ele>
        <time>2017-01-22T10:15:07.999Z</time>
      </trkpt>
      <trkpt lat="46.72589" lon="-0.14623">
        <ele>172.68</ele>
        <time>2017-01-22T10:15:09.999Z</time>
      </trkpt>
      <trkpt lat="46.72578" lon="-0.14637">
        <ele>171.73</ele>
        <time>2017-01-22T10:15:11.999Z</time>
      </trkpt>
      <trkpt lat="46.72565" lon="-0.14652">
        <ele>171.05</ele>
        <time>2017-01-22T10:15:13.999Z</time>
      </trkpt>
      <trkpt lat="46.72552" lon="-0.14665">
        <ele>170.7</ele>
        <time>2017-01-22T10:15:15.999Z</time>
      </trkpt>
      <trkpt lat="46.72541" lon="-0.14681">
        <ele>170.38</ele>
        <time>2017-01-22T10:15:17.999Z</time>
      </trkpt>
      <trkpt lat="46.7253" lon="-0.14696">
        <ele>170.1</ele>
        <time>2017-01-22T10:15:19.999Z</time>
      </trkpt>
      <trkpt lat="46.72518" lon="-0.14712">
        <ele>169.68</ele>
        <time>2017-01-22T10:15:21.999Z</time>
      </trkpt>
      <trkpt lat="46.72508" lon="-0.14727">
        <ele>169.06</ele>
        <time>2017-01-22T10:15:23.999Z</time>
      </trkpt>
      <trkpt lat="46.72498" lon="-0.14741">
        <ele>168.4</ele>
        <time>2017-01-22T10:15:25.999Z</time>
      </trkpt>
      <trkpt lat="46.72488" lon="-0.14757">
        <ele>168.06</ele>
        <time>2017-01-22T10:15:27.999Z</time>
      </trkpt>
      <trkpt lat="46.72477" lon="-0.14772">
        <ele>168.13</ele>
        <time>2017-01-22T10:15:29.999Z</time>
      </trkpt>
      <trkpt lat="46.72467" lon="-0.14784">
        <ele>167.9</ele>
        <time>2017-01-22T10:15:31.999Z</time>
      </trkpt>
      <trkpt lat="46.72455" lon="-0.14791">
        <ele>167.89</ele>
        <time>2017-01-22T10:15:33.999Z</time>
      </trkpt>
      <trkpt lat="46.72442" lon="-0.14797">
        <ele>167.31</ele>
        <time>2017-01-22T10:15:35.999Z</time>
      </trkpt>
      <trkpt lat="46.72428" lon="-0.14803">
        <ele>166.86</ele>
        <time>2017-01-22T10:15:37.999Z</time>
      </trkpt>
      <trkpt lat="46.72416" lon="-0.14809">
        <ele>166.56</ele>
        <time>2017-01-22T10:15:39.999Z</time>
      </trkpt>
      <trkpt lat="46.72403" lon="-0.14815">
        <ele>166.31</ele>
        <time>2017-01-22T10:15:41.999Z</time>
      </trkpt>
      <trkpt lat="46.7239" lon="-0.14821">
        <ele>166.2</ele>
        <time>2017-01-22T10:15:43.999Z</time>
      </trkpt>
      <trkpt lat="46.72377" lon="-0.14827">
        <ele>165.91</ele>
        <time>2017-01-22T10:15:45.999Z</time>
      </trkpt>
      <trkpt lat="46.72364" lon="-0.14832">
        <ele>165.55</ele>
        <time>2017-01-22T10:15:47.999Z</time>
      </trkpt>
      <trkpt lat="46.72352" lon="-0.14837">
        <ele>165.31</ele>
        <time>2017-01-22T10:15:49.999Z</time>
      </trkpt>
      <trkpt lat="46.72342" lon="-0.14843">
        <ele>165.06</ele>
        <time>2017-01-22T10:15:51.999Z</time>
      </trkpt>
      <trkpt lat="46.72332" lon="-0.1485">
        <ele>165.25</ele>
        <time>2017-01-22T10:15:53.999Z</time>
      </trkpt>
      <trkpt lat="46.72321" lon="-0.14858">
        <ele>165.62</ele>
        <time>2017-01-22T10:15:55.999Z</time>
      </trkpt>
      <trkpt lat="46.7231" lon="-0.14865">
        <ele>166.23</ele>
        <time>2017-01-22T10:15:57.999Z</time>
      </trkpt>
      <trkpt lat="46.72301" lon="-0.14871">
        <ele>166.8</ele>
        <time>2017-01-22T10:15:59.999Z</time>
      </trkpt>
      <trkpt lat="46.72292" lon="-0.14877">
        <ele>167.15</ele>
        <time>2017-01-22T10:16:01.999Z</time>
      </trkpt>
      <trkpt lat="46.72284" lon="-0.14886">
        <ele>167.22</ele>
        <time>2017-01-22T10:16:04.999Z</time>
      </trkpt>
      <trkpt lat="46.72285" lon="-0.14899">
        <ele>167.26</ele>
        <time>2017-01-22T10:16:07.999Z</time>
      </trkpt>
      <trkpt lat="46.72289" lon="-0.14911">
        <ele>167.06</ele>
        <time>2017-01-22T10:16:09.999Z</time>
      </trkpt>
      <trkpt lat="46.72292" lon="-0.14925">
        <ele>166.64</ele>
        <time>2017-01-22T10:16:11.999Z</time>
      </trkpt>
      <trkpt lat="46.72295" lon="-0.14938">
        <ele>165.37</ele>
        <time>2017-01-22T10:16:13.999Z</time>
      </trkpt>
      <trkpt lat="46.72297" lon="-0.14953">
        <ele>164.33</ele>
        <time>2017-01-22T10:16:15.999Z</time>
      </trkpt>
      <trkpt lat="46.723" lon="-0.14967">
        <ele>163.39</ele>
        <time>2017-01-22T10:16:17.999Z</time>
      </trkpt>
      <trkpt lat="46.72304" lon="-0.14981">
        <ele>162.63</ele>
        <time>2017-01-22T10:16:19.999Z</time>
      </trkpt>
      <trkpt lat="46.72308" lon="-0.14995">
        <ele>162.13</ele>
        <time>2017-01-22T10:16:21.999Z</time>
      </trkpt>
      <trkpt lat="46.72312" lon="-0.15008">
        <ele>161.8</ele>
        <time>2017-01-22T10:16:23.999Z</time>
      </trkpt>
      <trkpt lat="46.72319" lon="-0.15021">
        <ele>161.56</ele>
        <time>2017-01-22T10:16:25.999Z</time>
      </trkpt>
      <trkpt lat="46.72326" lon="-0.15034">
        <ele>161.39</ele>
        <time>2017-01-22T10:16:27.999Z</time>
      </trkpt>
      <trkpt lat="46.72334" lon="-0.15046">
        <ele>161.23</ele>
        <time>2017-01-22T10:16:29.999Z</time>
      </trkpt>
      <trkpt lat="46.72342" lon="-0.15057">
        <ele>161.04</ele>
        <time>2017-01-22T10:16:31.999Z</time>
      </trkpt>
      <trkpt lat="46.72351" lon="-0.15068">
        <ele>160.88</ele>
        <time>2017-01-22T10:16:33.999Z</time>
      </trkpt>
      <trkpt lat="46.72359" lon="-0.15079">
        <ele>160.72</ele>
        <time>2017-01-22T10:16:35.999Z</time>
      </trkpt>
      <trkpt lat="46.72367" lon="-0.1509">
        <ele>160.58</ele>
        <time>2017-01-22T10:16:37.999Z</time>
      </trkpt>
      <trkpt lat="46.72376" lon="-0.15101">
        <ele>160.39</ele>
        <time>2017-01-22T10:16:39.999Z</time>
      </trkpt>
      <trkpt lat="46.72384" lon="-0.15113">
        <ele>160.14</ele>
        <time>2017-01-22T10:16:41.999Z</time>
      </trkpt>
      <trkpt lat="46.72393" lon="-0.15125">
        <ele>159.93</ele>
        <time>2017-01-22T10:16:43.999Z</time>
      </trkpt>
      <trkpt lat="46.72401" lon="-0.15137">
        <ele>159.72</ele>
        <time>2017-01-22T10:16:45.999Z</time>
      </trkpt>
      <trkpt lat="46.72408" lon="-0.15147">
        <ele>159.47</ele>
        <time>2017-01-22T10:16:47.999Z</time>
      </trkpt>
      <trkpt lat="46.72417" lon="-0.15159">
        <ele>159.25</ele>
        <time>2017-01-22T10:16:49.999Z</time>
      </trkpt>
      <trkpt lat="46.72426" lon="-0.15171">
        <ele>159.03</ele>
        <time>2017-01-22T10:16:51.999Z</time>
      </trkpt>
      <trkpt lat="46.72434" lon="-0.15181">
        <ele>158.77</ele>
        <time>2017-01-22T10:16:53.999Z</time>
      </trkpt>
      <trkpt lat="46.72442" lon="-0.1519">
        <ele>158.56</ele>
        <time>2017-01-22T10:16:55.999Z</time>
      </trkpt>
      <trkpt lat="46.7245" lon="-0.15199">
        <ele>158.32</ele>
        <time>2017-01-22T10:16:57.999Z</time>
      </trkpt>
      <trkpt lat="46.72458" lon="-0.15209">
        <ele>158.1</ele>
        <time>2017-01-22T10:16:59.999Z</time>
      </trkpt>
      <trkpt lat="46.72467" lon="-0.15219">
        <ele>157.87</ele>
        <time>2017-01-22T10:17:01.999Z</time>
      </trkpt>
      <trkpt lat="46.72477" lon="-0.15229">
        <ele>157.52</ele>
        <time>2017-01-22T10:17:03.999Z</time>
      </trkpt>
      <trkpt lat="46.72487" lon="-0.15239">
        <ele>157.1</ele>
        <time>2017-01-22T10:17:05.999Z</time>
      </trkpt>
      <trkpt lat="46.72496" lon="-0.15248">
        <ele>156.71</ele>
        <time>2017-01-22T10:17:07.999Z</time>
      </trkpt>
      <trkpt lat="46.72504" lon="-0.15257">
        <ele>156.35</ele>
        <time>2017-01-22T10:17:09.999Z</time>
      </trkpt>
      <trkpt lat="46.72513" lon="-0.15266">
        <ele>156.05</ele>
        <time>2017-01-22T10:17:11.999Z</time>
      </trkpt>
      <trkpt lat="46.72522" lon="-0.15275">
        <ele>155.74</ele>
        <time>2017-01-22T10:17:13.999Z</time>
      </trkpt>
      <trkpt lat="46.72531" lon="-0.15284">
        <ele>155.45</ele>
        <time>2017-01-22T10:17:15.999Z</time>
      </trkpt>
      <trkpt lat="46.7254" lon="-0.15293">
        <ele>155.15</ele>
        <time>2017-01-22T10:17:17.999Z</time>
      </trkpt>
      <trkpt lat="46.72551" lon="-0.15301">
        <ele>154.87</ele>
        <time>2017-01-22T10:17:19.999Z</time>
      </trkpt>
      <trkpt lat="46.72561" lon="-0.15308">
        <ele>154.58</ele>
        <time>2017-01-22T10:17:21.999Z</time>
      </trkpt>
      <trkpt lat="46.72572" lon="-0.15315">
        <ele>154.33</ele>
        <time>2017-01-22T10:17:23.999Z</time>
      </trkpt>
      <trkpt lat="46.72582" lon="-0.1532">
        <ele>154.19</ele>
        <time>2017-01-22T10:17:25.999Z</time>
      </trkpt>
      <trkpt lat="46.72593" lon="-0.15325">
        <ele>154.05</ele>
        <time>2017-01-22T10:17:27.999Z</time>
      </trkpt>
      <trkpt lat="46.72604" lon="-0.15328">
        <ele>153.86</ele>
        <time>2017-01-22T10:17:29.999Z</time>
      </trkpt>
      <trkpt lat="46.72617" lon="-0.1533">
        <ele>153.58</ele>
        <time>2017-01-22T10:17:31.999Z</time>
      </trkpt>
      <trkpt lat="46.72628" lon="-0.15331">
        <ele>153.23</ele>
        <time>2017-01-22T10:17:33.999Z</time>
      </trkpt>
      <trkpt lat="46.72638" lon="-0.15333">
        <ele>152.89</ele>
        <time>2017-01-22T10:17:35.999Z</time>
      </trkpt>
      <trkpt lat="46.72649" lon="-0.15335">
        <ele>152.6</ele>
        <time>2017-01-22T10:17:37.999Z</time>
      </trkpt>
      <trkpt lat="46.7266" lon="-0.15337">
        <ele>152.28</ele>
        <time>2017-01-22T10:17:39.999Z</time>
      </trkpt>
      <trkpt lat="46.7267" lon="-0.15339">
        <ele>151.97</ele>
        <time>2017-01-22T10:17:41.999Z</time>
      </trkpt>
      <trkpt lat="46.72681" lon="-0.15341">
        <ele>151.7</ele>
        <time>2017-01-22T10:17:43.999Z</time>
      </trkpt>
      <trkpt lat="46.72693" lon="-0.15343">
        <ele>151.43</ele>
        <time>2017-01-22T10:17:45.999Z</time>
      </trkpt>
      <trkpt lat="46.72703" lon="-0.15345">
        <ele>151.12</ele>
        <time>2017-01-22T10:17:47.999Z</time>
      </trkpt>
      <trkpt lat="46.72714" lon="-0.15346">
        <ele>150.81</ele>
        <time>2017-01-22T10:17:49.999Z</time>
      </trkpt>
      <trkpt lat="46.72725" lon="-0.15348">
        <ele>150.56</ele>
        <time>2017-01-22T10:17:51.999Z</time>
      </trkpt>
      <trkpt lat="46.72735" lon="-0.15351">
        <ele>150.35</ele>
        <time>2017-01-22T10:17:53.999Z</time>
      </trkpt>
      <trkpt lat="46.72746" lon="-0.15352">
        <ele>150.17</ele>
        <time>2017-01-22T10:17:55.999Z</time>
      </trkpt>
      <trkpt lat="46.72755" lon="-0.15354">
        <ele>150.03</ele>
        <time>2017-01-22T10:17:57.999Z</time>
      </trkpt>
      <trkpt lat="46.72765" lon="-0.15355">
        <ele>149.89</ele>
        <time>2017-01-22T10:17:59.999Z</time>
      </trkpt>
      <trkpt lat="46.72776" lon="-0.15356">
        <ele>149.77</ele>
        <time>2017-01-22T10:18:01.999Z</time>
      </trkpt>
      <trkpt lat="46.72787" lon="-0.15357">
        <ele>149.64</ele>
        <time>2017-01-22T10:18:03.999Z</time>
      </trkpt>
      <trkpt lat="46.72798" lon="-0.15356">
        <ele>149.54</ele>
        <time>2017-01-22T10:18:05.999Z</time>
      </trkpt>
      <trkpt lat="46.72808" lon="-0.15355">
        <ele>149.51</ele>
        <time>2017-01-22T10:18:07.999Z</time>
      </trkpt>
      <trkpt lat="46.72818" lon="-0.15355">
        <ele>149.48</ele>
        <time>2017-01-22T10:18:09.999Z</time>
      </trkpt>
      <trkpt lat="46.72828" lon="-0.15357">
        <ele>149.42</ele>
        <time>2017-01-22T10:18:11.999Z</time>
      </trkpt>
      <trkpt lat="46.7284" lon="-0.15366">
        <ele>149.41</ele>
        <time>2017-01-22T10:18:14.999Z</time>
      </trkpt>
      <trkpt lat="46.7285" lon="-0.15375">
        <ele>149.56</ele>
        <time>2017-01-22T10:18:17.999Z</time>
      </trkpt>
      <trkpt lat="46.72858" lon="-0.15382">
        <ele>149.71</ele>
        <time>2017-01-22T10:18:19.999Z</time>
      </trkpt>
      <trkpt lat="46.72866" lon="-0.15391">
        <ele>149.93</ele>
        <time>2017-01-22T10:18:21.999Z</time>
      </trkpt>
      <trkpt lat="46.72875" lon="-0.15401">
        <ele>150.15</ele>
        <time>2017-01-22T10:18:23.999Z</time>
      </trkpt>
      <trkpt lat="46.72883" lon="-0.15411">
        <ele>150.36</ele>
        <time>2017-01-22T10:18:25.999Z</time>
      </trkpt>
      <trkpt lat="46.72892" lon="-0.1542">
        <ele>150.54</ele>
        <time>2017-01-22T10:18:27.999Z</time>
      </trkpt>
      <trkpt lat="46.72903" lon="-0.15433">
        <ele>150.78</ele>
        <time>2017-01-22T10:18:30.999Z</time>
      </trkpt>
      <trkpt lat="46.72911" lon="-0.15442">
        <ele>151.07</ele>
        <time>2017-01-22T10:18:32.999Z</time>
      </trkpt>
      <trkpt lat="46.72919" lon="-0.1545">
        <ele>151.43</ele>
        <time>2017-01-22T10:18:34.999Z</time>
      </trkpt>
      <trkpt lat="46.72926" lon="-0.15457">
        <ele>151.82</ele>
        <time>2017-01-22T10:18:36.999Z</time>
      </trkpt>
      <trkpt lat="46.72935" lon="-0.15463">
        <ele>152.24</ele>
        <time>2017-01-22T10:18:38.999Z</time>
      </trkpt>
      <trkpt lat="46.72944" lon="-0.15467">
        <ele>152.61</ele>
        <time>2017-01-22T10:18:40.999Z</time>
      </trkpt>
      <trkpt lat="46.72954" lon="-0.15467">
        <ele>152.65</ele>
        <time>2017-01-22T10:18:42.999Z</time>
      </trkpt>
      <trkpt lat="46.72965" lon="-0.1547">
        <ele>152.89</ele>
        <time>2017-01-22T10:18:45.999Z</time>
      </trkpt>
      <trkpt lat="46.72974" lon="-0.15473">
        <ele>152.94</ele>
        <time>2017-01-22T10:18:48.999Z</time>
      </trkpt>
      <trkpt lat="46.72984" lon="-0.15476">
        <ele>153.02</ele>
        <time>2017-01-22T10:18:52.999Z</time>
      </trkpt>
      <trkpt lat="46.72996" lon="-0.15481">
        <ele>153.1</ele>
        <time>2017-01-22T10:18:56.999Z</time>
      </trkpt>
      <trkpt lat="46.73008" lon="-0.15485">
        <ele>153.16</ele>
        <time>2017-01-22T10:19:01.999Z</time>
      </trkpt>
      <trkpt lat="46.73019" lon="-0.15492">
        <ele>153.26</ele>
        <time>2017-01-22T10:19:04.999Z</time>
      </trkpt>
      <trkpt lat="46.73028" lon="-0.15498">
        <ele>153.23</ele>
        <time>2017-01-22T10:19:06.999Z</time>
      </trkpt>
      <trkpt lat="46.73038" lon="-0.15507">
        <ele>153.14</ele>
        <time>2017-01-22T10:19:08.999Z</time>
      </trkpt>
      <trkpt lat="46.7304" lon="-0.15524">
        <ele>153.12</ele>
        <time>2017-01-22T10:19:11.999Z</time>
      </trkpt>
      <trkpt lat="46.73037" lon="-0.15537">
        <ele>153.09</ele>
        <time>2017-01-22T10:19:13.999Z</time>
      </trkpt>
      <trkpt lat="46.73032" lon="-0.1555">
        <ele>153.04</ele>
        <time>2017-01-22T10:19:15.999Z</time>
      </trkpt>
      <trkpt lat="46.73025" lon="-0.15563">
        <ele>152.93</ele>
        <time>2017-01-22T10:19:17.999Z</time>
      </trkpt>
      <trkpt lat="46.73018" lon="-0.15575">
        <ele>152.81</ele>
        <time>2017-01-22T10:19:19.999Z</time>
      </trkpt>
      <trkpt lat="46.73011" lon="-0.15587">
        <ele>152.64</ele>
        <time>2017-01-22T10:19:21.999Z</time>
      </trkpt>
      <trkpt lat="46.73003" lon="-0.15599">
        <ele>152.48</ele>
        <time>2017-01-22T10:19:24.999Z</time>
      </trkpt>
      <trkpt lat="46.72993" lon="-0.15611">
        <ele>152.37</ele>
        <time>2017-01-22T10:19:27.999Z</time>
      </trkpt>
      <trkpt lat="46.72984" lon="-0.15621">
        <ele>152.33</ele>
        <time>2017-01-22T10:19:30.999Z</time>
      </trkpt>
      <trkpt lat="46.72976" lon="-0.15631">
        <ele>152.31</ele>
        <time>2017-01-22T10:19:33.999Z</time>
      </trkpt>
      <trkpt lat="46.72969" lon="-0.15641">
        <ele>152.3</ele>
        <time>2017-01-22T10:19:36.999Z</time>
      </trkpt>
      <trkpt lat="46.7296" lon="-0.1565">
        <ele>152.27</ele>
        <time>2017-01-22T10:19:39.999Z</time>
      </trkpt>
      <trkpt lat="46.72954" lon="-0.15666">
        <ele>152</ele>
        <time>2017-01-22T10:19:42.999Z</time>
      </trkpt>
      <trkpt lat="46.72947" lon="-0.15682">
        <ele>151.96</ele>
        <time>2017-01-22T10:19:45.999Z</time>
      </trkpt>
      <trkpt lat="46.72938" lon="-0.15686">
        <ele>151.95</ele>
        <time>2017-01-22T10:19:48.999Z</time>
      </trkpt>
      <trkpt lat="46.72926" lon="-0.15686">
        <ele>151.94</ele>
        <time>2017-01-22T10:19:51.999Z</time>
      </trkpt>
      <trkpt lat="46.72919" lon="-0.15697">
        <ele>151.94</ele>
        <time>2017-01-22T10:19:54.999Z</time>
      </trkpt>
      <trkpt lat="46.72914" lon="-0.15715">
        <ele>151.96</ele>
        <time>2017-01-22T10:19:57.999Z</time>
      </trkpt>
      <trkpt lat="46.72909" lon="-0.15732">
        <ele>151.96</ele>
        <time>2017-01-22T10:20:00.999Z</time>
      </trkpt>
      <trkpt lat="46.72905" lon="-0.15747">
        <ele>151.98</ele>
        <time>2017-01-22T10:20:03.999Z</time>
      </trkpt>
      <trkpt lat="46.72901" lon="-0.15761">
        <ele>151.98</ele>
        <time>2017-01-22T10:20:06.999Z</time>
      </trkpt>
      <trkpt lat="46.72898" lon="-0.15775">
        <ele>152</ele>
        <time>2017-01-22T10:20:09.999Z</time>
      </trkpt>
      <trkpt lat="46.72895" lon="-0.15792">
        <ele>152.04</ele>
        <time>2017-01-22T10:20:13.999Z</time>
      </trkpt>
      <trkpt lat="46.72894" lon="-0.15807">
        <ele>152.09</ele>
        <time>2017-01-22T10:20:17.999Z</time>
      </trkpt>
      <trkpt lat="46.72892" lon="-0.15824">
        <ele>152.15</ele>
        <time>2017-01-22T10:20:21.999Z</time>
      </trkpt>
      <trkpt lat="46.72891" lon="-0.15841">
        <ele>152.21</ele>
        <time>2017-01-22T10:20:25.999Z</time>
      </trkpt>
      <trkpt lat="46.72888" lon="-0.15853">
        <ele>152.26</ele>
        <time>2017-01-22T10:20:28.999Z</time>
      </trkpt>
      <trkpt lat="46.72886" lon="-0.15866">
        <ele>152.31</ele>
        <time>2017-01-22T10:20:31.999Z</time>
      </trkpt>
      <trkpt lat="46.72884" lon="-0.15879">
        <ele>152.36</ele>
        <time>2017-01-22T10:20:34.999Z</time>
      </trkpt>
      <trkpt lat="46.72884" lon="-0.15894">
        <ele>152.45</ele>
        <time>2017-01-22T10:20:37.999Z</time>
      </trkpt>
      <trkpt lat="46.72882" lon="-0.15907">
        <ele>152.53</ele>
        <time>2017-01-22T10:20:40.999Z</time>
      </trkpt>
      <trkpt lat="46.72881" lon="-0.15922">
        <ele>152.62</ele>
        <time>2017-01-22T10:20:43.999Z</time>
      </trkpt>
      <trkpt lat="46.7288" lon="-0.15937">
        <ele>153.32</ele>
        <time>2017-01-22T10:20:46.999Z</time>
      </trkpt>
      <trkpt lat="46.72878" lon="-0.15954">
        <ele>153.59</ele>
        <time>2017-01-22T10:20:49.999Z</time>
      </trkpt>
      <trkpt lat="46.72877" lon="-0.1597">
        <ele>153.68</ele>
        <time>2017-01-22T10:20:52.999Z</time>
      </trkpt>
      <trkpt lat="46.72877" lon="-0.15984">
        <ele>153.79</ele>
        <time>2017-01-22T10:20:55.999Z</time>
      </trkpt>
      <trkpt lat="46.72876" lon="-0.15998">
        <ele>153.91</ele>
        <time>2017-01-22T10:20:58.999Z</time>
      </trkpt>
      <trkpt lat="46.72875" lon="-0.16013">
        <ele>154.02</ele>
        <time>2017-01-22T10:21:01.999Z</time>
      </trkpt>
      <trkpt lat="46.72873" lon="-0.16027">
        <ele>154.14</ele>
        <time>2017-01-22T10:21:04.999Z</time>
      </trkpt>
      <trkpt lat="46.72871" lon="-0.16043">
        <ele>154.27</ele>
        <time>2017-01-22T10:21:07.999Z</time>
      </trkpt>
      <trkpt lat="46.7287" lon="-0.1606">
        <ele>154.38</ele>
        <time>2017-01-22T10:21:10.999Z</time>
      </trkpt>
      <trkpt lat="46.72868" lon="-0.16076">
        <ele>154.51</ele>
        <time>2017-01-22T10:21:13.999Z</time>
      </trkpt>
      <trkpt lat="46.72866" lon="-0.16094">
        <ele>155.17</ele>
        <time>2017-01-22T10:21:16.999Z</time>
      </trkpt>
      <trkpt lat="46.72863" lon="-0.1611">
        <ele>155.23</ele>
        <time>2017-01-22T10:21:19.999Z</time>
      </trkpt>
      <trkpt lat="46.72862" lon="-0.16124">
        <ele>155.28</ele>
        <time>2017-01-22T10:21:22.999Z</time>
      </trkpt>
      <trkpt lat="46.72864" lon="-0.16139">
        <ele>155.34</ele>
        <time>2017-01-22T10:21:25.999Z</time>
      </trkpt>
      <trkpt lat="46.72868" lon="-0.16155">
        <ele>156</ele>
        <time>2017-01-22T10:21:28.999Z</time>
      </trkpt>
      <trkpt lat="46.72871" lon="-0.16172">
        <ele>156.61</ele>
        <time>2017-01-22T10:21:31.999Z</time>
      </trkpt>
      <trkpt lat="46.72873" lon="-0.16188">
        <ele>157.23</ele>
        <time>2017-01-22T10:21:34.999Z</time>
      </trkpt>
      <trkpt lat="46.72875" lon="-0.16204">
        <ele>157.79</ele>
        <time>2017-01-22T10:21:37.999Z</time>
      </trkpt>
      <trkpt lat="46.72876" lon="-0.16221">
        <ele>158.5</ele>
        <time>2017-01-22T10:21:40.999Z</time>
      </trkpt>
      <trkpt lat="46.72878" lon="-0.16237">
        <ele>158.95</ele>
        <time>2017-01-22T10:21:43.999Z</time>
      </trkpt>
      <trkpt lat="46.72883" lon="-0.16251">
        <ele>159.01</ele>
        <time>2017-01-22T10:21:46.999Z</time>
      </trkpt>
      <trkpt lat="46.72891" lon="-0.16264">
        <ele>159.73</ele>
        <time>2017-01-22T10:21:49.999Z</time>
      </trkpt>
      <trkpt lat="46.72894" lon="-0.1628">
        <ele>160.26</ele>
        <time>2017-01-22T10:21:52.999Z</time>
      </trkpt>
      <trkpt lat="46.72896" lon="-0.16296">
        <ele>160.35</ele>
        <time>2017-01-22T10:21:55.999Z</time>
      </trkpt>
      <trkpt lat="46.72898" lon="-0.1631">
        <ele>160.46</ele>
        <time>2017-01-22T10:21:58.999Z</time>
      </trkpt>
      <trkpt lat="46.72899" lon="-0.16326">
        <ele>160.62</ele>
        <time>2017-01-22T10:22:02.999Z</time>
      </trkpt>
      <trkpt lat="46.72901" lon="-0.16339">
        <ele>160.75</ele>
        <time>2017-01-22T10:22:05.999Z</time>
      </trkpt>
      <trkpt lat="46.72903" lon="-0.16353">
        <ele>160.92</ele>
        <time>2017-01-22T10:22:09.999Z</time>
      </trkpt>
      <trkpt lat="46.72905" lon="-0.16367">
        <ele>161.16</ele>
        <time>2017-01-22T10:22:15.999Z</time>
      </trkpt>
      <trkpt lat="46.72915" lon="-0.16364">
        <ele>161.52</ele>
        <time>2017-01-22T10:22:31.999Z</time>
      </trkpt>
      <trkpt lat="46.72924" lon="-0.16359">
        <ele>161.64</ele>
        <time>2017-01-22T10:22:35.999Z</time>
      </trkpt>
      <trkpt lat="46.72932" lon="-0.16353">
        <ele>161.93</ele>
        <time>2017-01-22T10:22:42.999Z</time>
      </trkpt>
    </trkseg>
  </trk>
</gpx>